<?xml version='1.0' encoding='UTF-8'?><gpx version="1.1" creator="JPX - https://github.com/jenetics/jpx" xmlns="http://www.topografix.com/GPX/1/1"><trk><trkseg><trkpt lat="40.8938945" lon="14.2878772"><ele>80.0</ele><time>2026-04-17T12:44:44.761Z</time></trkpt><trkpt lat="40.8938557" lon="14.2879919"><ele>80.0</ele><time>2026-04-17T12:47:17.115Z</time></trkpt><trkpt lat="40.8938914" lon="14.2878295"><ele>80.0</ele><time>2026-04-17T12:47:23.408Z</time></trkpt><trkpt lat="40.8937633" lon="14.287725"><ele>80.0</ele><time>2026-04-17T12:47:27.305Z</time></trkpt><trkpt lat="40.8937617" lon="14.2876317"><ele>80.0</ele><time>2026-04-17T12:47:31.308Z</time></trkpt><trkpt lat="40.8938333" lon="14.2875883"><ele>80.0</ele><time>2026-04-17T12:47:34.308Z</time></trkpt><trkpt lat="40.8938433" lon="14.287455"><ele>80.0</ele><time>2026-04-17T12:47:37.308Z</time></trkpt><trkpt lat="40.89383" lon="14.287325"><ele>80.0</ele><time>2026-04-17T12:47:39.307Z</time></trkpt><trkpt lat="40.8937967" lon="14.2872067"><ele>80.0</ele><time>2026-04-17T12:47:41.306Z</time></trkpt><trkpt lat="40.893765" lon="14.2870783"><ele>80.0</ele><time>2026-04-17T12:47:43.308Z</time></trkpt><trkpt lat="40.893735" lon="14.2869467"><ele>80.0</ele><time>2026-04-17T12:47:45.308Z</time></trkpt><trkpt lat="40.8937" lon="14.28681"><ele>80.0</ele><time>2026-04-17T12:47:47.306Z</time></trkpt><trkpt lat="40.8936633" lon="14.28669"><ele>80.0</ele><time>2026-04-17T12:47:49.309Z</time></trkpt><trkpt lat="40.89362" lon="14.2865683"><ele>80.0</ele><time>2026-04-17T12:47:51.308Z</time></trkpt><trkpt lat="40.89358" lon="14.286425"><ele>80.0</ele><time>2026-04-17T12:47:53.305Z</time></trkpt><trkpt lat="40.8935383" lon="14.2863067"><ele>80.2</ele><time>2026-04-17T12:47:55.308Z</time></trkpt><trkpt lat="40.8935" lon="14.2861933"><ele>80.4</ele><time>2026-04-17T12:47:57.308Z</time></trkpt><trkpt lat="40.893465" lon="14.2860783"><ele>80.6</ele><time>2026-04-17T12:47:59.307Z</time></trkpt><trkpt lat="40.893425" lon="14.2859333"><ele>80.8</ele><time>2026-04-17T12:48:01.308Z</time></trkpt><trkpt lat="40.8933717" lon="14.2858083"><ele>81.0</ele><time>2026-04-17T12:48:03.308Z</time></trkpt><trkpt lat="40.8933133" lon="14.28568"><ele>81.8</ele><time>2026-04-17T12:48:05.308Z</time></trkpt><trkpt lat="40.8932667" lon="14.2855467"><ele>82.6</ele><time>2026-04-17T12:48:07.307Z</time></trkpt><trkpt lat="40.8932383" lon="14.285465"><ele>83.4</ele><time>2026-04-17T12:48:08.308Z</time></trkpt><trkpt lat="40.8931867" lon="14.2853317"><ele>84.2</ele><time>2026-04-17T12:48:10.308Z</time></trkpt><trkpt lat="40.893145" lon="14.2852083"><ele>85.0</ele><time>2026-04-17T12:48:12.308Z</time></trkpt><trkpt lat="40.8931017" lon="14.2850917"><ele>85.0</ele><time>2026-04-17T12:48:14.308Z</time></trkpt><trkpt lat="40.8930517" lon="14.2849783"><ele>85.0</ele><time>2026-04-17T12:48:16.308Z</time></trkpt><trkpt lat="40.8929983" lon="14.2848483"><ele>85.0</ele><time>2026-04-17T12:48:18.309Z</time></trkpt><trkpt lat="40.892935" lon="14.2847183"><ele>85.0</ele><time>2026-04-17T12:48:20.308Z</time></trkpt><trkpt lat="40.892865" lon="14.2846083"><ele>85.0</ele><time>2026-04-17T12:48:22.307Z</time></trkpt><trkpt lat="40.8928017" lon="14.28448"><ele>85.2</ele><time>2026-04-17T12:48:24.309Z</time></trkpt><trkpt lat="40.8927667" lon="14.28441"><ele>85.4</ele><time>2026-04-17T12:48:25.308Z</time></trkpt><trkpt lat="40.8926983" lon="14.284295"><ele>85.6</ele><time>2026-04-17T12:48:27.308Z</time></trkpt><trkpt lat="40.8926233" lon="14.284195"><ele>85.8</ele><time>2026-04-17T12:48:29.308Z</time></trkpt><trkpt lat="40.8925517" lon="14.2840917"><ele>86.0</ele><time>2026-04-17T12:48:31.308Z</time></trkpt><trkpt lat="40.8924733" lon="14.2840017"><ele>85.8</ele><time>2026-04-17T12:48:33.308Z</time></trkpt><trkpt lat="40.8923867" lon="14.28393"><ele>85.6</ele><time>2026-04-17T12:48:35.309Z</time></trkpt><trkpt lat="40.8923067" lon="14.2838517"><ele>85.4</ele><time>2026-04-17T12:48:37.308Z</time></trkpt><trkpt lat="40.892265" lon="14.2837583"><ele>85.2</ele><time>2026-04-17T12:48:38.309Z</time></trkpt><trkpt lat="40.89218" lon="14.2836483"><ele>85.0</ele><time>2026-04-17T12:48:40.308Z</time></trkpt><trkpt lat="40.8920933" lon="14.2835517"><ele>85.0</ele><time>2026-04-17T12:48:42.308Z</time></trkpt><trkpt lat="40.891995" lon="14.2834733"><ele>85.0</ele><time>2026-04-17T12:48:44.308Z</time></trkpt><trkpt lat="40.8918867" lon="14.283405"><ele>85.0</ele><time>2026-04-17T12:48:46.307Z</time></trkpt><trkpt lat="40.891815" lon="14.283365"><ele>85.0</ele><time>2026-04-17T12:48:47.308Z</time></trkpt><trkpt lat="40.891715" lon="14.2833167"><ele>85.0</ele><time>2026-04-17T12:48:49.309Z</time></trkpt><trkpt lat="40.8916217" lon="14.2832383"><ele>84.8</ele><time>2026-04-17T12:48:51.308Z</time></trkpt><trkpt lat="40.8915317" lon="14.2831667"><ele>84.6</ele><time>2026-04-17T12:48:53.307Z</time></trkpt><trkpt lat="40.8914317" lon="14.28311"><ele>84.4</ele><time>2026-04-17T12:48:55.307Z</time></trkpt><trkpt lat="40.89134" lon="14.2830583"><ele>84.2</ele><time>2026-04-17T12:48:57.308Z</time></trkpt><trkpt lat="40.8912517" lon="14.2830167"><ele>84.0</ele><time>2026-04-17T12:48:59.308Z</time></trkpt><trkpt lat="40.89116" lon="14.2829783"><ele>84.6</ele><time>2026-04-17T12:49:01.307Z</time></trkpt><trkpt lat="40.8910783" lon="14.2829183"><ele>85.2</ele><time>2026-04-17T12:49:03.308Z</time></trkpt><trkpt lat="40.8909717" lon="14.2828633"><ele>85.8</ele><time>2026-04-17T12:49:05.308Z</time></trkpt><trkpt lat="40.890885" lon="14.2828283"><ele>86.39999999999999</ele><time>2026-04-17T12:49:07.309Z</time></trkpt><trkpt lat="40.8907933" lon="14.2827967"><ele>87.0</ele><time>2026-04-17T12:49:09.309Z</time></trkpt><trkpt lat="40.8907067" lon="14.282755"><ele>87.16666666666667</ele><time>2026-04-17T12:49:11.308Z</time></trkpt><trkpt lat="40.89062" lon="14.2827383"><ele>87.33333333333333</ele><time>2026-04-17T12:49:13.307Z</time></trkpt><trkpt lat="40.8905117" lon="14.2827367"><ele>87.5</ele><time>2026-04-17T12:49:15.309Z</time></trkpt><trkpt lat="40.890435" lon="14.2827183"><ele>87.66666666666666</ele><time>2026-04-17T12:49:16.308Z</time></trkpt><trkpt lat="40.8903717" lon="14.28271"><ele>87.83333333333333</ele><time>2026-04-17T12:49:17.308Z</time></trkpt><trkpt lat="40.8903033" lon="14.2827017"><ele>88.0</ele><time>2026-04-17T12:49:18.308Z</time></trkpt><trkpt lat="40.89023" lon="14.2826917"><ele>88.0</ele><time>2026-04-17T12:49:19.308Z</time></trkpt><trkpt lat="40.890155" lon="14.2826783"><ele>88.0</ele><time>2026-04-17T12:49:20.308Z</time></trkpt><trkpt lat="40.8900883" lon="14.2826683"><ele>88.0</ele><time>2026-04-17T12:49:21.307Z</time></trkpt><trkpt lat="40.8899783" lon="14.2826383"><ele>88.0</ele><time>2026-04-17T12:49:23.308Z</time></trkpt><trkpt lat="40.8898967" lon="14.2826167"><ele>88.0</ele><time>2026-04-17T12:49:25.308Z</time></trkpt><trkpt lat="40.88979" lon="14.282605"><ele>88.0</ele><time>2026-04-17T12:49:26.308Z</time></trkpt><trkpt lat="40.8897633" lon="14.2825217"><ele>87.66666666666666</ele><time>2026-04-17T12:49:28.309Z</time></trkpt><trkpt lat="40.8898167" lon="14.2824617"><ele>87.33333333333333</ele><time>2026-04-17T12:49:30.307Z</time></trkpt><trkpt lat="40.88989" lon="14.2823917"><ele>87.0</ele><time>2026-04-17T12:49:32.307Z</time></trkpt><trkpt lat="40.88996" lon="14.2823333"><ele>86.66666666666667</ele><time>2026-04-17T12:49:34.308Z</time></trkpt><trkpt lat="40.8900383" lon="14.2822733"><ele>86.33333333333334</ele><time>2026-04-17T12:49:36.309Z</time></trkpt><trkpt lat="40.8901117" lon="14.2821917"><ele>86.0</ele><time>2026-04-17T12:49:38.306Z</time></trkpt><trkpt lat="40.8901683" lon="14.2820933"><ele>86.0</ele><time>2026-04-17T12:49:40.309Z</time></trkpt><trkpt lat="40.8901817" lon="14.2819867"><ele>86.0</ele><time>2026-04-17T12:49:42.308Z</time></trkpt><trkpt lat="40.8901533" lon="14.28189"><ele>86.0</ele><time>2026-04-17T12:49:44.308Z</time></trkpt><trkpt lat="40.8901033" lon="14.2818133"><ele>86.0</ele><time>2026-04-17T12:49:46.307Z</time></trkpt><trkpt lat="40.8900533" lon="14.28174"><ele>86.0</ele><time>2026-04-17T12:49:48.307Z</time></trkpt><trkpt lat="40.8899983" lon="14.2816533"><ele>86.0</ele><time>2026-04-17T12:49:50.308Z</time></trkpt><trkpt lat="40.8899467" lon="14.28156"><ele>86.0</ele><time>2026-04-17T12:49:52.307Z</time></trkpt><trkpt lat="40.8899" lon="14.28147"><ele>86.0</ele><time>2026-04-17T12:49:54.309Z</time></trkpt><trkpt lat="40.88986" lon="14.2813617"><ele>86.0</ele><time>2026-04-17T12:49:56.307Z</time></trkpt><trkpt lat="40.8898583" lon="14.2812483"><ele>86.0</ele><time>2026-04-17T12:49:58.306Z</time></trkpt><trkpt lat="40.8899317" lon="14.28118"><ele>86.0</ele><time>2026-04-17T12:50:00.308Z</time></trkpt><trkpt lat="40.8900167" lon="14.2811067"><ele>85.8</ele><time>2026-04-17T12:50:02.308Z</time></trkpt><trkpt lat="40.89011" lon="14.2810367"><ele>85.6</ele><time>2026-04-17T12:50:04.306Z</time></trkpt><trkpt lat="40.8902083" lon="14.280965"><ele>85.4</ele><time>2026-04-17T12:50:06.309Z</time></trkpt><trkpt lat="40.890305" lon="14.2808783"><ele>85.2</ele><time>2026-04-17T12:50:08.308Z</time></trkpt><trkpt lat="40.8903917" lon="14.2807983"><ele>85.0</ele><time>2026-04-17T12:50:10.306Z</time></trkpt><trkpt lat="40.8904833" lon="14.2807183"><ele>85.0</ele><time>2026-04-17T12:50:12.309Z</time></trkpt><trkpt lat="40.8905683" lon="14.28063"><ele>85.0</ele><time>2026-04-17T12:50:14.307Z</time></trkpt><trkpt lat="40.890655" lon="14.2805467"><ele>85.0</ele><time>2026-04-17T12:50:16.308Z</time></trkpt><trkpt lat="40.8907433" lon="14.2804567"><ele>85.0</ele><time>2026-04-17T12:50:18.308Z</time></trkpt><trkpt lat="40.89083" lon="14.2803733"><ele>85.0</ele><time>2026-04-17T12:50:20.308Z</time></trkpt><trkpt lat="40.8909167" lon="14.2802817"><ele>85.4</ele><time>2026-04-17T12:50:22.308Z</time></trkpt><trkpt lat="40.8910067" lon="14.280195"><ele>85.8</ele><time>2026-04-17T12:50:24.309Z</time></trkpt><trkpt lat="40.891095" lon="14.28011"><ele>86.19999999999999</ele><time>2026-04-17T12:50:26.309Z</time></trkpt><trkpt lat="40.89118" lon="14.28003"><ele>86.6</ele><time>2026-04-17T12:50:28.309Z</time></trkpt><trkpt lat="40.8912683" lon="14.279945"><ele>87.0</ele><time>2026-04-17T12:50:30.309Z</time></trkpt><trkpt lat="40.891345" lon="14.2798667"><ele>87.0</ele><time>2026-04-17T12:50:32.308Z</time></trkpt><trkpt lat="40.8914267" lon="14.27978"><ele>87.0</ele><time>2026-04-17T12:50:34.308Z</time></trkpt><trkpt lat="40.8915083" lon="14.2797067"><ele>87.0</ele><time>2026-04-17T12:50:36.309Z</time></trkpt><trkpt lat="40.891595" lon="14.2796317"><ele>87.0</ele><time>2026-04-17T12:50:38.309Z</time></trkpt><trkpt lat="40.8916817" lon="14.27955"><ele>87.0</ele><time>2026-04-17T12:50:40.309Z</time></trkpt><trkpt lat="40.89177" lon="14.2794667"><ele>87.5</ele><time>2026-04-17T12:50:42.31Z</time></trkpt><trkpt lat="40.8918317" lon="14.2793867"><ele>88.0</ele><time>2026-04-17T12:50:44.309Z</time></trkpt><trkpt lat="40.89182" lon="14.279275"><ele>88.5</ele><time>2026-04-17T12:50:47.308Z</time></trkpt><trkpt lat="40.89175" lon="14.2791867"><ele>89.0</ele><time>2026-04-17T12:50:50.309Z</time></trkpt><trkpt lat="40.891695" lon="14.279125"><ele>89.5</ele><time>2026-04-17T12:50:52.309Z</time></trkpt><trkpt lat="40.89162" lon="14.2790633"><ele>90.0</ele><time>2026-04-17T12:50:54.308Z</time></trkpt><trkpt lat="40.8915217" lon="14.2790083"><ele>90.0</ele><time>2026-04-17T12:50:56.309Z</time></trkpt><trkpt lat="40.8914183" lon="14.2789433"><ele>90.0</ele><time>2026-04-17T12:50:58.307Z</time></trkpt><trkpt lat="40.89131" lon="14.2788817"><ele>90.0</ele><time>2026-04-17T12:51:00.309Z</time></trkpt><trkpt lat="40.89121" lon="14.2788167"><ele>90.0</ele><time>2026-04-17T12:51:02.308Z</time></trkpt><trkpt lat="40.8911" lon="14.2787667"><ele>90.6</ele><time>2026-04-17T12:51:04.307Z</time></trkpt><trkpt lat="40.8910017" lon="14.27872"><ele>91.2</ele><time>2026-04-17T12:51:06.307Z</time></trkpt><trkpt lat="40.8909033" lon="14.278675"><ele>91.80000000000001</ele><time>2026-04-17T12:51:08.309Z</time></trkpt><trkpt lat="40.8907983" lon="14.27864"><ele>92.4</ele><time>2026-04-17T12:51:10.308Z</time></trkpt><trkpt lat="40.89069" lon="14.2786017"><ele>93.0</ele><time>2026-04-17T12:51:12.309Z</time></trkpt><trkpt lat="40.8905867" lon="14.2785567"><ele>93.0</ele><time>2026-04-17T12:51:14.309Z</time></trkpt><trkpt lat="40.890485" lon="14.27851"><ele>93.0</ele><time>2026-04-17T12:51:16.308Z</time></trkpt><trkpt lat="40.8904017" lon="14.2784567"><ele>93.0</ele><time>2026-04-17T12:51:18.309Z</time></trkpt><trkpt lat="40.8903167" lon="14.2784167"><ele>93.0</ele><time>2026-04-17T12:51:20.308Z</time></trkpt><trkpt lat="40.8902367" lon="14.278355"><ele>93.0</ele><time>2026-04-17T12:51:22.309Z</time></trkpt><trkpt lat="40.8901633" lon="14.2782967"><ele>92.85714285714286</ele><time>2026-04-17T12:51:24.308Z</time></trkpt><trkpt lat="40.89009" lon="14.2782583"><ele>92.71428571428572</ele><time>2026-04-17T12:51:27.31Z</time></trkpt><trkpt lat="40.89002" lon="14.2782933"><ele>92.57142857142858</ele><time>2026-04-17T12:51:28.309Z</time></trkpt><trkpt lat="40.8899717" lon="14.278225"><ele>92.42857142857143</ele><time>2026-04-17T12:51:32.306Z</time></trkpt><trkpt lat="40.8899217" lon="14.2781717"><ele>92.28571428571428</ele><time>2026-04-17T12:51:34.308Z</time></trkpt><trkpt lat="40.8898567" lon="14.2781183"><ele>92.14285714285715</ele><time>2026-04-17T12:51:36.306Z</time></trkpt><trkpt lat="40.8897883" lon="14.278075"><ele>92.0</ele><time>2026-04-17T12:51:38.308Z</time></trkpt><trkpt lat="40.8897183" lon="14.27804"><ele>92.0</ele><time>2026-04-17T12:51:40.308Z</time></trkpt><trkpt lat="40.8896417" lon="14.2779933"><ele>92.0</ele><time>2026-04-17T12:51:42.308Z</time></trkpt><trkpt lat="40.8895483" lon="14.2779717"><ele>92.0</ele><time>2026-04-17T12:51:44.31Z</time></trkpt><trkpt lat="40.88946" lon="14.277955"><ele>92.0</ele><time>2026-04-17T12:51:46.307Z</time></trkpt><trkpt lat="40.88937" lon="14.2779267"><ele>92.0</ele><time>2026-04-17T12:51:48.309Z</time></trkpt><trkpt lat="40.8892817" lon="14.27791"><ele>91.6</ele><time>2026-04-17T12:51:50.309Z</time></trkpt><trkpt lat="40.88919" lon="14.27787"><ele>91.19999999999999</ele><time>2026-04-17T12:51:52.309Z</time></trkpt><trkpt lat="40.8890817" lon="14.2778333"><ele>90.8</ele><time>2026-04-17T12:51:54.309Z</time></trkpt><trkpt lat="40.8889917" lon="14.2777967"><ele>90.4</ele><time>2026-04-17T12:51:56.309Z</time></trkpt><trkpt lat="40.8889033" lon="14.277725"><ele>90.0</ele><time>2026-04-17T12:51:58.308Z</time></trkpt><trkpt lat="40.8888267" lon="14.277655"><ele>90.0</ele><time>2026-04-17T12:52:00.309Z</time></trkpt><trkpt lat="40.8887233" lon="14.2776067"><ele>90.0</ele><time>2026-04-17T12:52:02.309Z</time></trkpt><trkpt lat="40.8886283" lon="14.2775567"><ele>90.0</ele><time>2026-04-17T12:52:04.309Z</time></trkpt><trkpt lat="40.88854" lon="14.2775183"><ele>90.0</ele><time>2026-04-17T12:52:06.31Z</time></trkpt><trkpt lat="40.8884667" lon="14.2774617"><ele>90.0</ele><time>2026-04-17T12:52:08.309Z</time></trkpt><trkpt lat="40.8884067" lon="14.27736"><ele>90.0</ele><time>2026-04-17T12:52:10.308Z</time></trkpt><trkpt lat="40.888335" lon="14.2772883"><ele>90.0</ele><time>2026-04-17T12:52:12.309Z</time></trkpt><trkpt lat="40.8882467" lon="14.2772133"><ele>90.0</ele><time>2026-04-17T12:52:14.309Z</time></trkpt><trkpt lat="40.8881533" lon="14.2771283"><ele>90.0</ele><time>2026-04-17T12:52:16.307Z</time></trkpt><trkpt lat="40.8880533" lon="14.27705"><ele>90.0</ele><time>2026-04-17T12:52:18.309Z</time></trkpt><trkpt lat="40.8879517" lon="14.2769783"><ele>90.0</ele><time>2026-04-17T12:52:20.309Z</time></trkpt><trkpt lat="40.8878433" lon="14.2769083"><ele>90.0</ele><time>2026-04-17T12:52:22.308Z</time></trkpt><trkpt lat="40.88773" lon="14.2768417"><ele>90.0</ele><time>2026-04-17T12:52:24.309Z</time></trkpt><trkpt lat="40.8876233" lon="14.2767783"><ele>90.0</ele><time>2026-04-17T12:52:26.308Z</time></trkpt><trkpt lat="40.887515" lon="14.2767183"><ele>90.0</ele><time>2026-04-17T12:52:28.308Z</time></trkpt><trkpt lat="40.8874033" lon="14.2766533"><ele>90.0</ele><time>2026-04-17T12:52:30.308Z</time></trkpt><trkpt lat="40.8873067" lon="14.2765767"><ele>90.0</ele><time>2026-04-17T12:52:32.308Z</time></trkpt><trkpt lat="40.8872133" lon="14.276495"><ele>90.0</ele><time>2026-04-17T12:52:34.305Z</time></trkpt><trkpt lat="40.8871167" lon="14.2764133"><ele>90.0</ele><time>2026-04-17T12:52:36.307Z</time></trkpt><trkpt lat="40.8870133" lon="14.2763417"><ele>90.0</ele><time>2026-04-17T12:52:38.308Z</time></trkpt><trkpt lat="40.8869133" lon="14.2762633"><ele>90.0</ele><time>2026-04-17T12:52:40.307Z</time></trkpt><trkpt lat="40.886855" lon="14.276225"><ele>90.0</ele><time>2026-04-17T12:52:41.308Z</time></trkpt><trkpt lat="40.8867967" lon="14.2761833"><ele>90.0</ele><time>2026-04-17T12:52:42.308Z</time></trkpt><trkpt lat="40.88674" lon="14.27614"><ele>90.0</ele><time>2026-04-17T12:52:43.308Z</time></trkpt><trkpt lat="40.8866367" lon="14.2760567"><ele>90.0</ele><time>2026-04-17T12:52:45.307Z</time></trkpt><trkpt lat="40.886535" lon="14.27597"><ele>90.0</ele><time>2026-04-17T12:52:47.309Z</time></trkpt><trkpt lat="40.8864783" lon="14.2759283"><ele>90.0</ele><time>2026-04-17T12:52:48.309Z</time></trkpt><trkpt lat="40.8863767" lon="14.27585"><ele>90.0</ele><time>2026-04-17T12:52:50.309Z</time></trkpt><trkpt lat="40.886275" lon="14.2757667"><ele>90.0</ele><time>2026-04-17T12:52:52.306Z</time></trkpt><trkpt lat="40.886175" lon="14.2756883"><ele>90.0</ele><time>2026-04-17T12:52:54.307Z</time></trkpt><trkpt lat="40.8860817" lon="14.2756167"><ele>90.0</ele><time>2026-04-17T12:52:56.308Z</time></trkpt><trkpt lat="40.8859867" lon="14.2755283"><ele>90.0</ele><time>2026-04-17T12:52:58.307Z</time></trkpt><trkpt lat="40.88589" lon="14.275445"><ele>90.0</ele><time>2026-04-17T12:53:00.307Z</time></trkpt><trkpt lat="40.8858333" lon="14.2754033"><ele>90.0</ele><time>2026-04-17T12:53:02.308Z</time></trkpt><trkpt lat="40.8857633" lon="14.2753933"><ele>90.4</ele><time>2026-04-17T12:53:32.308Z</time></trkpt><trkpt lat="40.885695" lon="14.2753183"><ele>90.8</ele><time>2026-04-17T12:53:35.307Z</time></trkpt><trkpt lat="40.88563" lon="14.2752667"><ele>91.19999999999999</ele><time>2026-04-17T12:53:37.307Z</time></trkpt><trkpt lat="40.8855533" lon="14.2752067"><ele>91.6</ele><time>2026-04-17T12:53:39.306Z</time></trkpt><trkpt lat="40.8854767" lon="14.2751217"><ele>92.0</ele><time>2026-04-17T12:53:41.307Z</time></trkpt><trkpt lat="40.8853867" lon="14.2750467"><ele>92.0</ele><time>2026-04-17T12:53:43.308Z</time></trkpt><trkpt lat="40.8852967" lon="14.2749633"><ele>92.0</ele><time>2026-04-17T12:53:45.308Z</time></trkpt><trkpt lat="40.885205" lon="14.2748733"><ele>92.0</ele><time>2026-04-17T12:53:47.308Z</time></trkpt><trkpt lat="40.88511" lon="14.2747833"><ele>92.0</ele><time>2026-04-17T12:53:49.306Z</time></trkpt><trkpt lat="40.8850083" lon="14.2746917"><ele>91.75</ele><time>2026-04-17T12:53:51.305Z</time></trkpt><trkpt lat="40.8849167" lon="14.2746017"><ele>91.5</ele><time>2026-04-17T12:53:53.307Z</time></trkpt><trkpt lat="40.884825" lon="14.2745133"><ele>91.25</ele><time>2026-04-17T12:53:55.307Z</time></trkpt><trkpt lat="40.8847283" lon="14.2744267"><ele>91.0</ele><time>2026-04-17T12:53:57.305Z</time></trkpt><trkpt lat="40.884635" lon="14.2743417"><ele>91.0</ele><time>2026-04-17T12:53:59.306Z</time></trkpt><trkpt lat="40.88455" lon="14.2742383"><ele>91.0</ele><time>2026-04-17T12:54:01.306Z</time></trkpt><trkpt lat="40.8844617" lon="14.2741383"><ele>91.0</ele><time>2026-04-17T12:54:03.306Z</time></trkpt><trkpt lat="40.88437" lon="14.2740417"><ele>91.0</ele><time>2026-04-17T12:54:05.307Z</time></trkpt><trkpt lat="40.8842733" lon="14.2739483"><ele>91.75</ele><time>2026-04-17T12:54:07.307Z</time></trkpt><trkpt lat="40.8841767" lon="14.2738567"><ele>92.5</ele><time>2026-04-17T12:54:09.308Z</time></trkpt><trkpt lat="40.8840883" lon="14.2737533"><ele>93.25</ele><time>2026-04-17T12:54:11.307Z</time></trkpt><trkpt lat="40.8839867" lon="14.2736633"><ele>94.0</ele><time>2026-04-17T12:54:13.307Z</time></trkpt><trkpt lat="40.8838883" lon="14.2735733"><ele>94.0</ele><time>2026-04-17T12:54:15.308Z</time></trkpt><trkpt lat="40.8837917" lon="14.273485"><ele>94.0</ele><time>2026-04-17T12:54:17.307Z</time></trkpt><trkpt lat="40.8837" lon="14.2733867"><ele>94.0</ele><time>2026-04-17T12:54:19.308Z</time></trkpt><trkpt lat="40.883605" lon="14.2732883"><ele>94.0</ele><time>2026-04-17T12:54:21.308Z</time></trkpt><trkpt lat="40.8835117" lon="14.273185"><ele>94.5</ele><time>2026-04-17T12:54:23.308Z</time></trkpt><trkpt lat="40.8834167" lon="14.2730917"><ele>95.0</ele><time>2026-04-17T12:54:25.309Z</time></trkpt><trkpt lat="40.8833167" lon="14.273"><ele>95.5</ele><time>2026-04-17T12:54:27.308Z</time></trkpt><trkpt lat="40.8832233" lon="14.2729017"><ele>96.0</ele><time>2026-04-17T12:54:29.308Z</time></trkpt><trkpt lat="40.8831267" lon="14.2727983"><ele>96.0</ele><time>2026-04-17T12:54:31.305Z</time></trkpt><trkpt lat="40.883025" lon="14.2727017"><ele>96.0</ele><time>2026-04-17T12:54:33.307Z</time></trkpt><trkpt lat="40.8829317" lon="14.2726"><ele>96.0</ele><time>2026-04-17T12:54:35.307Z</time></trkpt><trkpt lat="40.8828283" lon="14.2725033"><ele>96.0</ele><time>2026-04-17T12:54:37.308Z</time></trkpt><trkpt lat="40.8827267" lon="14.2724033"><ele>96.0</ele><time>2026-04-17T12:54:39.308Z</time></trkpt><trkpt lat="40.8826283" lon="14.272305"><ele>96.0</ele><time>2026-04-17T12:54:41.307Z</time></trkpt><trkpt lat="40.8825767" lon="14.2722567"><ele>96.0</ele><time>2026-04-17T12:54:42.307Z</time></trkpt><trkpt lat="40.882485" lon="14.2721583"><ele>96.0</ele><time>2026-04-17T12:54:44.308Z</time></trkpt><trkpt lat="40.8823933" lon="14.272065"><ele>96.0</ele><time>2026-04-17T12:54:46.307Z</time></trkpt><trkpt lat="40.8823317" lon="14.2719417"><ele>95.33333333333333</ele><time>2026-04-17T12:54:48.306Z</time></trkpt><trkpt lat="40.8822817" lon="14.2717983"><ele>94.66666666666667</ele><time>2026-04-17T12:54:50.309Z</time></trkpt><trkpt lat="40.88224" lon="14.271735"><ele>94.0</ele><time>2026-04-17T12:54:51.307Z</time></trkpt><trkpt lat="40.882185" lon="14.27169"><ele>93.33333333333334</ele><time>2026-04-17T12:54:52.305Z</time></trkpt><trkpt lat="40.8821233" lon="14.2716567"><ele>92.66666666666667</ele><time>2026-04-17T12:54:53.308Z</time></trkpt><trkpt lat="40.8820033" lon="14.27161"><ele>92.0</ele><time>2026-04-17T12:54:55.309Z</time></trkpt><trkpt lat="40.8819417" lon="14.2715817"><ele>92.0</ele><time>2026-04-17T12:54:56.307Z</time></trkpt><trkpt lat="40.8818833" lon="14.2715433"><ele>92.0</ele><time>2026-04-17T12:54:57.308Z</time></trkpt><trkpt lat="40.881775" lon="14.2714517"><ele>92.0</ele><time>2026-04-17T12:54:59.308Z</time></trkpt><trkpt lat="40.8817217" lon="14.2713933"><ele>92.0</ele><time>2026-04-17T12:55:00.311Z</time></trkpt><trkpt lat="40.8816633" lon="14.2713367"><ele>92.0</ele><time>2026-04-17T12:55:01.307Z</time></trkpt><trkpt lat="40.8816083" lon="14.2712767"><ele>92.0</ele><time>2026-04-17T12:55:02.308Z</time></trkpt><trkpt lat="40.881555" lon="14.2712233"><ele>92.16666666666667</ele><time>2026-04-17T12:55:03.309Z</time></trkpt><trkpt lat="40.8814917" lon="14.2711917"><ele>92.33333333333334</ele><time>2026-04-17T12:55:04.308Z</time></trkpt><trkpt lat="40.8814167" lon="14.2711567"><ele>92.5</ele><time>2026-04-17T12:55:05.308Z</time></trkpt><trkpt lat="40.881335" lon="14.2711267"><ele>92.66666666666667</ele><time>2026-04-17T12:55:06.308Z</time></trkpt><trkpt lat="40.8812517" lon="14.2711067"><ele>92.83333333333333</ele><time>2026-04-17T12:55:07.307Z</time></trkpt><trkpt lat="40.88116" lon="14.2710933"><ele>93.0</ele><time>2026-04-17T12:55:08.306Z</time></trkpt><trkpt lat="40.8810717" lon="14.2710767"><ele>93.0</ele><time>2026-04-17T12:55:09.307Z</time></trkpt><trkpt lat="40.880985" lon="14.2710617"><ele>93.0</ele><time>2026-04-17T12:55:10.306Z</time></trkpt><trkpt lat="40.8809" lon="14.2710467"><ele>93.0</ele><time>2026-04-17T12:55:11.307Z</time></trkpt><trkpt lat="40.8808183" lon="14.27103"><ele>93.0</ele><time>2026-04-17T12:55:12.309Z</time></trkpt><trkpt lat="40.880735" lon="14.271015"><ele>93.0</ele><time>2026-04-17T12:55:13.307Z</time></trkpt><trkpt lat="40.88065" lon="14.2710017"><ele>93.0</ele><time>2026-04-17T12:55:14.307Z</time></trkpt><trkpt lat="40.880565" lon="14.2709867"><ele>92.83333333333333</ele><time>2026-04-17T12:55:15.309Z</time></trkpt><trkpt lat="40.8804783" lon="14.270975"><ele>92.66666666666667</ele><time>2026-04-17T12:55:16.308Z</time></trkpt><trkpt lat="40.8803983" lon="14.2709567"><ele>92.5</ele><time>2026-04-17T12:55:17.307Z</time></trkpt><trkpt lat="40.88032" lon="14.2709417"><ele>92.33333333333334</ele><time>2026-04-17T12:55:18.306Z</time></trkpt><trkpt lat="40.8802417" lon="14.2709233"><ele>92.16666666666667</ele><time>2026-04-17T12:55:19.307Z</time></trkpt><trkpt lat="40.8801667" lon="14.270905"><ele>92.0</ele><time>2026-04-17T12:55:20.307Z</time></trkpt><trkpt lat="40.8800467" lon="14.270895"><ele>91.19999999999999</ele><time>2026-04-17T12:55:22.307Z</time></trkpt><trkpt lat="40.879945" lon="14.270895"><ele>90.4</ele><time>2026-04-17T12:55:24.308Z</time></trkpt><trkpt lat="40.879845" lon="14.2708783"><ele>89.6</ele><time>2026-04-17T12:55:26.308Z</time></trkpt><trkpt lat="40.8797483" lon="14.2708517"><ele>88.80000000000001</ele><time>2026-04-17T12:55:28.307Z</time></trkpt><trkpt lat="40.8796483" lon="14.2708333"><ele>88.0</ele><time>2026-04-17T12:55:30.308Z</time></trkpt><trkpt lat="40.8795467" lon="14.2708183"><ele>88.0</ele><time>2026-04-17T12:55:32.308Z</time></trkpt><trkpt lat="40.8794333" lon="14.2708"><ele>88.0</ele><time>2026-04-17T12:55:34.309Z</time></trkpt><trkpt lat="40.87937" lon="14.270795"><ele>88.0</ele><time>2026-04-17T12:55:35.308Z</time></trkpt><trkpt lat="40.8793033" lon="14.2707883"><ele>88.0</ele><time>2026-04-17T12:55:36.308Z</time></trkpt><trkpt lat="40.87924" lon="14.2707717"><ele>88.0</ele><time>2026-04-17T12:55:37.308Z</time></trkpt><trkpt lat="40.8791783" lon="14.2707517"><ele>88.0</ele><time>2026-04-17T12:55:38.308Z</time></trkpt><trkpt lat="40.8790517" lon="14.270725"><ele>87.66666666666666</ele><time>2026-04-17T12:55:40.308Z</time></trkpt><trkpt lat="40.8789783" lon="14.2707083"><ele>87.33333333333333</ele><time>2026-04-17T12:55:41.308Z</time></trkpt><trkpt lat="40.878905" lon="14.2706917"><ele>87.0</ele><time>2026-04-17T12:55:42.308Z</time></trkpt><trkpt lat="40.87883" lon="14.270675"><ele>86.66666666666667</ele><time>2026-04-17T12:55:43.308Z</time></trkpt><trkpt lat="40.878755" lon="14.2706583"><ele>86.33333333333334</ele><time>2026-04-17T12:55:44.309Z</time></trkpt><trkpt lat="40.8786783" lon="14.270645"><ele>86.0</ele><time>2026-04-17T12:55:45.308Z</time></trkpt><trkpt lat="40.8786" lon="14.27063"><ele>86.0</ele><time>2026-04-17T12:55:46.308Z</time></trkpt><trkpt lat="40.8785217" lon="14.2706133"><ele>86.0</ele><time>2026-04-17T12:55:47.309Z</time></trkpt><trkpt lat="40.87844" lon="14.2705967"><ele>86.0</ele><time>2026-04-17T12:55:48.308Z</time></trkpt><trkpt lat="40.8783583" lon="14.2705783"><ele>86.0</ele><time>2026-04-17T12:55:49.307Z</time></trkpt><trkpt lat="40.87827" lon="14.2705617"><ele>86.0</ele><time>2026-04-17T12:55:50.307Z</time></trkpt><trkpt lat="40.8781783" lon="14.2705467"><ele>86.0</ele><time>2026-04-17T12:55:51.308Z</time></trkpt><trkpt lat="40.8780867" lon="14.27053"><ele>86.0</ele><time>2026-04-17T12:55:52.307Z</time></trkpt><trkpt lat="40.87799" lon="14.270515"><ele>86.0</ele><time>2026-04-17T12:55:53.308Z</time></trkpt><trkpt lat="40.8778917" lon="14.2704967"><ele>86.0</ele><time>2026-04-17T12:55:54.309Z</time></trkpt><trkpt lat="40.8777917" lon="14.2704817"><ele>86.0</ele><time>2026-04-17T12:55:55.307Z</time></trkpt><trkpt lat="40.87769" lon="14.2704633"><ele>86.0</ele><time>2026-04-17T12:55:56.308Z</time></trkpt><trkpt lat="40.87759" lon="14.2704433"><ele>86.0</ele><time>2026-04-17T12:55:57.309Z</time></trkpt><trkpt lat="40.87749" lon="14.2704267"><ele>86.0</ele><time>2026-04-17T12:55:58.308Z</time></trkpt><trkpt lat="40.8773867" lon="14.2704083"><ele>86.0</ele><time>2026-04-17T12:55:59.307Z</time></trkpt><trkpt lat="40.8772833" lon="14.27039"><ele>86.0</ele><time>2026-04-17T12:56:00.309Z</time></trkpt><trkpt lat="40.877175" lon="14.270375"><ele>86.0</ele><time>2026-04-17T12:56:01.308Z</time></trkpt><trkpt lat="40.877065" lon="14.2703583"><ele>86.0</ele><time>2026-04-17T12:56:02.306Z</time></trkpt><trkpt lat="40.8769533" lon="14.270345"><ele>86.0</ele><time>2026-04-17T12:56:03.307Z</time></trkpt><trkpt lat="40.8768417" lon="14.2703317"><ele>86.0</ele><time>2026-04-17T12:56:04.308Z</time></trkpt><trkpt lat="40.8767317" lon="14.27032"><ele>86.0</ele><time>2026-04-17T12:56:05.309Z</time></trkpt><trkpt lat="40.8766267" lon="14.27031"><ele>86.0</ele><time>2026-04-17T12:56:06.308Z</time></trkpt><trkpt lat="40.876535" lon="14.2702983"><ele>84.33333333333334</ele><time>2026-04-17T12:56:07.309Z</time></trkpt><trkpt lat="40.8764533" lon="14.2702867"><ele>82.66666666666667</ele><time>2026-04-17T12:56:08.308Z</time></trkpt><trkpt lat="40.8763767" lon="14.2702767"><ele>81.0</ele><time>2026-04-17T12:56:09.308Z</time></trkpt><trkpt lat="40.8763117" lon="14.2702633"><ele>79.33333333333333</ele><time>2026-04-17T12:56:10.307Z</time></trkpt><trkpt lat="40.876215" lon="14.270275"><ele>77.66666666666666</ele><time>2026-04-17T12:56:12.307Z</time></trkpt><trkpt lat="40.876125" lon="14.27027"><ele>76.0</ele><time>2026-04-17T12:56:14.306Z</time></trkpt><trkpt lat="40.8760217" lon="14.2702567"><ele>74.83333333333333</ele><time>2026-04-17T12:56:16.308Z</time></trkpt><trkpt lat="40.875895" lon="14.2702383"><ele>73.66666666666666</ele><time>2026-04-17T12:56:18.308Z</time></trkpt><trkpt lat="40.8758267" lon="14.2702283"><ele>72.5</ele><time>2026-04-17T12:56:19.307Z</time></trkpt><trkpt lat="40.875755" lon="14.270225"><ele>71.33333333333333</ele><time>2026-04-17T12:56:20.308Z</time></trkpt><trkpt lat="40.875685" lon="14.2702183"><ele>70.16666666666667</ele><time>2026-04-17T12:56:21.309Z</time></trkpt><trkpt lat="40.87561" lon="14.2702133"><ele>69.0</ele><time>2026-04-17T12:56:22.307Z</time></trkpt><trkpt lat="40.8755333" lon="14.27021"><ele>69.0</ele><time>2026-04-17T12:56:23.308Z</time></trkpt><trkpt lat="40.87545" lon="14.2702117"><ele>69.0</ele><time>2026-04-17T12:56:24.309Z</time></trkpt><trkpt lat="40.8753667" lon="14.2702217"><ele>69.0</ele><time>2026-04-17T12:56:25.308Z</time></trkpt><trkpt lat="40.8752817" lon="14.270235"><ele>69.0</ele><time>2026-04-17T12:56:26.309Z</time></trkpt><trkpt lat="40.8751983" lon="14.27025"><ele>69.0</ele><time>2026-04-17T12:56:27.307Z</time></trkpt><trkpt lat="40.8751117" lon="14.2702567"><ele>69.0</ele><time>2026-04-17T12:56:28.307Z</time></trkpt><trkpt lat="40.8750267" lon="14.2702717"><ele>68.16666666666667</ele><time>2026-04-17T12:56:29.308Z</time></trkpt><trkpt lat="40.874945" lon="14.27029"><ele>67.33333333333333</ele><time>2026-04-17T12:56:30.307Z</time></trkpt><trkpt lat="40.87486" lon="14.270315"><ele>66.5</ele><time>2026-04-17T12:56:31.309Z</time></trkpt><trkpt lat="40.8747767" lon="14.2703317"><ele>65.66666666666666</ele><time>2026-04-17T12:56:32.309Z</time></trkpt><trkpt lat="40.8746933" lon="14.27035"><ele>64.83333333333333</ele><time>2026-04-17T12:56:33.307Z</time></trkpt><trkpt lat="40.8746083" lon="14.2703683"><ele>64.0</ele><time>2026-04-17T12:56:34.308Z</time></trkpt><trkpt lat="40.8745233" lon="14.2703883"><ele>63.99999999999999</ele><time>2026-04-17T12:56:35.307Z</time></trkpt><trkpt lat="40.8744383" lon="14.27041"><ele>64.0</ele><time>2026-04-17T12:56:36.308Z</time></trkpt><trkpt lat="40.8743533" lon="14.2704317"><ele>64.0</ele><time>2026-04-17T12:56:37.307Z</time></trkpt><trkpt lat="40.8742683" lon="14.27046"><ele>64.0</ele><time>2026-04-17T12:56:38.308Z</time></trkpt><trkpt lat="40.87418" lon="14.2704883"><ele>63.99999999999999</ele><time>2026-04-17T12:56:39.307Z</time></trkpt><trkpt lat="40.8740917" lon="14.270515"><ele>64.0</ele><time>2026-04-17T12:56:40.308Z</time></trkpt><trkpt lat="40.8740033" lon="14.2705467"><ele>63.33333333333333</ele><time>2026-04-17T12:56:41.309Z</time></trkpt><trkpt lat="40.873915" lon="14.2705767"><ele>62.666666666666664</ele><time>2026-04-17T12:56:42.308Z</time></trkpt><trkpt lat="40.87383" lon="14.2706017"><ele>62.0</ele><time>2026-04-17T12:56:43.307Z</time></trkpt><trkpt lat="40.8737417" lon="14.2706267"><ele>61.33333333333333</ele><time>2026-04-17T12:56:44.309Z</time></trkpt><trkpt lat="40.8736567" lon="14.270635"><ele>60.666666666666664</ele><time>2026-04-17T12:56:45.307Z</time></trkpt><trkpt lat="40.8735767" lon="14.2706183"><ele>60.0</ele><time>2026-04-17T12:56:46.308Z</time></trkpt><trkpt lat="40.8735" lon="14.2706"><ele>59.5</ele><time>2026-04-17T12:56:47.307Z</time></trkpt><trkpt lat="40.87343" lon="14.2705717"><ele>59.0</ele><time>2026-04-17T12:56:48.308Z</time></trkpt><trkpt lat="40.8733567" lon="14.270525"><ele>58.5</ele><time>2026-04-17T12:56:49.306Z</time></trkpt><trkpt lat="40.8732733" lon="14.270475"><ele>58.0</ele><time>2026-04-17T12:56:50.309Z</time></trkpt><trkpt lat="40.8731967" lon="14.2704217"><ele>57.5</ele><time>2026-04-17T12:56:51.307Z</time></trkpt><trkpt lat="40.873115" lon="14.2703667"><ele>57.0</ele><time>2026-04-17T12:56:52.308Z</time></trkpt><trkpt lat="40.87303" lon="14.27032"><ele>57.0</ele><time>2026-04-17T12:56:53.307Z</time></trkpt><trkpt lat="40.8729467" lon="14.2702717"><ele>57.0</ele><time>2026-04-17T12:56:54.309Z</time></trkpt><trkpt lat="40.8728617" lon="14.27022"><ele>57.0</ele><time>2026-04-17T12:56:55.307Z</time></trkpt><trkpt lat="40.8727767" lon="14.27017"><ele>57.0</ele><time>2026-04-17T12:56:56.309Z</time></trkpt><trkpt lat="40.8726983" lon="14.2701267"><ele>57.0</ele><time>2026-04-17T12:56:57.308Z</time></trkpt><trkpt lat="40.8726217" lon="14.2700767"><ele>57.0</ele><time>2026-04-17T12:56:58.309Z</time></trkpt><trkpt lat="40.8725483" lon="14.2700283"><ele>55.0</ele><time>2026-04-17T12:56:59.307Z</time></trkpt><trkpt lat="40.872485" lon="14.2699883"><ele>53.0</ele><time>2026-04-17T12:57:00.308Z</time></trkpt><trkpt lat="40.872425" lon="14.2699533"><ele>51.0</ele><time>2026-04-17T12:57:01.309Z</time></trkpt><trkpt lat="40.8723233" lon="14.2698567"><ele>49.0</ele><time>2026-04-17T12:57:03.308Z</time></trkpt><trkpt lat="40.8722283" lon="14.26976"><ele>47.0</ele><time>2026-04-17T12:57:05.307Z</time></trkpt><trkpt lat="40.8721217" lon="14.269665"><ele>47.0</ele><time>2026-04-17T12:57:07.309Z</time></trkpt><trkpt lat="40.87207" lon="14.2696117"><ele>47.0</ele><time>2026-04-17T12:57:08.307Z</time></trkpt><trkpt lat="40.8720033" lon="14.2695383"><ele>47.0</ele><time>2026-04-17T12:57:09.308Z</time></trkpt><trkpt lat="40.8719417" lon="14.2694767"><ele>47.0</ele><time>2026-04-17T12:57:10.306Z</time></trkpt><trkpt lat="40.87185" lon="14.2693967"><ele>47.0</ele><time>2026-04-17T12:57:12.309Z</time></trkpt><trkpt lat="40.8717983" lon="14.2693417"><ele>47.0</ele><time>2026-04-17T12:57:13.304Z</time></trkpt><trkpt lat="40.87169" lon="14.2692533"><ele>46.285714285714285</ele><time>2026-04-17T12:57:15.309Z</time></trkpt><trkpt lat="40.8716317" lon="14.2692033"><ele>45.57142857142857</ele><time>2026-04-17T12:57:16.307Z</time></trkpt><trkpt lat="40.8715717" lon="14.2691567"><ele>44.85714285714286</ele><time>2026-04-17T12:57:17.307Z</time></trkpt><trkpt lat="40.8715083" lon="14.26911"><ele>44.14285714285714</ele><time>2026-04-17T12:57:18.309Z</time></trkpt><trkpt lat="40.8714483" lon="14.2690583"><ele>43.42857142857143</ele><time>2026-04-17T12:57:19.309Z</time></trkpt><trkpt lat="40.8713867" lon="14.26901"><ele>42.714285714285715</ele><time>2026-04-17T12:57:20.308Z</time></trkpt><trkpt lat="40.871315" lon="14.2689617"><ele>42.0</ele><time>2026-04-17T12:57:21.309Z</time></trkpt><trkpt lat="40.8712383" lon="14.2689167"><ele>42.0</ele><time>2026-04-17T12:57:22.307Z</time></trkpt><trkpt lat="40.8711667" lon="14.26887"><ele>42.0</ele><time>2026-04-17T12:57:23.307Z</time></trkpt><trkpt lat="40.871095" lon="14.26882"><ele>42.0</ele><time>2026-04-17T12:57:24.309Z</time></trkpt><trkpt lat="40.87102" lon="14.2687733"><ele>42.0</ele><time>2026-04-17T12:57:25.308Z</time></trkpt><trkpt lat="40.8709417" lon="14.2687317"><ele>42.0</ele><time>2026-04-17T12:57:26.308Z</time></trkpt><trkpt lat="40.8708683" lon="14.2686883"><ele>42.0</ele><time>2026-04-17T12:57:27.307Z</time></trkpt><trkpt lat="40.8708017" lon="14.268645"><ele>41.5</ele><time>2026-04-17T12:57:28.308Z</time></trkpt><trkpt lat="40.87073" lon="14.2685983"><ele>41.0</ele><time>2026-04-17T12:57:29.308Z</time></trkpt><trkpt lat="40.870655" lon="14.2685583"><ele>40.5</ele><time>2026-04-17T12:57:30.308Z</time></trkpt><trkpt lat="40.8705783" lon="14.26852"><ele>40.0</ele><time>2026-04-17T12:57:31.309Z</time></trkpt><trkpt lat="40.8705017" lon="14.2684867"><ele>39.5</ele><time>2026-04-17T12:57:32.308Z</time></trkpt><trkpt lat="40.8704267" lon="14.268455"><ele>39.0</ele><time>2026-04-17T12:57:33.308Z</time></trkpt><trkpt lat="40.8703517" lon="14.2684283"><ele>39.0</ele><time>2026-04-17T12:57:34.309Z</time></trkpt><trkpt lat="40.8702817" lon="14.268405"><ele>39.0</ele><time>2026-04-17T12:57:35.308Z</time></trkpt><trkpt lat="40.8702183" lon="14.2683833"><ele>39.0</ele><time>2026-04-17T12:57:36.309Z</time></trkpt><trkpt lat="40.8701017" lon="14.2683583"><ele>39.0</ele><time>2026-04-17T12:57:38.308Z</time></trkpt><trkpt lat="40.8699833" lon="14.268325"><ele>39.0</ele><time>2026-04-17T12:57:40.306Z</time></trkpt><trkpt lat="40.8698633" lon="14.2682833"><ele>38.833333333333336</ele><time>2026-04-17T12:57:42.308Z</time></trkpt><trkpt lat="40.8697417" lon="14.268225"><ele>38.666666666666664</ele><time>2026-04-17T12:57:44.307Z</time></trkpt><trkpt lat="40.8696817" lon="14.2681833"><ele>38.5</ele><time>2026-04-17T12:57:45.308Z</time></trkpt><trkpt lat="40.8696233" lon="14.2681517"><ele>38.33333333333333</ele><time>2026-04-17T12:57:46.309Z</time></trkpt><trkpt lat="40.8695633" lon="14.26812"><ele>38.166666666666664</ele><time>2026-04-17T12:57:47.308Z</time></trkpt><trkpt lat="40.8694983" lon="14.2680933"><ele>38.0</ele><time>2026-04-17T12:57:48.308Z</time></trkpt><trkpt lat="40.86943" lon="14.2680767"><ele>38.166666666666664</ele><time>2026-04-17T12:57:49.309Z</time></trkpt><trkpt lat="40.8693583" lon="14.2680617"><ele>38.33333333333333</ele><time>2026-04-17T12:57:50.308Z</time></trkpt><trkpt lat="40.8692933" lon="14.2680433"><ele>38.5</ele><time>2026-04-17T12:57:51.305Z</time></trkpt><trkpt lat="40.8691733" lon="14.2680317"><ele>38.666666666666664</ele><time>2026-04-17T12:57:53.307Z</time></trkpt><trkpt lat="40.8691067" lon="14.2680433"><ele>38.833333333333336</ele><time>2026-04-17T12:57:54.309Z</time></trkpt><trkpt lat="40.8690433" lon="14.2680467"><ele>39.0</ele><time>2026-04-17T12:57:55.308Z</time></trkpt><trkpt lat="40.868925" lon="14.268055"><ele>39.0</ele><time>2026-04-17T12:57:57.308Z</time></trkpt><trkpt lat="40.868855" lon="14.268065"><ele>39.0</ele><time>2026-04-17T12:57:58.307Z</time></trkpt><trkpt lat="40.8687833" lon="14.2680783"><ele>39.0</ele><time>2026-04-17T12:57:59.307Z</time></trkpt><trkpt lat="40.86871" lon="14.2681133"><ele>39.0</ele><time>2026-04-17T12:58:00.309Z</time></trkpt><trkpt lat="40.868645" lon="14.268135"><ele>39.0</ele><time>2026-04-17T12:58:01.308Z</time></trkpt><trkpt lat="40.86858" lon="14.26814"><ele>39.0</ele><time>2026-04-17T12:58:02.309Z</time></trkpt><trkpt lat="40.8684633" lon="14.2681633"><ele>38.2</ele><time>2026-04-17T12:58:04.306Z</time></trkpt><trkpt lat="40.8683617" lon="14.2682017"><ele>37.4</ele><time>2026-04-17T12:58:06.308Z</time></trkpt><trkpt lat="40.8682983" lon="14.26821"><ele>36.6</ele><time>2026-04-17T12:58:07.308Z</time></trkpt><trkpt lat="40.86818" lon="14.268245"><ele>35.8</ele><time>2026-04-17T12:58:09.309Z</time></trkpt><trkpt lat="40.8680717" lon="14.2682817"><ele>35.0</ele><time>2026-04-17T12:58:11.308Z</time></trkpt><trkpt lat="40.8679683" lon="14.2683267"><ele>35.0</ele><time>2026-04-17T12:58:13.306Z</time></trkpt><trkpt lat="40.8678517" lon="14.2683483"><ele>35.0</ele><time>2026-04-17T12:58:15.308Z</time></trkpt><trkpt lat="40.8677317" lon="14.2683983"><ele>35.0</ele><time>2026-04-17T12:58:17.307Z</time></trkpt><trkpt lat="40.8676683" lon="14.2684167"><ele>35.0</ele><time>2026-04-17T12:58:18.308Z</time></trkpt><trkpt lat="40.8676017" lon="14.2684367"><ele>35.0</ele><time>2026-04-17T12:58:19.308Z</time></trkpt><trkpt lat="40.8674817" lon="14.2684683"><ele>35.166666666666664</ele><time>2026-04-17T12:58:21.307Z</time></trkpt><trkpt lat="40.8673633" lon="14.2685033"><ele>35.33333333333333</ele><time>2026-04-17T12:58:23.309Z</time></trkpt><trkpt lat="40.8672967" lon="14.2685217"><ele>35.5</ele><time>2026-04-17T12:58:24.308Z</time></trkpt><trkpt lat="40.8672317" lon="14.268545"><ele>35.666666666666664</ele><time>2026-04-17T12:58:25.307Z</time></trkpt><trkpt lat="40.867165" lon="14.2685783"><ele>35.833333333333336</ele><time>2026-04-17T12:58:26.307Z</time></trkpt><trkpt lat="40.8670967" lon="14.268605"><ele>36.0</ele><time>2026-04-17T12:58:27.308Z</time></trkpt><trkpt lat="40.8670333" lon="14.2686333"><ele>36.0</ele><time>2026-04-17T12:58:28.305Z</time></trkpt><trkpt lat="40.86697" lon="14.2686583"><ele>36.0</ele><time>2026-04-17T12:58:29.309Z</time></trkpt><trkpt lat="40.8669067" lon="14.26868"><ele>36.0</ele><time>2026-04-17T12:58:30.308Z</time></trkpt><trkpt lat="40.8668433" lon="14.2687033"><ele>36.0</ele><time>2026-04-17T12:58:31.307Z</time></trkpt><trkpt lat="40.8667317" lon="14.2687517"><ele>36.0</ele><time>2026-04-17T12:58:33.307Z</time></trkpt><trkpt lat="40.866615" lon="14.268805"><ele>36.0</ele><time>2026-04-17T12:58:35.306Z</time></trkpt><trkpt lat="40.8665517" lon="14.268825"><ele>35.833333333333336</ele><time>2026-04-17T12:58:36.308Z</time></trkpt><trkpt lat="40.86649" lon="14.2688533"><ele>35.666666666666664</ele><time>2026-04-17T12:58:37.309Z</time></trkpt><trkpt lat="40.86643" lon="14.268885"><ele>35.5</ele><time>2026-04-17T12:58:38.308Z</time></trkpt><trkpt lat="40.8663683" lon="14.2689083"><ele>35.33333333333333</ele><time>2026-04-17T12:58:39.307Z</time></trkpt><trkpt lat="40.8663067" lon="14.2689417"><ele>35.166666666666664</ele><time>2026-04-17T12:58:40.308Z</time></trkpt><trkpt lat="40.8662433" lon="14.268975"><ele>35.0</ele><time>2026-04-17T12:58:41.308Z</time></trkpt><trkpt lat="40.866125" lon="14.26903"><ele>34.666666666666664</ele><time>2026-04-17T12:58:43.305Z</time></trkpt><trkpt lat="40.866065" lon="14.2690567"><ele>34.33333333333333</ele><time>2026-04-17T12:58:44.308Z</time></trkpt><trkpt lat="40.8659483" lon="14.2691167"><ele>34.0</ele><time>2026-04-17T12:58:46.308Z</time></trkpt><trkpt lat="40.8658883" lon="14.2691467"><ele>33.666666666666664</ele><time>2026-04-17T12:58:47.306Z</time></trkpt><trkpt lat="40.8658267" lon="14.269165"><ele>33.333333333333336</ele><time>2026-04-17T12:58:48.308Z</time></trkpt><trkpt lat="40.8657117" lon="14.2691883"><ele>33.0</ele><time>2026-04-17T12:58:50.309Z</time></trkpt><trkpt lat="40.8655983" lon="14.2691483"><ele>32.0</ele><time>2026-04-17T12:58:52.308Z</time></trkpt><trkpt lat="40.8654817" lon="14.2691267"><ele>30.999999999999996</ele><time>2026-04-17T12:58:54.308Z</time></trkpt><trkpt lat="40.865385" lon="14.269145"><ele>29.999999999999996</ele><time>2026-04-17T12:58:56.308Z</time></trkpt><trkpt lat="40.8653083" lon="14.2692"><ele>29.0</ele><time>2026-04-17T12:58:58.308Z</time></trkpt><trkpt lat="40.86523" lon="14.2692417"><ele>28.0</ele><time>2026-04-17T12:59:00.309Z</time></trkpt><trkpt lat="40.8651467" lon="14.2692533"><ele>28.166666666666668</ele><time>2026-04-17T12:59:02.307Z</time></trkpt><trkpt lat="40.8650533" lon="14.2692733"><ele>28.333333333333336</ele><time>2026-04-17T12:59:04.309Z</time></trkpt><trkpt lat="40.8649633" lon="14.2692833"><ele>28.5</ele><time>2026-04-17T12:59:06.307Z</time></trkpt><trkpt lat="40.8648767" lon="14.26927"><ele>28.666666666666664</ele><time>2026-04-17T12:59:08.308Z</time></trkpt><trkpt lat="40.864775" lon="14.2692783"><ele>28.833333333333332</ele><time>2026-04-17T12:59:10.306Z</time></trkpt><trkpt lat="40.8647133" lon="14.2693217"><ele>29.0</ele><time>2026-04-17T12:59:11.306Z</time></trkpt><trkpt lat="40.8645933" lon="14.26938"><ele>29.000000000000004</ele><time>2026-04-17T12:59:13.308Z</time></trkpt><trkpt lat="40.8645233" lon="14.2693983"><ele>29.0</ele><time>2026-04-17T12:59:14.307Z</time></trkpt><trkpt lat="40.8644517" lon="14.2694317"><ele>29.000000000000004</ele><time>2026-04-17T12:59:15.309Z</time></trkpt><trkpt lat="40.864385" lon="14.2694633"><ele>29.000000000000004</ele><time>2026-04-17T12:59:16.308Z</time></trkpt><trkpt lat="40.86432" lon="14.26949"><ele>29.0</ele><time>2026-04-17T12:59:17.306Z</time></trkpt><trkpt lat="40.8642533" lon="14.2695117"><ele>29.000000000000004</ele><time>2026-04-17T12:59:18.308Z</time></trkpt><trkpt lat="40.864185" lon="14.269535"><ele>29.000000000000004</ele><time>2026-04-17T12:59:19.308Z</time></trkpt><trkpt lat="40.8641133" lon="14.2695567"><ele>29.142857142857146</ele><time>2026-04-17T12:59:20.307Z</time></trkpt><trkpt lat="40.8640467" lon="14.2695783"><ele>29.285714285714285</ele><time>2026-04-17T12:59:21.308Z</time></trkpt><trkpt lat="40.8639783" lon="14.2696"><ele>29.42857142857143</ele><time>2026-04-17T12:59:22.308Z</time></trkpt><trkpt lat="40.8639117" lon="14.26962"><ele>29.571428571428573</ele><time>2026-04-17T12:59:23.306Z</time></trkpt><trkpt lat="40.8638433" lon="14.26964"><ele>29.714285714285715</ele><time>2026-04-17T12:59:24.309Z</time></trkpt><trkpt lat="40.8637783" lon="14.2696583"><ele>29.857142857142858</ele><time>2026-04-17T12:59:25.306Z</time></trkpt><trkpt lat="40.86371" lon="14.26968"><ele>30.0</ele><time>2026-04-17T12:59:26.307Z</time></trkpt><trkpt lat="40.8635983" lon="14.269715"><ele>30.0</ele><time>2026-04-17T12:59:28.308Z</time></trkpt><trkpt lat="40.863505" lon="14.269735"><ele>30.0</ele><time>2026-04-17T12:59:30.309Z</time></trkpt><trkpt lat="40.8634383" lon="14.2697383"><ele>30.0</ele><time>2026-04-17T12:59:32.307Z</time></trkpt><trkpt lat="40.8633417" lon="14.2697467"><ele>30.0</ele><time>2026-04-17T12:59:47.308Z</time></trkpt><trkpt lat="40.8632767" lon="14.2697267"><ele>30.0</ele><time>2026-04-17T12:59:50.307Z</time></trkpt><trkpt lat="40.8631817" lon="14.2697167"><ele>30.0</ele><time>2026-04-17T12:59:53.307Z</time></trkpt><trkpt lat="40.863095" lon="14.2698"><ele>29.4</ele><time>2026-04-17T12:59:55.307Z</time></trkpt><trkpt lat="40.863" lon="14.2698467"><ele>28.8</ele><time>2026-04-17T12:59:57.308Z</time></trkpt><trkpt lat="40.8629" lon="14.2698817"><ele>28.200000000000003</ele><time>2026-04-17T12:59:59.306Z</time></trkpt><trkpt lat="40.86278" lon="14.2699267"><ele>27.6</ele><time>2026-04-17T13:00:01.308Z</time></trkpt><trkpt lat="40.8627083" lon="14.2699567"><ele>27.0</ele><time>2026-04-17T13:00:02.305Z</time></trkpt><trkpt lat="40.8626367" lon="14.2699783"><ele>27.333333333333332</ele><time>2026-04-17T13:00:03.307Z</time></trkpt><trkpt lat="40.8625133" lon="14.2700067"><ele>27.666666666666664</ele><time>2026-04-17T13:00:05.306Z</time></trkpt><trkpt lat="40.862445" lon="14.2700233"><ele>28.0</ele><time>2026-04-17T13:00:06.307Z</time></trkpt><trkpt lat="40.862375" lon="14.27004"><ele>28.333333333333332</ele><time>2026-04-17T13:00:07.306Z</time></trkpt><trkpt lat="40.8623067" lon="14.2700583"><ele>28.666666666666664</ele><time>2026-04-17T13:00:08.307Z</time></trkpt><trkpt lat="40.8622383" lon="14.270075"><ele>29.0</ele><time>2026-04-17T13:00:09.306Z</time></trkpt><trkpt lat="40.8621717" lon="14.27009"><ele>28.999999999999996</ele><time>2026-04-17T13:00:10.307Z</time></trkpt><trkpt lat="40.862105" lon="14.2701117"><ele>29.0</ele><time>2026-04-17T13:00:11.306Z</time></trkpt><trkpt lat="40.8620317" lon="14.27013"><ele>29.0</ele><time>2026-04-17T13:00:12.308Z</time></trkpt><trkpt lat="40.86196" lon="14.2701467"><ele>29.0</ele><time>2026-04-17T13:00:13.306Z</time></trkpt><trkpt lat="40.8618833" lon="14.27016"><ele>28.999999999999996</ele><time>2026-04-17T13:00:14.307Z</time></trkpt><trkpt lat="40.861805" lon="14.2701783"><ele>29.0</ele><time>2026-04-17T13:00:15.308Z</time></trkpt><trkpt lat="40.8617283" lon="14.2701917"><ele>29.285714285714292</ele><time>2026-04-17T13:00:16.306Z</time></trkpt><trkpt lat="40.8616567" lon="14.2702067"><ele>29.571428571428573</ele><time>2026-04-17T13:00:17.307Z</time></trkpt><trkpt lat="40.8615833" lon="14.2702183"><ele>29.85714285714286</ele><time>2026-04-17T13:00:18.309Z</time></trkpt><trkpt lat="40.86151" lon="14.2702317"><ele>30.142857142857146</ele><time>2026-04-17T13:00:19.308Z</time></trkpt><trkpt lat="40.8614367" lon="14.270245"><ele>30.42857142857143</ele><time>2026-04-17T13:00:20.308Z</time></trkpt><trkpt lat="40.8613667" lon="14.2702533"><ele>30.714285714285715</ele><time>2026-04-17T13:00:21.308Z</time></trkpt><trkpt lat="40.8613" lon="14.2702617"><ele>31.0</ele><time>2026-04-17T13:00:22.309Z</time></trkpt><trkpt lat="40.861235" lon="14.2702717"><ele>31.000000000000004</ele><time>2026-04-17T13:00:23.306Z</time></trkpt><trkpt lat="40.8611633" lon="14.2702867"><ele>31.0</ele><time>2026-04-17T13:00:24.308Z</time></trkpt><trkpt lat="40.8610917" lon="14.270305"><ele>31.0</ele><time>2026-04-17T13:00:25.309Z</time></trkpt><trkpt lat="40.8610183" lon="14.2703217"><ele>31.0</ele><time>2026-04-17T13:00:26.309Z</time></trkpt><trkpt lat="40.8609433" lon="14.270335"><ele>31.000000000000004</ele><time>2026-04-17T13:00:27.308Z</time></trkpt><trkpt lat="40.8608583" lon="14.2703483"><ele>31.0</ele><time>2026-04-17T13:00:28.308Z</time></trkpt><trkpt lat="40.8607783" lon="14.270355"><ele>29.833333333333336</ele><time>2026-04-17T13:00:29.308Z</time></trkpt><trkpt lat="40.860715" lon="14.2703617"><ele>28.666666666666668</ele><time>2026-04-17T13:00:30.308Z</time></trkpt><trkpt lat="40.860625" lon="14.2703517"><ele>27.5</ele><time>2026-04-17T13:00:32.307Z</time></trkpt><trkpt lat="40.8605483" lon="14.27035"><ele>26.333333333333336</ele><time>2026-04-17T13:00:35.307Z</time></trkpt><trkpt lat="40.860465" lon="14.27037"><ele>25.166666666666668</ele><time>2026-04-17T13:00:40.307Z</time></trkpt><trkpt lat="40.8603883" lon="14.27037"><ele>24.0</ele><time>2026-04-17T13:00:42.308Z</time></trkpt><trkpt lat="40.8602917" lon="14.2703983"><ele>24.0</ele><time>2026-04-17T13:00:44.307Z</time></trkpt><trkpt lat="40.8601867" lon="14.27042"><ele>24.0</ele><time>2026-04-17T13:00:46.308Z</time></trkpt><trkpt lat="40.8600733" lon="14.2704367"><ele>24.0</ele><time>2026-04-17T13:00:48.308Z</time></trkpt><trkpt lat="40.8599533" lon="14.2704467"><ele>24.0</ele><time>2026-04-17T13:00:50.307Z</time></trkpt><trkpt lat="40.8598883" lon="14.2704633"><ele>24.0</ele><time>2026-04-17T13:00:51.308Z</time></trkpt><trkpt lat="40.8597667" lon="14.2704883"><ele>24.0</ele><time>2026-04-17T13:00:53.308Z</time></trkpt><trkpt lat="40.859645" lon="14.270505"><ele>24.0</ele><time>2026-04-17T13:00:55.306Z</time></trkpt><trkpt lat="40.8595233" lon="14.2705217"><ele>24.0</ele><time>2026-04-17T13:00:57.309Z</time></trkpt><trkpt lat="40.8594567" lon="14.2705333"><ele>24.0</ele><time>2026-04-17T13:00:58.309Z</time></trkpt><trkpt lat="40.85939" lon="14.270545"><ele>24.0</ele><time>2026-04-17T13:00:59.308Z</time></trkpt><trkpt lat="40.8593217" lon="14.270565"><ele>24.0</ele><time>2026-04-17T13:01:00.31Z</time></trkpt><trkpt lat="40.8592517" lon="14.2705817"><ele>23.999999999999996</ele><time>2026-04-17T13:01:01.309Z</time></trkpt><trkpt lat="40.85918" lon="14.2705983"><ele>24.0</ele><time>2026-04-17T13:01:02.309Z</time></trkpt><trkpt lat="40.859105" lon="14.270605"><ele>24.0</ele><time>2026-04-17T13:01:03.309Z</time></trkpt><trkpt lat="40.8590317" lon="14.270615"><ele>24.0</ele><time>2026-04-17T13:01:04.308Z</time></trkpt><trkpt lat="40.8589583" lon="14.270615"><ele>24.0</ele><time>2026-04-17T13:01:05.307Z</time></trkpt><trkpt lat="40.8588867" lon="14.2706183"><ele>23.999999999999996</ele><time>2026-04-17T13:01:06.308Z</time></trkpt><trkpt lat="40.8588133" lon="14.2706267"><ele>24.0</ele><time>2026-04-17T13:01:07.308Z</time></trkpt><trkpt lat="40.8587433" lon="14.27064"><ele>23.857142857142854</ele><time>2026-04-17T13:01:08.309Z</time></trkpt><trkpt lat="40.8586717" lon="14.270655"><ele>23.714285714285715</ele><time>2026-04-17T13:01:09.309Z</time></trkpt><trkpt lat="40.8586" lon="14.2706733"><ele>23.57142857142857</ele><time>2026-04-17T13:01:10.307Z</time></trkpt><trkpt lat="40.8585283" lon="14.2706883"><ele>23.428571428571427</ele><time>2026-04-17T13:01:11.308Z</time></trkpt><trkpt lat="40.8584483" lon="14.2706933"><ele>23.285714285714285</ele><time>2026-04-17T13:01:12.306Z</time></trkpt><trkpt lat="40.8583767" lon="14.2707017"><ele>23.142857142857142</ele><time>2026-04-17T13:01:13.308Z</time></trkpt><trkpt lat="40.8583133" lon="14.2707117"><ele>23.0</ele><time>2026-04-17T13:01:14.307Z</time></trkpt><trkpt lat="40.858195" lon="14.2707417"><ele>23.0</ele><time>2026-04-17T13:01:16.309Z</time></trkpt><trkpt lat="40.8580733" lon="14.270775"><ele>23.0</ele><time>2026-04-17T13:01:18.308Z</time></trkpt><trkpt lat="40.8580067" lon="14.270785"><ele>23.0</ele><time>2026-04-17T13:01:19.305Z</time></trkpt><trkpt lat="40.8579417" lon="14.2707933"><ele>23.0</ele><time>2026-04-17T13:01:20.309Z</time></trkpt><trkpt lat="40.857875" lon="14.2707933"><ele>23.0</ele><time>2026-04-17T13:01:21.308Z</time></trkpt><trkpt lat="40.85781" lon="14.270795"><ele>23.0</ele><time>2026-04-17T13:01:22.309Z</time></trkpt><trkpt lat="40.8577417" lon="14.270795"><ele>23.0</ele><time>2026-04-17T13:01:23.309Z</time></trkpt><trkpt lat="40.8576683" lon="14.2707917"><ele>23.0</ele><time>2026-04-17T13:01:24.306Z</time></trkpt><trkpt lat="40.85759" lon="14.2707983"><ele>23.0</ele><time>2026-04-17T13:01:25.309Z</time></trkpt><trkpt lat="40.857515" lon="14.2708083"><ele>23.0</ele><time>2026-04-17T13:01:26.308Z</time></trkpt><trkpt lat="40.8574383" lon="14.270815"><ele>23.0</ele><time>2026-04-17T13:01:27.308Z</time></trkpt><trkpt lat="40.857365" lon="14.270825"><ele>23.0</ele><time>2026-04-17T13:01:28.307Z</time></trkpt><trkpt lat="40.8572967" lon="14.2708367"><ele>23.0</ele><time>2026-04-17T13:01:29.309Z</time></trkpt><trkpt lat="40.85719" lon="14.2708583"><ele>22.833333333333336</ele><time>2026-04-17T13:01:31.308Z</time></trkpt><trkpt lat="40.8571233" lon="14.2708667"><ele>22.666666666666668</ele><time>2026-04-17T13:01:33.308Z</time></trkpt><trkpt lat="40.8570517" lon="14.2708533"><ele>22.5</ele><time>2026-04-17T13:01:46.308Z</time></trkpt><trkpt lat="40.85696" lon="14.2708433"><ele>22.333333333333332</ele><time>2026-04-17T13:01:49.307Z</time></trkpt><trkpt lat="40.856885" lon="14.2708933"><ele>22.166666666666664</ele><time>2026-04-17T13:01:51.309Z</time></trkpt><trkpt lat="40.8568" lon="14.270935"><ele>22.0</ele><time>2026-04-17T13:01:53.307Z</time></trkpt><trkpt lat="40.856705" lon="14.27096"><ele>21.5</ele><time>2026-04-17T13:01:55.308Z</time></trkpt><trkpt lat="40.8565967" lon="14.2709933"><ele>21.0</ele><time>2026-04-17T13:01:57.309Z</time></trkpt><trkpt lat="40.85649" lon="14.271025"><ele>20.5</ele><time>2026-04-17T13:01:59.308Z</time></trkpt><trkpt lat="40.8563767" lon="14.2710467"><ele>20.0</ele><time>2026-04-17T13:02:01.307Z</time></trkpt><trkpt lat="40.856255" lon="14.2710633"><ele>20.0</ele><time>2026-04-17T13:02:03.307Z</time></trkpt><trkpt lat="40.856145" lon="14.271085"><ele>20.0</ele><time>2026-04-17T13:02:05.308Z</time></trkpt><trkpt lat="40.85604" lon="14.271105"><ele>20.0</ele><time>2026-04-17T13:02:07.308Z</time></trkpt><trkpt lat="40.8559283" lon="14.2711083"><ele>20.0</ele><time>2026-04-17T13:02:09.308Z</time></trkpt><trkpt lat="40.8558267" lon="14.2711283"><ele>20.0</ele><time>2026-04-17T13:02:11.308Z</time></trkpt><trkpt lat="40.8557417" lon="14.271145"><ele>20.6</ele><time>2026-04-17T13:02:13.307Z</time></trkpt><trkpt lat="40.8556483" lon="14.2711533"><ele>21.2</ele><time>2026-04-17T13:02:15.309Z</time></trkpt><trkpt lat="40.85555" lon="14.271155"><ele>21.799999999999997</ele><time>2026-04-17T13:02:17.309Z</time></trkpt><trkpt lat="40.8554533" lon="14.2711633"><ele>22.4</ele><time>2026-04-17T13:02:19.307Z</time></trkpt><trkpt lat="40.855345" lon="14.27119"><ele>23.0</ele><time>2026-04-17T13:02:21.307Z</time></trkpt><trkpt lat="40.8552267" lon="14.2712067"><ele>23.0</ele><time>2026-04-17T13:02:23.308Z</time></trkpt><trkpt lat="40.8551267" lon="14.2712283"><ele>23.0</ele><time>2026-04-17T13:02:25.307Z</time></trkpt><trkpt lat="40.855015" lon="14.2712417"><ele>23.0</ele><time>2026-04-17T13:02:27.308Z</time></trkpt><trkpt lat="40.85495" lon="14.27125"><ele>23.0</ele><time>2026-04-17T13:02:28.308Z</time></trkpt><trkpt lat="40.8548867" lon="14.2712567"><ele>23.0</ele><time>2026-04-17T13:02:29.308Z</time></trkpt><trkpt lat="40.8547783" lon="14.2712733"><ele>23.333333333333336</ele><time>2026-04-17T13:02:31.308Z</time></trkpt><trkpt lat="40.8546617" lon="14.271295"><ele>23.666666666666668</ele><time>2026-04-17T13:02:33.308Z</time></trkpt><trkpt lat="40.8545617" lon="14.27131"><ele>24.0</ele><time>2026-04-17T13:02:35.307Z</time></trkpt><trkpt lat="40.854475" lon="14.2713317"><ele>24.333333333333336</ele><time>2026-04-17T13:02:37.308Z</time></trkpt><trkpt lat="40.8544033" lon="14.2713417"><ele>24.666666666666668</ele><time>2026-04-17T13:02:39.307Z</time></trkpt><trkpt lat="40.8543383" lon="14.271355"><ele>25.0</ele><time>2026-04-17T13:02:41.309Z</time></trkpt><trkpt lat="40.8542733" lon="14.2713533"><ele>24.333333333333336</ele><time>2026-04-17T13:02:43.307Z</time></trkpt><trkpt lat="40.8541867" lon="14.271365"><ele>23.666666666666668</ele><time>2026-04-17T13:02:48.307Z</time></trkpt><trkpt lat="40.854125" lon="14.2713833"><ele>23.0</ele><time>2026-04-17T13:02:50.308Z</time></trkpt><trkpt lat="40.854055" lon="14.2714017"><ele>22.333333333333336</ele><time>2026-04-17T13:02:52.308Z</time></trkpt><trkpt lat="40.8539767" lon="14.2714167"><ele>21.666666666666668</ele><time>2026-04-17T13:02:54.307Z</time></trkpt><trkpt lat="40.85389" lon="14.2714367"><ele>21.0</ele><time>2026-04-17T13:02:56.309Z</time></trkpt><trkpt lat="40.8538017" lon="14.2714583"><ele>20.6</ele><time>2026-04-17T13:02:58.308Z</time></trkpt><trkpt lat="40.8536867" lon="14.2714933"><ele>20.200000000000003</ele><time>2026-04-17T13:03:00.309Z</time></trkpt><trkpt lat="40.8535917" lon="14.2715117"><ele>19.799999999999997</ele><time>2026-04-17T13:03:02.307Z</time></trkpt><trkpt lat="40.853495" lon="14.2715267"><ele>19.4</ele><time>2026-04-17T13:03:04.305Z</time></trkpt><trkpt lat="40.853395" lon="14.2715667"><ele>19.0</ele><time>2026-04-17T13:03:06.305Z</time></trkpt><trkpt lat="40.853195" lon="14.2716017"><ele>19.0</ele><time>2026-04-17T13:03:10.309Z</time></trkpt><trkpt lat="40.8530683" lon="14.2715383"><ele>19.0</ele><time>2026-04-17T13:03:13.305Z</time></trkpt><trkpt lat="40.8530033" lon="14.27152"><ele>19.0</ele><time>2026-04-17T13:03:15.309Z</time></trkpt><trkpt lat="40.85294" lon="14.271465"><ele>19.0</ele><time>2026-04-17T13:03:17.308Z</time></trkpt><trkpt lat="40.8528683" lon="14.2714133"><ele>19.0</ele><time>2026-04-17T13:03:19.306Z</time></trkpt><trkpt lat="40.8527983" lon="14.2713433"><ele>19.0</ele><time>2026-04-17T13:03:21.305Z</time></trkpt><trkpt lat="40.8527217" lon="14.2712917"><ele>19.4</ele><time>2026-04-17T13:03:23.305Z</time></trkpt><trkpt lat="40.8526417" lon="14.2712183"><ele>19.799999999999997</ele><time>2026-04-17T13:03:25.305Z</time></trkpt><trkpt lat="40.852575" lon="14.2711117"><ele>20.200000000000003</ele><time>2026-04-17T13:03:27.305Z</time></trkpt><trkpt lat="40.8525417" lon="14.2709817"><ele>20.6</ele><time>2026-04-17T13:03:29.305Z</time></trkpt><trkpt lat="40.8525217" lon="14.2708433"><ele>21.0</ele><time>2026-04-17T13:03:31.306Z</time></trkpt><trkpt lat="40.8525033" lon="14.270705"><ele>19.400000000000002</ele><time>2026-04-17T13:03:33.305Z</time></trkpt><trkpt lat="40.852485" lon="14.2705683"><ele>17.8</ele><time>2026-04-17T13:03:35.305Z</time></trkpt><trkpt lat="40.85248" lon="14.2704383"><ele>16.200000000000003</ele><time>2026-04-17T13:03:37.305Z</time></trkpt><trkpt lat="40.852485" lon="14.2703083"><ele>14.600000000000001</ele><time>2026-04-17T13:03:39.304Z</time></trkpt><trkpt lat="40.852475" lon="14.270175"><ele>13.0</ele><time>2026-04-17T13:03:41.31Z</time></trkpt><trkpt lat="40.8524617" lon="14.2700483"><ele>13.0</ele><time>2026-04-17T13:03:43.306Z</time></trkpt><trkpt lat="40.85245" lon="14.269915"><ele>13.0</ele><time>2026-04-17T13:03:45.306Z</time></trkpt><trkpt lat="40.8524283" lon="14.2697717"><ele>13.0</ele><time>2026-04-17T13:03:47.305Z</time></trkpt><trkpt lat="40.8524133" lon="14.26963"><ele>13.0</ele><time>2026-04-17T13:03:49.305Z</time></trkpt><trkpt lat="40.852395" lon="14.2694867"><ele>13.0</ele><time>2026-04-17T13:03:51.308Z</time></trkpt><trkpt lat="40.85238" lon="14.26935"><ele>13.166666666666666</ele><time>2026-04-17T13:03:53.305Z</time></trkpt><trkpt lat="40.8523667" lon="14.2692183"><ele>13.333333333333332</ele><time>2026-04-17T13:03:55.306Z</time></trkpt><trkpt lat="40.8523533" lon="14.2690967"><ele>13.5</ele><time>2026-04-17T13:03:57.305Z</time></trkpt><trkpt lat="40.8523417" lon="14.268985"><ele>13.666666666666668</ele><time>2026-04-17T13:03:59.305Z</time></trkpt><trkpt lat="40.8523333" lon="14.2688767"><ele>13.833333333333334</ele><time>2026-04-17T13:04:01.306Z</time></trkpt><trkpt lat="40.8523167" lon="14.2687783"><ele>14.0</ele><time>2026-04-17T13:04:03.305Z</time></trkpt><trkpt lat="40.8523" lon="14.2686733"><ele>14.000000000000002</ele><time>2026-04-17T13:04:05.306Z</time></trkpt><trkpt lat="40.85229" lon="14.268575"><ele>14.0</ele><time>2026-04-17T13:04:07.304Z</time></trkpt><trkpt lat="40.8522867" lon="14.2684883"><ele>14.0</ele><time>2026-04-17T13:04:09.307Z</time></trkpt><trkpt lat="40.8522833" lon="14.2684033"><ele>14.0</ele><time>2026-04-17T13:04:11.305Z</time></trkpt><trkpt lat="40.8522467" lon="14.2683067"><ele>14.000000000000002</ele><time>2026-04-17T13:04:14.306Z</time></trkpt><trkpt lat="40.85223" lon="14.2681883"><ele>14.0</ele><time>2026-04-17T13:04:17.309Z</time></trkpt><trkpt lat="40.8521883" lon="14.2681"><ele>14.799999999999999</ele><time>2026-04-17T13:04:21.307Z</time></trkpt><trkpt lat="40.8521583" lon="14.2679817"><ele>15.599999999999998</ele><time>2026-04-17T13:04:24.307Z</time></trkpt><trkpt lat="40.852105" lon="14.2679"><ele>16.4</ele><time>2026-04-17T13:04:26.309Z</time></trkpt><trkpt lat="40.852045" lon="14.2677933"><ele>17.2</ele><time>2026-04-17T13:04:28.306Z</time></trkpt><trkpt lat="40.8519667" lon="14.2677167"><ele>18.0</ele><time>2026-04-17T13:04:30.307Z</time></trkpt><trkpt lat="40.8518617" lon="14.2677383"><ele>18.833333333333332</ele><time>2026-04-17T13:04:32.309Z</time></trkpt><trkpt lat="40.8517683" lon="14.267765"><ele>19.666666666666668</ele><time>2026-04-17T13:04:34.307Z</time></trkpt><trkpt lat="40.8516983" lon="14.267735"><ele>20.5</ele><time>2026-04-17T13:04:37.308Z</time></trkpt><trkpt lat="40.85164" lon="14.2676867"><ele>21.333333333333336</ele><time>2026-04-17T13:04:40.307Z</time></trkpt><trkpt lat="40.8515567" lon="14.26763"><ele>22.166666666666668</ele><time>2026-04-17T13:04:43.308Z</time></trkpt><trkpt lat="40.8515033" lon="14.2675633"><ele>23.0</ele><time>2026-04-17T13:04:45.307Z</time></trkpt><trkpt lat="40.85145" lon="14.2674667"><ele>23.0</ele><time>2026-04-17T13:04:47.309Z</time></trkpt><trkpt lat="40.8514033" lon="14.2673583"><ele>23.0</ele><time>2026-04-17T13:04:49.309Z</time></trkpt><trkpt lat="40.851355" lon="14.26724"><ele>23.0</ele><time>2026-04-17T13:04:51.309Z</time></trkpt><trkpt lat="40.8512917" lon="14.26712"><ele>23.0</ele><time>2026-04-17T13:04:53.309Z</time></trkpt><trkpt lat="40.8512517" lon="14.2670533"><ele>23.0</ele><time>2026-04-17T13:04:54.309Z</time></trkpt><trkpt lat="40.8512117" lon="14.266985"><ele>23.0</ele><time>2026-04-17T13:04:55.309Z</time></trkpt><trkpt lat="40.85117" lon="14.26692"><ele>23.142857142857142</ele><time>2026-04-17T13:04:56.309Z</time></trkpt><trkpt lat="40.85113" lon="14.2668467"><ele>23.285714285714285</ele><time>2026-04-17T13:04:57.308Z</time></trkpt><trkpt lat="40.851085" lon="14.2667783"><ele>23.428571428571427</ele><time>2026-04-17T13:04:58.307Z</time></trkpt><trkpt lat="40.8510417" lon="14.2667083"><ele>23.57142857142857</ele><time>2026-04-17T13:04:59.306Z</time></trkpt><trkpt lat="40.8509983" lon="14.2666333"><ele>23.714285714285715</ele><time>2026-04-17T13:05:00.309Z</time></trkpt><trkpt lat="40.8509533" lon="14.2665567"><ele>23.857142857142854</ele><time>2026-04-17T13:05:01.307Z</time></trkpt><trkpt lat="40.850905" lon="14.2664833"><ele>24.0</ele><time>2026-04-17T13:05:02.309Z</time></trkpt><trkpt lat="40.8508583" lon="14.2664117"><ele>23.666666666666668</ele><time>2026-04-17T13:05:03.309Z</time></trkpt><trkpt lat="40.850815" lon="14.2663417"><ele>23.333333333333332</ele><time>2026-04-17T13:05:04.309Z</time></trkpt><trkpt lat="40.8507717" lon="14.26627"><ele>23.0</ele><time>2026-04-17T13:05:05.308Z</time></trkpt><trkpt lat="40.85073" lon="14.2662"><ele>22.666666666666664</ele><time>2026-04-17T13:05:06.309Z</time></trkpt><trkpt lat="40.8506333" lon="14.2660983"><ele>22.333333333333332</ele><time>2026-04-17T13:05:08.31Z</time></trkpt><trkpt lat="40.8505883" lon="14.2660367"><ele>22.0</ele><time>2026-04-17T13:05:09.308Z</time></trkpt><trkpt lat="40.8505433" lon="14.265945"><ele>22.0</ele><time>2026-04-17T13:05:10.307Z</time></trkpt><trkpt lat="40.8504917" lon="14.2658717"><ele>22.0</ele><time>2026-04-17T13:05:11.305Z</time></trkpt><trkpt lat="40.8504417" lon="14.265795"><ele>22.0</ele><time>2026-04-17T13:05:12.306Z</time></trkpt><trkpt lat="40.8503783" lon="14.2657533"><ele>22.0</ele><time>2026-04-17T13:05:13.304Z</time></trkpt><trkpt lat="40.8503317" lon="14.2656783"><ele>22.0</ele><time>2026-04-17T13:05:14.307Z</time></trkpt><trkpt lat="40.8502767" lon="14.2656067"><ele>22.0</ele><time>2026-04-17T13:05:15.307Z</time></trkpt><trkpt lat="40.8502317" lon="14.2655333"><ele>22.0</ele><time>2026-04-17T13:05:16.306Z</time></trkpt><trkpt lat="40.8501817" lon="14.265455"><ele>21.8</ele><time>2026-04-17T13:05:17.306Z</time></trkpt><trkpt lat="40.8501367" lon="14.265365"><ele>21.6</ele><time>2026-04-17T13:05:18.306Z</time></trkpt><trkpt lat="40.8500933" lon="14.2652833"><ele>21.400000000000002</ele><time>2026-04-17T13:05:19.35Z</time></trkpt><trkpt lat="40.85" lon="14.265165"><ele>21.200000000000003</ele><time>2026-04-17T13:05:21.306Z</time></trkpt><trkpt lat="40.8499267" lon="14.2650583"><ele>21.0</ele><time>2026-04-17T13:05:23.305Z</time></trkpt><trkpt lat="40.849845" lon="14.2649633"><ele>21.0</ele><time>2026-04-17T13:05:25.305Z</time></trkpt><trkpt lat="40.8497767" lon="14.2648517"><ele>21.0</ele><time>2026-04-17T13:05:27.307Z</time></trkpt><trkpt lat="40.849725" lon="14.2647283"><ele>21.0</ele><time>2026-04-17T13:05:29.307Z</time></trkpt><trkpt lat="40.84966" lon="14.26462"><ele>21.0</ele><time>2026-04-17T13:05:31.306Z</time></trkpt><trkpt lat="40.8495783" lon="14.2645233"><ele>21.0</ele><time>2026-04-17T13:05:33.328Z</time></trkpt><trkpt lat="40.8495083" lon="14.2644317"><ele>21.0</ele><time>2026-04-17T13:05:35.306Z</time></trkpt><trkpt lat="40.8494317" lon="14.2643417"><ele>21.0</ele><time>2026-04-17T13:05:37.322Z</time></trkpt><trkpt lat="40.8493533" lon="14.26423"><ele>21.0</ele><time>2026-04-17T13:05:39.305Z</time></trkpt><trkpt lat="40.849285" lon="14.2641233"><ele>21.0</ele><time>2026-04-17T13:05:41.305Z</time></trkpt><trkpt lat="40.8492083" lon="14.26404"><ele>21.0</ele><time>2026-04-17T13:05:43.305Z</time></trkpt><trkpt lat="40.8491217" lon="14.263925"><ele>21.4</ele><time>2026-04-17T13:05:45.306Z</time></trkpt><trkpt lat="40.849045" lon="14.2637983"><ele>21.8</ele><time>2026-04-17T13:05:47.306Z</time></trkpt><trkpt lat="40.8489767" lon="14.26367"><ele>22.2</ele><time>2026-04-17T13:05:49.304Z</time></trkpt><trkpt lat="40.8489367" lon="14.2636"><ele>22.599999999999998</ele><time>2026-04-17T13:05:50.306Z</time></trkpt><trkpt lat="40.848865" lon="14.2634717"><ele>23.0</ele><time>2026-04-17T13:05:52.307Z</time></trkpt><trkpt lat="40.8487767" lon="14.2633583"><ele>23.0</ele><time>2026-04-17T13:05:54.306Z</time></trkpt><trkpt lat="40.848715" lon="14.2632533"><ele>23.0</ele><time>2026-04-17T13:05:56.309Z</time></trkpt><trkpt lat="40.8486483" lon="14.2631533"><ele>23.0</ele><time>2026-04-17T13:05:58.305Z</time></trkpt><trkpt lat="40.848585" lon="14.2630633"><ele>23.0</ele><time>2026-04-17T13:06:00.306Z</time></trkpt><trkpt lat="40.8485283" lon="14.262975"><ele>23.0</ele><time>2026-04-17T13:06:02.306Z</time></trkpt><trkpt lat="40.84847" lon="14.26289"><ele>23.166666666666668</ele><time>2026-04-17T13:06:04.306Z</time></trkpt><trkpt lat="40.8484217" lon="14.2627717"><ele>23.333333333333336</ele><time>2026-04-17T13:06:06.304Z</time></trkpt><trkpt lat="40.8483983" lon="14.26268"><ele>23.5</ele><time>2026-04-17T13:06:08.308Z</time></trkpt><trkpt lat="40.8483567" lon="14.2626017"><ele>23.666666666666668</ele><time>2026-04-17T13:06:10.305Z</time></trkpt><trkpt lat="40.8483083" lon="14.2625367"><ele>23.833333333333332</ele><time>2026-04-17T13:06:12.306Z</time></trkpt><trkpt lat="40.8482783" lon="14.2624367"><ele>24.0</ele><time>2026-04-17T13:06:14.311Z</time></trkpt><trkpt lat="40.84823" lon="14.262325"><ele>24.166666666666668</ele><time>2026-04-17T13:06:16.306Z</time></trkpt><trkpt lat="40.848165" lon="14.2622417"><ele>24.333333333333336</ele><time>2026-04-17T13:06:18.305Z</time></trkpt><trkpt lat="40.8480917" lon="14.262175"><ele>24.5</ele><time>2026-04-17T13:06:20.306Z</time></trkpt><trkpt lat="40.848045" lon="14.262095"><ele>24.666666666666668</ele><time>2026-04-17T13:06:22.306Z</time></trkpt><trkpt lat="40.8479917" lon="14.262"><ele>24.833333333333336</ele><time>2026-04-17T13:06:24.306Z</time></trkpt><trkpt lat="40.8479467" lon="14.2619"><ele>25.0</ele><time>2026-04-17T13:06:26.305Z</time></trkpt><trkpt lat="40.8478933" lon="14.261845"><ele>25.0</ele><time>2026-04-17T13:06:28.306Z</time></trkpt><trkpt lat="40.8477933" lon="14.2617967"><ele>25.0</ele><time>2026-04-17T13:06:30.305Z</time></trkpt><trkpt lat="40.8476883" lon="14.2617183"><ele>25.0</ele><time>2026-04-17T13:06:32.305Z</time></trkpt><trkpt lat="40.847625" lon="14.2616267"><ele>25.0</ele><time>2026-04-17T13:06:34.305Z</time></trkpt><trkpt lat="40.8475733" lon="14.2615333"><ele>25.0</ele><time>2026-04-17T13:06:36.305Z</time></trkpt><trkpt lat="40.84753" lon="14.2614283"><ele>24.8</ele><time>2026-04-17T13:06:38.306Z</time></trkpt><trkpt lat="40.8474767" lon="14.2613267"><ele>24.6</ele><time>2026-04-17T13:06:40.305Z</time></trkpt><trkpt lat="40.8474117" lon="14.2612317"><ele>24.4</ele><time>2026-04-17T13:06:42.305Z</time></trkpt><trkpt lat="40.8473517" lon="14.2611083"><ele>24.2</ele><time>2026-04-17T13:06:44.304Z</time></trkpt><trkpt lat="40.847295" lon="14.2609733"><ele>24.0</ele><time>2026-04-17T13:06:46.305Z</time></trkpt><trkpt lat="40.8472267" lon="14.2608333"><ele>24.0</ele><time>2026-04-17T13:06:48.304Z</time></trkpt><trkpt lat="40.847155" lon="14.2607117"><ele>24.0</ele><time>2026-04-17T13:06:50.305Z</time></trkpt><trkpt lat="40.8471233" lon="14.2606333"><ele>24.0</ele><time>2026-04-17T13:06:51.305Z</time></trkpt><trkpt lat="40.8470633" lon="14.26053"><ele>24.0</ele><time>2026-04-17T13:06:53.305Z</time></trkpt><trkpt lat="40.8469817" lon="14.2604317"><ele>24.0</ele><time>2026-04-17T13:06:55.305Z</time></trkpt><trkpt lat="40.846935" lon="14.2603683"><ele>24.2</ele><time>2026-04-17T13:06:56.306Z</time></trkpt><trkpt lat="40.846845" lon="14.2602633"><ele>24.4</ele><time>2026-04-17T13:06:58.306Z</time></trkpt><trkpt lat="40.8468017" lon="14.2602017"><ele>24.6</ele><time>2026-04-17T13:06:59.306Z</time></trkpt><trkpt lat="40.846755" lon="14.26014"><ele>24.8</ele><time>2026-04-17T13:07:00.305Z</time></trkpt><trkpt lat="40.8466617" lon="14.260015"><ele>25.0</ele><time>2026-04-17T13:07:02.304Z</time></trkpt><trkpt lat="40.8466183" lon="14.259945"><ele>24.42857142857143</ele><time>2026-04-17T13:07:03.304Z</time></trkpt><trkpt lat="40.8465667" lon="14.25986"><ele>23.857142857142858</ele><time>2026-04-17T13:07:04.305Z</time></trkpt><trkpt lat="40.8465167" lon="14.2597617"><ele>23.285714285714285</ele><time>2026-04-17T13:07:05.305Z</time></trkpt><trkpt lat="40.8464667" lon="14.259695"><ele>22.714285714285715</ele><time>2026-04-17T13:07:06.305Z</time></trkpt><trkpt lat="40.8464217" lon="14.2596367"><ele>22.142857142857142</ele><time>2026-04-17T13:07:07.305Z</time></trkpt><trkpt lat="40.8463733" lon="14.2595767"><ele>21.571428571428573</ele><time>2026-04-17T13:07:08.305Z</time></trkpt><trkpt lat="40.8463267" lon="14.259505"><ele>21.0</ele><time>2026-04-17T13:07:09.305Z</time></trkpt><trkpt lat="40.84629" lon="14.259435"><ele>21.0</ele><time>2026-04-17T13:07:10.305Z</time></trkpt><trkpt lat="40.84625" lon="14.2593633"><ele>21.0</ele><time>2026-04-17T13:07:11.305Z</time></trkpt><trkpt lat="40.846155" lon="14.25927"><ele>21.0</ele><time>2026-04-17T13:07:13.306Z</time></trkpt><trkpt lat="40.8461" lon="14.2591983"><ele>21.0</ele><time>2026-04-17T13:07:14.305Z</time></trkpt><trkpt lat="40.846045" lon="14.2591317"><ele>21.0</ele><time>2026-04-17T13:07:15.304Z</time></trkpt><trkpt lat="40.8459917" lon="14.2590433"><ele>21.0</ele><time>2026-04-17T13:07:16.304Z</time></trkpt><trkpt lat="40.84593" lon="14.2589817"><ele>20.5</ele><time>2026-04-17T13:07:17.304Z</time></trkpt><trkpt lat="40.845875" lon="14.25892"><ele>20.0</ele><time>2026-04-17T13:07:18.306Z</time></trkpt><trkpt lat="40.8458233" lon="14.2588583"><ele>19.5</ele><time>2026-04-17T13:07:19.304Z</time></trkpt><trkpt lat="40.8457783" lon="14.2587767"><ele>19.0</ele><time>2026-04-17T13:07:20.305Z</time></trkpt><trkpt lat="40.8457233" lon="14.258695"><ele>18.5</ele><time>2026-04-17T13:07:21.305Z</time></trkpt><trkpt lat="40.8456717" lon="14.2586233"><ele>18.0</ele><time>2026-04-17T13:07:22.306Z</time></trkpt><trkpt lat="40.8456183" lon="14.25854"><ele>18.0</ele><time>2026-04-17T13:07:23.304Z</time></trkpt><trkpt lat="40.84556" lon="14.2584633"><ele>18.0</ele><time>2026-04-17T13:07:24.305Z</time></trkpt><trkpt lat="40.8455067" lon="14.25839"><ele>18.0</ele><time>2026-04-17T13:07:25.304Z</time></trkpt><trkpt lat="40.8454567" lon="14.258305"><ele>18.0</ele><time>2026-04-17T13:07:26.306Z</time></trkpt><trkpt lat="40.8454067" lon="14.2582283"><ele>18.0</ele><time>2026-04-17T13:07:27.305Z</time></trkpt><trkpt lat="40.8453683" lon="14.2581567"><ele>18.0</ele><time>2026-04-17T13:07:28.304Z</time></trkpt><trkpt lat="40.8453267" lon="14.25808"><ele>18.6</ele><time>2026-04-17T13:07:29.304Z</time></trkpt><trkpt lat="40.8452817" lon="14.2579833"><ele>19.200000000000003</ele><time>2026-04-17T13:07:30.306Z</time></trkpt><trkpt lat="40.84524" lon="14.2579033"><ele>19.8</ele><time>2026-04-17T13:07:31.305Z</time></trkpt><trkpt lat="40.8452017" lon="14.2578267"><ele>20.400000000000002</ele><time>2026-04-17T13:07:32.305Z</time></trkpt><trkpt lat="40.845135" lon="14.2576983"><ele>21.0</ele><time>2026-04-17T13:07:34.303Z</time></trkpt><trkpt lat="40.8450633" lon="14.2575767"><ele>21.0</ele><time>2026-04-17T13:07:36.305Z</time></trkpt><trkpt lat="40.844995" lon="14.2574617"><ele>21.0</ele><time>2026-04-17T13:07:38.304Z</time></trkpt><trkpt lat="40.8449517" lon="14.2574"><ele>21.0</ele><time>2026-04-17T13:07:39.304Z</time></trkpt><trkpt lat="40.84486" lon="14.2572967"><ele>21.0</ele><time>2026-04-17T13:07:41.304Z</time></trkpt><trkpt lat="40.8448117" lon="14.2572267"><ele>21.0</ele><time>2026-04-17T13:07:42.304Z</time></trkpt><trkpt lat="40.8447717" lon="14.2571583"><ele>21.0</ele><time>2026-04-17T13:07:43.306Z</time></trkpt><trkpt lat="40.8446933" lon="14.2570383"><ele>21.0</ele><time>2026-04-17T13:07:45.304Z</time></trkpt><trkpt lat="40.8446117" lon="14.25691"><ele>21.0</ele><time>2026-04-17T13:07:47.305Z</time></trkpt><trkpt lat="40.84457" lon="14.256835"><ele>21.0</ele><time>2026-04-17T13:07:48.305Z</time></trkpt><trkpt lat="40.8445267" lon="14.2567617"><ele>21.0</ele><time>2026-04-17T13:07:49.303Z</time></trkpt><trkpt lat="40.84448" lon="14.2566917"><ele>21.0</ele><time>2026-04-17T13:07:50.303Z</time></trkpt><trkpt lat="40.8444333" lon="14.2566283"><ele>21.0</ele><time>2026-04-17T13:07:51.305Z</time></trkpt><trkpt lat="40.8443867" lon="14.2565333"><ele>21.0</ele><time>2026-04-17T13:07:52.304Z</time></trkpt><trkpt lat="40.8443417" lon="14.2564533"><ele>21.0</ele><time>2026-04-17T13:07:53.304Z</time></trkpt><trkpt lat="40.8442967" lon="14.2563883"><ele>21.0</ele><time>2026-04-17T13:07:54.305Z</time></trkpt><trkpt lat="40.8442083" lon="14.256295"><ele>21.0</ele><time>2026-04-17T13:07:56.305Z</time></trkpt><trkpt lat="40.8441417" lon="14.25622"><ele>21.0</ele><time>2026-04-17T13:07:58.305Z</time></trkpt><trkpt lat="40.8440717" lon="14.2561217"><ele>21.0</ele><time>2026-04-17T13:08:00.304Z</time></trkpt><trkpt lat="40.844015" lon="14.2559867"><ele>21.166666666666668</ele><time>2026-04-17T13:08:02.304Z</time></trkpt><trkpt lat="40.8439633" lon="14.2558567"><ele>21.333333333333332</ele><time>2026-04-17T13:08:04.304Z</time></trkpt><trkpt lat="40.8439217" lon="14.2557733"><ele>21.5</ele><time>2026-04-17T13:08:05.305Z</time></trkpt><trkpt lat="40.8438883" lon="14.25569"><ele>21.666666666666664</ele><time>2026-04-17T13:08:06.305Z</time></trkpt><trkpt lat="40.8438517" lon="14.25562"><ele>21.833333333333332</ele><time>2026-04-17T13:08:07.305Z</time></trkpt><trkpt lat="40.843795" lon="14.2554817"><ele>22.0</ele><time>2026-04-17T13:08:09.305Z</time></trkpt><trkpt lat="40.8436983" lon="14.2554"><ele>22.0</ele><time>2026-04-17T13:08:11.303Z</time></trkpt><trkpt lat="40.8436067" lon="14.255345"><ele>22.0</ele><time>2026-04-17T13:08:13.305Z</time></trkpt><trkpt lat="40.8435067" lon="14.2553483"><ele>22.0</ele><time>2026-04-17T13:08:15.304Z</time></trkpt><trkpt lat="40.843425" lon="14.2553583"><ele>22.0</ele><time>2026-04-17T13:08:17.305Z</time></trkpt><trkpt lat="40.8433383" lon="14.2553133"><ele>22.0</ele><time>2026-04-17T13:08:19.305Z</time></trkpt><trkpt lat="40.843265" lon="14.2552617"><ele>23.0</ele><time>2026-04-17T13:08:21.305Z</time></trkpt><trkpt lat="40.8431883" lon="14.2552083"><ele>24.0</ele><time>2026-04-17T13:08:23.305Z</time></trkpt><trkpt lat="40.84311" lon="14.2551617"><ele>25.000000000000004</ele><time>2026-04-17T13:08:25.305Z</time></trkpt><trkpt lat="40.84302" lon="14.2551133"><ele>26.0</ele><time>2026-04-17T13:08:27.305Z</time></trkpt><trkpt lat="40.84291" lon="14.2550183"><ele>27.0</ele><time>2026-04-17T13:08:29.305Z</time></trkpt><trkpt lat="40.842815" lon="14.2549617"><ele>27.0</ele><time>2026-04-17T13:08:31.304Z</time></trkpt><trkpt lat="40.8427183" lon="14.254905"><ele>27.000000000000004</ele><time>2026-04-17T13:08:33.306Z</time></trkpt><trkpt lat="40.8426033" lon="14.2548317"><ele>27.000000000000004</ele><time>2026-04-17T13:08:35.303Z</time></trkpt><trkpt lat="40.8424883" lon="14.2547717"><ele>27.0</ele><time>2026-04-17T13:08:37.304Z</time></trkpt><trkpt lat="40.8424217" lon="14.2547517"><ele>27.0</ele><time>2026-04-17T13:08:38.303Z</time></trkpt><trkpt lat="40.8423633" lon="14.254715"><ele>27.166666666666668</ele><time>2026-04-17T13:08:39.303Z</time></trkpt><trkpt lat="40.8422517" lon="14.2546683"><ele>27.333333333333336</ele><time>2026-04-17T13:08:41.303Z</time></trkpt><trkpt lat="40.842185" lon="14.2546633"><ele>27.5</ele><time>2026-04-17T13:08:42.303Z</time></trkpt><trkpt lat="40.842115" lon="14.2546533"><ele>27.666666666666668</ele><time>2026-04-17T13:08:43.304Z</time></trkpt><trkpt lat="40.84205" lon="14.2546283"><ele>27.833333333333336</ele><time>2026-04-17T13:08:44.305Z</time></trkpt><trkpt lat="40.8419417" lon="14.2546317"><ele>28.0</ele><time>2026-04-17T13:08:46.303Z</time></trkpt><trkpt lat="40.8418567" lon="14.2545867"><ele>26.2</ele><time>2026-04-17T13:08:48.304Z</time></trkpt><trkpt lat="40.8417533" lon="14.2545133"><ele>24.4</ele><time>2026-04-17T13:08:50.304Z</time></trkpt><trkpt lat="40.841695" lon="14.25448"><ele>22.599999999999998</ele><time>2026-04-17T13:08:51.304Z</time></trkpt><trkpt lat="40.8416217" lon="14.254455"><ele>20.799999999999997</ele><time>2026-04-17T13:08:52.305Z</time></trkpt><trkpt lat="40.8415433" lon="14.25443"><ele>19.0</ele><time>2026-04-17T13:08:53.304Z</time></trkpt><trkpt lat="40.8414167" lon="14.2543667"><ele>19.0</ele><time>2026-04-17T13:08:55.303Z</time></trkpt><trkpt lat="40.8413567" lon="14.2543383"><ele>19.0</ele><time>2026-04-17T13:08:56.304Z</time></trkpt><trkpt lat="40.841295" lon="14.2542983"><ele>19.0</ele><time>2026-04-17T13:08:57.304Z</time></trkpt><trkpt lat="40.8411817" lon="14.254255"><ele>19.0</ele><time>2026-04-17T13:08:59.304Z</time></trkpt><trkpt lat="40.84107" lon="14.254215"><ele>19.0</ele><time>2026-04-17T13:09:01.304Z</time></trkpt><trkpt lat="40.8409583" lon="14.2541733"><ele>19.4</ele><time>2026-04-17T13:09:03.305Z</time></trkpt><trkpt lat="40.8408433" lon="14.2541367"><ele>19.799999999999997</ele><time>2026-04-17T13:09:05.304Z</time></trkpt><trkpt lat="40.8407767" lon="14.25412"><ele>20.200000000000003</ele><time>2026-04-17T13:09:06.306Z</time></trkpt><trkpt lat="40.8406717" lon="14.2540483"><ele>20.6</ele><time>2026-04-17T13:09:08.304Z</time></trkpt><trkpt lat="40.8405583" lon="14.2539783"><ele>21.0</ele><time>2026-04-17T13:09:10.304Z</time></trkpt><trkpt lat="40.840435" lon="14.2539133"><ele>21.0</ele><time>2026-04-17T13:09:12.304Z</time></trkpt><trkpt lat="40.8403783" lon="14.2538767"><ele>21.0</ele><time>2026-04-17T13:09:13.306Z</time></trkpt><trkpt lat="40.8402767" lon="14.2538267"><ele>21.0</ele><time>2026-04-17T13:09:15.304Z</time></trkpt><trkpt lat="40.8401933" lon="14.2537667"><ele>21.0</ele><time>2026-04-17T13:09:17.304Z</time></trkpt><trkpt lat="40.8401133" lon="14.2537233"><ele>21.0</ele><time>2026-04-17T13:09:19.305Z</time></trkpt><trkpt lat="40.8400217" lon="14.2536717"><ele>20.2</ele><time>2026-04-17T13:09:21.303Z</time></trkpt><trkpt lat="40.8399083" lon="14.25366"><ele>19.400000000000002</ele><time>2026-04-17T13:09:23.304Z</time></trkpt><trkpt lat="40.83981" lon="14.253705"><ele>18.6</ele><time>2026-04-17T13:09:25.304Z</time></trkpt><trkpt lat="40.8397233" lon="14.2537883"><ele>17.8</ele><time>2026-04-17T13:09:27.304Z</time></trkpt><trkpt lat="40.83967" lon="14.2539067"><ele>17.0</ele><time>2026-04-17T13:09:29.304Z</time></trkpt><trkpt lat="40.8395983" lon="14.25404"><ele>17.0</ele><time>2026-04-17T13:09:31.305Z</time></trkpt><trkpt lat="40.83956" lon="14.2541083"><ele>17.0</ele><time>2026-04-17T13:09:32.304Z</time></trkpt><trkpt lat="40.8395183" lon="14.2541767"><ele>17.0</ele><time>2026-04-17T13:09:33.304Z</time></trkpt><trkpt lat="40.8394783" lon="14.2542467"><ele>17.0</ele><time>2026-04-17T13:09:34.305Z</time></trkpt><trkpt lat="40.8394467" lon="14.2543233"><ele>17.0</ele><time>2026-04-17T13:09:35.304Z</time></trkpt><trkpt lat="40.839365" lon="14.2545133"><ele>17.0</ele><time>2026-04-17T13:09:37.303Z</time></trkpt><trkpt lat="40.8392917" lon="14.2546383"><ele>15.0</ele><time>2026-04-17T13:09:39.304Z</time></trkpt><trkpt lat="40.8392083" lon="14.254695"><ele>13.0</ele><time>2026-04-17T13:09:41.303Z</time></trkpt><trkpt lat="40.8391117" lon="14.2546867"><ele>11.0</ele><time>2026-04-17T13:09:43.304Z</time></trkpt><trkpt lat="40.8390083" lon="14.2546433"><ele>9.0</ele><time>2026-04-17T13:09:45.304Z</time></trkpt><trkpt lat="40.8389117" lon="14.2545917"><ele>7.0</ele><time>2026-04-17T13:09:47.304Z</time></trkpt><trkpt lat="40.838805" lon="14.2545267"><ele>7.000000000000001</ele><time>2026-04-17T13:09:49.304Z</time></trkpt><trkpt lat="40.8386933" lon="14.25445"><ele>7.0</ele><time>2026-04-17T13:09:51.304Z</time></trkpt><trkpt lat="40.83863" lon="14.2544183"><ele>7.0</ele><time>2026-04-17T13:09:52.304Z</time></trkpt><trkpt lat="40.8385683" lon="14.2543867"><ele>7.0</ele><time>2026-04-17T13:09:53.304Z</time></trkpt><trkpt lat="40.8385067" lon="14.2543483"><ele>7.000000000000001</ele><time>2026-04-17T13:09:54.304Z</time></trkpt><trkpt lat="40.838445" lon="14.2543133"><ele>7.0</ele><time>2026-04-17T13:09:55.303Z</time></trkpt><trkpt lat="40.83838" lon="14.2542767"><ele>6.714285714285714</ele><time>2026-04-17T13:09:56.304Z</time></trkpt><trkpt lat="40.8383133" lon="14.254245"><ele>6.428571428571429</ele><time>2026-04-17T13:09:57.304Z</time></trkpt><trkpt lat="40.8382467" lon="14.254215"><ele>6.142857142857142</ele><time>2026-04-17T13:09:58.304Z</time></trkpt><trkpt lat="40.8381767" lon="14.2541883"><ele>5.857142857142858</ele><time>2026-04-17T13:09:59.305Z</time></trkpt><trkpt lat="40.838105" lon="14.2541583"><ele>5.571428571428571</ele><time>2026-04-17T13:10:00.305Z</time></trkpt><trkpt lat="40.83804" lon="14.2541367"><ele>5.285714285714286</ele><time>2026-04-17T13:10:01.306Z</time></trkpt><trkpt lat="40.8379667" lon="14.2541033"><ele>5.0</ele><time>2026-04-17T13:10:02.305Z</time></trkpt><trkpt lat="40.8378917" lon="14.254065"><ele>5.0</ele><time>2026-04-17T13:10:03.305Z</time></trkpt><trkpt lat="40.8378217" lon="14.25402"><ele>5.0</ele><time>2026-04-17T13:10:04.304Z</time></trkpt><trkpt lat="40.8377583" lon="14.25397"><ele>5.0</ele><time>2026-04-17T13:10:05.304Z</time></trkpt><trkpt lat="40.83769" lon="14.2539233"><ele>5.0</ele><time>2026-04-17T13:10:06.305Z</time></trkpt><trkpt lat="40.8376233" lon="14.2538783"><ele>5.0</ele><time>2026-04-17T13:10:07.305Z</time></trkpt><trkpt lat="40.8375533" lon="14.253835"><ele>5.0</ele><time>2026-04-17T13:10:08.305Z</time></trkpt><trkpt lat="40.8374817" lon="14.2537967"><ele>5.571428571428571</ele><time>2026-04-17T13:10:09.304Z</time></trkpt><trkpt lat="40.8374133" lon="14.2537617"><ele>6.142857142857143</ele><time>2026-04-17T13:10:10.304Z</time></trkpt><trkpt lat="40.837345" lon="14.25373"><ele>6.714285714285715</ele><time>2026-04-17T13:10:11.305Z</time></trkpt><trkpt lat="40.8372767" lon="14.2536883"><ele>7.2857142857142865</ele><time>2026-04-17T13:10:12.304Z</time></trkpt><trkpt lat="40.8372133" lon="14.2536517"><ele>7.857142857142858</ele><time>2026-04-17T13:10:13.303Z</time></trkpt><trkpt lat="40.8371483" lon="14.253615"><ele>8.428571428571429</ele><time>2026-04-17T13:10:14.305Z</time></trkpt><trkpt lat="40.8370867" lon="14.2535867"><ele>9.0</ele><time>2026-04-17T13:10:15.305Z</time></trkpt><trkpt lat="40.8370267" lon="14.25355"><ele>9.0</ele><time>2026-04-17T13:10:16.305Z</time></trkpt><trkpt lat="40.8369717" lon="14.2534983"><ele>9.0</ele><time>2026-04-17T13:10:17.304Z</time></trkpt><trkpt lat="40.8369233" lon="14.2534233"><ele>9.0</ele><time>2026-04-17T13:10:18.303Z</time></trkpt><trkpt lat="40.8368967" lon="14.2533267"><ele>9.0</ele><time>2026-04-17T13:10:19.304Z</time></trkpt><trkpt lat="40.8368667" lon="14.2532317"><ele>9.0</ele><time>2026-04-17T13:10:20.304Z</time></trkpt><trkpt lat="40.8368317" lon="14.2531267"><ele>9.0</ele><time>2026-04-17T13:10:21.305Z</time></trkpt><trkpt lat="40.8367917" lon="14.2530267"><ele>8.666666666666666</ele><time>2026-04-17T13:10:22.303Z</time></trkpt><trkpt lat="40.836755" lon="14.2529317"><ele>8.333333333333334</ele><time>2026-04-17T13:10:23.304Z</time></trkpt><trkpt lat="40.8367167" lon="14.2528467"><ele>8.0</ele><time>2026-04-17T13:10:24.305Z</time></trkpt><trkpt lat="40.836675" lon="14.2527833"><ele>7.666666666666667</ele><time>2026-04-17T13:10:25.304Z</time></trkpt><trkpt lat="40.8366367" lon="14.252705"><ele>7.333333333333334</ele><time>2026-04-17T13:10:26.306Z</time></trkpt><trkpt lat="40.8366033" lon="14.2526317"><ele>7.0</ele><time>2026-04-17T13:10:27.305Z</time></trkpt><trkpt lat="40.83655" lon="14.2524867"><ele>7.0</ele><time>2026-04-17T13:10:29.305Z</time></trkpt><trkpt lat="40.8365317" lon="14.252405"><ele>6.999999999999999</ele><time>2026-04-17T13:10:30.306Z</time></trkpt><trkpt lat="40.836505" lon="14.2523217"><ele>6.999999999999999</ele><time>2026-04-17T13:10:31.305Z</time></trkpt><trkpt lat="40.836485" lon="14.25224"><ele>7.0</ele><time>2026-04-17T13:10:32.304Z</time></trkpt><trkpt lat="40.8364383" lon="14.2520933"><ele>7.0</ele><time>2026-04-17T13:10:34.305Z</time></trkpt><trkpt lat="40.8363933" lon="14.25191"><ele>8.666666666666668</ele><time>2026-04-17T13:10:36.303Z</time></trkpt><trkpt lat="40.83634" lon="14.25175"><ele>10.333333333333334</ele><time>2026-04-17T13:10:38.305Z</time></trkpt><trkpt lat="40.8363083" lon="14.251665"><ele>12.0</ele><time>2026-04-17T13:10:39.305Z</time></trkpt><trkpt lat="40.8362717" lon="14.25159"><ele>13.666666666666668</ele><time>2026-04-17T13:10:40.305Z</time></trkpt><trkpt lat="40.8362417" lon="14.2515"><ele>15.333333333333334</ele><time>2026-04-17T13:10:41.303Z</time></trkpt><trkpt lat="40.8362133" lon="14.251415"><ele>17.0</ele><time>2026-04-17T13:10:42.304Z</time></trkpt><trkpt lat="40.8361783" lon="14.2513317"><ele>16.57142857142857</ele><time>2026-04-17T13:10:43.305Z</time></trkpt><trkpt lat="40.8361417" lon="14.25126"><ele>16.142857142857142</ele><time>2026-04-17T13:10:44.305Z</time></trkpt><trkpt lat="40.8361083" lon="14.25118"><ele>15.714285714285714</ele><time>2026-04-17T13:10:45.304Z</time></trkpt><trkpt lat="40.83608" lon="14.2511"><ele>15.285714285714285</ele><time>2026-04-17T13:10:46.306Z</time></trkpt><trkpt lat="40.836045" lon="14.251025"><ele>14.857142857142858</ele><time>2026-04-17T13:10:47.304Z</time></trkpt><trkpt lat="40.8360083" lon="14.2509567"><ele>14.428571428571429</ele><time>2026-04-17T13:10:48.305Z</time></trkpt><trkpt lat="40.8359733" lon="14.250885"><ele>14.0</ele><time>2026-04-17T13:10:49.306Z</time></trkpt><trkpt lat="40.8359133" lon="14.2507533"><ele>14.0</ele><time>2026-04-17T13:10:51.305Z</time></trkpt><trkpt lat="40.835855" lon="14.2506317"><ele>13.999999999999998</ele><time>2026-04-17T13:10:53.305Z</time></trkpt><trkpt lat="40.8358017" lon="14.25049"><ele>13.999999999999998</ele><time>2026-04-17T13:10:55.305Z</time></trkpt><trkpt lat="40.8357583" lon="14.2503633"><ele>14.0</ele><time>2026-04-17T13:10:57.305Z</time></trkpt><trkpt lat="40.8357167" lon="14.2502667"><ele>14.0</ele><time>2026-04-17T13:10:59.306Z</time></trkpt><trkpt lat="40.8356817" lon="14.250175"><ele>15.2</ele><time>2026-04-17T13:11:01.306Z</time></trkpt><trkpt lat="40.83565" lon="14.2500983"><ele>16.4</ele><time>2026-04-17T13:11:03.305Z</time></trkpt><trkpt lat="40.8355667" lon="14.2500183"><ele>17.6</ele><time>2026-04-17T13:13:01.304Z</time></trkpt><trkpt lat="40.8355" lon="14.2500817"><ele>18.8</ele><time>2026-04-17T13:13:04.305Z</time></trkpt><trkpt lat="40.8354267" lon="14.2501433"><ele>20.0</ele><time>2026-04-17T13:13:06.304Z</time></trkpt><trkpt lat="40.8353267" lon="14.2502167"><ele>20.0</ele><time>2026-04-17T13:13:08.305Z</time></trkpt><trkpt lat="40.83526" lon="14.2502467"><ele>20.0</ele><time>2026-04-17T13:13:09.306Z</time></trkpt><trkpt lat="40.835185" lon="14.2503017"><ele>20.0</ele><time>2026-04-17T13:13:10.305Z</time></trkpt><trkpt lat="40.8351033" lon="14.2503583"><ele>20.0</ele><time>2026-04-17T13:13:11.305Z</time></trkpt><trkpt lat="40.8350117" lon="14.2504183"><ele>20.0</ele><time>2026-04-17T13:13:12.305Z</time></trkpt><trkpt lat="40.8349267" lon="14.2504883"><ele>20.0</ele><time>2026-04-17T13:13:13.304Z</time></trkpt><trkpt lat="40.8348383" lon="14.2505567"><ele>20.0</ele><time>2026-04-17T13:13:14.304Z</time></trkpt><trkpt lat="40.8347533" lon="14.2506183"><ele>20.0</ele><time>2026-04-17T13:13:15.305Z</time></trkpt><trkpt lat="40.834685" lon="14.25068"><ele>20.0</ele><time>2026-04-17T13:13:16.305Z</time></trkpt><trkpt lat="40.8346133" lon="14.2507333"><ele>20.0</ele><time>2026-04-17T13:13:17.305Z</time></trkpt><trkpt lat="40.8345383" lon="14.25079"><ele>19.2</ele><time>2026-04-17T13:13:18.304Z</time></trkpt><trkpt lat="40.8344617" lon="14.2508483"><ele>18.4</ele><time>2026-04-17T13:13:19.305Z</time></trkpt><trkpt lat="40.8343883" lon="14.2509067"><ele>17.6</ele><time>2026-04-17T13:13:20.305Z</time></trkpt><trkpt lat="40.834315" lon="14.2509917"><ele>16.8</ele><time>2026-04-17T13:13:21.305Z</time></trkpt><trkpt lat="40.8342433" lon="14.2510633"><ele>16.0</ele><time>2026-04-17T13:13:22.305Z</time></trkpt><trkpt lat="40.83417" lon="14.25114"><ele>16.0</ele><time>2026-04-17T13:13:23.305Z</time></trkpt><trkpt lat="40.834095" lon="14.2512333"><ele>16.0</ele><time>2026-04-17T13:13:24.305Z</time></trkpt><trkpt lat="40.834025" lon="14.25131"><ele>16.0</ele><time>2026-04-17T13:13:25.305Z</time></trkpt><trkpt lat="40.83396" lon="14.2513883"><ele>16.0</ele><time>2026-04-17T13:13:26.304Z</time></trkpt><trkpt lat="40.8338933" lon="14.2514683"><ele>16.0</ele><time>2026-04-17T13:13:27.304Z</time></trkpt><trkpt lat="40.833825" lon="14.2515467"><ele>15.8</ele><time>2026-04-17T13:13:28.305Z</time></trkpt><trkpt lat="40.8337617" lon="14.251625"><ele>15.600000000000001</ele><time>2026-04-17T13:13:29.306Z</time></trkpt><trkpt lat="40.833705" lon="14.251705"><ele>15.4</ele><time>2026-04-17T13:13:30.305Z</time></trkpt><trkpt lat="40.8336517" lon="14.25177"><ele>15.2</ele><time>2026-04-17T13:13:31.305Z</time></trkpt><trkpt lat="40.83355" lon="14.25186"><ele>15.0</ele><time>2026-04-17T13:13:33.304Z</time></trkpt><trkpt lat="40.83346" lon="14.2519183"><ele>15.0</ele><time>2026-04-17T13:13:35.304Z</time></trkpt><trkpt lat="40.8333817" lon="14.251905"><ele>15.0</ele><time>2026-04-17T13:13:37.305Z</time></trkpt><trkpt lat="40.8332833" lon="14.2518867"><ele>15.0</ele><time>2026-04-17T13:13:39.307Z</time></trkpt><trkpt lat="40.8331933" lon="14.2518617"><ele>15.0</ele><time>2026-04-17T13:13:41.307Z</time></trkpt><trkpt lat="40.8331083" lon="14.2518317"><ele>15.0</ele><time>2026-04-17T13:13:43.305Z</time></trkpt><trkpt lat="40.8330367" lon="14.2518383"><ele>15.0</ele><time>2026-04-17T13:13:45.304Z</time></trkpt><trkpt lat="40.8329533" lon="14.2518183"><ele>15.0</ele><time>2026-04-17T13:13:47.305Z</time></trkpt><trkpt lat="40.8328633" lon="14.2517783"><ele>15.0</ele><time>2026-04-17T13:13:49.305Z</time></trkpt><trkpt lat="40.8327733" lon="14.251715"><ele>15.0</ele><time>2026-04-17T13:13:51.305Z</time></trkpt><trkpt lat="40.8326717" lon="14.2516567"><ele>15.0</ele><time>2026-04-17T13:13:53.304Z</time></trkpt><trkpt lat="40.8325633" lon="14.2516033"><ele>15.0</ele><time>2026-04-17T13:13:55.305Z</time></trkpt><trkpt lat="40.8324533" lon="14.251545"><ele>15.2</ele><time>2026-04-17T13:13:57.305Z</time></trkpt><trkpt lat="40.8323433" lon="14.2514867"><ele>15.4</ele><time>2026-04-17T13:13:59.306Z</time></trkpt><trkpt lat="40.83223" lon="14.2514267"><ele>15.600000000000001</ele><time>2026-04-17T13:14:01.305Z</time></trkpt><trkpt lat="40.8321133" lon="14.251365"><ele>15.8</ele><time>2026-04-17T13:14:03.305Z</time></trkpt><trkpt lat="40.8320483" lon="14.2513267"><ele>16.0</ele><time>2026-04-17T13:14:04.305Z</time></trkpt><trkpt lat="40.83198" lon="14.25129"><ele>15.999999999999998</ele><time>2026-04-17T13:14:05.305Z</time></trkpt><trkpt lat="40.831915" lon="14.2512583"><ele>16.0</ele><time>2026-04-17T13:14:06.304Z</time></trkpt><trkpt lat="40.8318517" lon="14.2512283"><ele>16.0</ele><time>2026-04-17T13:14:07.304Z</time></trkpt><trkpt lat="40.83179" lon="14.251195"><ele>16.0</ele><time>2026-04-17T13:14:08.305Z</time></trkpt><trkpt lat="40.83173" lon="14.251165"><ele>15.999999999999998</ele><time>2026-04-17T13:14:09.306Z</time></trkpt><trkpt lat="40.8316167" lon="14.2511033"><ele>16.0</ele><time>2026-04-17T13:14:11.306Z</time></trkpt><trkpt lat="40.8315567" lon="14.2510683"><ele>16.166666666666664</ele><time>2026-04-17T13:14:12.304Z</time></trkpt><trkpt lat="40.8314417" lon="14.2509983"><ele>16.333333333333332</ele><time>2026-04-17T13:14:14.304Z</time></trkpt><trkpt lat="40.83138" lon="14.2509633"><ele>16.5</ele><time>2026-04-17T13:14:15.306Z</time></trkpt><trkpt lat="40.83132" lon="14.2509333"><ele>16.666666666666668</ele><time>2026-04-17T13:14:16.304Z</time></trkpt><trkpt lat="40.8312583" lon="14.2509033"><ele>16.833333333333336</ele><time>2026-04-17T13:14:17.305Z</time></trkpt><trkpt lat="40.8311517" lon="14.2508467"><ele>17.0</ele><time>2026-04-17T13:14:19.305Z</time></trkpt><trkpt lat="40.8310483" lon="14.25079"><ele>16.75</ele><time>2026-04-17T13:14:21.305Z</time></trkpt><trkpt lat="40.8309417" lon="14.250735"><ele>16.5</ele><time>2026-04-17T13:14:23.305Z</time></trkpt><trkpt lat="40.8308333" lon="14.2506817"><ele>16.25</ele><time>2026-04-17T13:14:25.305Z</time></trkpt><trkpt lat="40.8307267" lon="14.2506267"><ele>16.0</ele><time>2026-04-17T13:14:27.305Z</time></trkpt><trkpt lat="40.8306267" lon="14.2505733"><ele>16.0</ele><time>2026-04-17T13:14:29.305Z</time></trkpt><trkpt lat="40.8305217" lon="14.2505083"><ele>16.0</ele><time>2026-04-17T13:14:31.304Z</time></trkpt><trkpt lat="40.8304183" lon="14.2504433"><ele>16.0</ele><time>2026-04-17T13:14:33.304Z</time></trkpt><trkpt lat="40.8303217" lon="14.2503967"><ele>16.0</ele><time>2026-04-17T13:14:35.305Z</time></trkpt><trkpt lat="40.8302383" lon="14.2503717"><ele>16.0</ele><time>2026-04-17T13:14:37.306Z</time></trkpt><trkpt lat="40.8301467" lon="14.2503367"><ele>15.166666666666666</ele><time>2026-04-17T13:14:39.304Z</time></trkpt><trkpt lat="40.8300833" lon="14.250305"><ele>14.333333333333332</ele><time>2026-04-17T13:14:40.304Z</time></trkpt><trkpt lat="40.8300233" lon="14.2502683"><ele>13.5</ele><time>2026-04-17T13:14:41.305Z</time></trkpt><trkpt lat="40.82993" lon="14.2502067"><ele>12.666666666666666</ele><time>2026-04-17T13:14:43.306Z</time></trkpt><trkpt lat="40.8298483" lon="14.2501117"><ele>11.833333333333332</ele><time>2026-04-17T13:14:45.306Z</time></trkpt><trkpt lat="40.82978" lon="14.2500633"><ele>11.0</ele><time>2026-04-17T13:14:47.305Z</time></trkpt><trkpt lat="40.8297133" lon="14.25008"><ele>11.0</ele><time>2026-04-17T13:14:50.305Z</time></trkpt><trkpt lat="40.82966" lon="14.2501367"><ele>11.0</ele><time>2026-04-17T13:14:53.306Z</time></trkpt><trkpt lat="40.8296033" lon="14.25008"><ele>11.0</ele><time>2026-04-17T13:14:58.305Z</time></trkpt><trkpt lat="40.829585" lon="14.2499867"><ele>11.0</ele><time>2026-04-17T13:15:01.305Z</time></trkpt><trkpt lat="40.8295967" lon="14.2498983"><ele>11.0</ele><time>2026-04-17T13:15:03.305Z</time></trkpt><trkpt lat="40.8296367" lon="14.2498167"><ele>11.0</ele><time>2026-04-17T13:15:05.306Z</time></trkpt><trkpt lat="40.82968" lon="14.2497533"><ele>11.0</ele><time>2026-04-17T13:15:07.304Z</time></trkpt><trkpt lat="40.8297617" lon="14.2497233"><ele>11.142857142857142</ele><time>2026-04-17T13:15:09.304Z</time></trkpt><trkpt lat="40.8298333" lon="14.2497133"><ele>11.285714285714285</ele><time>2026-04-17T13:15:12.305Z</time></trkpt><trkpt lat="40.8299017" lon="14.2497467"><ele>11.428571428571427</ele><time>2026-04-17T13:15:15.305Z</time></trkpt><trkpt lat="40.82994" lon="14.2496783"><ele>11.571428571428571</ele><time>2026-04-17T13:15:20.306Z</time></trkpt><trkpt lat="40.8299317" lon="14.249575"><ele>11.714285714285714</ele><time>2026-04-17T13:15:24.304Z</time></trkpt><trkpt lat="40.8299533" lon="14.24948"><ele>11.857142857142856</ele><time>2026-04-17T13:15:27.304Z</time></trkpt><trkpt lat="40.8299717" lon="14.2493867"><ele>12.0</ele><time>2026-04-17T13:15:29.304Z</time></trkpt><trkpt lat="40.8299583" lon="14.249265"><ele>12.0</ele><time>2026-04-17T13:15:31.304Z</time></trkpt><trkpt lat="40.82996" lon="14.249135"><ele>12.0</ele><time>2026-04-17T13:15:33.305Z</time></trkpt><trkpt lat="40.829965" lon="14.2490167"><ele>12.0</ele><time>2026-04-17T13:15:35.304Z</time></trkpt><trkpt lat="40.829965" lon="14.248905"><ele>12.0</ele><time>2026-04-17T13:15:37.304Z</time></trkpt><trkpt lat="40.8299683" lon="14.2487733"><ele>12.0</ele><time>2026-04-17T13:15:39.304Z</time></trkpt><trkpt lat="40.829975" lon="14.248625"><ele>12.8</ele><time>2026-04-17T13:15:41.303Z</time></trkpt><trkpt lat="40.8299717" lon="14.2484733"><ele>13.6</ele><time>2026-04-17T13:15:43.304Z</time></trkpt><trkpt lat="40.82997" lon="14.2483283"><ele>14.400000000000002</ele><time>2026-04-17T13:15:45.304Z</time></trkpt><trkpt lat="40.8299867" lon="14.24818"><ele>15.200000000000001</ele><time>2026-04-17T13:15:47.303Z</time></trkpt><trkpt lat="40.829995" lon="14.2480433"><ele>16.0</ele><time>2026-04-17T13:15:49.304Z</time></trkpt><trkpt lat="40.8299917" lon="14.24792"><ele>16.0</ele><time>2026-04-17T13:15:51.303Z</time></trkpt><trkpt lat="40.829985" lon="14.24777"><ele>16.0</ele><time>2026-04-17T13:15:53.304Z</time></trkpt><trkpt lat="40.829975" lon="14.24763"><ele>16.0</ele><time>2026-04-17T13:15:55.303Z</time></trkpt><trkpt lat="40.8299833" lon="14.2474883"><ele>16.0</ele><time>2026-04-17T13:15:57.304Z</time></trkpt><trkpt lat="40.8299933" lon="14.247335"><ele>16.0</ele><time>2026-04-17T13:15:59.304Z</time></trkpt><trkpt lat="40.8299983" lon="14.2472517"><ele>16.0</ele><time>2026-04-17T13:16:00.303Z</time></trkpt><trkpt lat="40.8300133" lon="14.2471667"><ele>16.0</ele><time>2026-04-17T13:16:01.304Z</time></trkpt><trkpt lat="40.8300467" lon="14.2470117"><ele>16.0</ele><time>2026-04-17T13:16:03.304Z</time></trkpt><trkpt lat="40.8300667" lon="14.2468667"><ele>16.0</ele><time>2026-04-17T13:16:05.305Z</time></trkpt><trkpt lat="40.8300583" lon="14.2467233"><ele>16.0</ele><time>2026-04-17T13:16:07.304Z</time></trkpt><trkpt lat="40.830045" lon="14.246585"><ele>15.600000000000001</ele><time>2026-04-17T13:16:09.305Z</time></trkpt><trkpt lat="40.8300333" lon="14.246455"><ele>15.200000000000001</ele><time>2026-04-17T13:16:11.303Z</time></trkpt><trkpt lat="40.8300283" lon="14.2463217"><ele>14.799999999999999</ele><time>2026-04-17T13:16:13.304Z</time></trkpt><trkpt lat="40.8300233" lon="14.24621"><ele>14.399999999999999</ele><time>2026-04-17T13:16:15.304Z</time></trkpt><trkpt lat="40.8300133" lon="14.2461"><ele>14.0</ele><time>2026-04-17T13:16:17.305Z</time></trkpt><trkpt lat="40.8300183" lon="14.245965"><ele>14.0</ele><time>2026-04-17T13:16:19.303Z</time></trkpt><trkpt lat="40.8300167" lon="14.2458067"><ele>13.999999999999998</ele><time>2026-04-17T13:16:21.305Z</time></trkpt><trkpt lat="40.83001" lon="14.2457233"><ele>13.999999999999998</ele><time>2026-04-17T13:16:22.304Z</time></trkpt><trkpt lat="40.8300017" lon="14.245545"><ele>14.0</ele><time>2026-04-17T13:16:24.303Z</time></trkpt><trkpt lat="40.83" lon="14.245455"><ele>14.0</ele><time>2026-04-17T13:16:25.303Z</time></trkpt><trkpt lat="40.8300033" lon="14.2453633"><ele>13.0</ele><time>2026-04-17T13:16:26.304Z</time></trkpt><trkpt lat="40.83001" lon="14.24527"><ele>12.0</ele><time>2026-04-17T13:16:27.305Z</time></trkpt><trkpt lat="40.8300383" lon="14.2451733"><ele>11.0</ele><time>2026-04-17T13:16:28.305Z</time></trkpt><trkpt lat="40.830065" lon="14.245095"><ele>10.0</ele><time>2026-04-17T13:16:29.304Z</time></trkpt><trkpt lat="40.8301017" lon="14.2450267"><ele>9.0</ele><time>2026-04-17T13:16:30.305Z</time></trkpt><trkpt lat="40.8301517" lon="14.24497"><ele>8.0</ele><time>2026-04-17T13:16:31.304Z</time></trkpt><trkpt lat="40.83021" lon="14.2449183"><ele>7.0</ele><time>2026-04-17T13:16:32.305Z</time></trkpt><trkpt lat="40.8302683" lon="14.2448683"><ele>7.500000000000001</ele><time>2026-04-17T13:16:33.305Z</time></trkpt><trkpt lat="40.830325" lon="14.2448183"><ele>8.0</ele><time>2026-04-17T13:16:34.304Z</time></trkpt><trkpt lat="40.830385" lon="14.24477"><ele>8.5</ele><time>2026-04-17T13:16:35.305Z</time></trkpt><trkpt lat="40.8304417" lon="14.24472"><ele>9.0</ele><time>2026-04-17T13:16:36.305Z</time></trkpt><trkpt lat="40.830495" lon="14.2446667"><ele>9.5</ele><time>2026-04-17T13:16:37.305Z</time></trkpt><trkpt lat="40.83055" lon="14.2446167"><ele>10.0</ele><time>2026-04-17T13:16:38.305Z</time></trkpt><trkpt lat="40.8306567" lon="14.24452"><ele>10.0</ele><time>2026-04-17T13:16:40.304Z</time></trkpt><trkpt lat="40.8307167" lon="14.2444683"><ele>10.0</ele><time>2026-04-17T13:16:41.304Z</time></trkpt><trkpt lat="40.8307733" lon="14.24441"><ele>10.0</ele><time>2026-04-17T13:16:42.305Z</time></trkpt><trkpt lat="40.83083" lon="14.2443583"><ele>10.0</ele><time>2026-04-17T13:16:43.304Z</time></trkpt><trkpt lat="40.8308883" lon="14.24431"><ele>10.0</ele><time>2026-04-17T13:16:44.306Z</time></trkpt><trkpt lat="40.8309483" lon="14.2442617"><ele>10.0</ele><time>2026-04-17T13:16:45.305Z</time></trkpt><trkpt lat="40.8310067" lon="14.2442133"><ele>10.0</ele><time>2026-04-17T13:16:46.305Z</time></trkpt><trkpt lat="40.8310583" lon="14.2441617"><ele>10.5</ele><time>2026-04-17T13:16:47.306Z</time></trkpt><trkpt lat="40.8311183" lon="14.244115"><ele>11.0</ele><time>2026-04-17T13:16:48.305Z</time></trkpt><trkpt lat="40.83117" lon="14.2440617"><ele>11.5</ele><time>2026-04-17T13:16:49.304Z</time></trkpt><trkpt lat="40.8312167" lon="14.2440033"><ele>12.0</ele><time>2026-04-17T13:16:50.304Z</time></trkpt><trkpt lat="40.8312967" lon="14.2438933"><ele>12.499999999999998</ele><time>2026-04-17T13:16:52.304Z</time></trkpt><trkpt lat="40.831375" lon="14.2438267"><ele>13.0</ele><time>2026-04-17T13:16:54.304Z</time></trkpt><trkpt lat="40.8314333" lon="14.2437683"><ele>12.999999999999998</ele><time>2026-04-17T13:16:57.304Z</time></trkpt><trkpt lat="40.8314467" lon="14.243675"><ele>13.0</ele><time>2026-04-17T13:17:01.303Z</time></trkpt><trkpt lat="40.8314517" lon="14.2435217"><ele>13.0</ele><time>2026-04-17T13:17:10.304Z</time></trkpt><trkpt lat="40.83148" lon="14.2434433"><ele>13.0</ele><time>2026-04-17T13:17:18.306Z</time></trkpt><trkpt lat="40.83152" lon="14.2433583"><ele>12.999999999999998</ele><time>2026-04-17T13:17:22.306Z</time></trkpt><trkpt lat="40.8315367" lon="14.2432633"><ele>13.0</ele><time>2026-04-17T13:17:25.306Z</time></trkpt><trkpt lat="40.8315483" lon="14.243175"><ele>12.8</ele><time>2026-04-17T13:17:27.306Z</time></trkpt><trkpt lat="40.83166" lon="14.2431067"><ele>12.600000000000001</ele><time>2026-04-17T13:17:28.306Z</time></trkpt><trkpt lat="40.8316833" lon="14.2430217"><ele>12.399999999999999</ele><time>2026-04-17T13:17:30.305Z</time></trkpt><trkpt lat="40.8316933" lon="14.2429017"><ele>12.2</ele><time>2026-04-17T13:17:33.304Z</time></trkpt><trkpt lat="40.8317083" lon="14.2427717"><ele>12.0</ele><time>2026-04-17T13:17:35.305Z</time></trkpt><trkpt lat="40.8317217" lon="14.242635"><ele>12.0</ele><time>2026-04-17T13:17:37.304Z</time></trkpt><trkpt lat="40.8317183" lon="14.2424917"><ele>12.0</ele><time>2026-04-17T13:17:39.305Z</time></trkpt><trkpt lat="40.8317133" lon="14.2423833"><ele>12.0</ele><time>2026-04-17T13:17:41.304Z</time></trkpt><trkpt lat="40.83171" lon="14.2422717"><ele>12.0</ele><time>2026-04-17T13:17:43.304Z</time></trkpt><trkpt lat="40.83172" lon="14.24216"><ele>12.0</ele><time>2026-04-17T13:17:45.303Z</time></trkpt><trkpt lat="40.831725" lon="14.2420417"><ele>10.6</ele><time>2026-04-17T13:17:47.304Z</time></trkpt><trkpt lat="40.8317383" lon="14.2419"><ele>9.2</ele><time>2026-04-17T13:17:49.304Z</time></trkpt><trkpt lat="40.831715" lon="14.2417517"><ele>7.8</ele><time>2026-04-17T13:17:51.304Z</time></trkpt><trkpt lat="40.831665" lon="14.241615"><ele>6.4</ele><time>2026-04-17T13:17:53.305Z</time></trkpt><trkpt lat="40.8316383" lon="14.2415233"><ele>5.0</ele><time>2026-04-17T13:17:54.304Z</time></trkpt><trkpt lat="40.8316267" lon="14.2414117"><ele>4.5</ele><time>2026-04-17T13:17:55.304Z</time></trkpt><trkpt lat="40.8316367" lon="14.2413117"><ele>4.0</ele><time>2026-04-17T13:17:56.305Z</time></trkpt><trkpt lat="40.831645" lon="14.2412083"><ele>3.5</ele><time>2026-04-17T13:17:57.305Z</time></trkpt><trkpt lat="40.831655" lon="14.24111"><ele>3.0</ele><time>2026-04-17T13:17:58.305Z</time></trkpt><trkpt lat="40.831655" lon="14.2410067"><ele>2.5</ele><time>2026-04-17T13:17:59.305Z</time></trkpt><trkpt lat="40.8316517" lon="14.2409067"><ele>2.0</ele><time>2026-04-17T13:18:00.304Z</time></trkpt><trkpt lat="40.8316467" lon="14.2408"><ele>2.0</ele><time>2026-04-17T13:18:01.305Z</time></trkpt><trkpt lat="40.8316467" lon="14.2407"><ele>1.9999999999999998</ele><time>2026-04-17T13:18:02.305Z</time></trkpt><trkpt lat="40.8316467" lon="14.2405983"><ele>2.0</ele><time>2026-04-17T13:18:03.304Z</time></trkpt><trkpt lat="40.8316467" lon="14.2404967"><ele>2.0</ele><time>2026-04-17T13:18:04.304Z</time></trkpt><trkpt lat="40.8316567" lon="14.2404017"><ele>1.9999999999999998</ele><time>2026-04-17T13:18:05.303Z</time></trkpt><trkpt lat="40.83167" lon="14.2403067"><ele>2.0</ele><time>2026-04-17T13:18:06.305Z</time></trkpt><trkpt lat="40.83168" lon="14.2402133"><ele>2.0</ele><time>2026-04-17T13:18:07.307Z</time></trkpt><trkpt lat="40.8316883" lon="14.2401183"><ele>2.0</ele><time>2026-04-17T13:18:08.305Z</time></trkpt><trkpt lat="40.8317" lon="14.2400217"><ele>1.9999999999999998</ele><time>2026-04-17T13:18:09.304Z</time></trkpt><trkpt lat="40.8317083" lon="14.23993"><ele>2.0</ele><time>2026-04-17T13:18:10.304Z</time></trkpt><trkpt lat="40.8317167" lon="14.23984"><ele>2.0</ele><time>2026-04-17T13:18:11.305Z</time></trkpt><trkpt lat="40.83172" lon="14.2397433"><ele>1.9999999999999998</ele><time>2026-04-17T13:18:12.305Z</time></trkpt><trkpt lat="40.8317283" lon="14.2396483"><ele>2.0</ele><time>2026-04-17T13:18:13.304Z</time></trkpt><trkpt lat="40.8317383" lon="14.2395533"><ele>2.0</ele><time>2026-04-17T13:18:14.304Z</time></trkpt><trkpt lat="40.8317467" lon="14.2394567"><ele>1.857142857142857</ele><time>2026-04-17T13:18:15.305Z</time></trkpt><trkpt lat="40.8317567" lon="14.23936"><ele>1.714285714285714</ele><time>2026-04-17T13:18:16.305Z</time></trkpt><trkpt lat="40.8317633" lon="14.2392633"><ele>1.5714285714285714</ele><time>2026-04-17T13:18:17.303Z</time></trkpt><trkpt lat="40.8317733" lon="14.2391667"><ele>1.4285714285714284</ele><time>2026-04-17T13:18:18.305Z</time></trkpt><trkpt lat="40.8317817" lon="14.2390717"><ele>1.2857142857142856</ele><time>2026-04-17T13:18:19.305Z</time></trkpt><trkpt lat="40.8317933" lon="14.238975"><ele>1.1428571428571428</ele><time>2026-04-17T13:18:20.305Z</time></trkpt><trkpt lat="40.8318" lon="14.2388733"><ele>1.0</ele><time>2026-04-17T13:18:21.304Z</time></trkpt><trkpt lat="40.831805" lon="14.23877"><ele>1.5714285714285714</ele><time>2026-04-17T13:18:22.304Z</time></trkpt><trkpt lat="40.83181" lon="14.2386683"><ele>2.142857142857143</ele><time>2026-04-17T13:18:23.305Z</time></trkpt><trkpt lat="40.8318217" lon="14.2385667"><ele>2.7142857142857144</ele><time>2026-04-17T13:18:24.305Z</time></trkpt><trkpt lat="40.83183" lon="14.238465"><ele>3.2857142857142856</ele><time>2026-04-17T13:18:25.304Z</time></trkpt><trkpt lat="40.8318417" lon="14.2383733"><ele>3.857142857142857</ele><time>2026-04-17T13:18:26.305Z</time></trkpt><trkpt lat="40.8318517" lon="14.238285"><ele>4.428571428571429</ele><time>2026-04-17T13:18:27.305Z</time></trkpt><trkpt lat="40.8318617" lon="14.2382017"><ele>5.0</ele><time>2026-04-17T13:18:28.305Z</time></trkpt><trkpt lat="40.831875" lon="14.2381183"><ele>5.0</ele><time>2026-04-17T13:18:29.304Z</time></trkpt><trkpt lat="40.831885" lon="14.2380333"><ele>5.0</ele><time>2026-04-17T13:18:30.305Z</time></trkpt><trkpt lat="40.8318933" lon="14.2379467"><ele>5.0</ele><time>2026-04-17T13:18:31.305Z</time></trkpt><trkpt lat="40.831895" lon="14.237855"><ele>5.0</ele><time>2026-04-17T13:18:32.304Z</time></trkpt><trkpt lat="40.8319067" lon="14.2377683"><ele>5.0</ele><time>2026-04-17T13:18:33.304Z</time></trkpt><trkpt lat="40.8319167" lon="14.237685"><ele>5.0</ele><time>2026-04-17T13:18:34.305Z</time></trkpt><trkpt lat="40.8319217" lon="14.2375967"><ele>5.0</ele><time>2026-04-17T13:18:35.305Z</time></trkpt><trkpt lat="40.8319283" lon="14.2375067"><ele>5.0</ele><time>2026-04-17T13:18:36.305Z</time></trkpt><trkpt lat="40.8319383" lon="14.23742"><ele>5.0</ele><time>2026-04-17T13:18:37.304Z</time></trkpt><trkpt lat="40.8319433" lon="14.23733"><ele>5.0</ele><time>2026-04-17T13:18:38.305Z</time></trkpt><trkpt lat="40.8319533" lon="14.2372433"><ele>5.0</ele><time>2026-04-17T13:18:39.305Z</time></trkpt><trkpt lat="40.8319583" lon="14.2371567"><ele>5.0</ele><time>2026-04-17T13:18:40.305Z</time></trkpt><trkpt lat="40.831965" lon="14.2370683"><ele>5.0</ele><time>2026-04-17T13:18:41.305Z</time></trkpt><trkpt lat="40.8319717" lon="14.2369817"><ele>5.0</ele><time>2026-04-17T13:18:42.304Z</time></trkpt><trkpt lat="40.8319767" lon="14.2368917"><ele>4.857142857142857</ele><time>2026-04-17T13:18:43.305Z</time></trkpt><trkpt lat="40.8319817" lon="14.236805"><ele>4.714285714285714</ele><time>2026-04-17T13:18:44.306Z</time></trkpt><trkpt lat="40.83199" lon="14.2367183"><ele>4.571428571428571</ele><time>2026-04-17T13:18:45.306Z</time></trkpt><trkpt lat="40.8319983" lon="14.2366333"><ele>4.428571428571429</ele><time>2026-04-17T13:18:46.305Z</time></trkpt><trkpt lat="40.8320033" lon="14.2365433"><ele>4.285714285714286</ele><time>2026-04-17T13:18:47.305Z</time></trkpt><trkpt lat="40.8320083" lon="14.236455"><ele>4.142857142857142</ele><time>2026-04-17T13:18:48.305Z</time></trkpt><trkpt lat="40.83201" lon="14.2363667"><ele>4.0</ele><time>2026-04-17T13:18:49.305Z</time></trkpt><trkpt lat="40.8320133" lon="14.2362783"><ele>4.0</ele><time>2026-04-17T13:18:50.304Z</time></trkpt><trkpt lat="40.832015" lon="14.23619"><ele>3.9999999999999996</ele><time>2026-04-17T13:18:51.305Z</time></trkpt><trkpt lat="40.8320167" lon="14.236105"><ele>4.0</ele><time>2026-04-17T13:18:52.304Z</time></trkpt><trkpt lat="40.8320217" lon="14.2360167"><ele>4.0</ele><time>2026-04-17T13:18:53.304Z</time></trkpt><trkpt lat="40.8320233" lon="14.2359283"><ele>3.9999999999999996</ele><time>2026-04-17T13:18:54.306Z</time></trkpt><trkpt lat="40.8320267" lon="14.23584"><ele>4.0</ele><time>2026-04-17T13:18:55.306Z</time></trkpt><trkpt lat="40.8320283" lon="14.2357517"><ele>4.0</ele><time>2026-04-17T13:18:56.306Z</time></trkpt><trkpt lat="40.8320283" lon="14.2356617"><ele>4.142857142857142</ele><time>2026-04-17T13:18:57.305Z</time></trkpt><trkpt lat="40.8320317" lon="14.2355783"><ele>4.285714285714286</ele><time>2026-04-17T13:18:58.305Z</time></trkpt><trkpt lat="40.8320417" lon="14.2354933"><ele>4.428571428571429</ele><time>2026-04-17T13:18:59.306Z</time></trkpt><trkpt lat="40.8320583" lon="14.23541"><ele>4.571428571428571</ele><time>2026-04-17T13:19:00.306Z</time></trkpt><trkpt lat="40.8320733" lon="14.2353233"><ele>4.714285714285714</ele><time>2026-04-17T13:19:01.305Z</time></trkpt><trkpt lat="40.8320867" lon="14.23524"><ele>4.857142857142857</ele><time>2026-04-17T13:19:02.306Z</time></trkpt><trkpt lat="40.8320933" lon="14.235155"><ele>5.0</ele><time>2026-04-17T13:19:03.306Z</time></trkpt><trkpt lat="40.8320983" lon="14.23507"><ele>5.0</ele><time>2026-04-17T13:19:04.305Z</time></trkpt><trkpt lat="40.8321033" lon="14.2349817"><ele>5.0</ele><time>2026-04-17T13:19:05.305Z</time></trkpt><trkpt lat="40.832115" lon="14.2348133"><ele>5.0</ele><time>2026-04-17T13:19:07.306Z</time></trkpt><trkpt lat="40.8321183" lon="14.2346517"><ele>5.0</ele><time>2026-04-17T13:19:09.305Z</time></trkpt><trkpt lat="40.8321283" lon="14.23449"><ele>5.0</ele><time>2026-04-17T13:19:11.305Z</time></trkpt><trkpt lat="40.83213" lon="14.2343267"><ele>4.666666666666667</ele><time>2026-04-17T13:19:13.303Z</time></trkpt><trkpt lat="40.8321333" lon="14.2342433"><ele>4.333333333333334</ele><time>2026-04-17T13:19:14.304Z</time></trkpt><trkpt lat="40.8321333" lon="14.23416"><ele>4.0</ele><time>2026-04-17T13:19:15.305Z</time></trkpt><trkpt lat="40.8321317" lon="14.233995"><ele>3.666666666666667</ele><time>2026-04-17T13:19:17.305Z</time></trkpt><trkpt lat="40.8321267" lon="14.233905"><ele>3.3333333333333335</ele><time>2026-04-17T13:19:18.305Z</time></trkpt><trkpt lat="40.8321267" lon="14.2338167"><ele>3.0</ele><time>2026-04-17T13:19:19.305Z</time></trkpt><trkpt lat="40.8321267" lon="14.23373"><ele>3.0</ele><time>2026-04-17T13:19:20.305Z</time></trkpt><trkpt lat="40.83213" lon="14.233565"><ele>3.0</ele><time>2026-04-17T13:19:22.305Z</time></trkpt><trkpt lat="40.8321317" lon="14.23348"><ele>3.0</ele><time>2026-04-17T13:19:23.305Z</time></trkpt><trkpt lat="40.832135" lon="14.233395"><ele>3.0</ele><time>2026-04-17T13:19:24.305Z</time></trkpt><trkpt lat="40.832135" lon="14.2333117"><ele>3.0</ele><time>2026-04-17T13:19:25.304Z</time></trkpt><trkpt lat="40.832135" lon="14.2332283"><ele>3.0</ele><time>2026-04-17T13:19:26.304Z</time></trkpt><trkpt lat="40.832135" lon="14.2330617"><ele>2.9999999999999996</ele><time>2026-04-17T13:19:28.303Z</time></trkpt><trkpt lat="40.8321333" lon="14.2329783"><ele>3.0</ele><time>2026-04-17T13:19:29.305Z</time></trkpt><trkpt lat="40.83213" lon="14.232895"><ele>3.0</ele><time>2026-04-17T13:19:30.305Z</time></trkpt><trkpt lat="40.8321283" lon="14.23281"><ele>3.0</ele><time>2026-04-17T13:19:31.304Z</time></trkpt><trkpt lat="40.8321233" lon="14.2326433"><ele>3.0</ele><time>2026-04-17T13:19:33.305Z</time></trkpt><trkpt lat="40.8321183" lon="14.2325583"><ele>2.9999999999999996</ele><time>2026-04-17T13:19:34.304Z</time></trkpt><trkpt lat="40.8321167" lon="14.232475"><ele>3.0</ele><time>2026-04-17T13:19:35.305Z</time></trkpt><trkpt lat="40.8321133" lon="14.2323917"><ele>2.9999999999999996</ele><time>2026-04-17T13:19:36.304Z</time></trkpt><trkpt lat="40.832115" lon="14.2323067"><ele>3.0</ele><time>2026-04-17T13:19:37.305Z</time></trkpt><trkpt lat="40.8321117" lon="14.23214"><ele>3.0</ele><time>2026-04-17T13:19:39.305Z</time></trkpt><trkpt lat="40.8321117" lon="14.2320533"><ele>3.0</ele><time>2026-04-17T13:19:40.304Z</time></trkpt><trkpt lat="40.8321083" lon="14.2319683"><ele>3.0</ele><time>2026-04-17T13:19:41.304Z</time></trkpt><trkpt lat="40.8321033" lon="14.231885"><ele>2.9999999999999996</ele><time>2026-04-17T13:19:42.305Z</time></trkpt><trkpt lat="40.8320967" lon="14.2318017"><ele>3.0</ele><time>2026-04-17T13:19:43.305Z</time></trkpt><trkpt lat="40.83209" lon="14.2317167"><ele>3.2</ele><time>2026-04-17T13:19:44.305Z</time></trkpt><trkpt lat="40.8320767" lon="14.2315517"><ele>3.4</ele><time>2026-04-17T13:19:46.305Z</time></trkpt><trkpt lat="40.8320567" lon="14.2313883"><ele>3.6000000000000005</ele><time>2026-04-17T13:19:48.306Z</time></trkpt><trkpt lat="40.8320433" lon="14.2313067"><ele>3.8000000000000003</ele><time>2026-04-17T13:19:49.304Z</time></trkpt><trkpt lat="40.8320217" lon="14.2311467"><ele>4.0</ele><time>2026-04-17T13:19:51.305Z</time></trkpt><trkpt lat="40.8320017" lon="14.23098"><ele>3.9999999999999996</ele><time>2026-04-17T13:19:53.305Z</time></trkpt><trkpt lat="40.831985" lon="14.23089"><ele>4.0</ele><time>2026-04-17T13:19:54.305Z</time></trkpt><trkpt lat="40.8319717" lon="14.2308067"><ele>4.0</ele><time>2026-04-17T13:19:55.304Z</time></trkpt><trkpt lat="40.8319617" lon="14.2307217"><ele>4.0</ele><time>2026-04-17T13:19:56.305Z</time></trkpt><trkpt lat="40.8319433" lon="14.23064"><ele>3.9999999999999996</ele><time>2026-04-17T13:19:57.304Z</time></trkpt><trkpt lat="40.8319233" lon="14.23048"><ele>4.0</ele><time>2026-04-17T13:19:59.305Z</time></trkpt><trkpt lat="40.8319033" lon="14.2303217"><ele>4.0</ele><time>2026-04-17T13:20:01.304Z</time></trkpt><trkpt lat="40.8318767" lon="14.2301617"><ele>4.0</ele><time>2026-04-17T13:20:03.305Z</time></trkpt><trkpt lat="40.8318533" lon="14.2300017"><ele>4.0</ele><time>2026-04-17T13:20:05.304Z</time></trkpt><trkpt lat="40.8318317" lon="14.229845"><ele>4.0</ele><time>2026-04-17T13:20:07.304Z</time></trkpt><trkpt lat="40.8317983" lon="14.2296867"><ele>3.6</ele><time>2026-04-17T13:20:09.305Z</time></trkpt><trkpt lat="40.8317633" lon="14.2295267"><ele>3.2</ele><time>2026-04-17T13:20:11.304Z</time></trkpt><trkpt lat="40.831745" lon="14.2294467"><ele>2.8000000000000003</ele><time>2026-04-17T13:20:12.305Z</time></trkpt><trkpt lat="40.8317083" lon="14.2292917"><ele>2.4000000000000004</ele><time>2026-04-17T13:20:14.305Z</time></trkpt><trkpt lat="40.83168" lon="14.2291333"><ele>2.0</ele><time>2026-04-17T13:20:16.304Z</time></trkpt><trkpt lat="40.831665" lon="14.2290517"><ele>2.6</ele><time>2026-04-17T13:20:17.305Z</time></trkpt><trkpt lat="40.83165" lon="14.22897"><ele>3.2</ele><time>2026-04-17T13:20:18.304Z</time></trkpt><trkpt lat="40.831625" lon="14.22881"><ele>3.8</ele><time>2026-04-17T13:20:20.305Z</time></trkpt><trkpt lat="40.8315867" lon="14.2286533"><ele>4.4</ele><time>2026-04-17T13:20:22.303Z</time></trkpt><trkpt lat="40.8315517" lon="14.2284933"><ele>5.0</ele><time>2026-04-17T13:20:24.305Z</time></trkpt><trkpt lat="40.8315283" lon="14.22841"><ele>5.0</ele><time>2026-04-17T13:20:25.304Z</time></trkpt><trkpt lat="40.8315083" lon="14.22833"><ele>5.0</ele><time>2026-04-17T13:20:26.305Z</time></trkpt><trkpt lat="40.83149" lon="14.22825"><ele>5.0</ele><time>2026-04-17T13:20:27.304Z</time></trkpt><trkpt lat="40.83147" lon="14.2281683"><ele>5.0</ele><time>2026-04-17T13:20:28.304Z</time></trkpt><trkpt lat="40.8314483" lon="14.22809"><ele>5.0</ele><time>2026-04-17T13:20:29.304Z</time></trkpt><trkpt lat="40.8314017" lon="14.2279383"><ele>5.0</ele><time>2026-04-17T13:20:31.305Z</time></trkpt><trkpt lat="40.8313583" lon="14.22779"><ele>4.5</ele><time>2026-04-17T13:20:33.304Z</time></trkpt><trkpt lat="40.8313217" lon="14.2276417"><ele>4.0</ele><time>2026-04-17T13:20:35.305Z</time></trkpt><trkpt lat="40.83129" lon="14.2274983"><ele>3.5</ele><time>2026-04-17T13:20:37.305Z</time></trkpt><trkpt lat="40.8312467" lon="14.22735"><ele>3.0</ele><time>2026-04-17T13:20:39.305Z</time></trkpt><trkpt lat="40.8312017" lon="14.227205"><ele>3.0</ele><time>2026-04-17T13:20:41.305Z</time></trkpt><trkpt lat="40.83115" lon="14.2270583"><ele>3.0</ele><time>2026-04-17T13:20:43.305Z</time></trkpt><trkpt lat="40.831105" lon="14.2269167"><ele>3.0</ele><time>2026-04-17T13:20:45.305Z</time></trkpt><trkpt lat="40.831055" lon="14.2267683"><ele>3.0</ele><time>2026-04-17T13:20:47.305Z</time></trkpt><trkpt lat="40.831" lon="14.2266217"><ele>4.5</ele><time>2026-04-17T13:20:49.305Z</time></trkpt><trkpt lat="40.830945" lon="14.2264767"><ele>6.0</ele><time>2026-04-17T13:20:51.305Z</time></trkpt><trkpt lat="40.8308867" lon="14.226335"><ele>7.5</ele><time>2026-04-17T13:20:53.306Z</time></trkpt><trkpt lat="40.8308333" lon="14.2261967"><ele>9.0</ele><time>2026-04-17T13:20:55.306Z</time></trkpt><trkpt lat="40.8307717" lon="14.2260517"><ele>9.0</ele><time>2026-04-17T13:20:57.305Z</time></trkpt><trkpt lat="40.8307417" lon="14.2259783"><ele>9.0</ele><time>2026-04-17T13:20:58.305Z</time></trkpt><trkpt lat="40.8307117" lon="14.225905"><ele>9.0</ele><time>2026-04-17T13:20:59.306Z</time></trkpt><trkpt lat="40.8306517" lon="14.2257517"><ele>9.0</ele><time>2026-04-17T13:21:01.304Z</time></trkpt><trkpt lat="40.8306217" lon="14.225675"><ele>9.0</ele><time>2026-04-17T13:21:02.304Z</time></trkpt><trkpt lat="40.83059" lon="14.2256"><ele>9.0</ele><time>2026-04-17T13:21:03.304Z</time></trkpt><trkpt lat="40.8305567" lon="14.2255283"><ele>9.6</ele><time>2026-04-17T13:21:04.306Z</time></trkpt><trkpt lat="40.8305217" lon="14.225455"><ele>10.2</ele><time>2026-04-17T13:21:05.306Z</time></trkpt><trkpt lat="40.83049" lon="14.2253817"><ele>10.799999999999999</ele><time>2026-04-17T13:21:06.306Z</time></trkpt><trkpt lat="40.8304333" lon="14.225235"><ele>11.4</ele><time>2026-04-17T13:21:08.306Z</time></trkpt><trkpt lat="40.8303717" lon="14.2250933"><ele>12.0</ele><time>2026-04-17T13:21:10.305Z</time></trkpt><trkpt lat="40.8303017" lon="14.2249567"><ele>12.0</ele><time>2026-04-17T13:21:12.306Z</time></trkpt><trkpt lat="40.830235" lon="14.2248217"><ele>12.0</ele><time>2026-04-17T13:21:14.305Z</time></trkpt><trkpt lat="40.8301633" lon="14.2246817"><ele>12.0</ele><time>2026-04-17T13:21:16.305Z</time></trkpt><trkpt lat="40.83013" lon="14.22461"><ele>12.0</ele><time>2026-04-17T13:21:17.305Z</time></trkpt><trkpt lat="40.8300617" lon="14.2244767"><ele>12.0</ele><time>2026-04-17T13:21:19.305Z</time></trkpt><trkpt lat="40.830025" lon="14.2244083"><ele>11.6</ele><time>2026-04-17T13:21:20.306Z</time></trkpt><trkpt lat="40.829955" lon="14.2242733"><ele>11.2</ele><time>2026-04-17T13:21:22.305Z</time></trkpt><trkpt lat="40.8298867" lon="14.224135"><ele>10.8</ele><time>2026-04-17T13:21:24.305Z</time></trkpt><trkpt lat="40.8298183" lon="14.2239967"><ele>10.4</ele><time>2026-04-17T13:21:26.304Z</time></trkpt><trkpt lat="40.8297817" lon="14.223925"><ele>10.0</ele><time>2026-04-17T13:21:27.305Z</time></trkpt><trkpt lat="40.8297433" lon="14.2238533"><ele>10.0</ele><time>2026-04-17T13:21:28.305Z</time></trkpt><trkpt lat="40.8297067" lon="14.223785"><ele>10.0</ele><time>2026-04-17T13:21:29.305Z</time></trkpt><trkpt lat="40.82963" lon="14.2236517"><ele>10.0</ele><time>2026-04-17T13:21:31.305Z</time></trkpt><trkpt lat="40.8295533" lon="14.223525"><ele>10.0</ele><time>2026-04-17T13:21:33.305Z</time></trkpt><trkpt lat="40.8294783" lon="14.2233967"><ele>10.0</ele><time>2026-04-17T13:21:35.304Z</time></trkpt><trkpt lat="40.8294033" lon="14.2232717"><ele>10.25</ele><time>2026-04-17T13:21:37.304Z</time></trkpt><trkpt lat="40.82933" lon="14.223145"><ele>10.5</ele><time>2026-04-17T13:21:39.305Z</time></trkpt><trkpt lat="40.82926" lon="14.2230167"><ele>10.75</ele><time>2026-04-17T13:21:41.306Z</time></trkpt><trkpt lat="40.8291867" lon="14.2228917"><ele>11.0</ele><time>2026-04-17T13:21:43.306Z</time></trkpt><trkpt lat="40.8291117" lon="14.2227633"><ele>10.600000000000001</ele><time>2026-04-17T13:21:45.307Z</time></trkpt><trkpt lat="40.82903" lon="14.2226383"><ele>10.200000000000001</ele><time>2026-04-17T13:21:47.305Z</time></trkpt><trkpt lat="40.8289467" lon="14.2225133"><ele>9.8</ele><time>2026-04-17T13:21:49.305Z</time></trkpt><trkpt lat="40.8288633" lon="14.2223983"><ele>9.4</ele><time>2026-04-17T13:21:51.304Z</time></trkpt><trkpt lat="40.8288167" lon="14.22234"><ele>9.0</ele><time>2026-04-17T13:21:52.304Z</time></trkpt><trkpt lat="40.82877" lon="14.2222833"><ele>9.0</ele><time>2026-04-17T13:21:53.305Z</time></trkpt><trkpt lat="40.8286867" lon="14.2221617"><ele>9.0</ele><time>2026-04-17T13:21:55.306Z</time></trkpt><trkpt lat="40.8286083" lon="14.2220417"><ele>9.0</ele><time>2026-04-17T13:21:57.306Z</time></trkpt><trkpt lat="40.828525" lon="14.2219267"><ele>9.0</ele><time>2026-04-17T13:21:59.305Z</time></trkpt><trkpt lat="40.828445" lon="14.221825"><ele>8.25</ele><time>2026-04-17T13:22:01.305Z</time></trkpt><trkpt lat="40.828365" lon="14.2217117"><ele>7.5</ele><time>2026-04-17T13:22:03.306Z</time></trkpt><trkpt lat="40.82828" lon="14.2216"><ele>6.75</ele><time>2026-04-17T13:22:05.306Z</time></trkpt><trkpt lat="40.8281967" lon="14.2214933"><ele>6.0</ele><time>2026-04-17T13:22:07.305Z</time></trkpt><trkpt lat="40.8280633" lon="14.22135"><ele>6.0</ele><time>2026-04-17T13:22:10.306Z</time></trkpt><trkpt lat="40.8279817" lon="14.22124"><ele>6.0</ele><time>2026-04-17T13:22:12.305Z</time></trkpt><trkpt lat="40.8279033" lon="14.2211483"><ele>6.0</ele><time>2026-04-17T13:22:14.305Z</time></trkpt><trkpt lat="40.82783" lon="14.2210683"><ele>6.0</ele><time>2026-04-17T13:22:16.304Z</time></trkpt><trkpt lat="40.8278367" lon="14.2209833"><ele>6.0</ele><time>2026-04-17T13:22:19.305Z</time></trkpt><trkpt lat="40.8278733" lon="14.2209"><ele>6.0</ele><time>2026-04-17T13:22:23.304Z</time></trkpt><trkpt lat="40.8278117" lon="14.2208217"><ele>6.0</ele><time>2026-04-17T13:22:26.304Z</time></trkpt><trkpt lat="40.8277517" lon="14.2207433"><ele>6.0</ele><time>2026-04-17T13:22:28.304Z</time></trkpt><trkpt lat="40.8276917" lon="14.2206583"><ele>6.0</ele><time>2026-04-17T13:22:30.305Z</time></trkpt><trkpt lat="40.82763" lon="14.220565"><ele>6.0</ele><time>2026-04-17T13:22:32.305Z</time></trkpt><trkpt lat="40.8275567" lon="14.22048"><ele>6.0</ele><time>2026-04-17T13:22:34.305Z</time></trkpt><trkpt lat="40.8274883" lon="14.220405"><ele>7.0</ele><time>2026-04-17T13:22:36.305Z</time></trkpt><trkpt lat="40.8274267" lon="14.2203183"><ele>8.0</ele><time>2026-04-17T13:22:38.305Z</time></trkpt><trkpt lat="40.8273633" lon="14.22024"><ele>9.0</ele><time>2026-04-17T13:22:40.306Z</time></trkpt><trkpt lat="40.8272833" lon="14.22016"><ele>10.0</ele><time>2026-04-17T13:22:42.306Z</time></trkpt><trkpt lat="40.8272033" lon="14.2200867"><ele>11.0</ele><time>2026-04-17T13:22:44.305Z</time></trkpt><trkpt lat="40.8271217" lon="14.2200117"><ele>11.0</ele><time>2026-04-17T13:22:46.304Z</time></trkpt><trkpt lat="40.8270517" lon="14.2199183"><ele>11.0</ele><time>2026-04-17T13:22:48.306Z</time></trkpt><trkpt lat="40.8269867" lon="14.2198117"><ele>11.0</ele><time>2026-04-17T13:22:50.306Z</time></trkpt><trkpt lat="40.8269283" lon="14.2196933"><ele>11.0</ele><time>2026-04-17T13:22:52.31Z</time></trkpt><trkpt lat="40.8269233" lon="14.21954"><ele>11.0</ele><time>2026-04-17T13:22:54.305Z</time></trkpt><trkpt lat="40.8269183" lon="14.2194483"><ele>14.166666666666666</ele><time>2026-04-17T13:22:56.308Z</time></trkpt><trkpt lat="40.8269233" lon="14.219365"><ele>17.333333333333332</ele><time>2026-04-17T13:22:59.305Z</time></trkpt><trkpt lat="40.826975" lon="14.2192983"><ele>20.5</ele><time>2026-04-17T13:23:03.305Z</time></trkpt><trkpt lat="40.8270467" lon="14.2192567"><ele>23.666666666666668</ele><time>2026-04-17T13:23:07.306Z</time></trkpt><trkpt lat="40.8271467" lon="14.2193033"><ele>26.833333333333332</ele><time>2026-04-17T13:23:10.306Z</time></trkpt><trkpt lat="40.8272133" lon="14.2193483"><ele>30.0</ele><time>2026-04-17T13:23:12.307Z</time></trkpt><trkpt lat="40.827285" lon="14.2193583"><ele>30.0</ele><time>2026-04-17T13:23:15.307Z</time></trkpt><trkpt lat="40.8273633" lon="14.219375"><ele>30.0</ele><time>2026-04-17T13:23:17.308Z</time></trkpt><trkpt lat="40.8274167" lon="14.2193217"><ele>30.0</ele><time>2026-04-17T13:23:20.305Z</time></trkpt><trkpt lat="40.827475" lon="14.2192617"><ele>30.0</ele><time>2026-04-17T13:23:24.305Z</time></trkpt><trkpt lat="40.827535" lon="14.2192133"><ele>30.0</ele><time>2026-04-17T13:23:27.305Z</time></trkpt><trkpt lat="40.8275483" lon="14.2191217"><ele>30.0</ele><time>2026-04-17T13:23:31.304Z</time></trkpt><trkpt lat="40.8275267" lon="14.2190267"><ele>30.0</ele><time>2026-04-17T13:23:34.305Z</time></trkpt><trkpt lat="40.8274767" lon="14.2189233"><ele>35.714285714285715</ele><time>2026-04-17T13:23:37.312Z</time></trkpt><trkpt lat="40.827435" lon="14.21885"><ele>41.42857142857143</ele><time>2026-04-17T13:23:39.308Z</time></trkpt><trkpt lat="40.8273833" lon="14.218775"><ele>47.14285714285714</ele><time>2026-04-17T13:23:42.308Z</time></trkpt><trkpt lat="40.8273083" lon="14.21875"><ele>52.85714285714286</ele><time>2026-04-17T13:23:45.306Z</time></trkpt><trkpt lat="40.827225" lon="14.2187533"><ele>58.57142857142857</ele><time>2026-04-17T13:23:48.307Z</time></trkpt><trkpt lat="40.8271533" lon="14.2187483"><ele>64.28571428571429</ele><time>2026-04-17T13:23:51.307Z</time></trkpt><trkpt lat="40.8270933" lon="14.21872"><ele>70.0</ele><time>2026-04-17T13:23:53.307Z</time></trkpt><trkpt lat="40.8270133" lon="14.218705"><ele>70.0</ele><time>2026-04-17T13:23:56.307Z</time></trkpt><trkpt lat="40.8269317" lon="14.2186817"><ele>70.0</ele><time>2026-04-17T13:23:59.305Z</time></trkpt><trkpt lat="40.8268567" lon="14.2186733"><ele>70.0</ele><time>2026-04-17T13:24:02.307Z</time></trkpt><trkpt lat="40.826785" lon="14.2186383"><ele>70.0</ele><time>2026-04-17T13:24:06.31Z</time></trkpt><trkpt lat="40.8267117" lon="14.2186033"><ele>70.0</ele><time>2026-04-17T13:24:10.305Z</time></trkpt><trkpt lat="40.826645" lon="14.2186033"><ele>70.0</ele><time>2026-04-17T13:24:12.308Z</time></trkpt><trkpt lat="40.8265817" lon="14.2186217"><ele>70.0</ele><time>2026-04-17T13:24:14.308Z</time></trkpt><trkpt lat="40.8264983" lon="14.218645"><ele>69.28571428571429</ele><time>2026-04-17T13:24:17.307Z</time></trkpt><trkpt lat="40.826425" lon="14.21867"><ele>68.57142857142857</ele><time>2026-04-17T13:24:20.306Z</time></trkpt><trkpt lat="40.8263617" lon="14.2187117"><ele>67.85714285714286</ele><time>2026-04-17T13:24:23.307Z</time></trkpt><trkpt lat="40.8262883" lon="14.218755"><ele>67.14285714285714</ele><time>2026-04-17T13:24:26.308Z</time></trkpt><trkpt lat="40.826215" lon="14.218795"><ele>66.42857142857143</ele><time>2026-04-17T13:24:29.307Z</time></trkpt><trkpt lat="40.8261383" lon="14.2188133"><ele>65.71428571428572</ele><time>2026-04-17T13:24:33.31Z</time></trkpt><trkpt lat="40.8260733" lon="14.2188217"><ele>65.0</ele><time>2026-04-17T13:24:35.307Z</time></trkpt><trkpt lat="40.8260067" lon="14.2188267"><ele>64.83333333333334</ele><time>2026-04-17T13:24:37.306Z</time></trkpt><trkpt lat="40.8259217" lon="14.2188267"><ele>64.66666666666667</ele><time>2026-04-17T13:24:40.307Z</time></trkpt><trkpt lat="40.82583" lon="14.2188183"><ele>64.5</ele><time>2026-04-17T13:24:43.307Z</time></trkpt><trkpt lat="40.8257417" lon="14.2188267"><ele>64.33333333333333</ele><time>2026-04-17T13:24:46.308Z</time></trkpt><trkpt lat="40.8256617" lon="14.218835"><ele>64.16666666666666</ele><time>2026-04-17T13:24:49.308Z</time></trkpt><trkpt lat="40.8255833" lon="14.2188433"><ele>64.0</ele><time>2026-04-17T13:24:52.308Z</time></trkpt><trkpt lat="40.825495" lon="14.2188583"><ele>63.99999999999999</ele><time>2026-04-17T13:24:55.307Z</time></trkpt><trkpt lat="40.8254117" lon="14.2188617"><ele>64.0</ele><time>2026-04-17T13:24:58.309Z</time></trkpt><trkpt lat="40.8253283" lon="14.2188667"><ele>64.0</ele><time>2026-04-17T13:25:01.308Z</time></trkpt><trkpt lat="40.825235" lon="14.2188783"><ele>64.0</ele><time>2026-04-17T13:25:04.308Z</time></trkpt><trkpt lat="40.825165" lon="14.2188883"><ele>63.99999999999999</ele><time>2026-04-17T13:25:06.307Z</time></trkpt><trkpt lat="40.8251017" lon="14.2188983"><ele>64.0</ele><time>2026-04-17T13:25:08.31Z</time></trkpt><trkpt lat="40.82504" lon="14.2189183"><ele>64.66666666666666</ele><time>2026-04-17T13:25:10.309Z</time></trkpt><trkpt lat="40.8249617" lon="14.21893"><ele>65.33333333333333</ele><time>2026-04-17T13:25:12.309Z</time></trkpt><trkpt lat="40.82488" lon="14.2189717"><ele>66.0</ele><time>2026-04-17T13:25:15.307Z</time></trkpt><trkpt lat="40.824805" lon="14.2190233"><ele>66.66666666666667</ele><time>2026-04-17T13:25:18.308Z</time></trkpt><trkpt lat="40.8247433" lon="14.2190783"><ele>67.33333333333334</ele><time>2026-04-17T13:25:21.308Z</time></trkpt><trkpt lat="40.824675" lon="14.2191283"><ele>68.0</ele><time>2026-04-17T13:25:24.309Z</time></trkpt><trkpt lat="40.8246017" lon="14.2191733"><ele>66.14285714285714</ele><time>2026-04-17T13:25:27.308Z</time></trkpt><trkpt lat="40.8245467" lon="14.2192167"><ele>64.28571428571428</ele><time>2026-04-17T13:25:29.308Z</time></trkpt><trkpt lat="40.8244883" lon="14.219275"><ele>62.42857142857142</ele><time>2026-04-17T13:25:32.307Z</time></trkpt><trkpt lat="40.8244117" lon="14.21927"><ele>60.57142857142857</ele><time>2026-04-17T13:25:35.308Z</time></trkpt><trkpt lat="40.8243367" lon="14.21921"><ele>58.71428571428571</ele><time>2026-04-17T13:25:38.306Z</time></trkpt><trkpt lat="40.8242783" lon="14.2191717"><ele>56.857142857142854</ele><time>2026-04-17T13:25:41.308Z</time></trkpt><trkpt lat="40.8242417" lon="14.2190817"><ele>55.0</ele><time>2026-04-17T13:25:44.306Z</time></trkpt><trkpt lat="40.8242117" lon="14.2189817"><ele>54.99999999999999</ele><time>2026-04-17T13:25:47.306Z</time></trkpt><trkpt lat="40.8241733" lon="14.21887"><ele>55.0</ele><time>2026-04-17T13:25:50.307Z</time></trkpt><trkpt lat="40.8241283" lon="14.2187683"><ele>55.0</ele><time>2026-04-17T13:25:53.306Z</time></trkpt><trkpt lat="40.8240983" lon="14.2186867"><ele>55.0</ele><time>2026-04-17T13:25:55.309Z</time></trkpt><trkpt lat="40.8240733" lon="14.2186033"><ele>55.0</ele><time>2026-04-17T13:25:57.309Z</time></trkpt><trkpt lat="40.824065" lon="14.2185167"><ele>54.99999999999999</ele><time>2026-04-17T13:25:59.307Z</time></trkpt><trkpt lat="40.8240567" lon="14.2184317"><ele>55.0</ele><time>2026-04-17T13:26:01.308Z</time></trkpt><trkpt lat="40.8240383" lon="14.21831"><ele>54.99999999999999</ele><time>2026-04-17T13:26:04.308Z</time></trkpt><trkpt lat="40.8240167" lon="14.2181883"><ele>55.0</ele><time>2026-04-17T13:26:07.307Z</time></trkpt><trkpt lat="40.824" lon="14.2181067"><ele>55.0</ele><time>2026-04-17T13:26:09.308Z</time></trkpt><trkpt lat="40.8239767" lon="14.2180267"><ele>55.0</ele><time>2026-04-17T13:26:11.307Z</time></trkpt><trkpt lat="40.823945" lon="14.2179517"><ele>55.0</ele><time>2026-04-17T13:26:13.309Z</time></trkpt><trkpt lat="40.823915" lon="14.217865"><ele>54.99999999999999</ele><time>2026-04-17T13:26:15.308Z</time></trkpt><trkpt lat="40.8238817" lon="14.217785"><ele>55.0</ele><time>2026-04-17T13:26:17.308Z</time></trkpt><trkpt lat="40.8238533" lon="14.2177083"><ele>56.28571428571428</ele><time>2026-04-17T13:26:19.309Z</time></trkpt><trkpt lat="40.8238083" lon="14.2176"><ele>57.57142857142857</ele><time>2026-04-17T13:26:22.308Z</time></trkpt><trkpt lat="40.8237883" lon="14.2175183"><ele>58.857142857142854</ele><time>2026-04-17T13:26:24.309Z</time></trkpt><trkpt lat="40.8237933" lon="14.21743"><ele>60.14285714285714</ele><time>2026-04-17T13:26:26.308Z</time></trkpt><trkpt lat="40.82382" lon="14.2173483"><ele>61.42857142857142</ele><time>2026-04-17T13:26:28.308Z</time></trkpt><trkpt lat="40.8238717" lon="14.21729"><ele>62.71428571428571</ele><time>2026-04-17T13:26:30.308Z</time></trkpt><trkpt lat="40.8239317" lon="14.2172633"><ele>64.0</ele><time>2026-04-17T13:26:32.307Z</time></trkpt><trkpt lat="40.82402" lon="14.217265"><ele>65.33333333333333</ele><time>2026-04-17T13:26:35.308Z</time></trkpt><trkpt lat="40.8240667" lon="14.2171983"><ele>66.66666666666666</ele><time>2026-04-17T13:26:39.307Z</time></trkpt><trkpt lat="40.8240267" lon="14.2171017"><ele>68.0</ele><time>2026-04-17T13:26:42.308Z</time></trkpt><trkpt lat="40.8239933" lon="14.2170033"><ele>69.33333333333333</ele><time>2026-04-17T13:26:45.308Z</time></trkpt><trkpt lat="40.8239683" lon="14.21691"><ele>70.66666666666667</ele><time>2026-04-17T13:26:48.309Z</time></trkpt><trkpt lat="40.8239517" lon="14.2168083"><ele>72.0</ele><time>2026-04-17T13:26:52.308Z</time></trkpt><trkpt lat="40.8239417" lon="14.2167117"><ele>72.00000000000001</ele><time>2026-04-17T13:26:56.309Z</time></trkpt><trkpt lat="40.8239317" lon="14.2166133"><ele>72.0</ele><time>2026-04-17T13:27:00.309Z</time></trkpt><trkpt lat="40.8239217" lon="14.2165267"><ele>72.0</ele><time>2026-04-17T13:27:03.307Z</time></trkpt><trkpt lat="40.8239267" lon="14.2164433"><ele>72.0</ele><time>2026-04-17T13:27:06.309Z</time></trkpt><trkpt lat="40.8239067" lon="14.2163567"><ele>72.0</ele><time>2026-04-17T13:27:11.305Z</time></trkpt><trkpt lat="40.8239" lon="14.2162633"><ele>72.00000000000001</ele><time>2026-04-17T13:27:14.309Z</time></trkpt><trkpt lat="40.8239133" lon="14.216165"><ele>72.0</ele><time>2026-04-17T13:27:16.308Z</time></trkpt><trkpt lat="40.8239117" lon="14.216055"><ele>73.5</ele><time>2026-04-17T13:27:18.31Z</time></trkpt><trkpt lat="40.8239133" lon="14.2159567"><ele>75.0</ele><time>2026-04-17T13:27:20.307Z</time></trkpt><trkpt lat="40.8238833" lon="14.2158533"><ele>76.5</ele><time>2026-04-17T13:27:23.305Z</time></trkpt><trkpt lat="40.8238417" lon="14.2157433"><ele>78.0</ele><time>2026-04-17T13:27:26.309Z</time></trkpt><trkpt lat="40.8237833" lon="14.2156567"><ele>79.5</ele><time>2026-04-17T13:27:29.309Z</time></trkpt><trkpt lat="40.82373" lon="14.2156067"><ele>81.0</ele><time>2026-04-17T13:27:31.308Z</time></trkpt><trkpt lat="40.823675" lon="14.215565"><ele>81.33333333333333</ele><time>2026-04-17T13:27:33.309Z</time></trkpt><trkpt lat="40.8236133" lon="14.2155333"><ele>81.66666666666667</ele><time>2026-04-17T13:27:35.305Z</time></trkpt><trkpt lat="40.8235283" lon="14.2154967"><ele>82.0</ele><time>2026-04-17T13:27:38.31Z</time></trkpt><trkpt lat="40.8234467" lon="14.2154783"><ele>82.33333333333334</ele><time>2026-04-17T13:27:41.308Z</time></trkpt><trkpt lat="40.8233767" lon="14.2154433"><ele>82.66666666666667</ele><time>2026-04-17T13:27:44.307Z</time></trkpt><trkpt lat="40.8232983" lon="14.215405"><ele>83.0</ele><time>2026-04-17T13:27:47.307Z</time></trkpt><trkpt lat="40.8232267" lon="14.2154067"><ele>83.0</ele><time>2026-04-17T13:27:50.309Z</time></trkpt><trkpt lat="40.8231617" lon="14.2153317"><ele>83.0</ele><time>2026-04-17T13:27:53.309Z</time></trkpt><trkpt lat="40.8231083" lon="14.2152683"><ele>83.0</ele><time>2026-04-17T13:27:56.308Z</time></trkpt><trkpt lat="40.8230633" lon="14.2152033"><ele>83.0</ele><time>2026-04-17T13:27:59.309Z</time></trkpt><trkpt lat="40.8230267" lon="14.2151033"><ele>83.0</ele><time>2026-04-17T13:28:02.309Z</time></trkpt><trkpt lat="40.8229883" lon="14.215015"><ele>83.0</ele><time>2026-04-17T13:28:05.309Z</time></trkpt><trkpt lat="40.8229617" lon="14.2149183"><ele>83.0</ele><time>2026-04-17T13:28:08.308Z</time></trkpt><trkpt lat="40.8229317" lon="14.2148433"><ele>83.0</ele><time>2026-04-17T13:28:11.309Z</time></trkpt><trkpt lat="40.8228883" lon="14.2147467"><ele>83.0</ele><time>2026-04-17T13:28:14.308Z</time></trkpt><trkpt lat="40.8228533" lon="14.21464"><ele>83.0</ele><time>2026-04-17T13:28:17.307Z</time></trkpt><trkpt lat="40.82282" lon="14.2145417"><ele>83.0</ele><time>2026-04-17T13:28:20.308Z</time></trkpt><trkpt lat="40.8227917" lon="14.2144567"><ele>83.0</ele><time>2026-04-17T13:28:23.308Z</time></trkpt><trkpt lat="40.8227567" lon="14.214385"><ele>82.16666666666667</ele><time>2026-04-17T13:28:26.308Z</time></trkpt><trkpt lat="40.8227017" lon="14.2143283"><ele>81.33333333333334</ele><time>2026-04-17T13:28:29.306Z</time></trkpt><trkpt lat="40.822655" lon="14.2142367"><ele>80.5</ele><time>2026-04-17T13:28:32.309Z</time></trkpt><trkpt lat="40.822615" lon="14.2141483"><ele>79.66666666666667</ele><time>2026-04-17T13:28:35.309Z</time></trkpt><trkpt lat="40.82256" lon="14.21406"><ele>78.83333333333333</ele><time>2026-04-17T13:28:39.31Z</time></trkpt><trkpt lat="40.8225067" lon="14.2139817"><ele>78.0</ele><time>2026-04-17T13:28:42.31Z</time></trkpt><trkpt lat="40.8224483" lon="14.213915"><ele>80.71428571428572</ele><time>2026-04-17T13:28:45.307Z</time></trkpt><trkpt lat="40.8223783" lon="14.2138533"><ele>83.42857142857142</ele><time>2026-04-17T13:28:48.308Z</time></trkpt><trkpt lat="40.82232" lon="14.2138"><ele>86.14285714285714</ele><time>2026-04-17T13:28:51.309Z</time></trkpt><trkpt lat="40.8222683" lon="14.21375"><ele>88.85714285714286</ele><time>2026-04-17T13:28:54.31Z</time></trkpt><trkpt lat="40.822215" lon="14.21369"><ele>91.57142857142858</ele><time>2026-04-17T13:28:57.309Z</time></trkpt><trkpt lat="40.8221533" lon="14.213625"><ele>94.28571428571428</ele><time>2026-04-17T13:29:00.309Z</time></trkpt><trkpt lat="40.8220867" lon="14.2135667"><ele>97.0</ele><time>2026-04-17T13:29:03.308Z</time></trkpt><trkpt lat="40.8220267" lon="14.2135083"><ele>97.00000000000001</ele><time>2026-04-17T13:29:06.308Z</time></trkpt><trkpt lat="40.8219667" lon="14.2134567"><ele>97.0</ele><time>2026-04-17T13:29:09.305Z</time></trkpt><trkpt lat="40.8218967" lon="14.2133817"><ele>97.0</ele><time>2026-04-17T13:29:12.308Z</time></trkpt><trkpt lat="40.8218217" lon="14.2133233"><ele>97.0</ele><time>2026-04-17T13:29:15.306Z</time></trkpt><trkpt lat="40.8217683" lon="14.2132417"><ele>97.00000000000001</ele><time>2026-04-17T13:29:18.306Z</time></trkpt><trkpt lat="40.8217183" lon="14.2131567"><ele>97.0</ele><time>2026-04-17T13:29:21.306Z</time></trkpt><trkpt lat="40.8216567" lon="14.2130833"><ele>96.83333333333334</ele><time>2026-04-17T13:29:24.308Z</time></trkpt><trkpt lat="40.8216017" lon="14.2129917"><ele>96.66666666666667</ele><time>2026-04-17T13:29:27.31Z</time></trkpt><trkpt lat="40.8215733" lon="14.2128967"><ele>96.5</ele><time>2026-04-17T13:29:30.309Z</time></trkpt><trkpt lat="40.8215517" lon="14.21279"><ele>96.33333333333334</ele><time>2026-04-17T13:29:33.305Z</time></trkpt><trkpt lat="40.8215383" lon="14.2126833"><ele>96.16666666666667</ele><time>2026-04-17T13:29:36.307Z</time></trkpt><trkpt lat="40.8215133" lon="14.21258"><ele>96.0</ele><time>2026-04-17T13:29:39.308Z</time></trkpt><trkpt lat="40.8214783" lon="14.2124967"><ele>96.0</ele><time>2026-04-17T13:29:42.31Z</time></trkpt><trkpt lat="40.82145" lon="14.21239"><ele>96.0</ele><time>2026-04-17T13:29:45.31Z</time></trkpt><trkpt lat="40.8214217" lon="14.2122983"><ele>96.0</ele><time>2026-04-17T13:29:48.307Z</time></trkpt><trkpt lat="40.8213933" lon="14.2122117"><ele>96.0</ele><time>2026-04-17T13:29:51.307Z</time></trkpt><trkpt lat="40.8213517" lon="14.2121183"><ele>96.0</ele><time>2026-04-17T13:29:54.306Z</time></trkpt><trkpt lat="40.821295" lon="14.2120333"><ele>96.0</ele><time>2026-04-17T13:29:57.308Z</time></trkpt><trkpt lat="40.8212433" lon="14.21195"><ele>99.0</ele><time>2026-04-17T13:30:00.309Z</time></trkpt><trkpt lat="40.8211983" lon="14.211855"><ele>102.0</ele><time>2026-04-17T13:30:03.308Z</time></trkpt><trkpt lat="40.8211567" lon="14.211765"><ele>105.0</ele><time>2026-04-17T13:30:06.305Z</time></trkpt><trkpt lat="40.8211167" lon="14.2116867"><ele>108.0</ele><time>2026-04-17T13:30:09.307Z</time></trkpt><trkpt lat="40.8210583" lon="14.2116167"><ele>111.0</ele><time>2026-04-17T13:30:12.306Z</time></trkpt><trkpt lat="40.821" lon="14.21155"><ele>114.0</ele><time>2026-04-17T13:30:15.307Z</time></trkpt><trkpt lat="40.820935" lon="14.2114817"><ele>114.14285714285714</ele><time>2026-04-17T13:30:18.309Z</time></trkpt><trkpt lat="40.82086" lon="14.21142"><ele>114.28571428571428</ele><time>2026-04-17T13:30:21.309Z</time></trkpt><trkpt lat="40.8207967" lon="14.2113517"><ele>114.42857142857142</ele><time>2026-04-17T13:30:24.308Z</time></trkpt><trkpt lat="40.8207633" lon="14.2112633"><ele>114.57142857142856</ele><time>2026-04-17T13:30:27.308Z</time></trkpt><trkpt lat="40.82072" lon="14.2111967"><ele>114.71428571428571</ele><time>2026-04-17T13:30:30.306Z</time></trkpt><trkpt lat="40.8206683" lon="14.211145"><ele>114.85714285714283</ele><time>2026-04-17T13:30:32.306Z</time></trkpt><trkpt lat="40.8206083" lon="14.2111183"><ele>114.99999999999999</ele><time>2026-04-17T13:30:34.306Z</time></trkpt><trkpt lat="40.8205383" lon="14.21111"><ele>115.00000000000001</ele><time>2026-04-17T13:30:36.31Z</time></trkpt><trkpt lat="40.820485" lon="14.2110633"><ele>115.0</ele><time>2026-04-17T13:30:38.305Z</time></trkpt><trkpt lat="40.82041" lon="14.2109833"><ele>115.0</ele><time>2026-04-17T13:30:41.304Z</time></trkpt><trkpt lat="40.820345" lon="14.210925"><ele>115.0</ele><time>2026-04-17T13:30:43.305Z</time></trkpt><trkpt lat="40.8202817" lon="14.2108567"><ele>115.00000000000001</ele><time>2026-04-17T13:30:45.305Z</time></trkpt><trkpt lat="40.8202033" lon="14.210785"><ele>115.0</ele><time>2026-04-17T13:30:47.305Z</time></trkpt><trkpt lat="40.8201183" lon="14.2107183"><ele>114.6</ele><time>2026-04-17T13:30:49.304Z</time></trkpt><trkpt lat="40.82003" lon="14.2106567"><ele>114.2</ele><time>2026-04-17T13:30:51.304Z</time></trkpt><trkpt lat="40.81994" lon="14.2105883"><ele>113.80000000000001</ele><time>2026-04-17T13:30:53.305Z</time></trkpt><trkpt lat="40.8198583" lon="14.21051"><ele>113.4</ele><time>2026-04-17T13:30:55.305Z</time></trkpt><trkpt lat="40.8197717" lon="14.2104333"><ele>113.0</ele><time>2026-04-17T13:30:57.305Z</time></trkpt><trkpt lat="40.8196833" lon="14.2103433"><ele>112.99999999999999</ele><time>2026-04-17T13:30:59.305Z</time></trkpt><trkpt lat="40.819585" lon="14.210255"><ele>113.0</ele><time>2026-04-17T13:31:01.305Z</time></trkpt><trkpt lat="40.81953" lon="14.21021"><ele>113.0</ele><time>2026-04-17T13:31:02.31Z</time></trkpt><trkpt lat="40.8194783" lon="14.21016"><ele>113.0</ele><time>2026-04-17T13:31:03.304Z</time></trkpt><trkpt lat="40.81942" lon="14.2101117"><ele>112.99999999999999</ele><time>2026-04-17T13:31:04.305Z</time></trkpt><trkpt lat="40.819365" lon="14.21005"><ele>113.0</ele><time>2026-04-17T13:31:05.305Z</time></trkpt><trkpt lat="40.819305" lon="14.2099983"><ele>113.16666666666666</ele><time>2026-04-17T13:31:06.305Z</time></trkpt><trkpt lat="40.81924" lon="14.20995"><ele>113.33333333333333</ele><time>2026-04-17T13:31:07.304Z</time></trkpt><trkpt lat="40.8191767" lon="14.2098967"><ele>113.5</ele><time>2026-04-17T13:31:08.305Z</time></trkpt><trkpt lat="40.819105" lon="14.2098533"><ele>113.66666666666666</ele><time>2026-04-17T13:31:09.304Z</time></trkpt><trkpt lat="40.819035" lon="14.209815"><ele>113.83333333333333</ele><time>2026-04-17T13:31:10.305Z</time></trkpt><trkpt lat="40.8189567" lon="14.2097767"><ele>114.0</ele><time>2026-04-17T13:31:11.305Z</time></trkpt><trkpt lat="40.8188783" lon="14.209735"><ele>114.0</ele><time>2026-04-17T13:31:12.305Z</time></trkpt><trkpt lat="40.8188" lon="14.209695"><ele>114.0</ele><time>2026-04-17T13:31:13.307Z</time></trkpt><trkpt lat="40.8187133" lon="14.209655"><ele>114.0</ele><time>2026-04-17T13:31:14.304Z</time></trkpt><trkpt lat="40.81863" lon="14.20962"><ele>114.0</ele><time>2026-04-17T13:31:15.305Z</time></trkpt><trkpt lat="40.8185583" lon="14.2095883"><ele>114.0</ele><time>2026-04-17T13:31:16.304Z</time></trkpt><trkpt lat="40.818465" lon="14.2095433"><ele>114.0</ele><time>2026-04-17T13:31:18.305Z</time></trkpt><trkpt lat="40.8183967" lon="14.209485"><ele>111.5</ele><time>2026-04-17T13:31:40.305Z</time></trkpt><trkpt lat="40.818335" lon="14.2094217"><ele>109.0</ele><time>2026-04-17T13:31:43.305Z</time></trkpt><trkpt lat="40.818285" lon="14.20937"><ele>106.5</ele><time>2026-04-17T13:31:45.304Z</time></trkpt><trkpt lat="40.8182217" lon="14.2093133"><ele>104.0</ele><time>2026-04-17T13:31:47.304Z</time></trkpt><trkpt lat="40.8181417" lon="14.2092467"><ele>101.5</ele><time>2026-04-17T13:31:49.304Z</time></trkpt><trkpt lat="40.81806" lon="14.2091617"><ele>99.0</ele><time>2026-04-17T13:31:51.305Z</time></trkpt><trkpt lat="40.81797" lon="14.2090617"><ele>100.5</ele><time>2026-04-17T13:31:53.305Z</time></trkpt><trkpt lat="40.8178667" lon="14.2089533"><ele>102.0</ele><time>2026-04-17T13:31:55.304Z</time></trkpt><trkpt lat="40.81781" lon="14.2089033"><ele>103.5</ele><time>2026-04-17T13:31:56.304Z</time></trkpt><trkpt lat="40.8177483" lon="14.20886"><ele>105.0</ele><time>2026-04-17T13:31:57.304Z</time></trkpt><trkpt lat="40.817685" lon="14.2088167"><ele>106.5</ele><time>2026-04-17T13:31:58.305Z</time></trkpt><trkpt lat="40.8176183" lon="14.20878"><ele>108.0</ele><time>2026-04-17T13:31:59.304Z</time></trkpt><trkpt lat="40.8175417" lon="14.2087733"><ele>108.0</ele><time>2026-04-17T13:32:00.305Z</time></trkpt><trkpt lat="40.817465" lon="14.2087683"><ele>108.0</ele><time>2026-04-17T13:32:01.306Z</time></trkpt><trkpt lat="40.8173917" lon="14.20876"><ele>108.0</ele><time>2026-04-17T13:32:02.305Z</time></trkpt><trkpt lat="40.817315" lon="14.2087533"><ele>108.0</ele><time>2026-04-17T13:32:03.304Z</time></trkpt><trkpt lat="40.817235" lon="14.2087483"><ele>108.0</ele><time>2026-04-17T13:32:04.305Z</time></trkpt><trkpt lat="40.8171583" lon="14.208745"><ele>108.0</ele><time>2026-04-17T13:32:05.306Z</time></trkpt><trkpt lat="40.8170833" lon="14.20874"><ele>108.0</ele><time>2026-04-17T13:32:06.305Z</time></trkpt><trkpt lat="40.8170067" lon="14.2087267"><ele>108.0</ele><time>2026-04-17T13:32:07.305Z</time></trkpt><trkpt lat="40.816925" lon="14.20872"><ele>108.0</ele><time>2026-04-17T13:32:08.305Z</time></trkpt><trkpt lat="40.8168417" lon="14.2087083"><ele>108.0</ele><time>2026-04-17T13:32:09.305Z</time></trkpt><trkpt lat="40.8167567" lon="14.2086917"><ele>108.0</ele><time>2026-04-17T13:32:10.305Z</time></trkpt><trkpt lat="40.8166767" lon="14.2086717"><ele>108.0</ele><time>2026-04-17T13:32:11.304Z</time></trkpt><trkpt lat="40.8165967" lon="14.2086467"><ele>106.0</ele><time>2026-04-17T13:32:12.305Z</time></trkpt><trkpt lat="40.8165183" lon="14.2086167"><ele>104.0</ele><time>2026-04-17T13:32:13.305Z</time></trkpt><trkpt lat="40.81644" lon="14.2085867"><ele>102.0</ele><time>2026-04-17T13:32:14.305Z</time></trkpt><trkpt lat="40.81636" lon="14.2085567"><ele>100.0</ele><time>2026-04-17T13:32:15.305Z</time></trkpt><trkpt lat="40.8162833" lon="14.208525"><ele>98.0</ele><time>2026-04-17T13:32:16.305Z</time></trkpt><trkpt lat="40.8162033" lon="14.2084917"><ele>96.0</ele><time>2026-04-17T13:32:17.305Z</time></trkpt><trkpt lat="40.8161267" lon="14.2084633"><ele>95.99999999999999</ele><time>2026-04-17T13:32:18.304Z</time></trkpt><trkpt lat="40.81605" lon="14.2084433"><ele>96.0</ele><time>2026-04-17T13:32:19.305Z</time></trkpt><trkpt lat="40.8159817" lon="14.2084133"><ele>96.0</ele><time>2026-04-17T13:32:20.307Z</time></trkpt><trkpt lat="40.815915" lon="14.2083883"><ele>96.0</ele><time>2026-04-17T13:32:21.304Z</time></trkpt><trkpt lat="40.8158483" lon="14.20836"><ele>96.0</ele><time>2026-04-17T13:32:22.305Z</time></trkpt><trkpt lat="40.8157833" lon="14.2083333"><ele>95.99999999999999</ele><time>2026-04-17T13:32:23.304Z</time></trkpt><trkpt lat="40.81572" lon="14.2083033"><ele>96.0</ele><time>2026-04-17T13:32:24.304Z</time></trkpt><trkpt lat="40.8156067" lon="14.2082567"><ele>97.16666666666667</ele><time>2026-04-17T13:32:26.305Z</time></trkpt><trkpt lat="40.8155083" lon="14.2082117"><ele>98.33333333333334</ele><time>2026-04-17T13:32:28.306Z</time></trkpt><trkpt lat="40.81543" lon="14.2081433"><ele>99.5</ele><time>2026-04-17T13:32:30.304Z</time></trkpt><trkpt lat="40.815385" lon="14.20806"><ele>100.66666666666667</ele><time>2026-04-17T13:32:32.304Z</time></trkpt><trkpt lat="40.8153617" lon="14.2079617"><ele>101.83333333333334</ele><time>2026-04-17T13:32:34.305Z</time></trkpt><trkpt lat="40.8153433" lon="14.2078417"><ele>103.0</ele><time>2026-04-17T13:32:36.305Z</time></trkpt><trkpt lat="40.8153483" lon="14.2077383"><ele>103.00000000000001</ele><time>2026-04-17T13:32:38.305Z</time></trkpt><trkpt lat="40.8153617" lon="14.2076567"><ele>103.0</ele><time>2026-04-17T13:32:40.305Z</time></trkpt><trkpt lat="40.815395" lon="14.20756"><ele>103.0</ele><time>2026-04-17T13:32:43.305Z</time></trkpt><trkpt lat="40.81543" lon="14.207475"><ele>103.0</ele><time>2026-04-17T13:32:46.305Z</time></trkpt><trkpt lat="40.815465" lon="14.20738"><ele>103.00000000000001</ele><time>2026-04-17T13:32:49.305Z</time></trkpt><trkpt lat="40.815495" lon="14.20727"><ele>103.0</ele><time>2026-04-17T13:32:52.305Z</time></trkpt><trkpt lat="40.8155167" lon="14.207185"><ele>104.16666666666667</ele><time>2026-04-17T13:32:54.305Z</time></trkpt><trkpt lat="40.8155467" lon="14.2070667"><ele>105.33333333333334</ele><time>2026-04-17T13:32:57.311Z</time></trkpt><trkpt lat="40.815545" lon="14.2069767"><ele>106.5</ele><time>2026-04-17T13:32:59.307Z</time></trkpt><trkpt lat="40.8155383" lon="14.20689"><ele>107.66666666666666</ele><time>2026-04-17T13:33:01.306Z</time></trkpt><trkpt lat="40.815495" lon="14.2067867"><ele>108.83333333333333</ele><time>2026-04-17T13:33:04.308Z</time></trkpt><trkpt lat="40.81546" lon="14.206675"><ele>110.0</ele><time>2026-04-17T13:33:07.305Z</time></trkpt><trkpt lat="40.8154217" lon="14.2065583"><ele>110.16666666666666</ele><time>2026-04-17T13:33:10.305Z</time></trkpt><trkpt lat="40.815385" lon="14.2064783"><ele>110.33333333333333</ele><time>2026-04-17T13:33:12.305Z</time></trkpt><trkpt lat="40.8153167" lon="14.2064"><ele>110.5</ele><time>2026-04-17T13:33:15.305Z</time></trkpt><trkpt lat="40.81525" lon="14.206335"><ele>110.66666666666666</ele><time>2026-04-17T13:33:18.305Z</time></trkpt><trkpt lat="40.8151817" lon="14.2062517"><ele>110.83333333333333</ele><time>2026-04-17T13:33:21.307Z</time></trkpt><trkpt lat="40.815125" lon="14.2061833"><ele>111.0</ele><time>2026-04-17T13:33:23.304Z</time></trkpt><trkpt lat="40.8150683" lon="14.206125"><ele>111.0</ele><time>2026-04-17T13:33:25.303Z</time></trkpt><trkpt lat="40.8150067" lon="14.2060733"><ele>111.0</ele><time>2026-04-17T13:33:27.305Z</time></trkpt><trkpt lat="40.8149517" lon="14.2060183"><ele>111.0</ele><time>2026-04-17T13:33:29.303Z</time></trkpt><trkpt lat="40.8148833" lon="14.205975"><ele>111.0</ele><time>2026-04-17T13:33:32.304Z</time></trkpt><trkpt lat="40.8148183" lon="14.2059133"><ele>111.0</ele><time>2026-04-17T13:33:35.303Z</time></trkpt><trkpt lat="40.8147467" lon="14.2058383"><ele>111.0</ele><time>2026-04-17T13:33:38.305Z</time></trkpt><trkpt lat="40.8146783" lon="14.2057633"><ele>111.0</ele><time>2026-04-17T13:33:41.303Z</time></trkpt><trkpt lat="40.81461" lon="14.2056883"><ele>111.0</ele><time>2026-04-17T13:33:44.304Z</time></trkpt><trkpt lat="40.8145517" lon="14.2056367"><ele>111.0</ele><time>2026-04-17T13:33:46.304Z</time></trkpt><trkpt lat="40.8144967" lon="14.2055833"><ele>111.0</ele><time>2026-04-17T13:33:48.304Z</time></trkpt><trkpt lat="40.8144417" lon="14.205525"><ele>111.0</ele><time>2026-04-17T13:33:50.305Z</time></trkpt><trkpt lat="40.8143867" lon="14.2054717"><ele>111.0</ele><time>2026-04-17T13:33:52.304Z</time></trkpt><trkpt lat="40.8143267" lon="14.20541"><ele>111.0</ele><time>2026-04-17T13:33:54.304Z</time></trkpt><trkpt lat="40.81427" lon="14.2053633"><ele>111.33333333333333</ele><time>2026-04-17T13:33:56.304Z</time></trkpt><trkpt lat="40.814195" lon="14.2053033"><ele>111.66666666666666</ele><time>2026-04-17T13:33:59.305Z</time></trkpt><trkpt lat="40.8141417" lon="14.2052517"><ele>112.0</ele><time>2026-04-17T13:34:01.309Z</time></trkpt><trkpt lat="40.8140883" lon="14.2052033"><ele>112.33333333333333</ele><time>2026-04-17T13:34:03.306Z</time></trkpt><trkpt lat="40.814025" lon="14.2051417"><ele>112.66666666666666</ele><time>2026-04-17T13:34:06.304Z</time></trkpt><trkpt lat="40.813955" lon="14.2050883"><ele>113.0</ele><time>2026-04-17T13:34:09.305Z</time></trkpt><trkpt lat="40.8138833" lon="14.2050133"><ele>113.0</ele><time>2026-04-17T13:34:12.305Z</time></trkpt><trkpt lat="40.8138217" lon="14.2049667"><ele>113.0</ele><time>2026-04-17T13:34:14.305Z</time></trkpt><trkpt lat="40.8137767" lon="14.2049067"><ele>113.0</ele><time>2026-04-17T13:34:16.305Z</time></trkpt><trkpt lat="40.8137217" lon="14.2048467"><ele>113.0</ele><time>2026-04-17T13:34:18.303Z</time></trkpt><trkpt lat="40.813665" lon="14.2047883"><ele>113.0</ele><time>2026-04-17T13:34:21.304Z</time></trkpt><trkpt lat="40.8136067" lon="14.2047433"><ele>113.0</ele><time>2026-04-17T13:34:24.304Z</time></trkpt><trkpt lat="40.8135283" lon="14.20467"><ele>113.0</ele><time>2026-04-17T13:34:27.305Z</time></trkpt><trkpt lat="40.81346" lon="14.20462"><ele>113.83333333333333</ele><time>2026-04-17T13:34:29.304Z</time></trkpt><trkpt lat="40.8133967" lon="14.204535"><ele>114.66666666666666</ele><time>2026-04-17T13:34:32.304Z</time></trkpt><trkpt lat="40.81333" lon="14.2044567"><ele>115.5</ele><time>2026-04-17T13:34:35.304Z</time></trkpt><trkpt lat="40.8132617" lon="14.2043817"><ele>116.33333333333334</ele><time>2026-04-17T13:34:38.306Z</time></trkpt><trkpt lat="40.813215" lon="14.2043217"><ele>117.16666666666667</ele><time>2026-04-17T13:34:40.304Z</time></trkpt><trkpt lat="40.8131517" lon="14.20423"><ele>118.0</ele><time>2026-04-17T13:34:43.305Z</time></trkpt><trkpt lat="40.81311" lon="14.204165"><ele>118.00000000000001</ele><time>2026-04-17T13:34:45.304Z</time></trkpt><trkpt lat="40.8130667" lon="14.2040883"><ele>118.0</ele><time>2026-04-17T13:34:48.304Z</time></trkpt><trkpt lat="40.81301" lon="14.2040183"><ele>118.0</ele><time>2026-04-17T13:34:52.305Z</time></trkpt><trkpt lat="40.8129783" lon="14.2039367"><ele>118.0</ele><time>2026-04-17T13:34:54.307Z</time></trkpt><trkpt lat="40.8129217" lon="14.203845"><ele>118.00000000000001</ele><time>2026-04-17T13:34:57.343Z</time></trkpt><trkpt lat="40.812865" lon="14.203785"><ele>118.0</ele><time>2026-04-17T13:35:00.304Z</time></trkpt><trkpt lat="40.8128217" lon="14.2036867"><ele>118.50000000000001</ele><time>2026-04-17T13:35:02.304Z</time></trkpt><trkpt lat="40.8127567" lon="14.2035933"><ele>119.0</ele><time>2026-04-17T13:35:05.304Z</time></trkpt><trkpt lat="40.81272" lon="14.2035233"><ele>119.5</ele><time>2026-04-17T13:35:08.306Z</time></trkpt><trkpt lat="40.8126933" lon="14.20344"><ele>120.0</ele><time>2026-04-17T13:35:12.305Z</time></trkpt><trkpt lat="40.8126383" lon="14.2033583"><ele>120.50000000000001</ele><time>2026-04-17T13:35:15.306Z</time></trkpt><trkpt lat="40.8125883" lon="14.2032867"><ele>121.0</ele><time>2026-04-17T13:35:18.304Z</time></trkpt><trkpt lat="40.8125133" lon="14.203205"><ele>122.33333333333334</ele><time>2026-04-17T13:35:21.306Z</time></trkpt><trkpt lat="40.81246" lon="14.2031133"><ele>123.66666666666667</ele><time>2026-04-17T13:35:23.304Z</time></trkpt><trkpt lat="40.8123917" lon="14.20305"><ele>125.0</ele><time>2026-04-17T13:35:26.303Z</time></trkpt><trkpt lat="40.8123417" lon="14.2029867"><ele>126.33333333333334</ele><time>2026-04-17T13:35:29.306Z</time></trkpt><trkpt lat="40.8122883" lon="14.2029333"><ele>127.66666666666667</ele><time>2026-04-17T13:35:32.305Z</time></trkpt><trkpt lat="40.8122383" lon="14.20283"><ele>129.0</ele><time>2026-04-17T13:35:36.305Z</time></trkpt><trkpt lat="40.812185" lon="14.2027583"><ele>129.0</ele><time>2026-04-17T13:35:39.304Z</time></trkpt><trkpt lat="40.8121433" lon="14.2026917"><ele>129.0</ele><time>2026-04-17T13:35:42.305Z</time></trkpt><trkpt lat="40.8121067" lon="14.2026183"><ele>129.0</ele><time>2026-04-17T13:35:44.305Z</time></trkpt><trkpt lat="40.8120483" lon="14.2025533"><ele>129.0</ele><time>2026-04-17T13:35:47.303Z</time></trkpt><trkpt lat="40.812" lon="14.202485"><ele>129.0</ele><time>2026-04-17T13:35:51.306Z</time></trkpt><trkpt lat="40.8119467" lon="14.202415"><ele>129.0</ele><time>2026-04-17T13:35:54.306Z</time></trkpt><trkpt lat="40.8118717" lon="14.202335"><ele>129.83333333333334</ele><time>2026-04-17T13:35:57.306Z</time></trkpt><trkpt lat="40.8118067" lon="14.2022683"><ele>130.66666666666666</ele><time>2026-04-17T13:36:00.307Z</time></trkpt><trkpt lat="40.81175" lon="14.2021783"><ele>131.5</ele><time>2026-04-17T13:36:03.307Z</time></trkpt><trkpt lat="40.8117333" lon="14.2020967"><ele>132.33333333333331</ele><time>2026-04-17T13:36:05.307Z</time></trkpt><trkpt lat="40.8117167" lon="14.20199"><ele>133.16666666666666</ele><time>2026-04-17T13:36:08.306Z</time></trkpt><trkpt lat="40.8116633" lon="14.2019167"><ele>134.0</ele><time>2026-04-17T13:36:12.307Z</time></trkpt><trkpt lat="40.8115917" lon="14.2018733"><ele>134.0</ele><time>2026-04-17T13:36:17.305Z</time></trkpt><trkpt lat="40.8115433" lon="14.2018067"><ele>134.0</ele><time>2026-04-17T13:36:20.314Z</time></trkpt><trkpt lat="40.8114917" lon="14.20174"><ele>134.0</ele><time>2026-04-17T13:36:23.314Z</time></trkpt><trkpt lat="40.8114167" lon="14.2016867"><ele>134.0</ele><time>2026-04-17T13:36:26.308Z</time></trkpt><trkpt lat="40.8113667" lon="14.2015933"><ele>134.0</ele><time>2026-04-17T13:36:29.309Z</time></trkpt><trkpt lat="40.8113283" lon="14.2015183"><ele>134.0</ele><time>2026-04-17T13:36:32.306Z</time></trkpt><trkpt lat="40.8112883" lon="14.201435"><ele>134.28571428571428</ele><time>2026-04-17T13:36:35.321Z</time></trkpt><trkpt lat="40.8112367" lon="14.20137"><ele>134.57142857142856</ele><time>2026-04-17T13:36:39.305Z</time></trkpt><trkpt lat="40.8111783" lon="14.2013083"><ele>134.85714285714283</ele><time>2026-04-17T13:36:43.309Z</time></trkpt><trkpt lat="40.81112" lon="14.2012517"><ele>135.14285714285714</ele><time>2026-04-17T13:36:47.306Z</time></trkpt><trkpt lat="40.8110867" lon="14.20116"><ele>135.42857142857142</ele><time>2026-04-17T13:36:50.305Z</time></trkpt><trkpt lat="40.8110617" lon="14.2010767"><ele>135.7142857142857</ele><time>2026-04-17T13:36:52.306Z</time></trkpt><trkpt lat="40.811005" lon="14.2010183"><ele>136.0</ele><time>2026-04-17T13:36:55.315Z</time></trkpt><trkpt lat="40.810945" lon="14.2009767"><ele>136.0</ele><time>2026-04-17T13:36:58.305Z</time></trkpt><trkpt lat="40.8108883" lon="14.200925"><ele>136.0</ele><time>2026-04-17T13:37:01.306Z</time></trkpt><trkpt lat="40.8108317" lon="14.2008717"><ele>136.0</ele><time>2026-04-17T13:37:04.306Z</time></trkpt><trkpt lat="40.8107817" lon="14.2007983"><ele>136.0</ele><time>2026-04-17T13:37:07.307Z</time></trkpt></trkseg><trkseg><trkpt lat="40.8074141" lon="14.1966646"><ele>149.0</ele><time>2026-04-17T13:41:00.186Z</time></trkpt><trkpt lat="40.8074236" lon="14.196544"><ele>149.0</ele><time>2026-04-17T13:41:03.315Z</time></trkpt><trkpt lat="40.8074564" lon="14.1964634"><ele>149.0</ele><time>2026-04-17T13:41:05.697Z</time></trkpt><trkpt lat="40.8074092" lon="14.1963556"><ele>149.0</ele><time>2026-04-17T13:41:09.116Z</time></trkpt><trkpt lat="40.8073986" lon="14.1962641"><ele>149.0</ele><time>2026-04-17T13:41:10.391Z</time></trkpt><trkpt lat="40.8073982" lon="14.1961601"><ele>149.0</ele><time>2026-04-17T13:41:12.392Z</time></trkpt><trkpt lat="40.807393" lon="14.1960742"><ele>149.5</ele><time>2026-04-17T13:41:16.022Z</time></trkpt><trkpt lat="40.8074071" lon="14.1959224"><ele>150.0</ele><time>2026-04-17T13:41:19.756Z</time></trkpt><trkpt lat="40.807402" lon="14.1958367"><ele>150.5</ele><time>2026-04-17T13:41:21.779Z</time></trkpt><trkpt lat="40.8073815" lon="14.1957435"><ele>151.0</ele><time>2026-04-17T13:41:23.598Z</time></trkpt><trkpt lat="40.8073789" lon="14.1956533"><ele>151.5</ele><time>2026-04-17T13:41:25.994Z</time></trkpt><trkpt lat="40.8073771" lon="14.1955331"><ele>152.0</ele><time>2026-04-17T13:41:29.013Z</time></trkpt><trkpt lat="40.8073811" lon="14.1954056"><ele>152.83333333333331</ele><time>2026-04-17T13:41:32.617Z</time></trkpt><trkpt lat="40.8074022" lon="14.1952683"><ele>153.66666666666666</ele><time>2026-04-17T13:41:35.626Z</time></trkpt><trkpt lat="40.8074124" lon="14.195176"><ele>154.5</ele><time>2026-04-17T13:41:37.749Z</time></trkpt><trkpt lat="40.8073973" lon="14.1950654"><ele>155.33333333333334</ele><time>2026-04-17T13:41:40.598Z</time></trkpt><trkpt lat="40.8073783" lon="14.194975"><ele>156.16666666666669</ele><time>2026-04-17T13:41:44.537Z</time></trkpt><trkpt lat="40.8073683" lon="14.1948733"><ele>157.0</ele><time>2026-04-17T13:41:48.54Z</time></trkpt><trkpt lat="40.8073817" lon="14.1947617"><ele>157.83333333333334</ele><time>2026-04-17T13:41:51.538Z</time></trkpt><trkpt lat="40.8073717" lon="14.1946717"><ele>158.66666666666669</ele><time>2026-04-17T13:41:54.548Z</time></trkpt><trkpt lat="40.8073533" lon="14.1945683"><ele>159.5</ele><time>2026-04-17T13:41:57.54Z</time></trkpt><trkpt lat="40.8073517" lon="14.1944583"><ele>160.33333333333334</ele><time>2026-04-17T13:41:59.538Z</time></trkpt><trkpt lat="40.80735" lon="14.1943183"><ele>161.16666666666666</ele><time>2026-04-17T13:42:02.54Z</time></trkpt><trkpt lat="40.8073433" lon="14.1942217"><ele>162.0</ele><time>2026-04-17T13:42:04.539Z</time></trkpt><trkpt lat="40.8073433" lon="14.1941383"><ele>162.0</ele><time>2026-04-17T13:42:07.538Z</time></trkpt><trkpt lat="40.8073467" lon="14.1940533"><ele>162.0</ele><time>2026-04-17T13:42:10.538Z</time></trkpt><trkpt lat="40.807355" lon="14.1939367"><ele>162.0</ele><time>2026-04-17T13:42:13.54Z</time></trkpt><trkpt lat="40.80736" lon="14.1938517"><ele>162.0</ele><time>2026-04-17T13:42:15.539Z</time></trkpt><trkpt lat="40.8073467" lon="14.19376"><ele>162.0</ele><time>2026-04-17T13:42:17.539Z</time></trkpt><trkpt lat="40.8073233" lon="14.193645"><ele>162.0</ele><time>2026-04-17T13:42:20.538Z</time></trkpt><trkpt lat="40.8073067" lon="14.193545"><ele>161.71428571428572</ele><time>2026-04-17T13:42:22.539Z</time></trkpt><trkpt lat="40.8073117" lon="14.19346"><ele>161.42857142857142</ele><time>2026-04-17T13:42:24.539Z</time></trkpt><trkpt lat="40.8073333" lon="14.1933783"><ele>161.14285714285714</ele><time>2026-04-17T13:42:26.538Z</time></trkpt><trkpt lat="40.8073433" lon="14.1932583"><ele>160.85714285714286</ele><time>2026-04-17T13:42:29.541Z</time></trkpt><trkpt lat="40.8073167" lon="14.1931483"><ele>160.57142857142858</ele><time>2026-04-17T13:42:32.541Z</time></trkpt><trkpt lat="40.8072817" lon="14.1930717"><ele>160.28571428571428</ele><time>2026-04-17T13:42:34.541Z</time></trkpt><trkpt lat="40.80724" lon="14.193005"><ele>160.0</ele><time>2026-04-17T13:42:36.544Z</time></trkpt><trkpt lat="40.8071783" lon="14.192925"><ele>158.57142857142856</ele><time>2026-04-17T13:42:39.54Z</time></trkpt><trkpt lat="40.8071417" lon="14.1928483"><ele>157.14285714285714</ele><time>2026-04-17T13:42:42.541Z</time></trkpt><trkpt lat="40.807105" lon="14.1927683"><ele>155.71428571428572</ele><time>2026-04-17T13:42:46.542Z</time></trkpt><trkpt lat="40.8070767" lon="14.192685"><ele>154.28571428571428</ele><time>2026-04-17T13:42:49.542Z</time></trkpt><trkpt lat="40.8070683" lon="14.1925867"><ele>152.85714285714286</ele><time>2026-04-17T13:42:53.54Z</time></trkpt><trkpt lat="40.80703" lon="14.1925067"><ele>151.42857142857142</ele><time>2026-04-17T13:42:59.541Z</time></trkpt><trkpt lat="40.8069767" lon="14.1925817"><ele>150.0</ele><time>2026-04-17T13:43:06.539Z</time></trkpt><trkpt lat="40.8069867" lon="14.1926867"><ele>150.0</ele><time>2026-04-17T13:43:09.539Z</time></trkpt><trkpt lat="40.80701" lon="14.1928133"><ele>150.0</ele><time>2026-04-17T13:43:12.54Z</time></trkpt><trkpt lat="40.80703" lon="14.1929017"><ele>150.0</ele><time>2026-04-17T13:43:14.541Z</time></trkpt><trkpt lat="40.8070667" lon="14.1929867"><ele>150.0</ele><time>2026-04-17T13:43:16.543Z</time></trkpt><trkpt lat="40.8071083" lon="14.1930667"><ele>150.0</ele><time>2026-04-17T13:43:18.542Z</time></trkpt><trkpt lat="40.8071533" lon="14.193145"><ele>150.0</ele><time>2026-04-17T13:43:20.542Z</time></trkpt><trkpt lat="40.807215" lon="14.193205"><ele>151.66666666666666</ele><time>2026-04-17T13:43:22.541Z</time></trkpt><trkpt lat="40.8072833" lon="14.193255"><ele>153.33333333333334</ele><time>2026-04-17T13:43:24.541Z</time></trkpt><trkpt lat="40.8073483" lon="14.1932967"><ele>155.0</ele><time>2026-04-17T13:43:26.542Z</time></trkpt><trkpt lat="40.80742" lon="14.193335"><ele>156.66666666666669</ele><time>2026-04-17T13:43:28.539Z</time></trkpt><trkpt lat="40.8075" lon="14.19336"><ele>158.33333333333334</ele><time>2026-04-17T13:43:30.539Z</time></trkpt><trkpt lat="40.8075667" lon="14.1934017"><ele>160.0</ele><time>2026-04-17T13:43:32.54Z</time></trkpt><trkpt lat="40.80762" lon="14.1934567"><ele>159.0</ele><time>2026-04-17T13:43:34.539Z</time></trkpt><trkpt lat="40.8076717" lon="14.1935183"><ele>158.0</ele><time>2026-04-17T13:43:36.539Z</time></trkpt><trkpt lat="40.8077217" lon="14.1935717"><ele>157.0</ele><time>2026-04-17T13:43:38.539Z</time></trkpt><trkpt lat="40.8077683" lon="14.19363"><ele>156.0</ele><time>2026-04-17T13:43:40.54Z</time></trkpt><trkpt lat="40.80784" lon="14.1937183"><ele>155.0</ele><time>2026-04-17T13:43:43.539Z</time></trkpt><trkpt lat="40.80791" lon="14.1938017"><ele>154.0</ele><time>2026-04-17T13:43:46.54Z</time></trkpt><trkpt lat="40.807955" lon="14.1938633"><ele>154.0</ele><time>2026-04-17T13:43:48.539Z</time></trkpt><trkpt lat="40.807995" lon="14.19393"><ele>154.0</ele><time>2026-04-17T13:43:50.539Z</time></trkpt><trkpt lat="40.8080483" lon="14.1940333"><ele>154.0</ele><time>2026-04-17T13:43:53.542Z</time></trkpt><trkpt lat="40.8080717" lon="14.1941183"><ele>154.0</ele><time>2026-04-17T13:43:55.541Z</time></trkpt><trkpt lat="40.808095" lon="14.1941967"><ele>154.0</ele><time>2026-04-17T13:43:57.541Z</time></trkpt><trkpt lat="40.80812" lon="14.1942817"><ele>154.0</ele><time>2026-04-17T13:43:59.542Z</time></trkpt><trkpt lat="40.8081417" lon="14.1943733"><ele>154.0</ele><time>2026-04-17T13:44:01.541Z</time></trkpt><trkpt lat="40.8081567" lon="14.1944617"><ele>155.57142857142858</ele><time>2026-04-17T13:44:03.54Z</time></trkpt><trkpt lat="40.8081783" lon="14.1945417"><ele>157.14285714285714</ele><time>2026-04-17T13:44:05.541Z</time></trkpt><trkpt lat="40.8082067" lon="14.1946183"><ele>158.71428571428572</ele><time>2026-04-17T13:44:07.541Z</time></trkpt><trkpt lat="40.8082483" lon="14.19469"><ele>160.28571428571428</ele><time>2026-04-17T13:44:09.539Z</time></trkpt><trkpt lat="40.8082917" lon="14.19476"><ele>161.85714285714286</ele><time>2026-04-17T13:44:11.54Z</time></trkpt><trkpt lat="40.808335" lon="14.1948333"><ele>163.42857142857144</ele><time>2026-04-17T13:44:13.54Z</time></trkpt><trkpt lat="40.8083733" lon="14.1949067"><ele>165.0</ele><time>2026-04-17T13:44:15.539Z</time></trkpt><trkpt lat="40.8084133" lon="14.194995"><ele>165.0</ele><time>2026-04-17T13:44:17.539Z</time></trkpt><trkpt lat="40.80848" lon="14.1950833"><ele>165.0</ele><time>2026-04-17T13:44:19.542Z</time></trkpt><trkpt lat="40.8085433" lon="14.195165"><ele>165.0</ele><time>2026-04-17T13:44:21.541Z</time></trkpt><trkpt lat="40.8086017" lon="14.195245"><ele>165.0</ele><time>2026-04-17T13:44:23.54Z</time></trkpt><trkpt lat="40.808655" lon="14.1953167"><ele>165.0</ele><time>2026-04-17T13:44:25.541Z</time></trkpt><trkpt lat="40.808705" lon="14.1953967"><ele>165.0</ele><time>2026-04-17T13:44:27.542Z</time></trkpt><trkpt lat="40.808785" lon="14.195475"><ele>165.0</ele><time>2026-04-17T13:44:29.54Z</time></trkpt><trkpt lat="40.808855" lon="14.19555"><ele>165.0</ele><time>2026-04-17T13:44:31.54Z</time></trkpt><trkpt lat="40.80891" lon="14.19561"><ele>165.0</ele><time>2026-04-17T13:44:33.54Z</time></trkpt><trkpt lat="40.8089567" lon="14.1956817"><ele>165.0</ele><time>2026-04-17T13:44:35.54Z</time></trkpt><trkpt lat="40.8090017" lon="14.1957583"><ele>165.0</ele><time>2026-04-17T13:44:37.54Z</time></trkpt><trkpt lat="40.8090583" lon="14.1958283"><ele>165.0</ele><time>2026-04-17T13:44:39.54Z</time></trkpt><trkpt lat="40.8091067" lon="14.1958933"><ele>166.2</ele><time>2026-04-17T13:44:41.54Z</time></trkpt><trkpt lat="40.8091483" lon="14.195975"><ele>167.4</ele><time>2026-04-17T13:44:43.541Z</time></trkpt><trkpt lat="40.8092017" lon="14.196055"><ele>168.60000000000002</ele><time>2026-04-17T13:44:45.54Z</time></trkpt><trkpt lat="40.8092517" lon="14.1961567"><ele>169.8</ele><time>2026-04-17T13:44:47.539Z</time></trkpt><trkpt lat="40.8093017" lon="14.19628"><ele>171.0</ele><time>2026-04-17T13:44:49.54Z</time></trkpt><trkpt lat="40.8093683" lon="14.1963967"><ele>169.4</ele><time>2026-04-17T13:44:51.539Z</time></trkpt><trkpt lat="40.809445" lon="14.1964917"><ele>167.8</ele><time>2026-04-17T13:44:53.54Z</time></trkpt><trkpt lat="40.8095067" lon="14.196605"><ele>166.20000000000002</ele><time>2026-04-17T13:44:55.54Z</time></trkpt><trkpt lat="40.80957" lon="14.1967133"><ele>164.60000000000002</ele><time>2026-04-17T13:44:57.538Z</time></trkpt><trkpt lat="40.8096217" lon="14.1968283"><ele>163.0</ele><time>2026-04-17T13:44:59.539Z</time></trkpt><trkpt lat="40.8096767" lon="14.1969417"><ele>163.0</ele><time>2026-04-17T13:45:01.54Z</time></trkpt><trkpt lat="40.809735" lon="14.197065"><ele>163.0</ele><time>2026-04-17T13:45:03.538Z</time></trkpt><trkpt lat="40.809795" lon="14.1971967"><ele>163.0</ele><time>2026-04-17T13:45:05.538Z</time></trkpt><trkpt lat="40.8098517" lon="14.197335"><ele>163.0</ele><time>2026-04-17T13:45:07.538Z</time></trkpt><trkpt lat="40.8099117" lon="14.1974683"><ele>163.5</ele><time>2026-04-17T13:45:09.539Z</time></trkpt><trkpt lat="40.80998" lon="14.1975967"><ele>164.0</ele><time>2026-04-17T13:45:11.54Z</time></trkpt><trkpt lat="40.81005" lon="14.197725"><ele>164.5</ele><time>2026-04-17T13:45:13.538Z</time></trkpt><trkpt lat="40.81009" lon="14.1977933"><ele>165.0</ele><time>2026-04-17T13:45:14.541Z</time></trkpt><trkpt lat="40.810135" lon="14.1978533"><ele>165.5</ele><time>2026-04-17T13:45:15.54Z</time></trkpt><trkpt lat="40.810185" lon="14.197905"><ele>166.0</ele><time>2026-04-17T13:45:16.541Z</time></trkpt><trkpt lat="40.8102917" lon="14.1979833"><ele>166.0</ele><time>2026-04-17T13:45:18.54Z</time></trkpt><trkpt lat="40.8104017" lon="14.19804"><ele>166.0</ele><time>2026-04-17T13:45:20.539Z</time></trkpt><trkpt lat="40.8105083" lon="14.198075"><ele>166.0</ele><time>2026-04-17T13:45:22.536Z</time></trkpt><trkpt lat="40.81062" lon="14.198085"><ele>166.0</ele><time>2026-04-17T13:45:24.539Z</time></trkpt><trkpt lat="40.8107183" lon="14.19808"><ele>166.0</ele><time>2026-04-17T13:45:26.541Z</time></trkpt><trkpt lat="40.8108183" lon="14.19807"><ele>166.0</ele><time>2026-04-17T13:45:28.539Z</time></trkpt><trkpt lat="40.8109083" lon="14.1980933"><ele>166.0</ele><time>2026-04-17T13:45:30.539Z</time></trkpt><trkpt lat="40.81099" lon="14.1981117"><ele>166.0</ele><time>2026-04-17T13:45:32.541Z</time></trkpt><trkpt lat="40.8110817" lon="14.198135"><ele>166.0</ele><time>2026-04-17T13:45:34.54Z</time></trkpt><trkpt lat="40.81118" lon="14.1981717"><ele>166.0</ele><time>2026-04-17T13:45:36.542Z</time></trkpt><trkpt lat="40.8112833" lon="14.1982217"><ele>166.0</ele><time>2026-04-17T13:45:38.542Z</time></trkpt><trkpt lat="40.811385" lon="14.19828"><ele>166.0</ele><time>2026-04-17T13:45:40.539Z</time></trkpt><trkpt lat="40.8114883" lon="14.1983517"><ele>166.0</ele><time>2026-04-17T13:45:42.54Z</time></trkpt><trkpt lat="40.8115917" lon="14.1984217"><ele>166.0</ele><time>2026-04-17T13:45:44.54Z</time></trkpt><trkpt lat="40.8116917" lon="14.1984767"><ele>166.0</ele><time>2026-04-17T13:45:46.539Z</time></trkpt><trkpt lat="40.8117883" lon="14.19854"><ele>166.0</ele><time>2026-04-17T13:45:48.54Z</time></trkpt><trkpt lat="40.8118867" lon="14.1986"><ele>166.0</ele><time>2026-04-17T13:45:50.538Z</time></trkpt><trkpt lat="40.81198" lon="14.1986567"><ele>166.0</ele><time>2026-04-17T13:45:52.539Z</time></trkpt><trkpt lat="40.8120783" lon="14.198715"><ele>166.0</ele><time>2026-04-17T13:45:54.54Z</time></trkpt><trkpt lat="40.8121767" lon="14.1987717"><ele>165.60000000000002</ele><time>2026-04-17T13:45:56.539Z</time></trkpt><trkpt lat="40.81227" lon="14.1988267"><ele>165.2</ele><time>2026-04-17T13:45:58.541Z</time></trkpt><trkpt lat="40.81236" lon="14.1988717"><ele>164.8</ele><time>2026-04-17T13:46:00.539Z</time></trkpt><trkpt lat="40.81245" lon="14.1989133"><ele>164.39999999999998</ele><time>2026-04-17T13:46:02.543Z</time></trkpt><trkpt lat="40.8125383" lon="14.19894"><ele>164.0</ele><time>2026-04-17T13:46:04.54Z</time></trkpt><trkpt lat="40.8126317" lon="14.1989833"><ele>166.39999999999998</ele><time>2026-04-17T13:46:06.539Z</time></trkpt><trkpt lat="40.81272" lon="14.1990367"><ele>168.8</ele><time>2026-04-17T13:46:08.54Z</time></trkpt><trkpt lat="40.8128117" lon="14.1990733"><ele>171.2</ele><time>2026-04-17T13:46:10.54Z</time></trkpt><trkpt lat="40.8128967" lon="14.199095"><ele>173.60000000000002</ele><time>2026-04-17T13:46:12.54Z</time></trkpt><trkpt lat="40.8129883" lon="14.1991017"><ele>176.0</ele><time>2026-04-17T13:46:14.543Z</time></trkpt><trkpt lat="40.8130817" lon="14.199105"><ele>176.0</ele><time>2026-04-17T13:46:16.54Z</time></trkpt><trkpt lat="40.8131783" lon="14.1991117"><ele>176.0</ele><time>2026-04-17T13:46:18.541Z</time></trkpt><trkpt lat="40.81327" lon="14.1991383"><ele>176.0</ele><time>2026-04-17T13:46:20.54Z</time></trkpt><trkpt lat="40.8133533" lon="14.1991517"><ele>176.0</ele><time>2026-04-17T13:46:22.538Z</time></trkpt><trkpt lat="40.8134317" lon="14.1991517"><ele>176.0</ele><time>2026-04-17T13:46:24.54Z</time></trkpt><trkpt lat="40.8135183" lon="14.199145"><ele>176.0</ele><time>2026-04-17T13:46:26.54Z</time></trkpt><trkpt lat="40.8136067" lon="14.1991483"><ele>174.83333333333331</ele><time>2026-04-17T13:46:28.54Z</time></trkpt><trkpt lat="40.8136833" lon="14.19917"><ele>173.66666666666666</ele><time>2026-04-17T13:46:30.54Z</time></trkpt><trkpt lat="40.8137483" lon="14.1991933"><ele>172.5</ele><time>2026-04-17T13:46:32.542Z</time></trkpt><trkpt lat="40.813835" lon="14.199225"><ele>171.33333333333334</ele><time>2026-04-17T13:46:35.54Z</time></trkpt><trkpt lat="40.8138983" lon="14.19926"><ele>170.16666666666669</ele><time>2026-04-17T13:46:37.542Z</time></trkpt><trkpt lat="40.813975" lon="14.1992933"><ele>169.0</ele><time>2026-04-17T13:46:39.539Z</time></trkpt><trkpt lat="40.8140633" lon="14.19932"><ele>169.0</ele><time>2026-04-17T13:46:41.541Z</time></trkpt><trkpt lat="40.814145" lon="14.1993617"><ele>169.0</ele><time>2026-04-17T13:46:43.54Z</time></trkpt><trkpt lat="40.8142217" lon="14.1994133"><ele>169.0</ele><time>2026-04-17T13:46:45.541Z</time></trkpt><trkpt lat="40.8142917" lon="14.1994683"><ele>169.0</ele><time>2026-04-17T13:46:47.54Z</time></trkpt><trkpt lat="40.81436" lon="14.1995233"><ele>169.0</ele><time>2026-04-17T13:46:49.542Z</time></trkpt><trkpt lat="40.8144267" lon="14.1995767"><ele>169.0</ele><time>2026-04-17T13:46:51.539Z</time></trkpt><trkpt lat="40.8144917" lon="14.1996283"><ele>169.83333333333334</ele><time>2026-04-17T13:46:53.539Z</time></trkpt><trkpt lat="40.81455" lon="14.1996883"><ele>170.66666666666669</ele><time>2026-04-17T13:46:55.536Z</time></trkpt><trkpt lat="40.8146017" lon="14.1997433"><ele>171.5</ele><time>2026-04-17T13:46:57.539Z</time></trkpt><trkpt lat="40.8146533" lon="14.199805"><ele>172.33333333333334</ele><time>2026-04-17T13:46:59.537Z</time></trkpt><trkpt lat="40.814735" lon="14.19988"><ele>173.16666666666666</ele><time>2026-04-17T13:47:02.543Z</time></trkpt><trkpt lat="40.81481" lon="14.19995"><ele>174.0</ele><time>2026-04-17T13:47:05.537Z</time></trkpt><trkpt lat="40.8148667" lon="14.2000067"><ele>175.0</ele><time>2026-04-17T13:47:07.541Z</time></trkpt><trkpt lat="40.8149267" lon="14.2000483"><ele>176.0</ele><time>2026-04-17T13:47:09.537Z</time></trkpt><trkpt lat="40.8150017" lon="14.2000667"><ele>177.0</ele><time>2026-04-17T13:47:11.536Z</time></trkpt><trkpt lat="40.8150817" lon="14.2000933"><ele>178.0</ele><time>2026-04-17T13:47:13.538Z</time></trkpt><trkpt lat="40.815165" lon="14.200095"><ele>179.0</ele><time>2026-04-17T13:47:15.538Z</time></trkpt><trkpt lat="40.8152417" lon="14.2001283"><ele>180.0</ele><time>2026-04-17T13:47:17.538Z</time></trkpt><trkpt lat="40.8153167" lon="14.200165"><ele>180.0</ele><time>2026-04-17T13:47:19.538Z</time></trkpt><trkpt lat="40.8153883" lon="14.2002183"><ele>180.0</ele><time>2026-04-17T13:47:21.538Z</time></trkpt><trkpt lat="40.81545" lon="14.2002617"><ele>180.0</ele><time>2026-04-17T13:47:23.539Z</time></trkpt><trkpt lat="40.8154983" lon="14.2003167"><ele>180.0</ele><time>2026-04-17T13:47:25.537Z</time></trkpt><trkpt lat="40.8155567" lon="14.200365"><ele>180.0</ele><time>2026-04-17T13:47:27.539Z</time></trkpt><trkpt lat="40.8156283" lon="14.2004183"><ele>180.0</ele><time>2026-04-17T13:47:29.537Z</time></trkpt><trkpt lat="40.8156983" lon="14.20048"><ele>180.0</ele><time>2026-04-17T13:47:31.538Z</time></trkpt><trkpt lat="40.8157617" lon="14.2005367"><ele>180.0</ele><time>2026-04-17T13:47:33.538Z</time></trkpt><trkpt lat="40.81582" lon="14.20057"><ele>180.0</ele><time>2026-04-17T13:47:35.539Z</time></trkpt><trkpt lat="40.8158983" lon="14.2006167"><ele>180.0</ele><time>2026-04-17T13:47:37.538Z</time></trkpt><trkpt lat="40.81598" lon="14.2006583"><ele>180.0</ele><time>2026-04-17T13:47:39.537Z</time></trkpt><trkpt lat="40.8160633" lon="14.2006983"><ele>180.0</ele><time>2026-04-17T13:47:41.545Z</time></trkpt><trkpt lat="40.8161483" lon="14.2007383"><ele>181.0</ele><time>2026-04-17T13:47:43.539Z</time></trkpt><trkpt lat="40.8162167" lon="14.20077"><ele>182.0</ele><time>2026-04-17T13:47:45.537Z</time></trkpt><trkpt lat="40.8162767" lon="14.2008"><ele>183.0</ele><time>2026-04-17T13:47:47.538Z</time></trkpt><trkpt lat="40.816375" lon="14.200835"><ele>184.0</ele><time>2026-04-17T13:47:50.62Z</time></trkpt><trkpt lat="40.8164583" lon="14.2008667"><ele>185.0</ele><time>2026-04-17T13:47:52.539Z</time></trkpt><trkpt lat="40.8165383" lon="14.200915"><ele>186.0</ele><time>2026-04-17T13:47:54.537Z</time></trkpt><trkpt lat="40.8166133" lon="14.200945"><ele>186.0</ele><time>2026-04-17T13:47:56.537Z</time></trkpt><trkpt lat="40.8166883" lon="14.2009967"><ele>186.0</ele><time>2026-04-17T13:47:58.538Z</time></trkpt><trkpt lat="40.8167617" lon="14.2010433"><ele>186.0</ele><time>2026-04-17T13:48:00.539Z</time></trkpt><trkpt lat="40.8168333" lon="14.2011117"><ele>186.0</ele><time>2026-04-17T13:48:03.537Z</time></trkpt><trkpt lat="40.816895" lon="14.201165"><ele>186.0</ele><time>2026-04-17T13:48:05.541Z</time></trkpt><trkpt lat="40.8169567" lon="14.2012133"><ele>186.0</ele><time>2026-04-17T13:48:07.54Z</time></trkpt><trkpt lat="40.8170317" lon="14.201295"><ele>186.57142857142858</ele><time>2026-04-17T13:48:10.536Z</time></trkpt><trkpt lat="40.8170967" lon="14.2013467"><ele>187.14285714285714</ele><time>2026-04-17T13:48:12.539Z</time></trkpt><trkpt lat="40.817155" lon="14.2014033"><ele>187.71428571428572</ele><time>2026-04-17T13:48:14.544Z</time></trkpt><trkpt lat="40.8172117" lon="14.20146"><ele>188.28571428571428</ele><time>2026-04-17T13:48:16.537Z</time></trkpt><trkpt lat="40.8172833" lon="14.2014917"><ele>188.85714285714286</ele><time>2026-04-17T13:48:18.536Z</time></trkpt><trkpt lat="40.8173517" lon="14.20151"><ele>189.42857142857144</ele><time>2026-04-17T13:48:20.538Z</time></trkpt><trkpt lat="40.817415" lon="14.201555"><ele>190.0</ele><time>2026-04-17T13:48:22.537Z</time></trkpt><trkpt lat="40.81747" lon="14.2016"><ele>190.0</ele><time>2026-04-17T13:48:24.536Z</time></trkpt><trkpt lat="40.8175333" lon="14.20165"><ele>190.0</ele><time>2026-04-17T13:48:26.537Z</time></trkpt><trkpt lat="40.8175933" lon="14.2017083"><ele>190.0</ele><time>2026-04-17T13:48:28.537Z</time></trkpt><trkpt lat="40.81765" lon="14.2017567"><ele>190.0</ele><time>2026-04-17T13:48:30.536Z</time></trkpt><trkpt lat="40.8177267" lon="14.2018367"><ele>190.0</ele><time>2026-04-17T13:48:33.541Z</time></trkpt><trkpt lat="40.8177833" lon="14.20189"><ele>190.0</ele><time>2026-04-17T13:48:35.537Z</time></trkpt><trkpt lat="40.8178267" lon="14.2019683"><ele>189.33333333333334</ele><time>2026-04-17T13:48:37.537Z</time></trkpt><trkpt lat="40.8178767" lon="14.2020533"><ele>188.66666666666669</ele><time>2026-04-17T13:48:40.538Z</time></trkpt><trkpt lat="40.8179433" lon="14.2021017"><ele>188.0</ele><time>2026-04-17T13:48:42.538Z</time></trkpt><trkpt lat="40.8180217" lon="14.202155"><ele>187.33333333333334</ele><time>2026-04-17T13:48:45.537Z</time></trkpt><trkpt lat="40.81807" lon="14.2022183"><ele>186.66666666666666</ele><time>2026-04-17T13:48:47.538Z</time></trkpt><trkpt lat="40.81812" lon="14.20231"><ele>186.0</ele><time>2026-04-17T13:48:49.539Z</time></trkpt><trkpt lat="40.81818" lon="14.2024017"><ele>186.0</ele><time>2026-04-17T13:48:51.537Z</time></trkpt><trkpt lat="40.8182467" lon="14.2025017"><ele>186.0</ele><time>2026-04-17T13:48:53.538Z</time></trkpt><trkpt lat="40.8183267" lon="14.202595"><ele>186.0</ele><time>2026-04-17T13:48:55.537Z</time></trkpt><trkpt lat="40.8184183" lon="14.2027"><ele>186.0</ele><time>2026-04-17T13:48:57.538Z</time></trkpt><trkpt lat="40.8185033" lon="14.2028217"><ele>185.33333333333334</ele><time>2026-04-17T13:48:59.537Z</time></trkpt><trkpt lat="40.8185483" lon="14.202885"><ele>184.66666666666666</ele><time>2026-04-17T13:49:00.538Z</time></trkpt><trkpt lat="40.8185967" lon="14.202945"><ele>184.0</ele><time>2026-04-17T13:49:01.537Z</time></trkpt><trkpt lat="40.8186467" lon="14.2030017"><ele>183.33333333333331</ele><time>2026-04-17T13:49:02.538Z</time></trkpt><trkpt lat="40.818725" lon="14.2031167"><ele>182.66666666666666</ele><time>2026-04-17T13:49:04.538Z</time></trkpt><trkpt lat="40.8188083" lon="14.2032483"><ele>182.0</ele><time>2026-04-17T13:49:06.537Z</time></trkpt><trkpt lat="40.8188867" lon="14.2033767"><ele>182.0</ele><time>2026-04-17T13:49:08.537Z</time></trkpt><trkpt lat="40.8189617" lon="14.2034867"><ele>182.0</ele><time>2026-04-17T13:49:10.538Z</time></trkpt><trkpt lat="40.8190333" lon="14.2036033"><ele>182.0</ele><time>2026-04-17T13:49:12.539Z</time></trkpt><trkpt lat="40.819075" lon="14.2036733"><ele>182.0</ele><time>2026-04-17T13:49:13.537Z</time></trkpt><trkpt lat="40.8191283" lon="14.203745"><ele>182.0</ele><time>2026-04-17T13:49:14.537Z</time></trkpt><trkpt lat="40.8191767" lon="14.2038217"><ele>182.0</ele><time>2026-04-17T13:49:15.536Z</time></trkpt><trkpt lat="40.8192367" lon="14.2039083"><ele>182.0</ele><time>2026-04-17T13:49:16.538Z</time></trkpt><trkpt lat="40.81929" lon="14.2039933"><ele>182.0</ele><time>2026-04-17T13:49:17.537Z</time></trkpt><trkpt lat="40.8193417" lon="14.2040783"><ele>182.0</ele><time>2026-04-17T13:49:18.536Z</time></trkpt><trkpt lat="40.81939" lon="14.2041617"><ele>182.0</ele><time>2026-04-17T13:49:19.537Z</time></trkpt><trkpt lat="40.8194433" lon="14.2042333"><ele>182.0</ele><time>2026-04-17T13:49:20.538Z</time></trkpt><trkpt lat="40.8194917" lon="14.204295"><ele>182.0</ele><time>2026-04-17T13:49:21.537Z</time></trkpt><trkpt lat="40.819545" lon="14.2043633"><ele>180.57142857142858</ele><time>2026-04-17T13:49:22.537Z</time></trkpt><trkpt lat="40.8196" lon="14.2044283"><ele>179.14285714285714</ele><time>2026-04-17T13:49:23.538Z</time></trkpt><trkpt lat="40.819655" lon="14.204495"><ele>177.71428571428572</ele><time>2026-04-17T13:49:24.537Z</time></trkpt><trkpt lat="40.8197133" lon="14.204555"><ele>176.28571428571428</ele><time>2026-04-17T13:49:25.537Z</time></trkpt><trkpt lat="40.8197767" lon="14.2046117"><ele>174.85714285714286</ele><time>2026-04-17T13:49:26.537Z</time></trkpt><trkpt lat="40.8198367" lon="14.2046667"><ele>173.42857142857144</ele><time>2026-04-17T13:49:27.537Z</time></trkpt><trkpt lat="40.8198983" lon="14.2047233"><ele>172.0</ele><time>2026-04-17T13:49:28.538Z</time></trkpt><trkpt lat="40.81996" lon="14.20478"><ele>172.6</ele><time>2026-04-17T13:49:29.544Z</time></trkpt><trkpt lat="40.8200167" lon="14.204845"><ele>173.2</ele><time>2026-04-17T13:49:30.537Z</time></trkpt><trkpt lat="40.820075" lon="14.20491"><ele>173.8</ele><time>2026-04-17T13:49:31.557Z</time></trkpt><trkpt lat="40.8201217" lon="14.2049683"><ele>174.4</ele><time>2026-04-17T13:49:32.538Z</time></trkpt><trkpt lat="40.820215" lon="14.2050783"><ele>175.0</ele><time>2026-04-17T13:49:34.539Z</time></trkpt><trkpt lat="40.8203017" lon="14.2051833"><ele>173.0</ele><time>2026-04-17T13:49:36.537Z</time></trkpt><trkpt lat="40.8203883" lon="14.2052767"><ele>171.0</ele><time>2026-04-17T13:49:38.537Z</time></trkpt><trkpt lat="40.82045" lon="14.2053383"><ele>169.0</ele><time>2026-04-17T13:49:40.538Z</time></trkpt><trkpt lat="40.8204917" lon="14.2054083"><ele>167.0</ele><time>2026-04-17T13:50:46.537Z</time></trkpt><trkpt lat="40.8205483" lon="14.20546"><ele>165.0</ele><time>2026-04-17T13:50:48.538Z</time></trkpt><trkpt lat="40.8206033" lon="14.20552"><ele>163.0</ele><time>2026-04-17T13:50:50.537Z</time></trkpt><trkpt lat="40.8206533" lon="14.205615"><ele>164.8</ele><time>2026-04-17T13:50:52.537Z</time></trkpt><trkpt lat="40.8207067" lon="14.2057083"><ele>166.60000000000002</ele><time>2026-04-17T13:50:54.537Z</time></trkpt><trkpt lat="40.820775" lon="14.2057967"><ele>168.39999999999998</ele><time>2026-04-17T13:50:56.538Z</time></trkpt><trkpt lat="40.820845" lon="14.20589"><ele>170.2</ele><time>2026-04-17T13:50:58.537Z</time></trkpt><trkpt lat="40.82092" lon="14.205995"><ele>172.0</ele><time>2026-04-17T13:51:00.538Z</time></trkpt><trkpt lat="40.8210067" lon="14.206085"><ele>170.8</ele><time>2026-04-17T13:51:02.539Z</time></trkpt><trkpt lat="40.8210933" lon="14.2061933"><ele>169.6</ele><time>2026-04-17T13:51:04.537Z</time></trkpt><trkpt lat="40.8211833" lon="14.206305"><ele>168.4</ele><time>2026-04-17T13:51:06.54Z</time></trkpt><trkpt lat="40.8212767" lon="14.2064183"><ele>167.20000000000002</ele><time>2026-04-17T13:51:08.538Z</time></trkpt><trkpt lat="40.8213233" lon="14.2064883"><ele>166.0</ele><time>2026-04-17T13:51:09.537Z</time></trkpt><trkpt lat="40.8213633" lon="14.2065533"><ele>166.0</ele><time>2026-04-17T13:51:10.537Z</time></trkpt><trkpt lat="40.8214033" lon="14.2066217"><ele>166.0</ele><time>2026-04-17T13:51:11.537Z</time></trkpt><trkpt lat="40.8214383" lon="14.206695"><ele>166.0</ele><time>2026-04-17T13:51:12.538Z</time></trkpt><trkpt lat="40.82147" lon="14.206775"><ele>166.0</ele><time>2026-04-17T13:51:13.538Z</time></trkpt><trkpt lat="40.8215017" lon="14.2068567"><ele>166.0</ele><time>2026-04-17T13:51:14.537Z</time></trkpt><trkpt lat="40.8215283" lon="14.2069467"><ele>166.0</ele><time>2026-04-17T13:51:15.537Z</time></trkpt><trkpt lat="40.82156" lon="14.2070333"><ele>166.0</ele><time>2026-04-17T13:51:16.538Z</time></trkpt><trkpt lat="40.8215917" lon="14.2071217"><ele>166.0</ele><time>2026-04-17T13:51:17.538Z</time></trkpt><trkpt lat="40.8216233" lon="14.2072067"><ele>166.0</ele><time>2026-04-17T13:51:18.538Z</time></trkpt><trkpt lat="40.821645" lon="14.2073067"><ele>166.0</ele><time>2026-04-17T13:51:19.538Z</time></trkpt><trkpt lat="40.821665" lon="14.2074067"><ele>166.0</ele><time>2026-04-17T13:51:20.538Z</time></trkpt><trkpt lat="40.8216867" lon="14.207505"><ele>166.0</ele><time>2026-04-17T13:51:21.537Z</time></trkpt><trkpt lat="40.8217133" lon="14.2076067"><ele>166.0</ele><time>2026-04-17T13:51:22.538Z</time></trkpt><trkpt lat="40.8217467" lon="14.207725"><ele>166.28571428571428</ele><time>2026-04-17T13:51:23.538Z</time></trkpt><trkpt lat="40.8217817" lon="14.2078267"><ele>166.57142857142858</ele><time>2026-04-17T13:51:24.538Z</time></trkpt><trkpt lat="40.8217983" lon="14.2079233"><ele>166.85714285714286</ele><time>2026-04-17T13:51:25.537Z</time></trkpt><trkpt lat="40.8218267" lon="14.2080133"><ele>167.14285714285714</ele><time>2026-04-17T13:51:26.538Z</time></trkpt><trkpt lat="40.8218483" lon="14.208105"><ele>167.42857142857144</ele><time>2026-04-17T13:51:27.538Z</time></trkpt><trkpt lat="40.8218767" lon="14.2081833"><ele>167.71428571428572</ele><time>2026-04-17T13:51:28.537Z</time></trkpt><trkpt lat="40.82191" lon="14.2082633"><ele>168.0</ele><time>2026-04-17T13:51:29.537Z</time></trkpt><trkpt lat="40.8219467" lon="14.2083333"><ele>168.0</ele><time>2026-04-17T13:51:30.539Z</time></trkpt><trkpt lat="40.8219867" lon="14.2083983"><ele>168.0</ele><time>2026-04-17T13:51:31.537Z</time></trkpt><trkpt lat="40.82203" lon="14.20846"><ele>168.0</ele><time>2026-04-17T13:51:32.539Z</time></trkpt><trkpt lat="40.822075" lon="14.2085267"><ele>168.0</ele><time>2026-04-17T13:51:33.538Z</time></trkpt><trkpt lat="40.8221133" lon="14.208595"><ele>168.0</ele><time>2026-04-17T13:51:34.537Z</time></trkpt><trkpt lat="40.82219" lon="14.2087267"><ele>168.0</ele><time>2026-04-17T13:51:36.537Z</time></trkpt><trkpt lat="40.82223" lon="14.2088067"><ele>168.0</ele><time>2026-04-17T13:51:37.539Z</time></trkpt><trkpt lat="40.8222617" lon="14.208885"><ele>168.0</ele><time>2026-04-17T13:51:38.538Z</time></trkpt><trkpt lat="40.8222967" lon="14.20896"><ele>168.0</ele><time>2026-04-17T13:51:39.538Z</time></trkpt><trkpt lat="40.82234" lon="14.2090333"><ele>168.0</ele><time>2026-04-17T13:51:40.538Z</time></trkpt><trkpt lat="40.8223833" lon="14.2091117"><ele>168.0</ele><time>2026-04-17T13:51:41.537Z</time></trkpt><trkpt lat="40.8224233" lon="14.209195"><ele>168.0</ele><time>2026-04-17T13:51:42.538Z</time></trkpt><trkpt lat="40.8224567" lon="14.20927"><ele>168.0</ele><time>2026-04-17T13:51:43.537Z</time></trkpt><trkpt lat="40.822495" lon="14.2093417"><ele>168.0</ele><time>2026-04-17T13:51:44.537Z</time></trkpt><trkpt lat="40.8225333" lon="14.2094217"><ele>168.0</ele><time>2026-04-17T13:51:45.538Z</time></trkpt><trkpt lat="40.8225733" lon="14.2094933"><ele>168.0</ele><time>2026-04-17T13:51:46.538Z</time></trkpt><trkpt lat="40.8226233" lon="14.2095517"><ele>168.0</ele><time>2026-04-17T13:51:47.537Z</time></trkpt><trkpt lat="40.8226767" lon="14.2096133"><ele>168.0</ele><time>2026-04-17T13:51:48.539Z</time></trkpt><trkpt lat="40.8227333" lon="14.20967"><ele>168.0</ele><time>2026-04-17T13:51:49.538Z</time></trkpt><trkpt lat="40.822785" lon="14.2097333"><ele>168.0</ele><time>2026-04-17T13:51:50.538Z</time></trkpt><trkpt lat="40.8228383" lon="14.2097833"><ele>167.85714285714286</ele><time>2026-04-17T13:51:51.539Z</time></trkpt><trkpt lat="40.822895" lon="14.2098317"><ele>167.71428571428572</ele><time>2026-04-17T13:51:52.539Z</time></trkpt><trkpt lat="40.8229517" lon="14.209885"><ele>167.57142857142856</ele><time>2026-04-17T13:51:53.541Z</time></trkpt><trkpt lat="40.8230083" lon="14.2099433"><ele>167.42857142857144</ele><time>2026-04-17T13:51:54.538Z</time></trkpt><trkpt lat="40.82306" lon="14.210005"><ele>167.28571428571428</ele><time>2026-04-17T13:51:55.538Z</time></trkpt><trkpt lat="40.8231133" lon="14.21007"><ele>167.14285714285714</ele><time>2026-04-17T13:51:56.539Z</time></trkpt><trkpt lat="40.823165" lon="14.210135"><ele>167.0</ele><time>2026-04-17T13:51:57.536Z</time></trkpt><trkpt lat="40.82321" lon="14.2102067"><ele>167.0</ele><time>2026-04-17T13:51:58.537Z</time></trkpt><trkpt lat="40.8232417" lon="14.210285"><ele>167.0</ele><time>2026-04-17T13:51:59.537Z</time></trkpt><trkpt lat="40.823275" lon="14.2103733"><ele>167.0</ele><time>2026-04-17T13:52:00.538Z</time></trkpt><trkpt lat="40.823305" lon="14.2104633"><ele>167.0</ele><time>2026-04-17T13:52:01.537Z</time></trkpt><trkpt lat="40.823345" lon="14.210545"><ele>167.0</ele><time>2026-04-17T13:52:02.538Z</time></trkpt><trkpt lat="40.82338" lon="14.2106167"><ele>167.0</ele><time>2026-04-17T13:52:03.538Z</time></trkpt><trkpt lat="40.8234583" lon="14.210735"><ele>166.33333333333331</ele><time>2026-04-17T13:52:05.539Z</time></trkpt><trkpt lat="40.8235117" lon="14.21079"><ele>165.66666666666666</ele><time>2026-04-17T13:52:06.537Z</time></trkpt><trkpt lat="40.8235717" lon="14.21085"><ele>165.0</ele><time>2026-04-17T13:52:07.537Z</time></trkpt><trkpt lat="40.8236333" lon="14.2109017"><ele>164.33333333333334</ele><time>2026-04-17T13:52:08.539Z</time></trkpt><trkpt lat="40.8237" lon="14.2109483"><ele>163.66666666666669</ele><time>2026-04-17T13:52:09.538Z</time></trkpt><trkpt lat="40.8237733" lon="14.2110083"><ele>163.0</ele><time>2026-04-17T13:52:10.537Z</time></trkpt><trkpt lat="40.8238467" lon="14.211065"><ele>163.0</ele><time>2026-04-17T13:52:11.536Z</time></trkpt><trkpt lat="40.8239233" lon="14.2111217"><ele>163.0</ele><time>2026-04-17T13:52:12.54Z</time></trkpt><trkpt lat="40.8240033" lon="14.2111767"><ele>163.0</ele><time>2026-04-17T13:52:13.537Z</time></trkpt><trkpt lat="40.824085" lon="14.2112417"><ele>163.0</ele><time>2026-04-17T13:52:14.54Z</time></trkpt><trkpt lat="40.82417" lon="14.2113167"><ele>163.0</ele><time>2026-04-17T13:52:15.536Z</time></trkpt><trkpt lat="40.8242567" lon="14.21139"><ele>163.0</ele><time>2026-04-17T13:52:16.538Z</time></trkpt><trkpt lat="40.8243433" lon="14.2114583"><ele>163.0</ele><time>2026-04-17T13:52:17.538Z</time></trkpt><trkpt lat="40.8244283" lon="14.2115383"><ele>163.0</ele><time>2026-04-17T13:52:18.54Z</time></trkpt><trkpt lat="40.8245067" lon="14.21164"><ele>163.0</ele><time>2026-04-17T13:52:19.537Z</time></trkpt><trkpt lat="40.8245667" lon="14.2117633"><ele>163.0</ele><time>2026-04-17T13:52:20.539Z</time></trkpt><trkpt lat="40.8246133" lon="14.2118883"><ele>162.5</ele><time>2026-04-17T13:52:21.538Z</time></trkpt><trkpt lat="40.8246317" lon="14.212015"><ele>162.0</ele><time>2026-04-17T13:52:22.537Z</time></trkpt><trkpt lat="40.82464" lon="14.2121267"><ele>161.5</ele><time>2026-04-17T13:52:23.538Z</time></trkpt><trkpt lat="40.8246433" lon="14.2122283"><ele>161.0</ele><time>2026-04-17T13:52:24.538Z</time></trkpt><trkpt lat="40.824655" lon="14.212325"><ele>160.5</ele><time>2026-04-17T13:52:25.536Z</time></trkpt><trkpt lat="40.8246767" lon="14.2124183"><ele>160.0</ele><time>2026-04-17T13:52:26.537Z</time></trkpt><trkpt lat="40.8247117" lon="14.2125067"><ele>158.66666666666669</ele><time>2026-04-17T13:52:27.537Z</time></trkpt><trkpt lat="40.8247567" lon="14.2125867"><ele>157.33333333333334</ele><time>2026-04-17T13:52:28.538Z</time></trkpt><trkpt lat="40.8248133" lon="14.21267"><ele>156.0</ele><time>2026-04-17T13:52:29.539Z</time></trkpt><trkpt lat="40.82487" lon="14.2127517"><ele>154.66666666666666</ele><time>2026-04-17T13:52:30.54Z</time></trkpt><trkpt lat="40.824935" lon="14.212825"><ele>153.33333333333331</ele><time>2026-04-17T13:52:31.538Z</time></trkpt><trkpt lat="40.8249917" lon="14.2128983"><ele>152.0</ele><time>2026-04-17T13:52:32.538Z</time></trkpt><trkpt lat="40.82505" lon="14.2129733"><ele>152.0</ele><time>2026-04-17T13:52:33.54Z</time></trkpt><trkpt lat="40.825115" lon="14.213045"><ele>152.0</ele><time>2026-04-17T13:52:34.538Z</time></trkpt><trkpt lat="40.8251833" lon="14.2131317"><ele>152.0</ele><time>2026-04-17T13:52:35.541Z</time></trkpt><trkpt lat="40.8252483" lon="14.2132267"><ele>152.0</ele><time>2026-04-17T13:52:36.539Z</time></trkpt><trkpt lat="40.8253" lon="14.213345"><ele>152.0</ele><time>2026-04-17T13:52:37.538Z</time></trkpt><trkpt lat="40.8253417" lon="14.213475"><ele>151.6</ele><time>2026-04-17T13:52:38.54Z</time></trkpt><trkpt lat="40.82538" lon="14.2136117"><ele>151.2</ele><time>2026-04-17T13:52:39.538Z</time></trkpt><trkpt lat="40.8254117" lon="14.2137533"><ele>150.8</ele><time>2026-04-17T13:52:40.539Z</time></trkpt><trkpt lat="40.8254367" lon="14.2138983"><ele>150.4</ele><time>2026-04-17T13:52:41.538Z</time></trkpt><trkpt lat="40.8254617" lon="14.2140417"><ele>150.0</ele><time>2026-04-17T13:52:42.539Z</time></trkpt><trkpt lat="40.8254817" lon="14.214165"><ele>148.6</ele><time>2026-04-17T13:52:43.54Z</time></trkpt><trkpt lat="40.8254983" lon="14.2142783"><ele>147.2</ele><time>2026-04-17T13:52:44.539Z</time></trkpt><trkpt lat="40.8255067" lon="14.2144"><ele>145.8</ele><time>2026-04-17T13:52:45.538Z</time></trkpt><trkpt lat="40.8255183" lon="14.2145267"><ele>144.4</ele><time>2026-04-17T13:52:46.539Z</time></trkpt><trkpt lat="40.82553" lon="14.21466"><ele>143.0</ele><time>2026-04-17T13:52:47.539Z</time></trkpt><trkpt lat="40.825555" lon="14.214795"><ele>141.20000000000002</ele><time>2026-04-17T13:52:48.538Z</time></trkpt><trkpt lat="40.825585" lon="14.21492"><ele>139.4</ele><time>2026-04-17T13:52:49.54Z</time></trkpt><trkpt lat="40.8256167" lon="14.21504"><ele>137.60000000000002</ele><time>2026-04-17T13:52:50.537Z</time></trkpt><trkpt lat="40.8256617" lon="14.215165"><ele>135.8</ele><time>2026-04-17T13:52:51.537Z</time></trkpt><trkpt lat="40.8257383" lon="14.215275"><ele>134.0</ele><time>2026-04-17T13:52:52.539Z</time></trkpt><trkpt lat="40.825815" lon="14.21537"><ele>134.0</ele><time>2026-04-17T13:52:53.537Z</time></trkpt><trkpt lat="40.82591" lon="14.215465"><ele>134.0</ele><time>2026-04-17T13:52:54.537Z</time></trkpt><trkpt lat="40.8260083" lon="14.2155333"><ele>134.0</ele><time>2026-04-17T13:52:55.539Z</time></trkpt><trkpt lat="40.8261133" lon="14.21558"><ele>134.0</ele><time>2026-04-17T13:52:56.54Z</time></trkpt><trkpt lat="40.8262167" lon="14.2156117"><ele>134.0</ele><time>2026-04-17T13:52:57.538Z</time></trkpt><trkpt lat="40.8263233" lon="14.21563"><ele>134.0</ele><time>2026-04-17T13:52:58.537Z</time></trkpt><trkpt lat="40.8264317" lon="14.2156383"><ele>134.0</ele><time>2026-04-17T13:52:59.538Z</time></trkpt><trkpt lat="40.8265383" lon="14.2156267"><ele>134.0</ele><time>2026-04-17T13:53:00.538Z</time></trkpt><trkpt lat="40.8266467" lon="14.2156067"><ele>134.0</ele><time>2026-04-17T13:53:01.538Z</time></trkpt><trkpt lat="40.826755" lon="14.2155883"><ele>134.0</ele><time>2026-04-17T13:53:02.537Z</time></trkpt><trkpt lat="40.8268517" lon="14.215565"><ele>133.2</ele><time>2026-04-17T13:53:03.538Z</time></trkpt><trkpt lat="40.8269267" lon="14.2155417"><ele>132.4</ele><time>2026-04-17T13:53:04.536Z</time></trkpt><trkpt lat="40.8270317" lon="14.215485"><ele>131.6</ele><time>2026-04-17T13:53:06.538Z</time></trkpt><trkpt lat="40.827115" lon="14.2154033"><ele>130.8</ele><time>2026-04-17T13:53:08.539Z</time></trkpt><trkpt lat="40.8271783" lon="14.215315"><ele>130.0</ele><time>2026-04-17T13:53:10.537Z</time></trkpt><trkpt lat="40.8272583" lon="14.21527"><ele>130.0</ele><time>2026-04-17T13:53:12.538Z</time></trkpt><trkpt lat="40.82735" lon="14.2152567"><ele>130.0</ele><time>2026-04-17T13:53:14.539Z</time></trkpt><trkpt lat="40.827435" lon="14.215265"><ele>130.0</ele><time>2026-04-17T13:53:16.538Z</time></trkpt><trkpt lat="40.8275133" lon="14.21527"><ele>130.0</ele><time>2026-04-17T13:53:18.538Z</time></trkpt><trkpt lat="40.827585" lon="14.2152783"><ele>130.0</ele><time>2026-04-17T13:53:20.538Z</time></trkpt><trkpt lat="40.8276567" lon="14.2152817"><ele>130.0</ele><time>2026-04-17T13:53:22.537Z</time></trkpt><trkpt lat="40.8277267" lon="14.21528"><ele>131.16666666666669</ele><time>2026-04-17T13:53:24.543Z</time></trkpt><trkpt lat="40.8278083" lon="14.2152883"><ele>132.33333333333334</ele><time>2026-04-17T13:53:27.538Z</time></trkpt><trkpt lat="40.8278833" lon="14.21531"><ele>133.5</ele><time>2026-04-17T13:53:30.538Z</time></trkpt><trkpt lat="40.8279617" lon="14.215335"><ele>134.66666666666666</ele><time>2026-04-17T13:53:33.539Z</time></trkpt><trkpt lat="40.8280367" lon="14.2153267"><ele>135.83333333333331</ele><time>2026-04-17T13:53:36.539Z</time></trkpt><trkpt lat="40.8281133" lon="14.21534"><ele>137.0</ele><time>2026-04-17T13:53:40.538Z</time></trkpt><trkpt lat="40.8281833" lon="14.21536"><ele>137.00000000000003</ele><time>2026-04-17T13:53:43.537Z</time></trkpt><trkpt lat="40.8282583" lon="14.2153867"><ele>137.0</ele><time>2026-04-17T13:53:46.538Z</time></trkpt><trkpt lat="40.8283267" lon="14.2154133"><ele>137.0</ele><time>2026-04-17T13:53:49.537Z</time></trkpt><trkpt lat="40.8283917" lon="14.2154183"><ele>137.0</ele><time>2026-04-17T13:53:52.536Z</time></trkpt><trkpt lat="40.828465" lon="14.2154183"><ele>137.0</ele><time>2026-04-17T13:53:55.538Z</time></trkpt><trkpt lat="40.8285383" lon="14.215435"><ele>137.00000000000003</ele><time>2026-04-17T13:53:58.538Z</time></trkpt><trkpt lat="40.8286067" lon="14.21545"><ele>137.0</ele><time>2026-04-17T13:54:01.538Z</time></trkpt><trkpt lat="40.8286717" lon="14.2154483"><ele>137.71428571428572</ele><time>2026-04-17T13:54:04.537Z</time></trkpt><trkpt lat="40.82875" lon="14.2154583"><ele>138.42857142857144</ele><time>2026-04-17T13:54:07.538Z</time></trkpt><trkpt lat="40.828825" lon="14.21546"><ele>139.14285714285714</ele><time>2026-04-17T13:54:10.537Z</time></trkpt><trkpt lat="40.8288967" lon="14.2154517"><ele>139.85714285714286</ele><time>2026-04-17T13:54:13.539Z</time></trkpt><trkpt lat="40.828965" lon="14.2154083"><ele>140.57142857142856</ele><time>2026-04-17T13:54:16.54Z</time></trkpt><trkpt lat="40.82903" lon="14.21536"><ele>141.28571428571428</ele><time>2026-04-17T13:54:19.538Z</time></trkpt><trkpt lat="40.8290933" lon="14.2153233"><ele>142.0</ele><time>2026-04-17T13:54:22.537Z</time></trkpt><trkpt lat="40.8291517" lon="14.215285"><ele>142.0</ele><time>2026-04-17T13:54:25.539Z</time></trkpt><trkpt lat="40.8292117" lon="14.2152383"><ele>142.0</ele><time>2026-04-17T13:54:28.54Z</time></trkpt><trkpt lat="40.8292733" lon="14.2152017"><ele>142.0</ele><time>2026-04-17T13:54:31.537Z</time></trkpt><trkpt lat="40.8293333" lon="14.2151567"><ele>142.0</ele><time>2026-04-17T13:54:34.537Z</time></trkpt><trkpt lat="40.8293867" lon="14.2151017"><ele>142.0</ele><time>2026-04-17T13:54:37.538Z</time></trkpt><trkpt lat="40.8294533" lon="14.2150633"><ele>142.0</ele><time>2026-04-17T13:54:40.538Z</time></trkpt><trkpt lat="40.8295133" lon="14.2150167"><ele>142.0</ele><time>2026-04-17T13:54:44.537Z</time></trkpt><trkpt lat="40.8295833" lon="14.214965"><ele>141.66666666666669</ele><time>2026-04-17T13:54:49.54Z</time></trkpt><trkpt lat="40.829655" lon="14.214925"><ele>141.33333333333334</ele><time>2026-04-17T13:54:53.538Z</time></trkpt><trkpt lat="40.829725" lon="14.2148767"><ele>141.0</ele><time>2026-04-17T13:54:57.537Z</time></trkpt><trkpt lat="40.8297933" lon="14.214815"><ele>140.66666666666666</ele><time>2026-04-17T13:55:01.538Z</time></trkpt><trkpt lat="40.8298583" lon="14.2147567"><ele>140.33333333333331</ele><time>2026-04-17T13:55:05.537Z</time></trkpt><trkpt lat="40.829895" lon="14.2146667"><ele>140.0</ele><time>2026-04-17T13:55:09.537Z</time></trkpt><trkpt lat="40.8298983" lon="14.2145567"><ele>142.33333333333331</ele><time>2026-04-17T13:55:13.537Z</time></trkpt><trkpt lat="40.8298667" lon="14.2144617"><ele>144.66666666666666</ele><time>2026-04-17T13:55:16.538Z</time></trkpt><trkpt lat="40.8298" lon="14.21438"><ele>147.0</ele><time>2026-04-17T13:55:19.541Z</time></trkpt><trkpt lat="40.8297433" lon="14.2143433"><ele>149.33333333333334</ele><time>2026-04-17T13:55:21.54Z</time></trkpt><trkpt lat="40.8296517" lon="14.2143133"><ele>151.66666666666669</ele><time>2026-04-17T13:55:24.538Z</time></trkpt><trkpt lat="40.829585" lon="14.2143217"><ele>154.0</ele><time>2026-04-17T13:55:26.537Z</time></trkpt><trkpt lat="40.8295183" lon="14.21435"><ele>154.0</ele><time>2026-04-17T13:55:28.537Z</time></trkpt><trkpt lat="40.82945" lon="14.2143833"><ele>154.0</ele><time>2026-04-17T13:55:30.538Z</time></trkpt><trkpt lat="40.8293767" lon="14.214415"><ele>154.0</ele><time>2026-04-17T13:55:32.539Z</time></trkpt><trkpt lat="40.829305" lon="14.2144367"><ele>154.0</ele><time>2026-04-17T13:55:34.536Z</time></trkpt><trkpt lat="40.8292333" lon="14.2144483"><ele>154.0</ele><time>2026-04-17T13:55:36.541Z</time></trkpt><trkpt lat="40.8291617" lon="14.21447"><ele>154.0</ele><time>2026-04-17T13:55:38.538Z</time></trkpt><trkpt lat="40.8290917" lon="14.2144817"><ele>154.0</ele><time>2026-04-17T13:55:40.538Z</time></trkpt><trkpt lat="40.8290167" lon="14.2145033"><ele>154.57142857142858</ele><time>2026-04-17T13:55:42.538Z</time></trkpt><trkpt lat="40.82895" lon="14.2145233"><ele>155.14285714285714</ele><time>2026-04-17T13:55:44.538Z</time></trkpt><trkpt lat="40.8288867" lon="14.2145383"><ele>155.71428571428572</ele><time>2026-04-17T13:55:46.536Z</time></trkpt><trkpt lat="40.8288183" lon="14.2145467"><ele>156.28571428571428</ele><time>2026-04-17T13:55:48.536Z</time></trkpt><trkpt lat="40.8287483" lon="14.21455"><ele>156.85714285714286</ele><time>2026-04-17T13:55:50.538Z</time></trkpt><trkpt lat="40.8286783" lon="14.2145633"><ele>157.42857142857144</ele><time>2026-04-17T13:55:52.537Z</time></trkpt><trkpt lat="40.828605" lon="14.2145783"><ele>158.0</ele><time>2026-04-17T13:55:54.537Z</time></trkpt><trkpt lat="40.8285367" lon="14.2145667"><ele>157.71428571428572</ele><time>2026-04-17T13:55:56.537Z</time></trkpt><trkpt lat="40.8284683" lon="14.21456"><ele>157.42857142857144</ele><time>2026-04-17T13:55:58.538Z</time></trkpt><trkpt lat="40.8284" lon="14.2145517"><ele>157.14285714285717</ele><time>2026-04-17T13:56:00.54Z</time></trkpt><trkpt lat="40.8283383" lon="14.2145283"><ele>156.85714285714286</ele><time>2026-04-17T13:56:02.539Z</time></trkpt><trkpt lat="40.8282517" lon="14.214505"><ele>156.57142857142856</ele><time>2026-04-17T13:56:05.539Z</time></trkpt><trkpt lat="40.828175" lon="14.2145117"><ele>156.2857142857143</ele><time>2026-04-17T13:56:08.542Z</time></trkpt><trkpt lat="40.8280983" lon="14.214515"><ele>156.0</ele><time>2026-04-17T13:56:11.539Z</time></trkpt><trkpt lat="40.8280183" lon="14.21449"><ele>156.0</ele><time>2026-04-17T13:56:14.539Z</time></trkpt><trkpt lat="40.82793" lon="14.21446"><ele>156.0</ele><time>2026-04-17T13:56:17.54Z</time></trkpt><trkpt lat="40.8278667" lon="14.21444"><ele>156.0</ele><time>2026-04-17T13:56:19.538Z</time></trkpt><trkpt lat="40.8278033" lon="14.2144233"><ele>156.0</ele><time>2026-04-17T13:56:21.539Z</time></trkpt><trkpt lat="40.8277383" lon="14.2143933"><ele>156.0</ele><time>2026-04-17T13:56:23.538Z</time></trkpt><trkpt lat="40.82767" lon="14.2143733"><ele>156.0</ele><time>2026-04-17T13:56:25.539Z</time></trkpt><trkpt lat="40.8276033" lon="14.2143517"><ele>156.0</ele><time>2026-04-17T13:56:27.538Z</time></trkpt><trkpt lat="40.8275367" lon="14.2143333"><ele>155.14285714285714</ele><time>2026-04-17T13:56:29.54Z</time></trkpt><trkpt lat="40.8274733" lon="14.2143083"><ele>154.28571428571428</ele><time>2026-04-17T13:56:31.539Z</time></trkpt><trkpt lat="40.8274117" lon="14.214285"><ele>153.42857142857142</ele><time>2026-04-17T13:56:33.541Z</time></trkpt><trkpt lat="40.8273167" lon="14.2142667"><ele>152.57142857142856</ele><time>2026-04-17T13:56:36.538Z</time></trkpt><trkpt lat="40.8272533" lon="14.2142417"><ele>151.71428571428572</ele><time>2026-04-17T13:56:38.538Z</time></trkpt><trkpt lat="40.8271883" lon="14.2142133"><ele>150.85714285714283</ele><time>2026-04-17T13:56:40.539Z</time></trkpt><trkpt lat="40.82712" lon="14.2141817"><ele>150.0</ele><time>2026-04-17T13:56:42.541Z</time></trkpt><trkpt lat="40.82706" lon="14.2141433"><ele>149.99999999999997</ele><time>2026-04-17T13:56:44.539Z</time></trkpt><trkpt lat="40.8270067" lon="14.21409"><ele>150.0</ele><time>2026-04-17T13:56:46.541Z</time></trkpt><trkpt lat="40.8269633" lon="14.2140217"><ele>150.0</ele><time>2026-04-17T13:56:48.539Z</time></trkpt><trkpt lat="40.8269283" lon="14.21394"><ele>150.0</ele><time>2026-04-17T13:56:50.54Z</time></trkpt><trkpt lat="40.8268933" lon="14.2138483"><ele>150.0</ele><time>2026-04-17T13:56:52.54Z</time></trkpt><trkpt lat="40.8268533" lon="14.213775"><ele>149.99999999999997</ele><time>2026-04-17T13:56:54.538Z</time></trkpt><trkpt lat="40.8268233" lon="14.2137"><ele>150.0</ele><time>2026-04-17T13:56:56.539Z</time></trkpt><trkpt lat="40.8267983" lon="14.21362"><ele>150.99999999999997</ele><time>2026-04-17T13:56:58.54Z</time></trkpt><trkpt lat="40.82677" lon="14.213535"><ele>152.0</ele><time>2026-04-17T13:57:00.539Z</time></trkpt><trkpt lat="40.82672" lon="14.21346"><ele>153.0</ele><time>2026-04-17T13:57:02.54Z</time></trkpt><trkpt lat="40.8266833" lon="14.2133767"><ele>154.0</ele><time>2026-04-17T13:57:04.539Z</time></trkpt><trkpt lat="40.8266483" lon="14.2133067"><ele>155.0</ele><time>2026-04-17T13:57:06.541Z</time></trkpt><trkpt lat="40.8266117" lon="14.21321"><ele>155.99999999999997</ele><time>2026-04-17T13:57:09.538Z</time></trkpt><trkpt lat="40.8265717" lon="14.2131133"><ele>157.0</ele><time>2026-04-17T13:57:12.54Z</time></trkpt><trkpt lat="40.826515" lon="14.2130183"><ele>157.33333333333334</ele><time>2026-04-17T13:57:15.538Z</time></trkpt><trkpt lat="40.8264583" lon="14.2129117"><ele>157.66666666666669</ele><time>2026-04-17T13:57:18.539Z</time></trkpt><trkpt lat="40.8264067" lon="14.2128233"><ele>158.0</ele><time>2026-04-17T13:57:21.539Z</time></trkpt><trkpt lat="40.826345" lon="14.2127417"><ele>158.33333333333334</ele><time>2026-04-17T13:57:24.54Z</time></trkpt><trkpt lat="40.8262783" lon="14.21269"><ele>158.66666666666666</ele><time>2026-04-17T13:57:26.539Z</time></trkpt><trkpt lat="40.826275" lon="14.2125767"><ele>159.0</ele><time>2026-04-17T13:57:30.539Z</time></trkpt><trkpt lat="40.8263217" lon="14.2124933"><ele>159.0</ele><time>2026-04-17T13:57:32.539Z</time></trkpt><trkpt lat="40.8264067" lon="14.2124367"><ele>159.0</ele><time>2026-04-17T13:57:34.538Z</time></trkpt><trkpt lat="40.8264733" lon="14.2123767"><ele>159.0</ele><time>2026-04-17T13:57:36.539Z</time></trkpt><trkpt lat="40.826545" lon="14.21232"><ele>159.0</ele><time>2026-04-17T13:57:38.54Z</time></trkpt><trkpt lat="40.82663" lon="14.21231"><ele>159.0</ele><time>2026-04-17T13:57:40.539Z</time></trkpt><trkpt lat="40.8267083" lon="14.2123183"><ele>159.0</ele><time>2026-04-17T13:57:42.539Z</time></trkpt><trkpt lat="40.826805" lon="14.2123533"><ele>158.16666666666666</ele><time>2026-04-17T13:57:45.541Z</time></trkpt><trkpt lat="40.8268717" lon="14.2124083"><ele>157.33333333333334</ele><time>2026-04-17T13:57:47.542Z</time></trkpt><trkpt lat="40.8269517" lon="14.212465"><ele>156.5</ele><time>2026-04-17T13:57:49.539Z</time></trkpt><trkpt lat="40.8270183" lon="14.2125033"><ele>155.66666666666669</ele><time>2026-04-17T13:57:51.538Z</time></trkpt><trkpt lat="40.82708" lon="14.2125367"><ele>154.83333333333334</ele><time>2026-04-17T13:57:53.539Z</time></trkpt><trkpt lat="40.827145" lon="14.2125783"><ele>154.0</ele><time>2026-04-17T13:57:55.538Z</time></trkpt><trkpt lat="40.827215" lon="14.212605"><ele>154.0</ele><time>2026-04-17T13:57:57.538Z</time></trkpt><trkpt lat="40.82729" lon="14.2126267"><ele>154.0</ele><time>2026-04-17T13:57:59.536Z</time></trkpt><trkpt lat="40.82736" lon="14.21264"><ele>154.0</ele><time>2026-04-17T13:58:01.538Z</time></trkpt><trkpt lat="40.827435" lon="14.2126567"><ele>154.0</ele><time>2026-04-17T13:58:03.537Z</time></trkpt><trkpt lat="40.8275033" lon="14.2126667"><ele>154.0</ele><time>2026-04-17T13:58:05.544Z</time></trkpt><trkpt lat="40.82758" lon="14.212675"><ele>154.0</ele><time>2026-04-17T13:58:07.539Z</time></trkpt><trkpt lat="40.82766" lon="14.212685"><ele>154.2</ele><time>2026-04-17T13:58:09.539Z</time></trkpt><trkpt lat="40.8277417" lon="14.2126917"><ele>154.4</ele><time>2026-04-17T13:58:11.537Z</time></trkpt><trkpt lat="40.827835" lon="14.2126883"><ele>154.6</ele><time>2026-04-17T13:58:13.538Z</time></trkpt><trkpt lat="40.82794" lon="14.2126617"><ele>154.8</ele><time>2026-04-17T13:58:15.538Z</time></trkpt><trkpt lat="40.8280317" lon="14.21265"><ele>155.0</ele><time>2026-04-17T13:58:17.538Z</time></trkpt><trkpt lat="40.828115" lon="14.2126667"><ele>155.0</ele><time>2026-04-17T13:58:19.539Z</time></trkpt><trkpt lat="40.8282017" lon="14.2126917"><ele>155.0</ele><time>2026-04-17T13:58:21.538Z</time></trkpt><trkpt lat="40.82828" lon="14.212715"><ele>155.0</ele><time>2026-04-17T13:58:23.542Z</time></trkpt><trkpt lat="40.82836" lon="14.2127417"><ele>155.0</ele><time>2026-04-17T13:58:25.538Z</time></trkpt><trkpt lat="40.8284267" lon="14.212735"><ele>155.0</ele><time>2026-04-17T13:58:27.537Z</time></trkpt><trkpt lat="40.8285117" lon="14.2127433"><ele>155.0</ele><time>2026-04-17T13:58:29.537Z</time></trkpt><trkpt lat="40.8285917" lon="14.2127467"><ele>156.33333333333331</ele><time>2026-04-17T13:58:31.538Z</time></trkpt><trkpt lat="40.8286617" lon="14.212775"><ele>157.66666666666666</ele><time>2026-04-17T13:58:33.537Z</time></trkpt><trkpt lat="40.8287417" lon="14.2128233"><ele>159.0</ele><time>2026-04-17T13:58:35.537Z</time></trkpt><trkpt lat="40.8288267" lon="14.2128683"><ele>160.33333333333334</ele><time>2026-04-17T13:58:37.538Z</time></trkpt><trkpt lat="40.8289017" lon="14.212885"><ele>161.66666666666669</ele><time>2026-04-17T13:58:39.538Z</time></trkpt><trkpt lat="40.8289683" lon="14.2129183"><ele>163.0</ele><time>2026-04-17T13:58:41.538Z</time></trkpt><trkpt lat="40.829035" lon="14.2129583"><ele>163.0</ele><time>2026-04-17T13:58:43.537Z</time></trkpt><trkpt lat="40.8291033" lon="14.212985"><ele>163.0</ele><time>2026-04-17T13:58:45.537Z</time></trkpt><trkpt lat="40.8291767" lon="14.2130183"><ele>163.0</ele><time>2026-04-17T13:58:47.537Z</time></trkpt><trkpt lat="40.8292567" lon="14.2130533"><ele>163.0</ele><time>2026-04-17T13:58:49.538Z</time></trkpt><trkpt lat="40.8293533" lon="14.2130967"><ele>163.0</ele><time>2026-04-17T13:58:51.539Z</time></trkpt><trkpt lat="40.829455" lon="14.213135"><ele>163.0</ele><time>2026-04-17T13:58:53.538Z</time></trkpt><trkpt lat="40.8295617" lon="14.2131417"><ele>163.2</ele><time>2026-04-17T13:58:55.537Z</time></trkpt><trkpt lat="40.8296567" lon="14.213115"><ele>163.4</ele><time>2026-04-17T13:58:57.536Z</time></trkpt><trkpt lat="40.8297383" lon="14.2130667"><ele>163.6</ele><time>2026-04-17T13:58:59.537Z</time></trkpt><trkpt lat="40.8298217" lon="14.2130283"><ele>163.79999999999998</ele><time>2026-04-17T13:59:01.539Z</time></trkpt><trkpt lat="40.8299067" lon="14.2130117"><ele>164.0</ele><time>2026-04-17T13:59:03.537Z</time></trkpt><trkpt lat="40.829995" lon="14.21299"><ele>164.0</ele><time>2026-04-17T13:59:05.537Z</time></trkpt><trkpt lat="40.8300817" lon="14.21296"><ele>164.0</ele><time>2026-04-17T13:59:07.538Z</time></trkpt><trkpt lat="40.8301583" lon="14.212915"><ele>164.0</ele><time>2026-04-17T13:59:09.538Z</time></trkpt><trkpt lat="40.8302517" lon="14.2129017"><ele>164.0</ele><time>2026-04-17T13:59:11.538Z</time></trkpt><trkpt lat="40.8303417" lon="14.2128983"><ele>164.0</ele><time>2026-04-17T13:59:13.537Z</time></trkpt><trkpt lat="40.8304367" lon="14.2128967"><ele>165.39999999999998</ele><time>2026-04-17T13:59:15.538Z</time></trkpt><trkpt lat="40.830525" lon="14.2129"><ele>166.8</ele><time>2026-04-17T13:59:17.536Z</time></trkpt><trkpt lat="40.8306283" lon="14.2129133"><ele>168.2</ele><time>2026-04-17T13:59:19.537Z</time></trkpt><trkpt lat="40.8307283" lon="14.212915"><ele>169.60000000000002</ele><time>2026-04-17T13:59:21.538Z</time></trkpt><trkpt lat="40.8308217" lon="14.212905"><ele>171.0</ele><time>2026-04-17T13:59:23.537Z</time></trkpt><trkpt lat="40.8309133" lon="14.2128833"><ele>170.8</ele><time>2026-04-17T13:59:25.539Z</time></trkpt><trkpt lat="40.8310167" lon="14.21285"><ele>170.60000000000002</ele><time>2026-04-17T13:59:27.541Z</time></trkpt><trkpt lat="40.8311067" lon="14.2128017"><ele>170.4</ele><time>2026-04-17T13:59:29.539Z</time></trkpt><trkpt lat="40.831195" lon="14.212755"><ele>170.2</ele><time>2026-04-17T13:59:31.537Z</time></trkpt><trkpt lat="40.831295" lon="14.2127017"><ele>170.0</ele><time>2026-04-17T13:59:33.539Z</time></trkpt><trkpt lat="40.831395" lon="14.212665"><ele>170.0</ele><time>2026-04-17T13:59:35.538Z</time></trkpt><trkpt lat="40.83148" lon="14.212605"><ele>170.0</ele><time>2026-04-17T13:59:37.542Z</time></trkpt><trkpt lat="40.831565" lon="14.2125567"><ele>170.0</ele><time>2026-04-17T13:59:39.537Z</time></trkpt><trkpt lat="40.8316467" lon="14.212505"><ele>170.0</ele><time>2026-04-17T13:59:41.538Z</time></trkpt><trkpt lat="40.83173" lon="14.212445"><ele>170.0</ele><time>2026-04-17T13:59:43.538Z</time></trkpt><trkpt lat="40.8318167" lon="14.212405"><ele>169.8</ele><time>2026-04-17T13:59:45.537Z</time></trkpt><trkpt lat="40.8318883" lon="14.212365"><ele>169.6</ele><time>2026-04-17T13:59:47.538Z</time></trkpt><trkpt lat="40.8319683" lon="14.2123233"><ele>169.39999999999998</ele><time>2026-04-17T13:59:49.537Z</time></trkpt><trkpt lat="40.8320517" lon="14.2122783"><ele>169.2</ele><time>2026-04-17T13:59:51.537Z</time></trkpt><trkpt lat="40.8321433" lon="14.2122217"><ele>169.0</ele><time>2026-04-17T13:59:53.538Z</time></trkpt><trkpt lat="40.8322417" lon="14.2121683"><ele>169.0</ele><time>2026-04-17T13:59:55.538Z</time></trkpt><trkpt lat="40.8323367" lon="14.212105"><ele>169.0</ele><time>2026-04-17T13:59:57.537Z</time></trkpt><trkpt lat="40.8324317" lon="14.2120517"><ele>169.0</ele><time>2026-04-17T13:59:59.538Z</time></trkpt><trkpt lat="40.8325283" lon="14.212"><ele>169.0</ele><time>2026-04-17T14:00:01.538Z</time></trkpt><trkpt lat="40.8326233" lon="14.21194"><ele>169.0</ele><time>2026-04-17T14:00:03.538Z</time></trkpt><trkpt lat="40.8327183" lon="14.21189"><ele>170.0</ele><time>2026-04-17T14:00:05.538Z</time></trkpt><trkpt lat="40.8328067" lon="14.21183"><ele>171.0</ele><time>2026-04-17T14:00:07.538Z</time></trkpt><trkpt lat="40.8329" lon="14.21178"><ele>172.0</ele><time>2026-04-17T14:00:09.538Z</time></trkpt><trkpt lat="40.8329933" lon="14.2117367"><ele>173.0</ele><time>2026-04-17T14:00:11.538Z</time></trkpt><trkpt lat="40.83307" lon="14.2116833"><ele>174.0</ele><time>2026-04-17T14:00:13.538Z</time></trkpt><trkpt lat="40.8331533" lon="14.2116283"><ele>174.0</ele><time>2026-04-17T14:00:15.538Z</time></trkpt><trkpt lat="40.83324" lon="14.211565"><ele>174.0</ele><time>2026-04-17T14:00:17.538Z</time></trkpt><trkpt lat="40.833335" lon="14.2115117"><ele>174.0</ele><time>2026-04-17T14:00:19.539Z</time></trkpt><trkpt lat="40.83344" lon="14.2114617"><ele>174.0</ele><time>2026-04-17T14:00:21.538Z</time></trkpt><trkpt lat="40.833545" lon="14.2114033"><ele>174.0</ele><time>2026-04-17T14:00:23.538Z</time></trkpt><trkpt lat="40.8336533" lon="14.2113483"><ele>174.5</ele><time>2026-04-17T14:00:25.54Z</time></trkpt><trkpt lat="40.8337517" lon="14.21128"><ele>175.0</ele><time>2026-04-17T14:00:27.538Z</time></trkpt><trkpt lat="40.83386" lon="14.2112333"><ele>175.5</ele><time>2026-04-17T14:00:29.537Z</time></trkpt><trkpt lat="40.8339767" lon="14.2112067"><ele>176.0</ele><time>2026-04-17T14:00:31.537Z</time></trkpt><trkpt lat="40.8340883" lon="14.2111833"><ele>176.0</ele><time>2026-04-17T14:00:33.538Z</time></trkpt><trkpt lat="40.8342083" lon="14.2111633"><ele>176.0</ele><time>2026-04-17T14:00:35.542Z</time></trkpt><trkpt lat="40.8342717" lon="14.21116"><ele>176.0</ele><time>2026-04-17T14:00:36.538Z</time></trkpt><trkpt lat="40.834335" lon="14.2111567"><ele>176.0</ele><time>2026-04-17T14:00:37.537Z</time></trkpt><trkpt lat="40.8344533" lon="14.211155"><ele>176.0</ele><time>2026-04-17T14:00:39.54Z</time></trkpt><trkpt lat="40.834575" lon="14.21114"><ele>176.60000000000002</ele><time>2026-04-17T14:00:41.54Z</time></trkpt><trkpt lat="40.8346967" lon="14.211135"><ele>177.2</ele><time>2026-04-17T14:00:43.541Z</time></trkpt><trkpt lat="40.8348117" lon="14.211165"><ele>177.8</ele><time>2026-04-17T14:00:45.54Z</time></trkpt><trkpt lat="40.8349333" lon="14.21122"><ele>178.39999999999998</ele><time>2026-04-17T14:00:47.54Z</time></trkpt><trkpt lat="40.8349933" lon="14.2112517"><ele>179.0</ele><time>2026-04-17T14:00:48.54Z</time></trkpt><trkpt lat="40.835055" lon="14.211275"><ele>179.0</ele><time>2026-04-17T14:00:49.539Z</time></trkpt><trkpt lat="40.8351683" lon="14.2113233"><ele>179.0</ele><time>2026-04-17T14:00:51.54Z</time></trkpt><trkpt lat="40.835265" lon="14.2113883"><ele>179.0</ele><time>2026-04-17T14:00:53.538Z</time></trkpt><trkpt lat="40.83533" lon="14.211465"><ele>179.0</ele><time>2026-04-17T14:00:55.538Z</time></trkpt><trkpt lat="40.8353867" lon="14.21152"><ele>179.0</ele><time>2026-04-17T14:00:57.54Z</time></trkpt><trkpt lat="40.8354633" lon="14.2115917"><ele>179.5</ele><time>2026-04-17T14:01:00.54Z</time></trkpt><trkpt lat="40.83553" lon="14.21166"><ele>180.0</ele><time>2026-04-17T14:01:03.538Z</time></trkpt><trkpt lat="40.8355833" lon="14.21171"><ele>180.5</ele><time>2026-04-17T14:01:06.538Z</time></trkpt><trkpt lat="40.835635" lon="14.2117583"><ele>181.0</ele><time>2026-04-17T14:01:09.539Z</time></trkpt><trkpt lat="40.8357033" lon="14.21171"><ele>181.5</ele><time>2026-04-17T14:01:15.538Z</time></trkpt><trkpt lat="40.835725" lon="14.2116117"><ele>182.0</ele><time>2026-04-17T14:01:17.538Z</time></trkpt><trkpt lat="40.835755" lon="14.2115"><ele>181.5</ele><time>2026-04-17T14:01:19.537Z</time></trkpt><trkpt lat="40.83581" lon="14.2113667"><ele>181.0</ele><time>2026-04-17T14:01:21.537Z</time></trkpt><trkpt lat="40.8358383" lon="14.2112867"><ele>180.5</ele><time>2026-04-17T14:01:22.537Z</time></trkpt><trkpt lat="40.835855" lon="14.211205"><ele>180.0</ele><time>2026-04-17T14:01:23.537Z</time></trkpt><trkpt lat="40.8358683" lon="14.2111133"><ele>179.5</ele><time>2026-04-17T14:01:24.537Z</time></trkpt><trkpt lat="40.83588" lon="14.2110233"><ele>179.0</ele><time>2026-04-17T14:01:25.538Z</time></trkpt><trkpt lat="40.8358917" lon="14.21093"><ele>179.0</ele><time>2026-04-17T14:01:26.539Z</time></trkpt><trkpt lat="40.8358933" lon="14.2108383"><ele>179.0</ele><time>2026-04-17T14:01:27.538Z</time></trkpt><trkpt lat="40.8359017" lon="14.21074"><ele>179.0</ele><time>2026-04-17T14:01:28.537Z</time></trkpt><trkpt lat="40.8358833" lon="14.2106367"><ele>179.0</ele><time>2026-04-17T14:01:29.538Z</time></trkpt><trkpt lat="40.83587" lon="14.21053"><ele>179.0</ele><time>2026-04-17T14:01:30.539Z</time></trkpt><trkpt lat="40.8358533" lon="14.2104183"><ele>179.0</ele><time>2026-04-17T14:01:31.539Z</time></trkpt><trkpt lat="40.8358467" lon="14.2103117"><ele>178.5</ele><time>2026-04-17T14:01:32.538Z</time></trkpt><trkpt lat="40.8358367" lon="14.2102"><ele>178.0</ele><time>2026-04-17T14:01:33.538Z</time></trkpt><trkpt lat="40.835825" lon="14.2100883"><ele>177.5</ele><time>2026-04-17T14:01:34.539Z</time></trkpt><trkpt lat="40.8357967" lon="14.2099767"><ele>177.0</ele><time>2026-04-17T14:01:35.537Z</time></trkpt><trkpt lat="40.8357733" lon="14.2098617"><ele>176.5</ele><time>2026-04-17T14:01:36.537Z</time></trkpt><trkpt lat="40.83575" lon="14.2097383"><ele>176.0</ele><time>2026-04-17T14:01:37.538Z</time></trkpt><trkpt lat="40.8357233" lon="14.2096183"><ele>174.5</ele><time>2026-04-17T14:01:38.537Z</time></trkpt><trkpt lat="40.8357" lon="14.209505"><ele>173.0</ele><time>2026-04-17T14:01:39.537Z</time></trkpt><trkpt lat="40.8356817" lon="14.209405"><ele>171.5</ele><time>2026-04-17T14:01:40.537Z</time></trkpt><trkpt lat="40.8356633" lon="14.20931"><ele>170.0</ele><time>2026-04-17T14:01:41.538Z</time></trkpt><trkpt lat="40.8356383" lon="14.209215"><ele>168.5</ele><time>2026-04-17T14:01:42.537Z</time></trkpt><trkpt lat="40.8356083" lon="14.2091133"><ele>167.0</ele><time>2026-04-17T14:01:43.537Z</time></trkpt><trkpt lat="40.8355633" lon="14.2090317"><ele>165.2</ele><time>2026-04-17T14:01:44.537Z</time></trkpt><trkpt lat="40.8355067" lon="14.2089533"><ele>163.39999999999998</ele><time>2026-04-17T14:01:45.538Z</time></trkpt><trkpt lat="40.8354367" lon="14.20888"><ele>161.60000000000002</ele><time>2026-04-17T14:01:46.539Z</time></trkpt><trkpt lat="40.835355" lon="14.208825"><ele>159.8</ele><time>2026-04-17T14:01:47.539Z</time></trkpt><trkpt lat="40.8352583" lon="14.2087767"><ele>158.0</ele><time>2026-04-17T14:01:48.539Z</time></trkpt><trkpt lat="40.8351517" lon="14.2087433"><ele>156.6</ele><time>2026-04-17T14:01:49.538Z</time></trkpt><trkpt lat="40.8350583" lon="14.2087467"><ele>155.20000000000002</ele><time>2026-04-17T14:01:50.537Z</time></trkpt><trkpt lat="40.83495" lon="14.2087617"><ele>153.8</ele><time>2026-04-17T14:01:51.537Z</time></trkpt><trkpt lat="40.8348467" lon="14.2087967"><ele>152.4</ele><time>2026-04-17T14:01:52.539Z</time></trkpt><trkpt lat="40.8347383" lon="14.2088417"><ele>151.0</ele><time>2026-04-17T14:01:53.539Z</time></trkpt><trkpt lat="40.8346217" lon="14.2088917"><ele>151.0</ele><time>2026-04-17T14:01:54.537Z</time></trkpt><trkpt lat="40.834525" lon="14.2089417"><ele>151.0</ele><time>2026-04-17T14:01:55.538Z</time></trkpt><trkpt lat="40.8344267" lon="14.2089933"><ele>151.0</ele><time>2026-04-17T14:01:56.538Z</time></trkpt><trkpt lat="40.8343317" lon="14.2090517"><ele>151.0</ele><time>2026-04-17T14:01:57.537Z</time></trkpt><trkpt lat="40.834235" lon="14.2091133"><ele>151.0</ele><time>2026-04-17T14:01:58.537Z</time></trkpt><trkpt lat="40.834135" lon="14.2091733"><ele>152.0</ele><time>2026-04-17T14:01:59.537Z</time></trkpt><trkpt lat="40.8340367" lon="14.20923"><ele>153.0</ele><time>2026-04-17T14:02:00.539Z</time></trkpt><trkpt lat="40.8339433" lon="14.2092883"><ele>154.0</ele><time>2026-04-17T14:02:01.538Z</time></trkpt><trkpt lat="40.8338567" lon="14.2093383"><ele>155.0</ele><time>2026-04-17T14:02:02.538Z</time></trkpt><trkpt lat="40.8337683" lon="14.2094067"><ele>156.0</ele><time>2026-04-17T14:02:03.539Z</time></trkpt><trkpt lat="40.83368" lon="14.2094867"><ele>156.0</ele><time>2026-04-17T14:02:04.538Z</time></trkpt><trkpt lat="40.8336033" lon="14.2095733"><ele>156.0</ele><time>2026-04-17T14:02:05.538Z</time></trkpt><trkpt lat="40.83353" lon="14.2096683"><ele>156.0</ele><time>2026-04-17T14:02:06.539Z</time></trkpt><trkpt lat="40.8334617" lon="14.2097717"><ele>156.0</ele><time>2026-04-17T14:02:07.538Z</time></trkpt><trkpt lat="40.8334" lon="14.209885"><ele>156.0</ele><time>2026-04-17T14:02:08.538Z</time></trkpt><trkpt lat="40.83334" lon="14.2099933"><ele>154.6</ele><time>2026-04-17T14:02:09.537Z</time></trkpt><trkpt lat="40.8332767" lon="14.2101067"><ele>153.2</ele><time>2026-04-17T14:02:10.537Z</time></trkpt><trkpt lat="40.833215" lon="14.2102183"><ele>151.8</ele><time>2026-04-17T14:02:11.537Z</time></trkpt><trkpt lat="40.8331533" lon="14.2103167"><ele>150.4</ele><time>2026-04-17T14:02:12.537Z</time></trkpt><trkpt lat="40.8330983" lon="14.210405"><ele>149.0</ele><time>2026-04-17T14:02:13.537Z</time></trkpt><trkpt lat="40.833045" lon="14.2104883"><ele>149.0</ele><time>2026-04-17T14:02:14.539Z</time></trkpt><trkpt lat="40.8329883" lon="14.21055"><ele>149.0</ele><time>2026-04-17T14:02:15.536Z</time></trkpt><trkpt lat="40.832925" lon="14.210595"><ele>149.0</ele><time>2026-04-17T14:02:16.538Z</time></trkpt><trkpt lat="40.83286" lon="14.2106117"><ele>149.0</ele><time>2026-04-17T14:02:17.537Z</time></trkpt><trkpt lat="40.8327967" lon="14.2106083"><ele>149.0</ele><time>2026-04-17T14:02:18.537Z</time></trkpt><trkpt lat="40.8327317" lon="14.2105633"><ele>149.0</ele><time>2026-04-17T14:02:19.536Z</time></trkpt><trkpt lat="40.8326767" lon="14.2105117"><ele>149.0</ele><time>2026-04-17T14:02:20.538Z</time></trkpt><trkpt lat="40.8326183" lon="14.210395"><ele>149.0</ele><time>2026-04-17T14:02:22.538Z</time></trkpt><trkpt lat="40.8326267" lon="14.210305"><ele>149.0</ele><time>2026-04-17T14:02:23.537Z</time></trkpt><trkpt lat="40.8326383" lon="14.2101717"><ele>149.0</ele><time>2026-04-17T14:02:25.538Z</time></trkpt><trkpt lat="40.8327733" lon="14.2100983"><ele>149.0</ele><time>2026-04-17T14:02:26.538Z</time></trkpt><trkpt lat="40.8328683" lon="14.2100483"><ele>149.0</ele><time>2026-04-17T14:02:27.537Z</time></trkpt><trkpt lat="40.8329833" lon="14.2099783"><ele>149.0</ele><time>2026-04-17T14:02:28.538Z</time></trkpt><trkpt lat="40.83307" lon="14.2099183"><ele>149.0</ele><time>2026-04-17T14:02:29.537Z</time></trkpt><trkpt lat="40.8331617" lon="14.2098367"><ele>149.0</ele><time>2026-04-17T14:02:30.537Z</time></trkpt><trkpt lat="40.8332417" lon="14.2097367"><ele>149.0</ele><time>2026-04-17T14:02:31.537Z</time></trkpt><trkpt lat="40.833315" lon="14.2096317"><ele>149.0</ele><time>2026-04-17T14:02:32.538Z</time></trkpt><trkpt lat="40.83338" lon="14.2095167"><ele>150.75</ele><time>2026-04-17T14:02:33.536Z</time></trkpt><trkpt lat="40.8334417" lon="14.2094"><ele>152.5</ele><time>2026-04-17T14:02:34.538Z</time></trkpt><trkpt lat="40.83351" lon="14.2092667"><ele>154.25</ele><time>2026-04-17T14:02:35.538Z</time></trkpt><trkpt lat="40.8335767" lon="14.2091433"><ele>156.0</ele><time>2026-04-17T14:02:36.537Z</time></trkpt><trkpt lat="40.8336417" lon="14.2090083"><ele>152.4</ele><time>2026-04-17T14:02:37.538Z</time></trkpt><trkpt lat="40.833705" lon="14.2088917"><ele>148.8</ele><time>2026-04-17T14:02:38.538Z</time></trkpt><trkpt lat="40.8337517" lon="14.2087817"><ele>145.20000000000002</ele><time>2026-04-17T14:02:39.538Z</time></trkpt><trkpt lat="40.8337933" lon="14.2086867"><ele>141.6</ele><time>2026-04-17T14:02:40.538Z</time></trkpt><trkpt lat="40.8338267" lon="14.2085867"><ele>138.0</ele><time>2026-04-17T14:02:41.537Z</time></trkpt><trkpt lat="40.8338667" lon="14.2084867"><ele>138.0</ele><time>2026-04-17T14:02:42.541Z</time></trkpt><trkpt lat="40.8339117" lon="14.2083917"><ele>138.0</ele><time>2026-04-17T14:02:43.538Z</time></trkpt><trkpt lat="40.8339583" lon="14.2082917"><ele>138.0</ele><time>2026-04-17T14:02:44.537Z</time></trkpt><trkpt lat="40.8340117" lon="14.2081867"><ele>138.0</ele><time>2026-04-17T14:02:45.538Z</time></trkpt><trkpt lat="40.8340633" lon="14.20809"><ele>138.0</ele><time>2026-04-17T14:02:46.537Z</time></trkpt><trkpt lat="40.834115" lon="14.208015"><ele>138.0</ele><time>2026-04-17T14:02:47.537Z</time></trkpt><trkpt lat="40.8341683" lon="14.2079517"><ele>135.5</ele><time>2026-04-17T14:02:48.538Z</time></trkpt><trkpt lat="40.83423" lon="14.2078883"><ele>133.0</ele><time>2026-04-17T14:02:49.538Z</time></trkpt><trkpt lat="40.8342833" lon="14.2078183"><ele>130.5</ele><time>2026-04-17T14:02:50.537Z</time></trkpt><trkpt lat="40.8343817" lon="14.20782"><ele>128.0</ele><time>2026-04-17T14:02:51.537Z</time></trkpt><trkpt lat="40.8344433" lon="14.20777"><ele>125.5</ele><time>2026-04-17T14:02:52.539Z</time></trkpt><trkpt lat="40.8345133" lon="14.2077267"><ele>123.0</ele><time>2026-04-17T14:02:53.539Z</time></trkpt><trkpt lat="40.83458" lon="14.2076933"><ele>123.0</ele><time>2026-04-17T14:02:54.538Z</time></trkpt><trkpt lat="40.8346567" lon="14.2076833"><ele>123.0</ele><time>2026-04-17T14:02:55.538Z</time></trkpt><trkpt lat="40.8347367" lon="14.2076717"><ele>123.0</ele><time>2026-04-17T14:02:56.537Z</time></trkpt><trkpt lat="40.8348183" lon="14.2076717"><ele>123.0</ele><time>2026-04-17T14:02:57.537Z</time></trkpt><trkpt lat="40.834895" lon="14.2076717"><ele>123.0</ele><time>2026-04-17T14:02:58.538Z</time></trkpt><trkpt lat="40.8349733" lon="14.207665"><ele>123.0</ele><time>2026-04-17T14:02:59.537Z</time></trkpt><trkpt lat="40.8350467" lon="14.2076433"><ele>123.0</ele><time>2026-04-17T14:03:00.537Z</time></trkpt><trkpt lat="40.8351233" lon="14.2076"><ele>123.00000000000001</ele><time>2026-04-17T14:03:01.538Z</time></trkpt><trkpt lat="40.8351967" lon="14.207535"><ele>123.00000000000001</ele><time>2026-04-17T14:03:02.538Z</time></trkpt><trkpt lat="40.8352633" lon="14.2074333"><ele>123.0</ele><time>2026-04-17T14:03:03.537Z</time></trkpt><trkpt lat="40.8353183" lon="14.2073167"><ele>123.0</ele><time>2026-04-17T14:03:04.537Z</time></trkpt><trkpt lat="40.8353633" lon="14.2072033"><ele>123.80000000000001</ele><time>2026-04-17T14:03:05.537Z</time></trkpt><trkpt lat="40.8354067" lon="14.2070767"><ele>124.60000000000001</ele><time>2026-04-17T14:03:06.538Z</time></trkpt><trkpt lat="40.8354567" lon="14.206955"><ele>125.39999999999999</ele><time>2026-04-17T14:03:07.538Z</time></trkpt><trkpt lat="40.8354817" lon="14.2068183"><ele>126.19999999999999</ele><time>2026-04-17T14:03:08.538Z</time></trkpt><trkpt lat="40.8354883" lon="14.20668"><ele>127.0</ele><time>2026-04-17T14:03:09.537Z</time></trkpt><trkpt lat="40.8354883" lon="14.2065583"><ele>126.6</ele><time>2026-04-17T14:03:10.536Z</time></trkpt><trkpt lat="40.8354567" lon="14.2064283"><ele>126.19999999999999</ele><time>2026-04-17T14:03:11.538Z</time></trkpt><trkpt lat="40.8353933" lon="14.206315"><ele>125.8</ele><time>2026-04-17T14:03:12.537Z</time></trkpt><trkpt lat="40.835335" lon="14.2062183"><ele>125.4</ele><time>2026-04-17T14:03:13.537Z</time></trkpt><trkpt lat="40.835285" lon="14.2061133"><ele>125.0</ele><time>2026-04-17T14:03:14.538Z</time></trkpt><trkpt lat="40.8352533" lon="14.2059917"><ele>125.0</ele><time>2026-04-17T14:03:15.537Z</time></trkpt><trkpt lat="40.835235" lon="14.2058733"><ele>125.0</ele><time>2026-04-17T14:03:16.537Z</time></trkpt><trkpt lat="40.83522" lon="14.2057517"><ele>125.0</ele><time>2026-04-17T14:03:17.536Z</time></trkpt><trkpt lat="40.8352017" lon="14.2056333"><ele>125.0</ele><time>2026-04-17T14:03:18.538Z</time></trkpt><trkpt lat="40.8351867" lon="14.2055183"><ele>125.0</ele><time>2026-04-17T14:03:19.54Z</time></trkpt><trkpt lat="40.8351833" lon="14.2053833"><ele>123.6</ele><time>2026-04-17T14:03:20.537Z</time></trkpt><trkpt lat="40.835175" lon="14.2052567"><ele>122.2</ele><time>2026-04-17T14:03:21.538Z</time></trkpt><trkpt lat="40.8351667" lon="14.2051333"><ele>120.80000000000001</ele><time>2026-04-17T14:03:22.537Z</time></trkpt><trkpt lat="40.83516" lon="14.2050117"><ele>119.4</ele><time>2026-04-17T14:03:23.54Z</time></trkpt><trkpt lat="40.835155" lon="14.20489"><ele>118.0</ele><time>2026-04-17T14:03:24.539Z</time></trkpt><trkpt lat="40.835165" lon="14.2047733"><ele>115.50000000000001</ele><time>2026-04-17T14:03:25.537Z</time></trkpt><trkpt lat="40.8352" lon="14.2046633"><ele>113.0</ele><time>2026-04-17T14:03:26.537Z</time></trkpt><trkpt lat="40.8352383" lon="14.2045683"><ele>110.5</ele><time>2026-04-17T14:03:27.537Z</time></trkpt><trkpt lat="40.8352733" lon="14.20448"><ele>108.0</ele><time>2026-04-17T14:03:28.537Z</time></trkpt><trkpt lat="40.8353217" lon="14.204405"><ele>105.50000000000001</ele><time>2026-04-17T14:03:29.538Z</time></trkpt><trkpt lat="40.8353867" lon="14.20434"><ele>103.0</ele><time>2026-04-17T14:03:30.537Z</time></trkpt><trkpt lat="40.8354383" lon="14.2042533"><ele>103.00000000000001</ele><time>2026-04-17T14:03:31.536Z</time></trkpt><trkpt lat="40.8354783" lon="14.204155"><ele>103.0</ele><time>2026-04-17T14:03:32.537Z</time></trkpt><trkpt lat="40.835515" lon="14.2040533"><ele>103.0</ele><time>2026-04-17T14:03:33.537Z</time></trkpt><trkpt lat="40.8355367" lon="14.2039583"><ele>103.0</ele><time>2026-04-17T14:03:34.539Z</time></trkpt><trkpt lat="40.8355333" lon="14.203865"><ele>103.00000000000001</ele><time>2026-04-17T14:03:35.538Z</time></trkpt><trkpt lat="40.83549" lon="14.2037033"><ele>103.0</ele><time>2026-04-17T14:03:37.537Z</time></trkpt><trkpt lat="40.8354583" lon="14.2036133"><ele>101.2</ele><time>2026-04-17T14:03:38.538Z</time></trkpt><trkpt lat="40.83542" lon="14.20352"><ele>99.4</ele><time>2026-04-17T14:03:39.539Z</time></trkpt><trkpt lat="40.83538" lon="14.2034233"><ele>97.60000000000001</ele><time>2026-04-17T14:03:40.538Z</time></trkpt><trkpt lat="40.835335" lon="14.203315"><ele>95.80000000000001</ele><time>2026-04-17T14:03:41.536Z</time></trkpt><trkpt lat="40.8352683" lon="14.2031917"><ele>94.0</ele><time>2026-04-17T14:03:42.538Z</time></trkpt><trkpt lat="40.8352267" lon="14.2030733"><ele>92.80000000000001</ele><time>2026-04-17T14:03:43.538Z</time></trkpt><trkpt lat="40.83519" lon="14.2029533"><ele>91.60000000000001</ele><time>2026-04-17T14:03:44.537Z</time></trkpt><trkpt lat="40.8351567" lon="14.2028233"><ele>90.4</ele><time>2026-04-17T14:03:45.537Z</time></trkpt><trkpt lat="40.8351283" lon="14.2026883"><ele>89.2</ele><time>2026-04-17T14:03:46.538Z</time></trkpt><trkpt lat="40.8351" lon="14.2025517"><ele>88.0</ele><time>2026-04-17T14:03:47.538Z</time></trkpt><trkpt lat="40.8350783" lon="14.2024217"><ele>86.33333333333333</ele><time>2026-04-17T14:03:48.537Z</time></trkpt><trkpt lat="40.8350567" lon="14.2023017"><ele>84.66666666666666</ele><time>2026-04-17T14:03:49.539Z</time></trkpt><trkpt lat="40.8350367" lon="14.2021933"><ele>83.0</ele><time>2026-04-17T14:03:50.538Z</time></trkpt><trkpt lat="40.835025" lon="14.2020883"><ele>81.33333333333333</ele><time>2026-04-17T14:03:51.538Z</time></trkpt><trkpt lat="40.8350217" lon="14.2019767"><ele>79.66666666666667</ele><time>2026-04-17T14:03:52.539Z</time></trkpt><trkpt lat="40.835005" lon="14.2018767"><ele>78.0</ele><time>2026-04-17T14:03:53.536Z</time></trkpt><trkpt lat="40.8349717" lon="14.2017733"><ele>78.0</ele><time>2026-04-17T14:03:54.537Z</time></trkpt><trkpt lat="40.83494" lon="14.2016733"><ele>78.0</ele><time>2026-04-17T14:03:55.537Z</time></trkpt><trkpt lat="40.8349183" lon="14.2015767"><ele>78.0</ele><time>2026-04-17T14:03:56.536Z</time></trkpt><trkpt lat="40.8348967" lon="14.20149"><ele>78.0</ele><time>2026-04-17T14:03:57.538Z</time></trkpt><trkpt lat="40.8348583" lon="14.2014133"><ele>78.0</ele><time>2026-04-17T14:03:58.537Z</time></trkpt><trkpt lat="40.8347933" lon="14.2012783"><ele>78.0</ele><time>2026-04-17T14:04:00.536Z</time></trkpt><trkpt lat="40.834745" lon="14.201165"><ele>77.83333333333333</ele><time>2026-04-17T14:04:02.536Z</time></trkpt><trkpt lat="40.83469" lon="14.2010433"><ele>77.66666666666667</ele><time>2026-04-17T14:04:04.536Z</time></trkpt><trkpt lat="40.8346383" lon="14.20093"><ele>77.5</ele><time>2026-04-17T14:04:06.538Z</time></trkpt><trkpt lat="40.8345933" lon="14.2008383"><ele>77.33333333333334</ele><time>2026-04-17T14:04:08.538Z</time></trkpt><trkpt lat="40.83455" lon="14.2007667"><ele>77.16666666666667</ele><time>2026-04-17T14:04:11.538Z</time></trkpt><trkpt lat="40.8345117" lon="14.2006833"><ele>77.0</ele><time>2026-04-17T14:04:15.539Z</time></trkpt><trkpt lat="40.834495" lon="14.2005917"><ele>77.0</ele><time>2026-04-17T14:04:21.537Z</time></trkpt><trkpt lat="40.8344983" lon="14.2005017"><ele>77.0</ele><time>2026-04-17T14:04:33.536Z</time></trkpt><trkpt lat="40.8345567" lon="14.2004367"><ele>77.0</ele><time>2026-04-17T14:04:37.538Z</time></trkpt><trkpt lat="40.83462" lon="14.2004133"><ele>77.0</ele><time>2026-04-17T14:04:40.538Z</time></trkpt><trkpt lat="40.8347183" lon="14.2004067"><ele>77.0</ele><time>2026-04-17T14:04:43.537Z</time></trkpt><trkpt lat="40.834795" lon="14.200415"><ele>77.0</ele><time>2026-04-17T14:04:45.536Z</time></trkpt><trkpt lat="40.8348767" lon="14.2004067"><ele>77.0</ele><time>2026-04-17T14:04:47.537Z</time></trkpt><trkpt lat="40.8349567" lon="14.2004017"><ele>77.0</ele><time>2026-04-17T14:04:49.537Z</time></trkpt><trkpt lat="40.835045" lon="14.2003983"><ele>77.0</ele><time>2026-04-17T14:04:51.537Z</time></trkpt><trkpt lat="40.83514" lon="14.2003817"><ele>77.0</ele><time>2026-04-17T14:04:53.537Z</time></trkpt><trkpt lat="40.8352367" lon="14.2003883"><ele>77.0</ele><time>2026-04-17T14:04:55.538Z</time></trkpt><trkpt lat="40.8353283" lon="14.2003883"><ele>77.0</ele><time>2026-04-17T14:04:57.538Z</time></trkpt><trkpt lat="40.835415" lon="14.2003717"><ele>77.0</ele><time>2026-04-17T14:04:59.538Z</time></trkpt><trkpt lat="40.8355" lon="14.2003517"><ele>77.0</ele><time>2026-04-17T14:05:01.54Z</time></trkpt><trkpt lat="40.8355833" lon="14.2003617"><ele>77.0</ele><time>2026-04-17T14:05:03.538Z</time></trkpt><trkpt lat="40.83567" lon="14.20039"><ele>77.0</ele><time>2026-04-17T14:05:05.537Z</time></trkpt><trkpt lat="40.8357483" lon="14.2004217"><ele>77.0</ele><time>2026-04-17T14:05:07.538Z</time></trkpt><trkpt lat="40.83583" lon="14.200455"><ele>77.0</ele><time>2026-04-17T14:05:09.537Z</time></trkpt><trkpt lat="40.8359083" lon="14.20048"><ele>77.0</ele><time>2026-04-17T14:05:11.536Z</time></trkpt><trkpt lat="40.83599" lon="14.2005017"><ele>77.0</ele><time>2026-04-17T14:05:13.537Z</time></trkpt><trkpt lat="40.83608" lon="14.20052"><ele>77.0</ele><time>2026-04-17T14:05:15.538Z</time></trkpt><trkpt lat="40.8361633" lon="14.2005467"><ele>77.0</ele><time>2026-04-17T14:05:17.537Z</time></trkpt><trkpt lat="40.83625" lon="14.2005783"><ele>77.0</ele><time>2026-04-17T14:05:19.537Z</time></trkpt><trkpt lat="40.8363383" lon="14.200615"><ele>76.8</ele><time>2026-04-17T14:05:21.537Z</time></trkpt><trkpt lat="40.836425" lon="14.2006433"><ele>76.6</ele><time>2026-04-17T14:05:23.539Z</time></trkpt><trkpt lat="40.83653" lon="14.20068"><ele>76.39999999999999</ele><time>2026-04-17T14:05:25.539Z</time></trkpt><trkpt lat="40.83662" lon="14.2007183"><ele>76.2</ele><time>2026-04-17T14:05:27.537Z</time></trkpt><trkpt lat="40.8366983" lon="14.2007433"><ele>76.0</ele><time>2026-04-17T14:05:29.539Z</time></trkpt><trkpt lat="40.8367833" lon="14.2007683"><ele>76.33333333333333</ele><time>2026-04-17T14:05:31.538Z</time></trkpt><trkpt lat="40.8368617" lon="14.200795"><ele>76.66666666666666</ele><time>2026-04-17T14:05:33.537Z</time></trkpt><trkpt lat="40.8369317" lon="14.200815"><ele>77.0</ele><time>2026-04-17T14:05:35.539Z</time></trkpt><trkpt lat="40.8370083" lon="14.2008267"><ele>77.33333333333333</ele><time>2026-04-17T14:05:37.537Z</time></trkpt><trkpt lat="40.8370867" lon="14.2008333"><ele>77.66666666666667</ele><time>2026-04-17T14:05:39.537Z</time></trkpt><trkpt lat="40.8372017" lon="14.2008533"><ele>78.0</ele><time>2026-04-17T14:05:41.538Z</time></trkpt><trkpt lat="40.83733" lon="14.2009033"><ele>78.0</ele><time>2026-04-17T14:05:43.538Z</time></trkpt><trkpt lat="40.837435" lon="14.2009067"><ele>78.0</ele><time>2026-04-17T14:05:45.544Z</time></trkpt><trkpt lat="40.8375767" lon="14.2008983"><ele>78.0</ele><time>2026-04-17T14:05:47.538Z</time></trkpt><trkpt lat="40.837695" lon="14.2009633"><ele>78.0</ele><time>2026-04-17T14:05:48.538Z</time></trkpt><trkpt lat="40.8377817" lon="14.2009733"><ele>78.0</ele><time>2026-04-17T14:05:49.54Z</time></trkpt><trkpt lat="40.837855" lon="14.2009717"><ele>78.0</ele><time>2026-04-17T14:05:50.55Z</time></trkpt><trkpt lat="40.8379183" lon="14.20095"><ele>78.0</ele><time>2026-04-17T14:05:51.536Z</time></trkpt><trkpt lat="40.8379817" lon="14.2009367"><ele>78.0</ele><time>2026-04-17T14:05:52.537Z</time></trkpt><trkpt lat="40.8380517" lon="14.2009367"><ele>78.0</ele><time>2026-04-17T14:05:53.538Z</time></trkpt><trkpt lat="40.83817" lon="14.2009483"><ele>78.0</ele><time>2026-04-17T14:05:55.539Z</time></trkpt><trkpt lat="40.83827" lon="14.20094"><ele>78.0</ele><time>2026-04-17T14:05:57.537Z</time></trkpt><trkpt lat="40.838375" lon="14.2009167"><ele>78.0</ele><time>2026-04-17T14:05:59.537Z</time></trkpt><trkpt lat="40.8384883" lon="14.2008867"><ele>78.0</ele><time>2026-04-17T14:06:01.538Z</time></trkpt><trkpt lat="40.8385933" lon="14.20087"><ele>78.0</ele><time>2026-04-17T14:06:03.539Z</time></trkpt><trkpt lat="40.8386917" lon="14.2008683"><ele>78.0</ele><time>2026-04-17T14:06:05.54Z</time></trkpt><trkpt lat="40.8387833" lon="14.2008583"><ele>77.8</ele><time>2026-04-17T14:06:07.539Z</time></trkpt><trkpt lat="40.8388733" lon="14.2008367"><ele>77.6</ele><time>2026-04-17T14:06:09.54Z</time></trkpt><trkpt lat="40.838955" lon="14.2008133"><ele>77.4</ele><time>2026-04-17T14:06:11.54Z</time></trkpt><trkpt lat="40.8390417" lon="14.2007867"><ele>77.2</ele><time>2026-04-17T14:06:13.539Z</time></trkpt><trkpt lat="40.8391283" lon="14.20075"><ele>77.0</ele><time>2026-04-17T14:06:15.538Z</time></trkpt><trkpt lat="40.8392183" lon="14.20069"><ele>77.2</ele><time>2026-04-17T14:06:17.538Z</time></trkpt><trkpt lat="40.8392967" lon="14.2006117"><ele>77.4</ele><time>2026-04-17T14:06:19.537Z</time></trkpt><trkpt lat="40.8393583" lon="14.2005117"><ele>77.6</ele><time>2026-04-17T14:06:21.538Z</time></trkpt><trkpt lat="40.8394067" lon="14.2004133"><ele>77.8</ele><time>2026-04-17T14:06:23.538Z</time></trkpt><trkpt lat="40.8394417" lon="14.20031"><ele>78.0</ele><time>2026-04-17T14:06:25.538Z</time></trkpt><trkpt lat="40.839475" lon="14.2002117"><ele>78.33333333333333</ele><time>2026-04-17T14:06:27.538Z</time></trkpt><trkpt lat="40.8395117" lon="14.2001083"><ele>78.66666666666667</ele><time>2026-04-17T14:06:29.54Z</time></trkpt><trkpt lat="40.8395417" lon="14.2000067"><ele>79.0</ele><time>2026-04-17T14:06:31.538Z</time></trkpt><trkpt lat="40.839585" lon="14.19991"><ele>79.33333333333334</ele><time>2026-04-17T14:06:33.539Z</time></trkpt><trkpt lat="40.83963" lon="14.1998083"><ele>79.66666666666667</ele><time>2026-04-17T14:06:35.54Z</time></trkpt><trkpt lat="40.8396733" lon="14.1996917"><ele>80.0</ele><time>2026-04-17T14:06:37.539Z</time></trkpt><trkpt lat="40.8397133" lon="14.1995633"><ele>80.0</ele><time>2026-04-17T14:06:39.537Z</time></trkpt><trkpt lat="40.83976" lon="14.1994517"><ele>80.0</ele><time>2026-04-17T14:06:41.538Z</time></trkpt><trkpt lat="40.8397883" lon="14.199325"><ele>80.0</ele><time>2026-04-17T14:06:43.538Z</time></trkpt><trkpt lat="40.8398367" lon="14.1991933"><ele>80.0</ele><time>2026-04-17T14:06:45.537Z</time></trkpt><trkpt lat="40.8398817" lon="14.1990633"><ele>80.0</ele><time>2026-04-17T14:06:47.539Z</time></trkpt><trkpt lat="40.8399317" lon="14.1989383"><ele>80.2</ele><time>2026-04-17T14:06:49.538Z</time></trkpt><trkpt lat="40.8399817" lon="14.1988167"><ele>80.4</ele><time>2026-04-17T14:06:51.538Z</time></trkpt><trkpt lat="40.8400283" lon="14.1986983"><ele>80.6</ele><time>2026-04-17T14:06:53.537Z</time></trkpt><trkpt lat="40.840065" lon="14.1985783"><ele>80.8</ele><time>2026-04-17T14:06:55.538Z</time></trkpt><trkpt lat="40.8400967" lon="14.19846"><ele>81.0</ele><time>2026-04-17T14:06:57.538Z</time></trkpt><trkpt lat="40.84013" lon="14.19836"><ele>80.83333333333333</ele><time>2026-04-17T14:06:59.537Z</time></trkpt><trkpt lat="40.8401583" lon="14.1982733"><ele>80.66666666666667</ele><time>2026-04-17T14:07:01.537Z</time></trkpt><trkpt lat="40.8401867" lon="14.1981933"><ele>80.5</ele><time>2026-04-17T14:07:03.538Z</time></trkpt><trkpt lat="40.84021" lon="14.1981117"><ele>80.33333333333334</ele><time>2026-04-17T14:07:05.539Z</time></trkpt><trkpt lat="40.8402317" lon="14.19801"><ele>80.16666666666667</ele><time>2026-04-17T14:07:07.539Z</time></trkpt><trkpt lat="40.8402367" lon="14.197895"><ele>80.0</ele><time>2026-04-17T14:07:09.537Z</time></trkpt><trkpt lat="40.8402433" lon="14.1977683"><ele>79.75</ele><time>2026-04-17T14:07:11.537Z</time></trkpt><trkpt lat="40.8402417" lon="14.197635"><ele>79.5</ele><time>2026-04-17T14:07:13.537Z</time></trkpt><trkpt lat="40.8402" lon="14.1974833"><ele>79.25</ele><time>2026-04-17T14:07:15.538Z</time></trkpt><trkpt lat="40.8401433" lon="14.19735"><ele>79.0</ele><time>2026-04-17T14:07:17.538Z</time></trkpt><trkpt lat="40.8400767" lon="14.1972217"><ele>79.0</ele><time>2026-04-17T14:07:19.539Z</time></trkpt><trkpt lat="40.8400133" lon="14.1970917"><ele>79.0</ele><time>2026-04-17T14:07:21.537Z</time></trkpt><trkpt lat="40.8399467" lon="14.1969517"><ele>79.0</ele><time>2026-04-17T14:07:23.537Z</time></trkpt><trkpt lat="40.8399067" lon="14.1968867"><ele>79.0</ele><time>2026-04-17T14:07:24.538Z</time></trkpt><trkpt lat="40.8398333" lon="14.1967683"><ele>79.0</ele><time>2026-04-17T14:07:26.538Z</time></trkpt><trkpt lat="40.8397483" lon="14.1966417"><ele>78.8</ele><time>2026-04-17T14:07:28.538Z</time></trkpt><trkpt lat="40.839695" lon="14.1965"><ele>78.60000000000001</ele><time>2026-04-17T14:07:30.538Z</time></trkpt><trkpt lat="40.839635" lon="14.1963583"><ele>78.4</ele><time>2026-04-17T14:07:32.537Z</time></trkpt><trkpt lat="40.8395583" lon="14.1962267"><ele>78.2</ele><time>2026-04-17T14:07:34.539Z</time></trkpt><trkpt lat="40.83952" lon="14.19616"><ele>78.0</ele><time>2026-04-17T14:07:35.537Z</time></trkpt><trkpt lat="40.83948" lon="14.19609"><ele>78.0</ele><time>2026-04-17T14:07:36.538Z</time></trkpt><trkpt lat="40.8394483" lon="14.196015"><ele>78.0</ele><time>2026-04-17T14:07:37.538Z</time></trkpt><trkpt lat="40.83942" lon="14.19594"><ele>78.0</ele><time>2026-04-17T14:07:38.539Z</time></trkpt><trkpt lat="40.839395" lon="14.1958617"><ele>78.0</ele><time>2026-04-17T14:07:39.537Z</time></trkpt><trkpt lat="40.8393583" lon="14.1957017"><ele>78.0</ele><time>2026-04-17T14:07:41.537Z</time></trkpt><trkpt lat="40.8393483" lon="14.1956167"><ele>78.0</ele><time>2026-04-17T14:07:42.537Z</time></trkpt><trkpt lat="40.839345" lon="14.1955317"><ele>78.0</ele><time>2026-04-17T14:07:43.538Z</time></trkpt><trkpt lat="40.8393483" lon="14.195445"><ele>78.0</ele><time>2026-04-17T14:07:44.537Z</time></trkpt><trkpt lat="40.8393517" lon="14.1953567"><ele>78.0</ele><time>2026-04-17T14:07:45.537Z</time></trkpt><trkpt lat="40.8393617" lon="14.19527"><ele>78.0</ele><time>2026-04-17T14:07:46.538Z</time></trkpt><trkpt lat="40.8393783" lon="14.1951833"><ele>78.0</ele><time>2026-04-17T14:07:47.538Z</time></trkpt><trkpt lat="40.8394183" lon="14.1950283"><ele>78.0</ele><time>2026-04-17T14:07:49.538Z</time></trkpt><trkpt lat="40.83944" lon="14.1949467"><ele>78.0</ele><time>2026-04-17T14:07:50.538Z</time></trkpt><trkpt lat="40.8394617" lon="14.1948667"><ele>77.85714285714286</ele><time>2026-04-17T14:07:51.537Z</time></trkpt><trkpt lat="40.83948" lon="14.1947833"><ele>77.71428571428571</ele><time>2026-04-17T14:07:52.537Z</time></trkpt><trkpt lat="40.8395033" lon="14.1947"><ele>77.57142857142857</ele><time>2026-04-17T14:07:53.539Z</time></trkpt><trkpt lat="40.83953" lon="14.1946183"><ele>77.42857142857143</ele><time>2026-04-17T14:07:54.538Z</time></trkpt><trkpt lat="40.8395517" lon="14.1945333"><ele>77.28571428571428</ele><time>2026-04-17T14:07:55.537Z</time></trkpt><trkpt lat="40.8395767" lon="14.1944483"><ele>77.14285714285714</ele><time>2026-04-17T14:07:56.538Z</time></trkpt><trkpt lat="40.8395983" lon="14.1943633"><ele>77.0</ele><time>2026-04-17T14:07:57.539Z</time></trkpt><trkpt lat="40.8396183" lon="14.1942817"><ele>77.0</ele><time>2026-04-17T14:07:58.538Z</time></trkpt><trkpt lat="40.8396383" lon="14.1941983"><ele>77.0</ele><time>2026-04-17T14:07:59.537Z</time></trkpt><trkpt lat="40.83966" lon="14.1941167"><ele>77.0</ele><time>2026-04-17T14:08:00.538Z</time></trkpt><trkpt lat="40.839705" lon="14.19397"><ele>77.0</ele><time>2026-04-17T14:08:02.537Z</time></trkpt><trkpt lat="40.8397583" lon="14.1938283"><ele>77.0</ele><time>2026-04-17T14:08:04.538Z</time></trkpt><trkpt lat="40.8398317" lon="14.1937"><ele>77.4</ele><time>2026-04-17T14:08:06.538Z</time></trkpt><trkpt lat="40.839875" lon="14.1936383"><ele>77.80000000000001</ele><time>2026-04-17T14:08:07.537Z</time></trkpt><trkpt lat="40.839915" lon="14.1935733"><ele>78.2</ele><time>2026-04-17T14:08:08.538Z</time></trkpt><trkpt lat="40.8400017" lon="14.1934567"><ele>78.60000000000001</ele><time>2026-04-17T14:08:10.538Z</time></trkpt><trkpt lat="40.8400917" lon="14.1933717"><ele>79.0</ele><time>2026-04-17T14:08:12.538Z</time></trkpt><trkpt lat="40.8401817" lon="14.1933033"><ele>79.4</ele><time>2026-04-17T14:08:14.538Z</time></trkpt><trkpt lat="40.8402817" lon="14.1932517"><ele>79.80000000000001</ele><time>2026-04-17T14:08:16.538Z</time></trkpt><trkpt lat="40.8403783" lon="14.1932033"><ele>80.19999999999999</ele><time>2026-04-17T14:08:18.538Z</time></trkpt><trkpt lat="40.8404617" lon="14.1931633"><ele>80.6</ele><time>2026-04-17T14:08:20.538Z</time></trkpt><trkpt lat="40.8405367" lon="14.193135"><ele>81.0</ele><time>2026-04-17T14:08:22.538Z</time></trkpt><trkpt lat="40.840615" lon="14.19312"><ele>81.28571428571429</ele><time>2026-04-17T14:08:24.537Z</time></trkpt><trkpt lat="40.8406883" lon="14.1930917"><ele>81.57142857142857</ele><time>2026-04-17T14:08:26.538Z</time></trkpt><trkpt lat="40.8407617" lon="14.1930617"><ele>81.85714285714286</ele><time>2026-04-17T14:08:28.538Z</time></trkpt><trkpt lat="40.8408317" lon="14.193015"><ele>82.14285714285714</ele><time>2026-04-17T14:08:30.539Z</time></trkpt><trkpt lat="40.8408983" lon="14.1929783"><ele>82.42857142857143</ele><time>2026-04-17T14:08:32.538Z</time></trkpt><trkpt lat="40.8409617" lon="14.192945"><ele>82.71428571428571</ele><time>2026-04-17T14:08:34.537Z</time></trkpt><trkpt lat="40.84102" lon="14.192895"><ele>83.0</ele><time>2026-04-17T14:08:36.538Z</time></trkpt><trkpt lat="40.8410817" lon="14.1928417"><ele>83.16666666666667</ele><time>2026-04-17T14:08:38.538Z</time></trkpt><trkpt lat="40.84116" lon="14.1928033"><ele>83.33333333333334</ele><time>2026-04-17T14:08:40.537Z</time></trkpt><trkpt lat="40.8412333" lon="14.1927783"><ele>83.5</ele><time>2026-04-17T14:08:42.538Z</time></trkpt><trkpt lat="40.8413117" lon="14.1927317"><ele>83.66666666666667</ele><time>2026-04-17T14:08:44.538Z</time></trkpt><trkpt lat="40.841385" lon="14.1926933"><ele>83.83333333333333</ele><time>2026-04-17T14:08:46.537Z</time></trkpt><trkpt lat="40.84147" lon="14.192645"><ele>84.0</ele><time>2026-04-17T14:08:48.537Z</time></trkpt><trkpt lat="40.8415617" lon="14.1926083"><ele>84.0</ele><time>2026-04-17T14:08:50.537Z</time></trkpt><trkpt lat="40.8416617" lon="14.1925683"><ele>84.0</ele><time>2026-04-17T14:08:52.538Z</time></trkpt><trkpt lat="40.8417633" lon="14.19252"><ele>84.0</ele><time>2026-04-17T14:08:54.538Z</time></trkpt><trkpt lat="40.84186" lon="14.1924667"><ele>84.0</ele><time>2026-04-17T14:08:56.539Z</time></trkpt><trkpt lat="40.8419633" lon="14.192415"><ele>84.0</ele><time>2026-04-17T14:08:58.538Z</time></trkpt><trkpt lat="40.84205" lon="14.1923717"><ele>84.66666666666667</ele><time>2026-04-17T14:09:00.537Z</time></trkpt><trkpt lat="40.8421317" lon="14.19232"><ele>85.33333333333333</ele><time>2026-04-17T14:09:02.539Z</time></trkpt><trkpt lat="40.8422083" lon="14.192275"><ele>86.0</ele><time>2026-04-17T14:09:04.537Z</time></trkpt><trkpt lat="40.84228" lon="14.192245"><ele>86.66666666666666</ele><time>2026-04-17T14:09:06.537Z</time></trkpt><trkpt lat="40.8423483" lon="14.1922383"><ele>87.33333333333333</ele><time>2026-04-17T14:09:08.537Z</time></trkpt><trkpt lat="40.8424217" lon="14.1922383"><ele>88.0</ele><time>2026-04-17T14:09:10.537Z</time></trkpt><trkpt lat="40.8424967" lon="14.19218"><ele>88.0</ele><time>2026-04-17T14:09:13.538Z</time></trkpt><trkpt lat="40.8425117" lon="14.1920767"><ele>88.0</ele><time>2026-04-17T14:09:16.537Z</time></trkpt><trkpt lat="40.8425217" lon="14.1919683"><ele>88.0</ele><time>2026-04-17T14:09:19.537Z</time></trkpt><trkpt lat="40.8425233" lon="14.1918817"><ele>88.0</ele><time>2026-04-17T14:09:21.536Z</time></trkpt><trkpt lat="40.842545" lon="14.191785"><ele>88.0</ele><time>2026-04-17T14:09:23.539Z</time></trkpt><trkpt lat="40.8425733" lon="14.1916967"><ele>88.0</ele><time>2026-04-17T14:09:25.539Z</time></trkpt><trkpt lat="40.84259" lon="14.191595"><ele>88.5</ele><time>2026-04-17T14:09:27.538Z</time></trkpt><trkpt lat="40.8425983" lon="14.1914867"><ele>89.0</ele><time>2026-04-17T14:09:29.537Z</time></trkpt><trkpt lat="40.8426183" lon="14.1913883"><ele>89.5</ele><time>2026-04-17T14:09:31.537Z</time></trkpt><trkpt lat="40.8426417" lon="14.1912933"><ele>90.0</ele><time>2026-04-17T14:09:33.54Z</time></trkpt><trkpt lat="40.8426567" lon="14.1911833"><ele>90.5</ele><time>2026-04-17T14:09:35.54Z</time></trkpt><trkpt lat="40.84268" lon="14.1910833"><ele>91.0</ele><time>2026-04-17T14:09:37.54Z</time></trkpt><trkpt lat="40.8427083" lon="14.19098"><ele>91.0</ele><time>2026-04-17T14:09:39.54Z</time></trkpt><trkpt lat="40.8427267" lon="14.1908767"><ele>91.0</ele><time>2026-04-17T14:09:41.538Z</time></trkpt><trkpt lat="40.8427417" lon="14.190765"><ele>91.0</ele><time>2026-04-17T14:09:43.537Z</time></trkpt><trkpt lat="40.8427533" lon="14.1906517"><ele>91.0</ele><time>2026-04-17T14:09:45.538Z</time></trkpt><trkpt lat="40.8427567" lon="14.1905417"><ele>91.0</ele><time>2026-04-17T14:09:47.537Z</time></trkpt><trkpt lat="40.8427717" lon="14.1904333"><ele>91.0</ele><time>2026-04-17T14:09:49.538Z</time></trkpt><trkpt lat="40.8427883" lon="14.1903133"><ele>91.0</ele><time>2026-04-17T14:09:51.537Z</time></trkpt><trkpt lat="40.842805" lon="14.1902"><ele>91.0</ele><time>2026-04-17T14:09:53.538Z</time></trkpt><trkpt lat="40.842815" lon="14.1900833"><ele>91.0</ele><time>2026-04-17T14:09:55.538Z</time></trkpt><trkpt lat="40.8428233" lon="14.1899667"><ele>91.0</ele><time>2026-04-17T14:09:57.538Z</time></trkpt><trkpt lat="40.8428333" lon="14.1898467"><ele>91.0</ele><time>2026-04-17T14:09:59.538Z</time></trkpt><trkpt lat="40.8428433" lon="14.189725"><ele>91.0</ele><time>2026-04-17T14:10:01.537Z</time></trkpt><trkpt lat="40.842855" lon="14.1896117"><ele>91.0</ele><time>2026-04-17T14:10:03.537Z</time></trkpt><trkpt lat="40.8428717" lon="14.1895"><ele>91.0</ele><time>2026-04-17T14:10:05.536Z</time></trkpt><trkpt lat="40.842885" lon="14.1893883"><ele>91.0</ele><time>2026-04-17T14:10:07.538Z</time></trkpt><trkpt lat="40.8429017" lon="14.18928"><ele>91.0</ele><time>2026-04-17T14:10:09.536Z</time></trkpt><trkpt lat="40.8429367" lon="14.1891833"><ele>91.0</ele><time>2026-04-17T14:10:11.538Z</time></trkpt><trkpt lat="40.8429583" lon="14.18908"><ele>91.0</ele><time>2026-04-17T14:10:13.536Z</time></trkpt><trkpt lat="40.8429767" lon="14.1889833"><ele>91.28571428571429</ele><time>2026-04-17T14:10:15.537Z</time></trkpt><trkpt lat="40.8429983" lon="14.1888933"><ele>91.57142857142857</ele><time>2026-04-17T14:10:17.537Z</time></trkpt><trkpt lat="40.84301" lon="14.1888"><ele>91.85714285714286</ele><time>2026-04-17T14:10:19.538Z</time></trkpt><trkpt lat="40.8430283" lon="14.1887083"><ele>92.14285714285714</ele><time>2026-04-17T14:10:21.538Z</time></trkpt><trkpt lat="40.8430483" lon="14.1886017"><ele>92.42857142857143</ele><time>2026-04-17T14:10:23.536Z</time></trkpt><trkpt lat="40.84305" lon="14.1885"><ele>92.71428571428572</ele><time>2026-04-17T14:10:25.539Z</time></trkpt><trkpt lat="40.8430533" lon="14.1884083"><ele>93.0</ele><time>2026-04-17T14:10:27.536Z</time></trkpt><trkpt lat="40.8430483" lon="14.188285"><ele>93.33333333333333</ele><time>2026-04-17T14:10:30.537Z</time></trkpt><trkpt lat="40.8430367" lon="14.1881667"><ele>93.66666666666667</ele><time>2026-04-17T14:10:33.538Z</time></trkpt><trkpt lat="40.8430267" lon="14.1880533"><ele>94.0</ele><time>2026-04-17T14:10:36.536Z</time></trkpt><trkpt lat="40.8430133" lon="14.1879633"><ele>94.33333333333334</ele><time>2026-04-17T14:10:38.541Z</time></trkpt><trkpt lat="40.8429867" lon="14.187865"><ele>94.66666666666667</ele><time>2026-04-17T14:10:40.538Z</time></trkpt><trkpt lat="40.8429917" lon="14.1877567"><ele>95.0</ele><time>2026-04-17T14:10:42.538Z</time></trkpt><trkpt lat="40.84297" lon="14.1876483"><ele>95.0</ele><time>2026-04-17T14:10:44.536Z</time></trkpt><trkpt lat="40.8429583" lon="14.1875333"><ele>95.0</ele><time>2026-04-17T14:10:46.536Z</time></trkpt><trkpt lat="40.8429433" lon="14.1874233"><ele>95.0</ele><time>2026-04-17T14:10:48.536Z</time></trkpt><trkpt lat="40.842925" lon="14.1873133"><ele>95.0</ele><time>2026-04-17T14:10:50.537Z</time></trkpt><trkpt lat="40.8428983" lon="14.1871933"><ele>95.0</ele><time>2026-04-17T14:10:52.536Z</time></trkpt><trkpt lat="40.8428733" lon="14.18708"><ele>95.0</ele><time>2026-04-17T14:10:54.537Z</time></trkpt><trkpt lat="40.8428533" lon="14.1869733"><ele>95.0</ele><time>2026-04-17T14:10:56.536Z</time></trkpt><trkpt lat="40.8428333" lon="14.1868683"><ele>95.0</ele><time>2026-04-17T14:10:58.537Z</time></trkpt><trkpt lat="40.8428067" lon="14.186775"><ele>95.0</ele><time>2026-04-17T14:11:00.536Z</time></trkpt><trkpt lat="40.8427917" lon="14.186675"><ele>95.0</ele><time>2026-04-17T14:11:02.537Z</time></trkpt><trkpt lat="40.8427833" lon="14.1865717"><ele>95.0</ele><time>2026-04-17T14:11:04.537Z</time></trkpt><trkpt lat="40.8427683" lon="14.1864683"><ele>95.0</ele><time>2026-04-17T14:11:06.536Z</time></trkpt><trkpt lat="40.842755" lon="14.1863567"><ele>95.66666666666667</ele><time>2026-04-17T14:11:08.537Z</time></trkpt><trkpt lat="40.8427433" lon="14.1862617"><ele>96.33333333333334</ele><time>2026-04-17T14:11:10.538Z</time></trkpt><trkpt lat="40.84273" lon="14.1861483"><ele>97.0</ele><time>2026-04-17T14:11:12.538Z</time></trkpt><trkpt lat="40.84274" lon="14.1860467"><ele>97.66666666666667</ele><time>2026-04-17T14:11:14.536Z</time></trkpt><trkpt lat="40.84276" lon="14.185945"><ele>98.33333333333333</ele><time>2026-04-17T14:11:16.536Z</time></trkpt><trkpt lat="40.8428017" lon="14.185865"><ele>99.0</ele><time>2026-04-17T14:11:18.537Z</time></trkpt><trkpt lat="40.84287" lon="14.1857833"><ele>99.0</ele><time>2026-04-17T14:11:21.537Z</time></trkpt><trkpt lat="40.842935" lon="14.1857083"><ele>99.0</ele><time>2026-04-17T14:11:24.538Z</time></trkpt><trkpt lat="40.8429917" lon="14.1856417"><ele>99.0</ele><time>2026-04-17T14:11:27.536Z</time></trkpt><trkpt lat="40.843065" lon="14.1855817"><ele>99.0</ele><time>2026-04-17T14:11:30.541Z</time></trkpt><trkpt lat="40.843115" lon="14.18553"><ele>99.0</ele><time>2026-04-17T14:11:32.538Z</time></trkpt><trkpt lat="40.84317" lon="14.18548"><ele>99.0</ele><time>2026-04-17T14:11:34.537Z</time></trkpt><trkpt lat="40.8432283" lon="14.1854217"><ele>99.42857142857143</ele><time>2026-04-17T14:11:36.536Z</time></trkpt><trkpt lat="40.8432833" lon="14.1853683"><ele>99.85714285714285</ele><time>2026-04-17T14:11:38.536Z</time></trkpt><trkpt lat="40.8433517" lon="14.185325"><ele>100.28571428571428</ele><time>2026-04-17T14:11:40.537Z</time></trkpt><trkpt lat="40.8434183" lon="14.1852867"><ele>100.71428571428572</ele><time>2026-04-17T14:11:42.537Z</time></trkpt><trkpt lat="40.843485" lon="14.1852383"><ele>101.14285714285714</ele><time>2026-04-17T14:11:44.538Z</time></trkpt><trkpt lat="40.8435517" lon="14.18519"><ele>101.57142857142857</ele><time>2026-04-17T14:11:46.536Z</time></trkpt><trkpt lat="40.8436033" lon="14.1851283"><ele>102.0</ele><time>2026-04-17T14:11:48.538Z</time></trkpt><trkpt lat="40.84367" lon="14.1850617"><ele>102.0</ele><time>2026-04-17T14:11:50.539Z</time></trkpt><trkpt lat="40.8437317" lon="14.1849967"><ele>102.0</ele><time>2026-04-17T14:11:52.537Z</time></trkpt><trkpt lat="40.8437883" lon="14.1849467"><ele>102.0</ele><time>2026-04-17T14:11:54.537Z</time></trkpt><trkpt lat="40.8438433" lon="14.1849"><ele>102.0</ele><time>2026-04-17T14:11:56.536Z</time></trkpt><trkpt lat="40.8439" lon="14.1848517"><ele>102.0</ele><time>2026-04-17T14:11:58.537Z</time></trkpt><trkpt lat="40.8439533" lon="14.1848033"><ele>102.0</ele><time>2026-04-17T14:12:00.538Z</time></trkpt><trkpt lat="40.8440233" lon="14.184725"><ele>102.0</ele><time>2026-04-17T14:12:03.537Z</time></trkpt><trkpt lat="40.8441067" lon="14.1846617"><ele>102.57142857142857</ele><time>2026-04-17T14:12:06.537Z</time></trkpt><trkpt lat="40.844165" lon="14.1846233"><ele>103.14285714285714</ele><time>2026-04-17T14:12:08.537Z</time></trkpt><trkpt lat="40.8442233" lon="14.18458"><ele>103.71428571428572</ele><time>2026-04-17T14:12:10.536Z</time></trkpt><trkpt lat="40.8442883" lon="14.1845317"><ele>104.28571428571428</ele><time>2026-04-17T14:12:12.538Z</time></trkpt><trkpt lat="40.8443483" lon="14.184475"><ele>104.85714285714285</ele><time>2026-04-17T14:12:14.538Z</time></trkpt><trkpt lat="40.8444083" lon="14.1844217"><ele>105.42857142857143</ele><time>2026-04-17T14:12:16.537Z</time></trkpt><trkpt lat="40.8444783" lon="14.1843683"><ele>106.0</ele><time>2026-04-17T14:12:19.536Z</time></trkpt><trkpt lat="40.8445567" lon="14.1843067"><ele>106.33333333333334</ele><time>2026-04-17T14:12:22.537Z</time></trkpt><trkpt lat="40.8446267" lon="14.184245"><ele>106.66666666666667</ele><time>2026-04-17T14:12:25.538Z</time></trkpt><trkpt lat="40.8447" lon="14.1841883"><ele>107.0</ele><time>2026-04-17T14:12:28.536Z</time></trkpt><trkpt lat="40.84477" lon="14.1841383"><ele>107.33333333333334</ele><time>2026-04-17T14:12:31.537Z</time></trkpt><trkpt lat="40.8448217" lon="14.18408"><ele>107.66666666666667</ele><time>2026-04-17T14:12:34.537Z</time></trkpt><trkpt lat="40.8449" lon="14.1840367"><ele>108.0</ele><time>2026-04-17T14:12:37.537Z</time></trkpt><trkpt lat="40.8449917" lon="14.1840033"><ele>109.83333333333333</ele><time>2026-04-17T14:12:40.538Z</time></trkpt><trkpt lat="40.845075" lon="14.1839633"><ele>111.66666666666666</ele><time>2026-04-17T14:12:43.537Z</time></trkpt><trkpt lat="40.8451533" lon="14.183925"><ele>113.5</ele><time>2026-04-17T14:12:46.537Z</time></trkpt><trkpt lat="40.845225" lon="14.1838767"><ele>115.33333333333333</ele><time>2026-04-17T14:12:49.537Z</time></trkpt><trkpt lat="40.84528" lon="14.183835"><ele>117.16666666666666</ele><time>2026-04-17T14:12:51.537Z</time></trkpt><trkpt lat="40.8453617" lon="14.1837933"><ele>119.0</ele><time>2026-04-17T14:12:54.537Z</time></trkpt><trkpt lat="40.8454367" lon="14.18375"><ele>119.66666666666666</ele><time>2026-04-17T14:12:57.536Z</time></trkpt><trkpt lat="40.8454967" lon="14.1837133"><ele>120.33333333333333</ele><time>2026-04-17T14:12:59.538Z</time></trkpt><trkpt lat="40.84557" lon="14.18367"><ele>121.0</ele><time>2026-04-17T14:13:02.538Z</time></trkpt><trkpt lat="40.8456517" lon="14.1836467"><ele>121.66666666666666</ele><time>2026-04-17T14:13:06.537Z</time></trkpt><trkpt lat="40.8457267" lon="14.1835967"><ele>122.33333333333333</ele><time>2026-04-17T14:13:10.537Z</time></trkpt><trkpt lat="40.8457967" lon="14.183555"><ele>123.0</ele><time>2026-04-17T14:13:14.537Z</time></trkpt><trkpt lat="40.8458733" lon="14.1835383"><ele>123.0</ele><time>2026-04-17T14:13:18.537Z</time></trkpt><trkpt lat="40.8459467" lon="14.183535"><ele>123.0</ele><time>2026-04-17T14:13:22.536Z</time></trkpt><trkpt lat="40.8460217" lon="14.1835233"><ele>123.0</ele><time>2026-04-17T14:13:26.538Z</time></trkpt><trkpt lat="40.8461017" lon="14.1835383"><ele>123.0</ele><time>2026-04-17T14:13:30.537Z</time></trkpt><trkpt lat="40.8461767" lon="14.183565"><ele>123.0</ele><time>2026-04-17T14:13:34.536Z</time></trkpt><trkpt lat="40.84625" lon="14.1835917"><ele>123.0</ele><time>2026-04-17T14:13:38.536Z</time></trkpt><trkpt lat="40.84632" lon="14.1836317"><ele>122.85714285714288</ele><time>2026-04-17T14:13:42.537Z</time></trkpt><trkpt lat="40.8463917" lon="14.18366"><ele>122.71428571428572</ele><time>2026-04-17T14:13:46.537Z</time></trkpt><trkpt lat="40.846455" lon="14.1836983"><ele>122.57142857142857</ele><time>2026-04-17T14:13:49.541Z</time></trkpt><trkpt lat="40.8465333" lon="14.1837283"><ele>122.42857142857143</ele><time>2026-04-17T14:13:52.536Z</time></trkpt><trkpt lat="40.8465983" lon="14.1837567"><ele>122.28571428571428</ele><time>2026-04-17T14:13:55.537Z</time></trkpt><trkpt lat="40.8466683" lon="14.1837867"><ele>122.14285714285712</ele><time>2026-04-17T14:13:58.538Z</time></trkpt><trkpt lat="40.8467417" lon="14.1838283"><ele>121.99999999999999</ele><time>2026-04-17T14:14:01.536Z</time></trkpt><trkpt lat="40.84681" lon="14.1838833"><ele>122.66666666666666</ele><time>2026-04-17T14:14:04.537Z</time></trkpt><trkpt lat="40.84687" lon="14.1839367"><ele>123.33333333333333</ele><time>2026-04-17T14:14:06.537Z</time></trkpt><trkpt lat="40.8469283" lon="14.184005"><ele>124.0</ele><time>2026-04-17T14:14:08.537Z</time></trkpt><trkpt lat="40.8470017" lon="14.1840717"><ele>124.66666666666666</ele><time>2026-04-17T14:14:10.537Z</time></trkpt><trkpt lat="40.8470983" lon="14.184095"><ele>125.33333333333333</ele><time>2026-04-17T14:14:12.538Z</time></trkpt><trkpt lat="40.8471983" lon="14.1840367"><ele>126.0</ele><time>2026-04-17T14:14:14.538Z</time></trkpt><trkpt lat="40.847245" lon="14.18398"><ele>126.0</ele><time>2026-04-17T14:14:15.536Z</time></trkpt><trkpt lat="40.8473117" lon="14.1838567"><ele>126.0</ele><time>2026-04-17T14:14:17.538Z</time></trkpt><trkpt lat="40.8473533" lon="14.1837317"><ele>126.0</ele><time>2026-04-17T14:14:19.537Z</time></trkpt><trkpt lat="40.8473883" lon="14.1836067"><ele>126.0</ele><time>2026-04-17T14:14:21.536Z</time></trkpt><trkpt lat="40.84742" lon="14.1835"><ele>126.0</ele><time>2026-04-17T14:14:23.537Z</time></trkpt><trkpt lat="40.8474517" lon="14.1834067"><ele>126.0</ele><time>2026-04-17T14:14:25.539Z</time></trkpt><trkpt lat="40.8474733" lon="14.18331"><ele>126.0</ele><time>2026-04-17T14:14:27.537Z</time></trkpt><trkpt lat="40.8475033" lon="14.1832183"><ele>126.0</ele><time>2026-04-17T14:14:29.537Z</time></trkpt><trkpt lat="40.84754" lon="14.1831317"><ele>126.0</ele><time>2026-04-17T14:14:31.536Z</time></trkpt><trkpt lat="40.8475917" lon="14.1830533"><ele>126.0</ele><time>2026-04-17T14:14:33.536Z</time></trkpt><trkpt lat="40.8476483" lon="14.1829783"><ele>126.0</ele><time>2026-04-17T14:14:35.537Z</time></trkpt><trkpt lat="40.8477033" lon="14.1829133"><ele>130.5</ele><time>2026-04-17T14:14:37.538Z</time></trkpt><trkpt lat="40.8477533" lon="14.1828567"><ele>135.0</ele><time>2026-04-17T14:14:39.538Z</time></trkpt><trkpt lat="40.84781" lon="14.1827583"><ele>139.5</ele><time>2026-04-17T14:14:42.538Z</time></trkpt><trkpt lat="40.84786" lon="14.1826517"><ele>144.0</ele><time>2026-04-17T14:14:45.538Z</time></trkpt><trkpt lat="40.8479033" lon="14.18258"><ele>148.5</ele><time>2026-04-17T14:14:47.538Z</time></trkpt><trkpt lat="40.847945" lon="14.1825083"><ele>153.0</ele><time>2026-04-17T14:14:49.538Z</time></trkpt><trkpt lat="40.848" lon="14.1824117"><ele>151.33333333333334</ele><time>2026-04-17T14:14:52.537Z</time></trkpt><trkpt lat="40.8480483" lon="14.1823067"><ele>149.66666666666666</ele><time>2026-04-17T14:14:55.537Z</time></trkpt><trkpt lat="40.8480967" lon="14.1822233"><ele>148.0</ele><time>2026-04-17T14:14:58.537Z</time></trkpt><trkpt lat="40.84815" lon="14.1821283"><ele>146.33333333333331</ele><time>2026-04-17T14:15:01.537Z</time></trkpt><trkpt lat="40.8481933" lon="14.1820533"><ele>144.66666666666666</ele><time>2026-04-17T14:15:03.537Z</time></trkpt><trkpt lat="40.848235" lon="14.18199"><ele>143.0</ele><time>2026-04-17T14:15:05.537Z</time></trkpt><trkpt lat="40.8482867" lon="14.18189"><ele>142.99999999999997</ele><time>2026-04-17T14:15:08.537Z</time></trkpt><trkpt lat="40.8483267" lon="14.181805"><ele>143.0</ele><time>2026-04-17T14:15:11.538Z</time></trkpt><trkpt lat="40.8483683" lon="14.1817233"><ele>143.0</ele><time>2026-04-17T14:15:13.537Z</time></trkpt><trkpt lat="40.8484017" lon="14.1816433"><ele>143.0</ele><time>2026-04-17T14:15:15.538Z</time></trkpt><trkpt lat="40.84843" lon="14.181565"><ele>143.0</ele><time>2026-04-17T14:15:17.537Z</time></trkpt><trkpt lat="40.8484617" lon="14.18148"><ele>142.99999999999997</ele><time>2026-04-17T14:15:19.538Z</time></trkpt><trkpt lat="40.84849" lon="14.1814017"><ele>143.0</ele><time>2026-04-17T14:15:21.537Z</time></trkpt><trkpt lat="40.8485383" lon="14.1812983"><ele>143.28571428571428</ele><time>2026-04-17T14:15:24.537Z</time></trkpt><trkpt lat="40.8485667" lon="14.1812183"><ele>143.57142857142856</ele><time>2026-04-17T14:15:26.536Z</time></trkpt><trkpt lat="40.8486" lon="14.18114"><ele>143.85714285714286</ele><time>2026-04-17T14:15:28.537Z</time></trkpt><trkpt lat="40.8486467" lon="14.1810283"><ele>144.14285714285714</ele><time>2026-04-17T14:15:31.538Z</time></trkpt><trkpt lat="40.8486783" lon="14.1809433"><ele>144.42857142857144</ele><time>2026-04-17T14:15:33.537Z</time></trkpt><trkpt lat="40.8487067" lon="14.18086"><ele>144.71428571428572</ele><time>2026-04-17T14:15:35.539Z</time></trkpt><trkpt lat="40.8487433" lon="14.180775"><ele>145.0</ele><time>2026-04-17T14:15:38.539Z</time></trkpt><trkpt lat="40.848765" lon="14.1806967"><ele>144.85714285714286</ele><time>2026-04-17T14:15:41.539Z</time></trkpt><trkpt lat="40.8487717" lon="14.1805933"><ele>144.71428571428572</ele><time>2026-04-17T14:15:44.537Z</time></trkpt><trkpt lat="40.848815" lon="14.1805"><ele>144.57142857142858</ele><time>2026-04-17T14:15:48.538Z</time></trkpt><trkpt lat="40.8488533" lon="14.1804283"><ele>144.42857142857144</ele><time>2026-04-17T14:15:51.538Z</time></trkpt><trkpt lat="40.8488883" lon="14.1803433"><ele>144.28571428571428</ele><time>2026-04-17T14:15:54.538Z</time></trkpt><trkpt lat="40.84893" lon="14.1802517"><ele>144.14285714285717</ele><time>2026-04-17T14:15:58.539Z</time></trkpt><trkpt lat="40.8489933" lon="14.1802217"><ele>144.0</ele><time>2026-04-17T14:16:01.538Z</time></trkpt><trkpt lat="40.849085" lon="14.1802"><ele>144.0</ele><time>2026-04-17T14:16:04.538Z</time></trkpt><trkpt lat="40.84914" lon="14.1801433"><ele>144.0</ele><time>2026-04-17T14:16:06.538Z</time></trkpt><trkpt lat="40.849185" lon="14.18006"><ele>144.0</ele><time>2026-04-17T14:16:08.539Z</time></trkpt><trkpt lat="40.8492083" lon="14.17995"><ele>144.0</ele><time>2026-04-17T14:16:10.537Z</time></trkpt><trkpt lat="40.8492217" lon="14.1798317"><ele>144.0</ele><time>2026-04-17T14:16:12.536Z</time></trkpt><trkpt lat="40.8492417" lon="14.179715"><ele>144.0</ele><time>2026-04-17T14:16:14.537Z</time></trkpt><trkpt lat="40.84926" lon="14.179605"><ele>144.00000000000003</ele><time>2026-04-17T14:16:16.537Z</time></trkpt><trkpt lat="40.8492933" lon="14.179505"><ele>144.0</ele><time>2026-04-17T14:16:18.538Z</time></trkpt><trkpt lat="40.849335" lon="14.1794217"><ele>144.0</ele><time>2026-04-17T14:16:20.537Z</time></trkpt><trkpt lat="40.8493667" lon="14.179335"><ele>144.0</ele><time>2026-04-17T14:16:22.538Z</time></trkpt><trkpt lat="40.849395" lon="14.1792517"><ele>144.0</ele><time>2026-04-17T14:16:24.536Z</time></trkpt><trkpt lat="40.8494233" lon="14.1791717"><ele>144.00000000000003</ele><time>2026-04-17T14:16:26.538Z</time></trkpt><trkpt lat="40.8494433" lon="14.1790917"><ele>144.0</ele><time>2026-04-17T14:16:28.537Z</time></trkpt><trkpt lat="40.8494667" lon="14.1790133"><ele>145.5</ele><time>2026-04-17T14:16:30.538Z</time></trkpt><trkpt lat="40.8494817" lon="14.1789283"><ele>147.0</ele><time>2026-04-17T14:16:32.538Z</time></trkpt><trkpt lat="40.8494917" lon="14.1788433"><ele>148.5</ele><time>2026-04-17T14:16:34.538Z</time></trkpt><trkpt lat="40.8494933" lon="14.1787533"><ele>150.0</ele><time>2026-04-17T14:16:36.542Z</time></trkpt><trkpt lat="40.8495183" lon="14.17864"><ele>151.5</ele><time>2026-04-17T14:16:39.537Z</time></trkpt><trkpt lat="40.8495417" lon="14.17852"><ele>153.0</ele><time>2026-04-17T14:16:42.538Z</time></trkpt><trkpt lat="40.84957" lon="14.1784383"><ele>153.0</ele><time>2026-04-17T14:16:44.537Z</time></trkpt><trkpt lat="40.8495867" lon="14.1783467"><ele>153.0</ele><time>2026-04-17T14:16:46.538Z</time></trkpt><trkpt lat="40.8496033" lon="14.178265"><ele>153.0</ele><time>2026-04-17T14:16:48.539Z</time></trkpt><trkpt lat="40.8496217" lon="14.1781683"><ele>153.0</ele><time>2026-04-17T14:16:50.538Z</time></trkpt><trkpt lat="40.8496317" lon="14.1780633"><ele>153.0</ele><time>2026-04-17T14:16:52.537Z</time></trkpt><trkpt lat="40.84965" lon="14.1779783"><ele>153.0</ele><time>2026-04-17T14:16:54.54Z</time></trkpt><trkpt lat="40.849675" lon="14.1779"><ele>153.0</ele><time>2026-04-17T14:16:56.539Z</time></trkpt><trkpt lat="40.8497" lon="14.1778083"><ele>153.57142857142856</ele><time>2026-04-17T14:16:58.538Z</time></trkpt><trkpt lat="40.8497267" lon="14.1777217"><ele>154.14285714285714</ele><time>2026-04-17T14:17:00.539Z</time></trkpt><trkpt lat="40.8497583" lon="14.1776317"><ele>154.71428571428572</ele><time>2026-04-17T14:17:02.538Z</time></trkpt><trkpt lat="40.8497867" lon="14.177545"><ele>155.28571428571428</ele><time>2026-04-17T14:17:04.539Z</time></trkpt><trkpt lat="40.8498067" lon="14.1774317"><ele>155.85714285714286</ele><time>2026-04-17T14:17:06.539Z</time></trkpt><trkpt lat="40.8498233" lon="14.1773483"><ele>156.42857142857142</ele><time>2026-04-17T14:17:08.538Z</time></trkpt><trkpt lat="40.8498433" lon="14.1772567"><ele>157.0</ele><time>2026-04-17T14:17:10.54Z</time></trkpt><trkpt lat="40.8498617" lon="14.177175"><ele>156.99999999999997</ele><time>2026-04-17T14:17:12.538Z</time></trkpt><trkpt lat="40.8498683" lon="14.17709"><ele>157.0</ele><time>2026-04-17T14:17:14.54Z</time></trkpt><trkpt lat="40.84989" lon="14.1770117"><ele>157.0</ele><time>2026-04-17T14:17:16.537Z</time></trkpt><trkpt lat="40.849935" lon="14.1769417"><ele>157.0</ele><time>2026-04-17T14:17:19.539Z</time></trkpt><trkpt lat="40.8499717" lon="14.1768567"><ele>157.0</ele><time>2026-04-17T14:17:22.538Z</time></trkpt><trkpt lat="40.8500083" lon="14.1767883"><ele>156.99999999999997</ele><time>2026-04-17T14:17:24.539Z</time></trkpt><trkpt lat="40.8500333" lon="14.1766967"><ele>157.0</ele><time>2026-04-17T14:17:26.538Z</time></trkpt><trkpt lat="40.85007" lon="14.17661"><ele>157.0</ele><time>2026-04-17T14:17:28.539Z</time></trkpt><trkpt lat="40.8501017" lon="14.1765283"><ele>157.0</ele><time>2026-04-17T14:17:30.538Z</time></trkpt><trkpt lat="40.8501283" lon="14.176435"><ele>157.0</ele><time>2026-04-17T14:17:32.539Z</time></trkpt><trkpt lat="40.85015" lon="14.176335"><ele>157.0</ele><time>2026-04-17T14:17:34.546Z</time></trkpt><trkpt lat="40.8501833" lon="14.1762483"><ele>157.0</ele><time>2026-04-17T14:17:36.539Z</time></trkpt><trkpt lat="40.850215" lon="14.1761617"><ele>157.0</ele><time>2026-04-17T14:17:38.542Z</time></trkpt><trkpt lat="40.8502433" lon="14.1760633"><ele>157.4</ele><time>2026-04-17T14:17:40.538Z</time></trkpt><trkpt lat="40.850275" lon="14.1759567"><ele>157.79999999999998</ele><time>2026-04-17T14:17:42.54Z</time></trkpt><trkpt lat="40.8503083" lon="14.17584"><ele>158.2</ele><time>2026-04-17T14:17:44.538Z</time></trkpt><trkpt lat="40.8503433" lon="14.1757217"><ele>158.6</ele><time>2026-04-17T14:17:46.539Z</time></trkpt><trkpt lat="40.850375" lon="14.1756"><ele>159.0</ele><time>2026-04-17T14:17:48.539Z</time></trkpt><trkpt lat="40.8504133" lon="14.175485"><ele>159.0</ele><time>2026-04-17T14:17:50.539Z</time></trkpt><trkpt lat="40.8504517" lon="14.17537"><ele>159.0</ele><time>2026-04-17T14:17:52.539Z</time></trkpt><trkpt lat="40.85049" lon="14.1752583"><ele>159.0</ele><time>2026-04-17T14:17:54.538Z</time></trkpt><trkpt lat="40.850535" lon="14.1751367"><ele>159.0</ele><time>2026-04-17T14:17:56.539Z</time></trkpt><trkpt lat="40.850575" lon="14.1750317"><ele>159.0</ele><time>2026-04-17T14:17:58.541Z</time></trkpt><trkpt lat="40.8506117" lon="14.1749417"><ele>158.83333333333334</ele><time>2026-04-17T14:18:00.541Z</time></trkpt><trkpt lat="40.8506383" lon="14.1748533"><ele>158.66666666666666</ele><time>2026-04-17T14:18:02.54Z</time></trkpt><trkpt lat="40.8506767" lon="14.1747733"><ele>158.5</ele><time>2026-04-17T14:18:04.54Z</time></trkpt><trkpt lat="40.8507117" lon="14.1746883"><ele>158.33333333333331</ele><time>2026-04-17T14:18:06.539Z</time></trkpt><trkpt lat="40.8507417" lon="14.174585"><ele>158.16666666666666</ele><time>2026-04-17T14:18:08.54Z</time></trkpt><trkpt lat="40.8507817" lon="14.174485"><ele>158.0</ele><time>2026-04-17T14:18:10.541Z</time></trkpt><trkpt lat="40.8508183" lon="14.1743817"><ele>158.0</ele><time>2026-04-17T14:18:12.542Z</time></trkpt><trkpt lat="40.8508483" lon="14.1742717"><ele>158.0</ele><time>2026-04-17T14:18:14.539Z</time></trkpt><trkpt lat="40.8508833" lon="14.1741733"><ele>158.0</ele><time>2026-04-17T14:18:16.54Z</time></trkpt><trkpt lat="40.8509183" lon="14.1740683"><ele>158.0</ele><time>2026-04-17T14:18:18.541Z</time></trkpt><trkpt lat="40.8509483" lon="14.17396"><ele>158.0</ele><time>2026-04-17T14:18:20.539Z</time></trkpt><trkpt lat="40.8509867" lon="14.1738483"><ele>158.0</ele><time>2026-04-17T14:18:22.54Z</time></trkpt><trkpt lat="40.85103" lon="14.17374"><ele>158.20000000000002</ele><time>2026-04-17T14:18:24.541Z</time></trkpt><trkpt lat="40.851065" lon="14.1736217"><ele>158.4</ele><time>2026-04-17T14:18:26.542Z</time></trkpt><trkpt lat="40.8510917" lon="14.1734967"><ele>158.60000000000002</ele><time>2026-04-17T14:18:28.54Z</time></trkpt><trkpt lat="40.851125" lon="14.1733733"><ele>158.8</ele><time>2026-04-17T14:18:30.538Z</time></trkpt><trkpt lat="40.8511567" lon="14.1732617"><ele>159.0</ele><time>2026-04-17T14:18:32.538Z</time></trkpt><trkpt lat="40.851195" lon="14.1731467"><ele>159.0</ele><time>2026-04-17T14:18:34.538Z</time></trkpt><trkpt lat="40.851235" lon="14.1730333"><ele>159.0</ele><time>2026-04-17T14:18:36.537Z</time></trkpt><trkpt lat="40.8512767" lon="14.1728967"><ele>159.0</ele><time>2026-04-17T14:18:38.538Z</time></trkpt><trkpt lat="40.85131" lon="14.1727633"><ele>159.0</ele><time>2026-04-17T14:18:40.538Z</time></trkpt><trkpt lat="40.8513367" lon="14.1726283"><ele>159.0</ele><time>2026-04-17T14:18:42.536Z</time></trkpt><trkpt lat="40.8513717" lon="14.1725033"><ele>159.0</ele><time>2026-04-17T14:18:44.54Z</time></trkpt><trkpt lat="40.8514167" lon="14.1723867"><ele>159.0</ele><time>2026-04-17T14:18:46.537Z</time></trkpt><trkpt lat="40.8514533" lon="14.17226"><ele>159.0</ele><time>2026-04-17T14:18:48.541Z</time></trkpt><trkpt lat="40.85149" lon="14.172135"><ele>159.0</ele><time>2026-04-17T14:18:50.541Z</time></trkpt><trkpt lat="40.851525" lon="14.172015"><ele>159.0</ele><time>2026-04-17T14:18:52.539Z</time></trkpt><trkpt lat="40.8515633" lon="14.1718983"><ele>159.2</ele><time>2026-04-17T14:18:54.54Z</time></trkpt><trkpt lat="40.8516167" lon="14.17178"><ele>159.4</ele><time>2026-04-17T14:18:56.538Z</time></trkpt><trkpt lat="40.8516767" lon="14.171655"><ele>159.6</ele><time>2026-04-17T14:18:58.54Z</time></trkpt><trkpt lat="40.85173" lon="14.1715267"><ele>159.8</ele><time>2026-04-17T14:19:00.54Z</time></trkpt><trkpt lat="40.8517833" lon="14.1713967"><ele>160.0</ele><time>2026-04-17T14:19:02.54Z</time></trkpt><trkpt lat="40.8518383" lon="14.1712683"><ele>160.8</ele><time>2026-04-17T14:19:04.538Z</time></trkpt><trkpt lat="40.8518983" lon="14.1711433"><ele>161.6</ele><time>2026-04-17T14:19:06.54Z</time></trkpt><trkpt lat="40.85195" lon="14.171015"><ele>162.39999999999998</ele><time>2026-04-17T14:19:08.538Z</time></trkpt><trkpt lat="40.8520033" lon="14.1708833"><ele>163.2</ele><time>2026-04-17T14:19:10.538Z</time></trkpt><trkpt lat="40.85205" lon="14.17075"><ele>164.0</ele><time>2026-04-17T14:19:12.539Z</time></trkpt><trkpt lat="40.8521017" lon="14.1706183"><ele>164.39999999999998</ele><time>2026-04-17T14:19:14.538Z</time></trkpt><trkpt lat="40.8521433" lon="14.1704867"><ele>164.8</ele><time>2026-04-17T14:19:16.537Z</time></trkpt><trkpt lat="40.85218" lon="14.1703517"><ele>165.2</ele><time>2026-04-17T14:19:18.54Z</time></trkpt><trkpt lat="40.8522183" lon="14.1702083"><ele>165.60000000000002</ele><time>2026-04-17T14:19:20.539Z</time></trkpt><trkpt lat="40.8522567" lon="14.1701033"><ele>166.0</ele><time>2026-04-17T14:19:22.542Z</time></trkpt><trkpt lat="40.8522833" lon="14.17"><ele>166.0</ele><time>2026-04-17T14:19:24.539Z</time></trkpt><trkpt lat="40.852295" lon="14.1699133"><ele>166.0</ele><time>2026-04-17T14:19:26.54Z</time></trkpt><trkpt lat="40.852315" lon="14.16982"><ele>166.0</ele><time>2026-04-17T14:19:28.539Z</time></trkpt><trkpt lat="40.8523433" lon="14.1697433"><ele>166.0</ele><time>2026-04-17T14:19:30.538Z</time></trkpt><trkpt lat="40.852375" lon="14.1696667"><ele>166.0</ele><time>2026-04-17T14:19:32.539Z</time></trkpt><trkpt lat="40.85239" lon="14.169575"><ele>166.0</ele><time>2026-04-17T14:19:34.538Z</time></trkpt><trkpt lat="40.8524333" lon="14.1694717"><ele>166.0</ele><time>2026-04-17T14:19:36.54Z</time></trkpt><trkpt lat="40.852475" lon="14.1693633"><ele>165.33333333333334</ele><time>2026-04-17T14:19:38.538Z</time></trkpt><trkpt lat="40.8525217" lon="14.1692783"><ele>164.66666666666669</ele><time>2026-04-17T14:19:40.539Z</time></trkpt><trkpt lat="40.8525817" lon="14.169225"><ele>164.0</ele><time>2026-04-17T14:19:42.538Z</time></trkpt><trkpt lat="40.8526667" lon="14.16918"><ele>163.33333333333334</ele><time>2026-04-17T14:19:44.539Z</time></trkpt><trkpt lat="40.8527617" lon="14.169145"><ele>162.66666666666666</ele><time>2026-04-17T14:19:46.541Z</time></trkpt><trkpt lat="40.8528483" lon="14.169075"><ele>162.0</ele><time>2026-04-17T14:19:48.538Z</time></trkpt><trkpt lat="40.8528833" lon="14.1689683"><ele>161.8</ele><time>2026-04-17T14:19:50.538Z</time></trkpt><trkpt lat="40.8528733" lon="14.1688533"><ele>161.6</ele><time>2026-04-17T14:19:52.539Z</time></trkpt><trkpt lat="40.852855" lon="14.1687417"><ele>161.4</ele><time>2026-04-17T14:19:54.538Z</time></trkpt><trkpt lat="40.8528317" lon="14.1686267"><ele>161.20000000000002</ele><time>2026-04-17T14:19:56.539Z</time></trkpt><trkpt lat="40.8528317" lon="14.168505"><ele>161.0</ele><time>2026-04-17T14:19:58.538Z</time></trkpt><trkpt lat="40.8528633" lon="14.1683817"><ele>161.0</ele><time>2026-04-17T14:20:00.539Z</time></trkpt><trkpt lat="40.8528933" lon="14.1682567"><ele>161.0</ele><time>2026-04-17T14:20:02.539Z</time></trkpt><trkpt lat="40.85292" lon="14.1681333"><ele>161.0</ele><time>2026-04-17T14:20:04.539Z</time></trkpt><trkpt lat="40.852945" lon="14.1680033"><ele>161.0</ele><time>2026-04-17T14:20:06.537Z</time></trkpt><trkpt lat="40.8529883" lon="14.1678983"><ele>161.0</ele><time>2026-04-17T14:20:08.539Z</time></trkpt><trkpt lat="40.8530317" lon="14.1677967"><ele>161.33333333333331</ele><time>2026-04-17T14:20:10.54Z</time></trkpt><trkpt lat="40.85306" lon="14.1676883"><ele>161.66666666666666</ele><time>2026-04-17T14:20:12.539Z</time></trkpt><trkpt lat="40.8530967" lon="14.1675833"><ele>162.0</ele><time>2026-04-17T14:20:14.537Z</time></trkpt><trkpt lat="40.8531283" lon="14.1674833"><ele>162.33333333333334</ele><time>2026-04-17T14:20:16.541Z</time></trkpt><trkpt lat="40.8531633" lon="14.167385"><ele>162.66666666666669</ele><time>2026-04-17T14:20:18.538Z</time></trkpt><trkpt lat="40.8531883" lon="14.1672833"><ele>163.0</ele><time>2026-04-17T14:20:20.541Z</time></trkpt><trkpt lat="40.8532167" lon="14.1671767"><ele>163.33333333333334</ele><time>2026-04-17T14:20:22.541Z</time></trkpt><trkpt lat="40.8532583" lon="14.1670867"><ele>163.66666666666669</ele><time>2026-04-17T14:20:24.539Z</time></trkpt><trkpt lat="40.8532983" lon="14.166985"><ele>164.0</ele><time>2026-04-17T14:20:26.538Z</time></trkpt><trkpt lat="40.8533483" lon="14.1668933"><ele>164.33333333333334</ele><time>2026-04-17T14:20:28.539Z</time></trkpt><trkpt lat="40.853415" lon="14.166825"><ele>164.66666666666666</ele><time>2026-04-17T14:20:30.539Z</time></trkpt><trkpt lat="40.853485" lon="14.16676"><ele>165.0</ele><time>2026-04-17T14:20:32.541Z</time></trkpt><trkpt lat="40.8535483" lon="14.1666783"><ele>165.0</ele><time>2026-04-17T14:20:34.538Z</time></trkpt><trkpt lat="40.853605" lon="14.1665883"><ele>165.0</ele><time>2026-04-17T14:20:36.537Z</time></trkpt><trkpt lat="40.8536533" lon="14.166485"><ele>165.0</ele><time>2026-04-17T14:20:38.54Z</time></trkpt><trkpt lat="40.85369" lon="14.1663683"><ele>165.0</ele><time>2026-04-17T14:20:40.538Z</time></trkpt><trkpt lat="40.8537083" lon="14.1662483"><ele>165.0</ele><time>2026-04-17T14:20:42.54Z</time></trkpt><trkpt lat="40.85375" lon="14.166135"><ele>165.0</ele><time>2026-04-17T14:20:44.537Z</time></trkpt><trkpt lat="40.8537883" lon="14.166025"><ele>165.0</ele><time>2026-04-17T14:20:46.54Z</time></trkpt><trkpt lat="40.8538267" lon="14.165915"><ele>165.0</ele><time>2026-04-17T14:20:48.541Z</time></trkpt><trkpt lat="40.8538583" lon="14.16581"><ele>165.0</ele><time>2026-04-17T14:20:50.541Z</time></trkpt><trkpt lat="40.8538667" lon="14.1657083"><ele>165.0</ele><time>2026-04-17T14:20:52.54Z</time></trkpt><trkpt lat="40.8538583" lon="14.1656"><ele>165.0</ele><time>2026-04-17T14:20:54.538Z</time></trkpt><trkpt lat="40.853845" lon="14.1654917"><ele>165.0</ele><time>2026-04-17T14:20:56.539Z</time></trkpt><trkpt lat="40.8538433" lon="14.1653733"><ele>165.0</ele><time>2026-04-17T14:20:58.54Z</time></trkpt><trkpt lat="40.8538517" lon="14.1652583"><ele>165.0</ele><time>2026-04-17T14:21:00.537Z</time></trkpt><trkpt lat="40.8538767" lon="14.1651467"><ele>165.0</ele><time>2026-04-17T14:21:02.539Z</time></trkpt><trkpt lat="40.85392" lon="14.165055"><ele>165.0</ele><time>2026-04-17T14:21:04.54Z</time></trkpt><trkpt lat="40.8539667" lon="14.164955"><ele>165.0</ele><time>2026-04-17T14:21:06.537Z</time></trkpt><trkpt lat="40.854005" lon="14.1648483"><ele>165.5</ele><time>2026-04-17T14:21:08.539Z</time></trkpt><trkpt lat="40.8540417" lon="14.1647383"><ele>166.0</ele><time>2026-04-17T14:21:10.541Z</time></trkpt><trkpt lat="40.8540733" lon="14.1646317"><ele>166.5</ele><time>2026-04-17T14:21:12.539Z</time></trkpt><trkpt lat="40.8541067" lon="14.1645333"><ele>167.0</ele><time>2026-04-17T14:21:14.542Z</time></trkpt><trkpt lat="40.8541417" lon="14.16443"><ele>167.5</ele><time>2026-04-17T14:21:16.539Z</time></trkpt><trkpt lat="40.854175" lon="14.1643183"><ele>168.0</ele><time>2026-04-17T14:21:18.54Z</time></trkpt><trkpt lat="40.8542117" lon="14.164215"><ele>168.0</ele><time>2026-04-17T14:21:20.539Z</time></trkpt><trkpt lat="40.8542367" lon="14.164105"><ele>168.0</ele><time>2026-04-17T14:21:22.539Z</time></trkpt><trkpt lat="40.8542617" lon="14.1639933"><ele>168.0</ele><time>2026-04-17T14:21:24.538Z</time></trkpt><trkpt lat="40.8542933" lon="14.16388"><ele>168.0</ele><time>2026-04-17T14:21:26.539Z</time></trkpt><trkpt lat="40.85433" lon="14.1637717"><ele>168.0</ele><time>2026-04-17T14:21:28.54Z</time></trkpt><trkpt lat="40.854365" lon="14.1636583"><ele>168.0</ele><time>2026-04-17T14:21:30.541Z</time></trkpt><trkpt lat="40.85441" lon="14.1635383"><ele>167.83333333333334</ele><time>2026-04-17T14:21:32.539Z</time></trkpt><trkpt lat="40.8544717" lon="14.1634583"><ele>167.66666666666666</ele><time>2026-04-17T14:21:34.539Z</time></trkpt><trkpt lat="40.854535" lon="14.1634117"><ele>167.5</ele><time>2026-04-17T14:21:36.538Z</time></trkpt><trkpt lat="40.854615" lon="14.1633567"><ele>167.33333333333331</ele><time>2026-04-17T14:21:38.54Z</time></trkpt><trkpt lat="40.8546833" lon="14.16327"><ele>167.16666666666666</ele><time>2026-04-17T14:21:40.54Z</time></trkpt><trkpt lat="40.8547217" lon="14.1631567"><ele>167.0</ele><time>2026-04-17T14:21:42.539Z</time></trkpt><trkpt lat="40.854705" lon="14.1630367"><ele>167.33333333333331</ele><time>2026-04-17T14:21:44.541Z</time></trkpt><trkpt lat="40.8546617" lon="14.1629333"><ele>167.66666666666666</ele><time>2026-04-17T14:21:46.538Z</time></trkpt><trkpt lat="40.8546317" lon="14.1628283"><ele>168.0</ele><time>2026-04-17T14:21:48.54Z</time></trkpt><trkpt lat="40.8546217" lon="14.1627117"><ele>168.33333333333334</ele><time>2026-04-17T14:21:50.537Z</time></trkpt><trkpt lat="40.8546433" lon="14.16259"><ele>168.66666666666669</ele><time>2026-04-17T14:21:52.539Z</time></trkpt><trkpt lat="40.8546717" lon="14.1624817"><ele>169.0</ele><time>2026-04-17T14:21:54.538Z</time></trkpt><trkpt lat="40.8547017" lon="14.1623683"><ele>169.16666666666669</ele><time>2026-04-17T14:21:56.541Z</time></trkpt><trkpt lat="40.8547383" lon="14.162235"><ele>169.33333333333334</ele><time>2026-04-17T14:21:58.539Z</time></trkpt><trkpt lat="40.8547767" lon="14.1621233"><ele>169.5</ele><time>2026-04-17T14:22:00.539Z</time></trkpt><trkpt lat="40.8548033" lon="14.1620367"><ele>169.66666666666666</ele><time>2026-04-17T14:22:02.539Z</time></trkpt><trkpt lat="40.85483" lon="14.1619567"><ele>169.83333333333331</ele><time>2026-04-17T14:22:04.538Z</time></trkpt><trkpt lat="40.85486" lon="14.16184"><ele>170.0</ele><time>2026-04-17T14:22:07.541Z</time></trkpt><trkpt lat="40.8548933" lon="14.1617383"><ele>170.0</ele><time>2026-04-17T14:22:09.539Z</time></trkpt><trkpt lat="40.854925" lon="14.161635"><ele>170.0</ele><time>2026-04-17T14:22:11.538Z</time></trkpt><trkpt lat="40.854965" lon="14.1615217"><ele>170.0</ele><time>2026-04-17T14:22:13.54Z</time></trkpt><trkpt lat="40.8550017" lon="14.1613967"><ele>170.0</ele><time>2026-04-17T14:22:15.542Z</time></trkpt><trkpt lat="40.85504" lon="14.1612867"><ele>170.0</ele><time>2026-04-17T14:22:17.538Z</time></trkpt><trkpt lat="40.8550783" lon="14.161175"><ele>169.8</ele><time>2026-04-17T14:22:19.539Z</time></trkpt><trkpt lat="40.8551167" lon="14.16106"><ele>169.6</ele><time>2026-04-17T14:22:21.54Z</time></trkpt><trkpt lat="40.855145" lon="14.1609617"><ele>169.39999999999998</ele><time>2026-04-17T14:22:23.539Z</time></trkpt><trkpt lat="40.855185" lon="14.1608467"><ele>169.2</ele><time>2026-04-17T14:22:25.54Z</time></trkpt><trkpt lat="40.8552233" lon="14.160725"><ele>169.0</ele><time>2026-04-17T14:22:27.542Z</time></trkpt><trkpt lat="40.8552667" lon="14.1605967"><ele>169.39999999999998</ele><time>2026-04-17T14:22:29.54Z</time></trkpt><trkpt lat="40.8553083" lon="14.1604817"><ele>169.8</ele><time>2026-04-17T14:22:31.539Z</time></trkpt><trkpt lat="40.8553467" lon="14.1603683"><ele>170.2</ele><time>2026-04-17T14:22:33.538Z</time></trkpt><trkpt lat="40.855385" lon="14.1602483"><ele>170.60000000000002</ele><time>2026-04-17T14:22:35.54Z</time></trkpt><trkpt lat="40.855425" lon="14.1601217"><ele>171.0</ele><time>2026-04-17T14:22:37.538Z</time></trkpt><trkpt lat="40.8554683" lon="14.159985"><ele>171.8</ele><time>2026-04-17T14:22:39.538Z</time></trkpt><trkpt lat="40.8555083" lon="14.1598533"><ele>172.60000000000002</ele><time>2026-04-17T14:22:41.54Z</time></trkpt><trkpt lat="40.8555517" lon="14.1597283"><ele>173.4</ele><time>2026-04-17T14:22:43.541Z</time></trkpt><trkpt lat="40.855585" lon="14.1596283"><ele>174.2</ele><time>2026-04-17T14:22:45.538Z</time></trkpt><trkpt lat="40.855625" lon="14.1595283"><ele>175.0</ele><time>2026-04-17T14:22:47.539Z</time></trkpt><trkpt lat="40.855665" lon="14.1594333"><ele>175.0</ele><time>2026-04-17T14:22:49.54Z</time></trkpt><trkpt lat="40.855715" lon="14.1593567"><ele>175.0</ele><time>2026-04-17T14:22:51.537Z</time></trkpt><trkpt lat="40.85577" lon="14.1593"><ele>175.0</ele><time>2026-04-17T14:22:53.543Z</time></trkpt><trkpt lat="40.855835" lon="14.159265"><ele>175.0</ele><time>2026-04-17T14:22:55.541Z</time></trkpt><trkpt lat="40.8559033" lon="14.1592383"><ele>175.0</ele><time>2026-04-17T14:22:57.537Z</time></trkpt><trkpt lat="40.855975" lon="14.1592367"><ele>175.0</ele><time>2026-04-17T14:22:59.539Z</time></trkpt><trkpt lat="40.8560383" lon="14.1592633"><ele>175.0</ele><time>2026-04-17T14:23:01.541Z</time></trkpt><trkpt lat="40.8561117" lon="14.1593217"><ele>175.0</ele><time>2026-04-17T14:23:03.541Z</time></trkpt><trkpt lat="40.8561783" lon="14.159395"><ele>175.0</ele><time>2026-04-17T14:23:05.539Z</time></trkpt><trkpt lat="40.856245" lon="14.15949"><ele>175.0</ele><time>2026-04-17T14:23:07.538Z</time></trkpt><trkpt lat="40.8563" lon="14.159595"><ele>175.0</ele><time>2026-04-17T14:23:09.537Z</time></trkpt><trkpt lat="40.856355" lon="14.159715"><ele>175.0</ele><time>2026-04-17T14:23:11.539Z</time></trkpt><trkpt lat="40.8563967" lon="14.1598467"><ele>174.25</ele><time>2026-04-17T14:23:13.541Z</time></trkpt><trkpt lat="40.8564367" lon="14.1599783"><ele>173.5</ele><time>2026-04-17T14:23:15.539Z</time></trkpt><trkpt lat="40.8564817" lon="14.1601133"><ele>172.75</ele><time>2026-04-17T14:23:17.541Z</time></trkpt><trkpt lat="40.856535" lon="14.160255"><ele>172.0</ele><time>2026-04-17T14:23:19.54Z</time></trkpt><trkpt lat="40.8565883" lon="14.1603983"><ele>172.00000000000003</ele><time>2026-04-17T14:23:21.54Z</time></trkpt><trkpt lat="40.8566183" lon="14.160475"><ele>172.0</ele><time>2026-04-17T14:23:22.54Z</time></trkpt><trkpt lat="40.8566517" lon="14.1605533"><ele>172.0</ele><time>2026-04-17T14:23:23.539Z</time></trkpt><trkpt lat="40.85669" lon="14.1606317"><ele>172.0</ele><time>2026-04-17T14:23:24.542Z</time></trkpt><trkpt lat="40.85673" lon="14.1607067"><ele>172.0</ele><time>2026-04-17T14:23:25.542Z</time></trkpt><trkpt lat="40.85677" lon="14.1607867"><ele>172.00000000000003</ele><time>2026-04-17T14:23:26.54Z</time></trkpt><trkpt lat="40.8568133" lon="14.1608633"><ele>172.0</ele><time>2026-04-17T14:23:27.538Z</time></trkpt><trkpt lat="40.8568583" lon="14.1609417"><ele>171.42857142857144</ele><time>2026-04-17T14:23:28.541Z</time></trkpt><trkpt lat="40.8569033" lon="14.16102"><ele>170.85714285714286</ele><time>2026-04-17T14:23:29.539Z</time></trkpt><trkpt lat="40.85695" lon="14.1610983"><ele>170.28571428571428</ele><time>2026-04-17T14:23:30.54Z</time></trkpt><trkpt lat="40.85699" lon="14.1611667"><ele>169.71428571428572</ele><time>2026-04-17T14:23:31.541Z</time></trkpt><trkpt lat="40.85704" lon="14.16124"><ele>169.14285714285714</ele><time>2026-04-17T14:23:32.54Z</time></trkpt><trkpt lat="40.8570883" lon="14.1613067"><ele>168.57142857142858</ele><time>2026-04-17T14:23:33.538Z</time></trkpt><trkpt lat="40.8571467" lon="14.1613783"><ele>168.0</ele><time>2026-04-17T14:23:34.538Z</time></trkpt><trkpt lat="40.8572067" lon="14.1614383"><ele>167.5</ele><time>2026-04-17T14:23:35.538Z</time></trkpt><trkpt lat="40.8573467" lon="14.16159"><ele>167.0</ele><time>2026-04-17T14:23:38.536Z</time></trkpt><trkpt lat="40.857415" lon="14.16166"><ele>166.5</ele><time>2026-04-17T14:23:40.537Z</time></trkpt><trkpt lat="40.857505" lon="14.1617517"><ele>166.0</ele><time>2026-04-17T14:23:42.538Z</time></trkpt><trkpt lat="40.8575983" lon="14.1618533"><ele>165.85714285714286</ele><time>2026-04-17T14:23:44.538Z</time></trkpt><trkpt lat="40.8576467" lon="14.1619167"><ele>165.71428571428572</ele><time>2026-04-17T14:23:45.536Z</time></trkpt><trkpt lat="40.85769" lon="14.1619817"><ele>165.57142857142858</ele><time>2026-04-17T14:23:46.537Z</time></trkpt><trkpt lat="40.8577283" lon="14.1620533"><ele>165.42857142857144</ele><time>2026-04-17T14:23:47.537Z</time></trkpt><trkpt lat="40.8577667" lon="14.1621283"><ele>165.28571428571428</ele><time>2026-04-17T14:23:48.537Z</time></trkpt><trkpt lat="40.857805" lon="14.1622017"><ele>165.14285714285717</ele><time>2026-04-17T14:23:49.535Z</time></trkpt><trkpt lat="40.85784" lon="14.1622767"><ele>165.0</ele><time>2026-04-17T14:23:50.536Z</time></trkpt><trkpt lat="40.85787" lon="14.16235"><ele>164.85714285714286</ele><time>2026-04-17T14:23:51.537Z</time></trkpt><trkpt lat="40.8579" lon="14.162425"><ele>164.71428571428572</ele><time>2026-04-17T14:23:52.537Z</time></trkpt><trkpt lat="40.8579283" lon="14.1625083"><ele>164.57142857142856</ele><time>2026-04-17T14:23:53.538Z</time></trkpt><trkpt lat="40.8579583" lon="14.1625917"><ele>164.42857142857144</ele><time>2026-04-17T14:23:54.536Z</time></trkpt><trkpt lat="40.8579867" lon="14.1626733"><ele>164.28571428571428</ele><time>2026-04-17T14:23:55.538Z</time></trkpt><trkpt lat="40.85801" lon="14.1627567"><ele>164.14285714285714</ele><time>2026-04-17T14:23:56.537Z</time></trkpt><trkpt lat="40.85803" lon="14.1628383"><ele>164.0</ele><time>2026-04-17T14:23:57.536Z</time></trkpt><trkpt lat="40.8580683" lon="14.1629933"><ele>164.0</ele><time>2026-04-17T14:23:59.539Z</time></trkpt><trkpt lat="40.858105" lon="14.1631433"><ele>164.0</ele><time>2026-04-17T14:24:01.537Z</time></trkpt><trkpt lat="40.858135" lon="14.1632817"><ele>164.0</ele><time>2026-04-17T14:24:03.537Z</time></trkpt><trkpt lat="40.8581667" lon="14.1634167"><ele>164.0</ele><time>2026-04-17T14:24:05.538Z</time></trkpt><trkpt lat="40.8582" lon="14.1635517"><ele>164.0</ele><time>2026-04-17T14:24:07.538Z</time></trkpt><trkpt lat="40.85824" lon="14.163695"><ele>163.75</ele><time>2026-04-17T14:24:09.536Z</time></trkpt><trkpt lat="40.8582833" lon="14.1638383"><ele>163.5</ele><time>2026-04-17T14:24:11.538Z</time></trkpt><trkpt lat="40.85834" lon="14.16398"><ele>163.25</ele><time>2026-04-17T14:24:13.536Z</time></trkpt><trkpt lat="40.8583967" lon="14.1641183"><ele>163.0</ele><time>2026-04-17T14:24:15.537Z</time></trkpt><trkpt lat="40.85846" lon="14.1642567"><ele>162.75</ele><time>2026-04-17T14:24:17.537Z</time></trkpt><trkpt lat="40.8585267" lon="14.1643917"><ele>162.5</ele><time>2026-04-17T14:24:19.537Z</time></trkpt><trkpt lat="40.8586017" lon="14.164515"><ele>162.25</ele><time>2026-04-17T14:24:21.537Z</time></trkpt><trkpt lat="40.8586833" lon="14.16462"><ele>162.0</ele><time>2026-04-17T14:24:23.537Z</time></trkpt><trkpt lat="40.8587583" lon="14.1647467"><ele>161.6</ele><time>2026-04-17T14:24:25.537Z</time></trkpt><trkpt lat="40.8588333" lon="14.1648783"><ele>161.2</ele><time>2026-04-17T14:24:27.537Z</time></trkpt><trkpt lat="40.85887" lon="14.1649483"><ele>160.8</ele><time>2026-04-17T14:24:28.537Z</time></trkpt><trkpt lat="40.8589317" lon="14.165085"><ele>160.4</ele><time>2026-04-17T14:24:30.537Z</time></trkpt><trkpt lat="40.85899" lon="14.1652133"><ele>160.0</ele><time>2026-04-17T14:24:32.537Z</time></trkpt><trkpt lat="40.859055" lon="14.16533"><ele>160.0</ele><time>2026-04-17T14:24:34.536Z</time></trkpt><trkpt lat="40.8591217" lon="14.165445"><ele>160.0</ele><time>2026-04-17T14:24:36.538Z</time></trkpt><trkpt lat="40.8591833" lon="14.1655833"><ele>160.0</ele><time>2026-04-17T14:24:38.538Z</time></trkpt><trkpt lat="40.859245" lon="14.165715"><ele>160.0</ele><time>2026-04-17T14:24:40.537Z</time></trkpt><trkpt lat="40.85931" lon="14.1658367"><ele>160.0</ele><time>2026-04-17T14:24:42.538Z</time></trkpt><trkpt lat="40.859375" lon="14.1659533"><ele>160.0</ele><time>2026-04-17T14:24:44.537Z</time></trkpt><trkpt lat="40.8594417" lon="14.1660833"><ele>160.0</ele><time>2026-04-17T14:24:46.538Z</time></trkpt><trkpt lat="40.8595" lon="14.1662083"><ele>160.0</ele><time>2026-04-17T14:24:48.537Z</time></trkpt><trkpt lat="40.8595533" lon="14.1663333"><ele>160.0</ele><time>2026-04-17T14:24:50.536Z</time></trkpt><trkpt lat="40.8596117" lon="14.1664533"><ele>160.0</ele><time>2026-04-17T14:24:52.538Z</time></trkpt><trkpt lat="40.8596717" lon="14.1665767"><ele>160.0</ele><time>2026-04-17T14:24:54.537Z</time></trkpt><trkpt lat="40.8597317" lon="14.1667183"><ele>160.0</ele><time>2026-04-17T14:24:56.537Z</time></trkpt><trkpt lat="40.85981" lon="14.1668517"><ele>160.0</ele><time>2026-04-17T14:24:58.537Z</time></trkpt><trkpt lat="40.8598933" lon="14.1669683"><ele>160.0</ele><time>2026-04-17T14:25:00.537Z</time></trkpt><trkpt lat="40.8599783" lon="14.1670733"><ele>160.0</ele><time>2026-04-17T14:25:02.539Z</time></trkpt><trkpt lat="40.8600367" lon="14.1671133"><ele>160.0</ele><time>2026-04-17T14:25:03.535Z</time></trkpt><trkpt lat="40.8601433" lon="14.16718"><ele>160.0</ele><time>2026-04-17T14:25:05.537Z</time></trkpt><trkpt lat="40.8602483" lon="14.1672417"><ele>160.0</ele><time>2026-04-17T14:25:07.538Z</time></trkpt><trkpt lat="40.860355" lon="14.167285"><ele>160.25</ele><time>2026-04-17T14:25:09.536Z</time></trkpt><trkpt lat="40.860475" lon="14.1673083"><ele>160.5</ele><time>2026-04-17T14:25:11.538Z</time></trkpt><trkpt lat="40.86059" lon="14.1673233"><ele>160.75</ele><time>2026-04-17T14:25:13.537Z</time></trkpt><trkpt lat="40.8607083" lon="14.1673233"><ele>161.0</ele><time>2026-04-17T14:25:15.537Z</time></trkpt><trkpt lat="40.860825" lon="14.167305"><ele>161.0</ele><time>2026-04-17T14:25:17.537Z</time></trkpt><trkpt lat="40.8609367" lon="14.1672717"><ele>161.0</ele><time>2026-04-17T14:25:19.537Z</time></trkpt><trkpt lat="40.861055" lon="14.167235"><ele>161.0</ele><time>2026-04-17T14:25:21.536Z</time></trkpt><trkpt lat="40.8611667" lon="14.1671967"><ele>161.0</ele><time>2026-04-17T14:25:23.537Z</time></trkpt><trkpt lat="40.8612783" lon="14.167155"><ele>161.20000000000002</ele><time>2026-04-17T14:25:25.537Z</time></trkpt><trkpt lat="40.8613833" lon="14.16712"><ele>161.4</ele><time>2026-04-17T14:25:27.536Z</time></trkpt><trkpt lat="40.86148" lon="14.16708"><ele>161.6</ele><time>2026-04-17T14:25:29.538Z</time></trkpt><trkpt lat="40.8615667" lon="14.167045"><ele>161.8</ele><time>2026-04-17T14:25:31.538Z</time></trkpt><trkpt lat="40.8616733" lon="14.1670483"><ele>162.0</ele><time>2026-04-17T14:25:33.537Z</time></trkpt><trkpt lat="40.8617817" lon="14.16704"><ele>162.6</ele><time>2026-04-17T14:25:35.539Z</time></trkpt><trkpt lat="40.8618783" lon="14.1670317"><ele>163.2</ele><time>2026-04-17T14:25:37.539Z</time></trkpt><trkpt lat="40.8619717" lon="14.1670317"><ele>163.8</ele><time>2026-04-17T14:25:39.537Z</time></trkpt><trkpt lat="40.8620767" lon="14.1670567"><ele>164.4</ele><time>2026-04-17T14:25:41.537Z</time></trkpt><trkpt lat="40.8621817" lon="14.1671033"><ele>165.0</ele><time>2026-04-17T14:25:43.536Z</time></trkpt><trkpt lat="40.8622767" lon="14.1671617"><ele>165.0</ele><time>2026-04-17T14:25:45.536Z</time></trkpt><trkpt lat="40.8623783" lon="14.1672233"><ele>165.0</ele><time>2026-04-17T14:25:47.536Z</time></trkpt><trkpt lat="40.8624767" lon="14.1672933"><ele>165.0</ele><time>2026-04-17T14:25:49.538Z</time></trkpt><trkpt lat="40.8625617" lon="14.1673783"><ele>165.0</ele><time>2026-04-17T14:25:51.537Z</time></trkpt><trkpt lat="40.86264" lon="14.167485"><ele>165.0</ele><time>2026-04-17T14:25:53.538Z</time></trkpt><trkpt lat="40.8627117" lon="14.1675933"><ele>165.6</ele><time>2026-04-17T14:25:55.538Z</time></trkpt><trkpt lat="40.8627817" lon="14.1677183"><ele>166.2</ele><time>2026-04-17T14:25:57.538Z</time></trkpt><trkpt lat="40.8628483" lon="14.1678417"><ele>166.8</ele><time>2026-04-17T14:25:59.539Z</time></trkpt><trkpt lat="40.8629017" lon="14.1679517"><ele>167.4</ele><time>2026-04-17T14:26:01.537Z</time></trkpt><trkpt lat="40.8629433" lon="14.16808"><ele>168.0</ele><time>2026-04-17T14:26:03.537Z</time></trkpt><trkpt lat="40.86298" lon="14.1682267"><ele>168.0</ele><time>2026-04-17T14:26:05.537Z</time></trkpt><trkpt lat="40.863" lon="14.1683167"><ele>168.0</ele><time>2026-04-17T14:26:06.538Z</time></trkpt><trkpt lat="40.86304" lon="14.168445"><ele>168.0</ele><time>2026-04-17T14:26:08.538Z</time></trkpt><trkpt lat="40.86308" lon="14.168555"><ele>168.0</ele><time>2026-04-17T14:26:10.538Z</time></trkpt><trkpt lat="40.8631233" lon="14.16866"><ele>168.0</ele><time>2026-04-17T14:26:12.537Z</time></trkpt><trkpt lat="40.863155" lon="14.1687717"><ele>168.0</ele><time>2026-04-17T14:26:14.538Z</time></trkpt><trkpt lat="40.8631983" lon="14.168885"><ele>168.0</ele><time>2026-04-17T14:26:16.537Z</time></trkpt><trkpt lat="40.8632417" lon="14.1689983"><ele>168.0</ele><time>2026-04-17T14:26:18.538Z</time></trkpt><trkpt lat="40.8632917" lon="14.16911"><ele>168.0</ele><time>2026-04-17T14:26:20.538Z</time></trkpt><trkpt lat="40.8633283" lon="14.169205"><ele>168.0</ele><time>2026-04-17T14:26:22.538Z</time></trkpt><trkpt lat="40.86337" lon="14.1692933"><ele>168.0</ele><time>2026-04-17T14:26:24.538Z</time></trkpt><trkpt lat="40.8634117" lon="14.1694017"><ele>168.0</ele><time>2026-04-17T14:26:26.537Z</time></trkpt><trkpt lat="40.86345" lon="14.1695033"><ele>168.16666666666666</ele><time>2026-04-17T14:26:28.537Z</time></trkpt><trkpt lat="40.863485" lon="14.1696017"><ele>168.33333333333334</ele><time>2026-04-17T14:26:30.536Z</time></trkpt><trkpt lat="40.8635317" lon="14.1696883"><ele>168.5</ele><time>2026-04-17T14:26:32.537Z</time></trkpt><trkpt lat="40.86357" lon="14.1697733"><ele>168.66666666666669</ele><time>2026-04-17T14:26:34.536Z</time></trkpt><trkpt lat="40.863615" lon="14.169865"><ele>168.83333333333334</ele><time>2026-04-17T14:26:36.536Z</time></trkpt><trkpt lat="40.8636533" lon="14.169955"><ele>169.0</ele><time>2026-04-17T14:26:38.537Z</time></trkpt><trkpt lat="40.8637017" lon="14.1700617"><ele>169.0</ele><time>2026-04-17T14:26:40.538Z</time></trkpt><trkpt lat="40.863755" lon="14.1701683"><ele>169.0</ele><time>2026-04-17T14:26:42.537Z</time></trkpt><trkpt lat="40.8638083" lon="14.1702683"><ele>169.0</ele><time>2026-04-17T14:26:44.537Z</time></trkpt><trkpt lat="40.8638533" lon="14.1703633"><ele>169.0</ele><time>2026-04-17T14:26:46.537Z</time></trkpt><trkpt lat="40.8639" lon="14.1704717"><ele>169.0</ele><time>2026-04-17T14:26:48.538Z</time></trkpt><trkpt lat="40.86394" lon="14.17057"><ele>169.0</ele><time>2026-04-17T14:26:50.537Z</time></trkpt><trkpt lat="40.8639783" lon="14.1706633"><ele>169.0</ele><time>2026-04-17T14:26:52.538Z</time></trkpt><trkpt lat="40.8640317" lon="14.17076"><ele>169.0</ele><time>2026-04-17T14:26:54.538Z</time></trkpt><trkpt lat="40.8640683" lon="14.1708533"><ele>169.0</ele><time>2026-04-17T14:26:56.536Z</time></trkpt><trkpt lat="40.8641317" lon="14.1709617"><ele>169.0</ele><time>2026-04-17T14:26:58.536Z</time></trkpt><trkpt lat="40.86419" lon="14.171065"><ele>169.0</ele><time>2026-04-17T14:27:00.537Z</time></trkpt><trkpt lat="40.8642383" lon="14.17117"><ele>169.0</ele><time>2026-04-17T14:27:02.538Z</time></trkpt><trkpt lat="40.864285" lon="14.17129"><ele>169.0</ele><time>2026-04-17T14:27:04.536Z</time></trkpt><trkpt lat="40.8643417" lon="14.1713967"><ele>169.0</ele><time>2026-04-17T14:27:06.537Z</time></trkpt><trkpt lat="40.8643933" lon="14.1714967"><ele>169.0</ele><time>2026-04-17T14:27:08.538Z</time></trkpt><trkpt lat="40.8644467" lon="14.171595"><ele>169.33333333333334</ele><time>2026-04-17T14:27:10.536Z</time></trkpt><trkpt lat="40.8645083" lon="14.17169"><ele>169.66666666666669</ele><time>2026-04-17T14:27:12.537Z</time></trkpt><trkpt lat="40.8645617" lon="14.1717817"><ele>170.0</ele><time>2026-04-17T14:27:14.538Z</time></trkpt><trkpt lat="40.8646017" lon="14.1718833"><ele>170.33333333333334</ele><time>2026-04-17T14:27:16.537Z</time></trkpt><trkpt lat="40.864645" lon="14.17197"><ele>170.66666666666666</ele><time>2026-04-17T14:27:18.537Z</time></trkpt><trkpt lat="40.8646817" lon="14.17204"><ele>171.0</ele><time>2026-04-17T14:27:20.537Z</time></trkpt><trkpt lat="40.86473" lon="14.1721383"><ele>170.99999999999997</ele><time>2026-04-17T14:27:23.539Z</time></trkpt><trkpt lat="40.8647917" lon="14.17219"><ele>171.0</ele><time>2026-04-17T14:27:26.536Z</time></trkpt><trkpt lat="40.8648467" lon="14.1721317"><ele>171.0</ele><time>2026-04-17T14:27:29.537Z</time></trkpt><trkpt lat="40.8648867" lon="14.1720667"><ele>171.0</ele><time>2026-04-17T14:27:31.537Z</time></trkpt><trkpt lat="40.8649233" lon="14.1719983"><ele>171.0</ele><time>2026-04-17T14:27:33.538Z</time></trkpt><trkpt lat="40.8649533" lon="14.1719183"><ele>170.99999999999997</ele><time>2026-04-17T14:27:35.537Z</time></trkpt><trkpt lat="40.8649767" lon="14.171835"><ele>171.0</ele><time>2026-04-17T14:27:37.537Z</time></trkpt><trkpt lat="40.865005" lon="14.17172"><ele>171.0</ele><time>2026-04-17T14:27:40.536Z</time></trkpt><trkpt lat="40.86503" lon="14.1716333"><ele>171.0</ele><time>2026-04-17T14:27:42.536Z</time></trkpt><trkpt lat="40.8650583" lon="14.1715383"><ele>171.0</ele><time>2026-04-17T14:27:44.536Z</time></trkpt><trkpt lat="40.8650867" lon="14.1714533"><ele>171.0</ele><time>2026-04-17T14:27:46.536Z</time></trkpt><trkpt lat="40.8650983" lon="14.171355"><ele>171.0</ele><time>2026-04-17T14:27:48.537Z</time></trkpt><trkpt lat="40.8651133" lon="14.1712367"><ele>171.0</ele><time>2026-04-17T14:27:50.536Z</time></trkpt><trkpt lat="40.8651233" lon="14.171125"><ele>172.0</ele><time>2026-04-17T14:27:52.537Z</time></trkpt><trkpt lat="40.8651283" lon="14.171015"><ele>173.0</ele><time>2026-04-17T14:27:54.536Z</time></trkpt><trkpt lat="40.8651517" lon="14.170915"><ele>174.0</ele><time>2026-04-17T14:27:56.538Z</time></trkpt><trkpt lat="40.86517" lon="14.17081"><ele>175.0</ele><time>2026-04-17T14:27:58.537Z</time></trkpt><trkpt lat="40.8651833" lon="14.17071"><ele>176.0</ele><time>2026-04-17T14:28:00.536Z</time></trkpt><trkpt lat="40.8652033" lon="14.1706267"><ele>177.0</ele><time>2026-04-17T14:28:02.538Z</time></trkpt><trkpt lat="40.86522" lon="14.1705383"><ele>177.14285714285714</ele><time>2026-04-17T14:28:04.538Z</time></trkpt><trkpt lat="40.8652367" lon="14.1704433"><ele>177.28571428571428</ele><time>2026-04-17T14:28:06.539Z</time></trkpt><trkpt lat="40.8652583" lon="14.1703483"><ele>177.42857142857142</ele><time>2026-04-17T14:28:08.538Z</time></trkpt><trkpt lat="40.8652667" lon="14.1702517"><ele>177.57142857142856</ele><time>2026-04-17T14:28:10.539Z</time></trkpt><trkpt lat="40.865285" lon="14.1701517"><ele>177.71428571428572</ele><time>2026-04-17T14:28:12.537Z</time></trkpt><trkpt lat="40.8653133" lon="14.1700633"><ele>177.85714285714283</ele><time>2026-04-17T14:28:14.536Z</time></trkpt><trkpt lat="40.865335" lon="14.1699717"><ele>178.0</ele><time>2026-04-17T14:28:16.538Z</time></trkpt><trkpt lat="40.86535" lon="14.1698733"><ele>178.16666666666669</ele><time>2026-04-17T14:28:18.537Z</time></trkpt><trkpt lat="40.8653633" lon="14.16978"><ele>178.33333333333334</ele><time>2026-04-17T14:28:20.538Z</time></trkpt><trkpt lat="40.8653883" lon="14.1697017"><ele>178.5</ele><time>2026-04-17T14:28:22.538Z</time></trkpt><trkpt lat="40.86542" lon="14.1695917"><ele>178.66666666666666</ele><time>2026-04-17T14:28:25.537Z</time></trkpt><trkpt lat="40.8654583" lon="14.16952"><ele>178.83333333333331</ele><time>2026-04-17T14:28:27.536Z</time></trkpt><trkpt lat="40.8654933" lon="14.1694033"><ele>179.0</ele><time>2026-04-17T14:28:30.538Z</time></trkpt><trkpt lat="40.8655333" lon="14.1693033"><ele>179.00000000000003</ele><time>2026-04-17T14:28:33.537Z</time></trkpt><trkpt lat="40.8655833" lon="14.1692217"><ele>179.0</ele><time>2026-04-17T14:28:36.539Z</time></trkpt><trkpt lat="40.8656333" lon="14.1691617"><ele>179.0</ele><time>2026-04-17T14:28:38.538Z</time></trkpt><trkpt lat="40.8656783" lon="14.16909"><ele>179.0</ele><time>2026-04-17T14:28:40.537Z</time></trkpt><trkpt lat="40.8657167" lon="14.1690183"><ele>179.0</ele><time>2026-04-17T14:28:42.539Z</time></trkpt><trkpt lat="40.86576" lon="14.1689533"><ele>179.00000000000003</ele><time>2026-04-17T14:28:44.537Z</time></trkpt><trkpt lat="40.8658183" lon="14.1689017"><ele>179.0</ele><time>2026-04-17T14:28:46.538Z</time></trkpt><trkpt lat="40.8658633" lon="14.16883"><ele>178.66666666666666</ele><time>2026-04-17T14:28:48.538Z</time></trkpt><trkpt lat="40.8659217" lon="14.168765"><ele>178.33333333333331</ele><time>2026-04-17T14:28:50.537Z</time></trkpt><trkpt lat="40.8659617" lon="14.1686933"><ele>178.0</ele><time>2026-04-17T14:28:52.537Z</time></trkpt><trkpt lat="40.866" lon="14.168615"><ele>177.66666666666666</ele><time>2026-04-17T14:28:54.538Z</time></trkpt><trkpt lat="40.8660417" lon="14.1685467"><ele>177.33333333333334</ele><time>2026-04-17T14:28:56.538Z</time></trkpt><trkpt lat="40.8660983" lon="14.168455"><ele>177.0</ele><time>2026-04-17T14:28:59.538Z</time></trkpt><trkpt lat="40.8661483" lon="14.16836"><ele>179.16666666666666</ele><time>2026-04-17T14:29:02.538Z</time></trkpt><trkpt lat="40.866215" lon="14.1683"><ele>181.33333333333334</ele><time>2026-04-17T14:29:05.537Z</time></trkpt><trkpt lat="40.8662733" lon="14.1682433"><ele>183.5</ele><time>2026-04-17T14:29:08.538Z</time></trkpt><trkpt lat="40.8663467" lon="14.16821"><ele>185.66666666666669</ele><time>2026-04-17T14:29:11.537Z</time></trkpt><trkpt lat="40.866415" lon="14.16827"><ele>187.83333333333334</ele><time>2026-04-17T14:29:14.537Z</time></trkpt><trkpt lat="40.8664367" lon="14.1683767"><ele>190.0</ele><time>2026-04-17T14:29:17.538Z</time></trkpt><trkpt lat="40.8664167" lon="14.1684933"><ele>190.0</ele><time>2026-04-17T14:29:20.538Z</time></trkpt><trkpt lat="40.8663733" lon="14.1685833"><ele>190.0</ele><time>2026-04-17T14:29:23.538Z</time></trkpt><trkpt lat="40.866325" lon="14.1686717"><ele>190.0</ele><time>2026-04-17T14:29:26.537Z</time></trkpt><trkpt lat="40.8662667" lon="14.1687683"><ele>190.0</ele><time>2026-04-17T14:29:29.537Z</time></trkpt><trkpt lat="40.8662183" lon="14.1688433"><ele>190.0</ele><time>2026-04-17T14:29:32.537Z</time></trkpt><trkpt lat="40.866165" lon="14.1689083"><ele>190.0</ele><time>2026-04-17T14:29:35.538Z</time></trkpt><trkpt lat="40.8661217" lon="14.1690067"><ele>191.5</ele><time>2026-04-17T14:29:38.538Z</time></trkpt><trkpt lat="40.8660717" lon="14.1690967"><ele>193.0</ele><time>2026-04-17T14:29:41.538Z</time></trkpt><trkpt lat="40.866015" lon="14.169175"><ele>194.5</ele><time>2026-04-17T14:29:44.538Z</time></trkpt><trkpt lat="40.8659567" lon="14.16926"><ele>196.0</ele><time>2026-04-17T14:29:47.538Z</time></trkpt><trkpt lat="40.8659317" lon="14.16936"><ele>197.49999999999997</ele><time>2026-04-17T14:29:50.537Z</time></trkpt><trkpt lat="40.86595" lon="14.1694517"><ele>199.0</ele><time>2026-04-17T14:29:53.537Z</time></trkpt><trkpt lat="40.8660183" lon="14.1695117"><ele>198.99999999999997</ele><time>2026-04-17T14:29:56.538Z</time></trkpt><trkpt lat="40.86609" lon="14.1695183"><ele>199.0</ele><time>2026-04-17T14:29:59.538Z</time></trkpt><trkpt lat="40.8661717" lon="14.1695033"><ele>199.0</ele><time>2026-04-17T14:30:02.537Z</time></trkpt><trkpt lat="40.8662583" lon="14.169505"><ele>199.0</ele><time>2026-04-17T14:30:05.538Z</time></trkpt><trkpt lat="40.8663317" lon="14.1694933"><ele>198.99999999999997</ele><time>2026-04-17T14:30:08.538Z</time></trkpt><trkpt lat="40.8664067" lon="14.1694767"><ele>199.0</ele><time>2026-04-17T14:30:11.539Z</time></trkpt><trkpt lat="40.866475" lon="14.169475"><ele>198.99999999999997</ele><time>2026-04-17T14:30:14.537Z</time></trkpt><trkpt lat="40.8665483" lon="14.1694667"><ele>199.0</ele><time>2026-04-17T14:30:17.537Z</time></trkpt><trkpt lat="40.8666267" lon="14.1694667"><ele>199.0</ele><time>2026-04-17T14:30:20.538Z</time></trkpt><trkpt lat="40.8667067" lon="14.169465"><ele>199.0</ele><time>2026-04-17T14:30:24.538Z</time></trkpt><trkpt lat="40.8667833" lon="14.1694683"><ele>198.99999999999997</ele><time>2026-04-17T14:30:28.538Z</time></trkpt><trkpt lat="40.8668567" lon="14.169475"><ele>199.0</ele><time>2026-04-17T14:30:32.538Z</time></trkpt><trkpt lat="40.8669317" lon="14.169485"><ele>201.28571428571428</ele><time>2026-04-17T14:30:36.538Z</time></trkpt><trkpt lat="40.86701" lon="14.169495"><ele>203.57142857142856</ele><time>2026-04-17T14:30:40.537Z</time></trkpt><trkpt lat="40.86707" lon="14.1695333"><ele>205.85714285714283</ele><time>2026-04-17T14:30:44.537Z</time></trkpt><trkpt lat="40.867125" lon="14.169575"><ele>208.14285714285714</ele><time>2026-04-17T14:30:47.536Z</time></trkpt><trkpt lat="40.86719" lon="14.1696083"><ele>210.42857142857144</ele><time>2026-04-17T14:30:51.536Z</time></trkpt><trkpt lat="40.867225" lon="14.16969"><ele>212.7142857142857</ele><time>2026-04-17T14:30:56.535Z</time></trkpt><trkpt lat="40.8671917" lon="14.1697617"><ele>215.0</ele><time>2026-04-17T14:31:00.538Z</time></trkpt><trkpt lat="40.8671433" lon="14.1698367"><ele>215.28571428571428</ele><time>2026-04-17T14:31:04.536Z</time></trkpt><trkpt lat="40.8670833" lon="14.1698867"><ele>215.57142857142858</ele><time>2026-04-17T14:31:08.538Z</time></trkpt><trkpt lat="40.867015" lon="14.1699183"><ele>215.85714285714286</ele><time>2026-04-17T14:31:12.537Z</time></trkpt><trkpt lat="40.8669517" lon="14.1699633"><ele>216.14285714285714</ele><time>2026-04-17T14:31:16.537Z</time></trkpt><trkpt lat="40.86688" lon="14.1699933"><ele>216.42857142857144</ele><time>2026-04-17T14:31:20.538Z</time></trkpt><trkpt lat="40.8668283" lon="14.1700417"><ele>216.71428571428572</ele><time>2026-04-17T14:31:23.538Z</time></trkpt><trkpt lat="40.866775" lon="14.1701167"><ele>217.0</ele><time>2026-04-17T14:31:26.539Z</time></trkpt><trkpt lat="40.866745" lon="14.170195"><ele>217.0</ele><time>2026-04-17T14:31:29.539Z</time></trkpt><trkpt lat="40.8667217" lon="14.1702783"><ele>217.0</ele><time>2026-04-17T14:31:32.539Z</time></trkpt><trkpt lat="40.8667183" lon="14.170385"><ele>217.0</ele><time>2026-04-17T14:31:36.539Z</time></trkpt><trkpt lat="40.866725" lon="14.1704683"><ele>217.0</ele><time>2026-04-17T14:31:39.539Z</time></trkpt><trkpt lat="40.8667533" lon="14.1705483"><ele>217.0</ele><time>2026-04-17T14:31:42.54Z</time></trkpt><trkpt lat="40.8667917" lon="14.1706217"><ele>217.0</ele><time>2026-04-17T14:31:45.539Z</time></trkpt><trkpt lat="40.86683" lon="14.1706883"><ele>217.0</ele><time>2026-04-17T14:31:48.542Z</time></trkpt><trkpt lat="40.866885" lon="14.1707433"><ele>214.85714285714286</ele><time>2026-04-17T14:31:51.541Z</time></trkpt><trkpt lat="40.86695" lon="14.17077"><ele>212.71428571428572</ele><time>2026-04-17T14:31:54.54Z</time></trkpt><trkpt lat="40.86702" lon="14.170765"><ele>210.57142857142856</ele><time>2026-04-17T14:31:57.542Z</time></trkpt><trkpt lat="40.8670867" lon="14.17076"><ele>208.42857142857144</ele><time>2026-04-17T14:32:00.538Z</time></trkpt><trkpt lat="40.8671517" lon="14.1707367"><ele>206.28571428571428</ele><time>2026-04-17T14:32:03.54Z</time></trkpt><trkpt lat="40.8672133" lon="14.1707167"><ele>204.14285714285714</ele><time>2026-04-17T14:32:06.542Z</time></trkpt><trkpt lat="40.867275" lon="14.1706983"><ele>202.0</ele><time>2026-04-17T14:32:09.542Z</time></trkpt><trkpt lat="40.8673383" lon="14.1706917"><ele>204.14285714285714</ele><time>2026-04-17T14:32:12.539Z</time></trkpt><trkpt lat="40.8674017" lon="14.1706767"><ele>206.28571428571428</ele><time>2026-04-17T14:32:15.539Z</time></trkpt><trkpt lat="40.8674633" lon="14.1706583"><ele>208.42857142857144</ele><time>2026-04-17T14:32:18.538Z</time></trkpt><trkpt lat="40.8675417" lon="14.1706517"><ele>210.57142857142856</ele><time>2026-04-17T14:32:22.538Z</time></trkpt><trkpt lat="40.86762" lon="14.17065"><ele>212.71428571428572</ele><time>2026-04-17T14:32:26.539Z</time></trkpt><trkpt lat="40.8677033" lon="14.1706517"><ele>214.85714285714286</ele><time>2026-04-17T14:32:30.539Z</time></trkpt><trkpt lat="40.8677733" lon="14.170665"><ele>217.0</ele><time>2026-04-17T14:32:33.541Z</time></trkpt><trkpt lat="40.867855" lon="14.1706667"><ele>216.83333333333331</ele><time>2026-04-17T14:32:37.539Z</time></trkpt><trkpt lat="40.8679367" lon="14.1706883"><ele>216.66666666666666</ele><time>2026-04-17T14:32:41.539Z</time></trkpt><trkpt lat="40.868015" lon="14.1707117"><ele>216.5</ele><time>2026-04-17T14:32:45.539Z</time></trkpt><trkpt lat="40.868095" lon="14.1707367"><ele>216.33333333333331</ele><time>2026-04-17T14:32:49.54Z</time></trkpt><trkpt lat="40.8681683" lon="14.1707583"><ele>216.16666666666666</ele><time>2026-04-17T14:32:53.541Z</time></trkpt><trkpt lat="40.86823" lon="14.1707867"><ele>216.0</ele><time>2026-04-17T14:32:56.541Z</time></trkpt><trkpt lat="40.8683083" lon="14.170815"><ele>216.0</ele><time>2026-04-17T14:33:00.54Z</time></trkpt><trkpt lat="40.8683867" lon="14.1708333"><ele>216.0</ele><time>2026-04-17T14:33:04.54Z</time></trkpt><trkpt lat="40.86846" lon="14.1708583"><ele>216.0</ele><time>2026-04-17T14:33:08.539Z</time></trkpt><trkpt lat="40.8685317" lon="14.1708933"><ele>216.0</ele><time>2026-04-17T14:33:12.539Z</time></trkpt><trkpt lat="40.868595" lon="14.1709283"><ele>216.0</ele><time>2026-04-17T14:33:16.54Z</time></trkpt><trkpt lat="40.868655" lon="14.17097"><ele>216.0</ele><time>2026-04-17T14:33:20.541Z</time></trkpt><trkpt lat="40.8687117" lon="14.17102"><ele>216.0</ele><time>2026-04-17T14:33:24.542Z</time></trkpt><trkpt lat="40.86877" lon="14.1710683"><ele>217.0</ele><time>2026-04-17T14:33:28.54Z</time></trkpt><trkpt lat="40.8688367" lon="14.171095"><ele>218.0</ele><time>2026-04-17T14:33:32.542Z</time></trkpt><trkpt lat="40.8689083" lon="14.1710617"><ele>219.0</ele><time>2026-04-17T14:33:36.54Z</time></trkpt><trkpt lat="40.868955" lon="14.1710017"><ele>220.0</ele><time>2026-04-17T14:33:39.541Z</time></trkpt><trkpt lat="40.869005" lon="14.1709167"><ele>221.0</ele><time>2026-04-17T14:33:43.54Z</time></trkpt><trkpt lat="40.8690283" lon="14.17083"><ele>222.0</ele><time>2026-04-17T14:33:46.539Z</time></trkpt><trkpt lat="40.8690567" lon="14.1707467"><ele>223.0</ele><time>2026-04-17T14:33:49.539Z</time></trkpt><trkpt lat="40.869095" lon="14.17067"><ele>225.42857142857142</ele><time>2026-04-17T14:33:52.539Z</time></trkpt><trkpt lat="40.8691283" lon="14.170585"><ele>227.85714285714283</ele><time>2026-04-17T14:33:55.54Z</time></trkpt><trkpt lat="40.8691667" lon="14.17051"><ele>230.28571428571428</ele><time>2026-04-17T14:33:58.538Z</time></trkpt><trkpt lat="40.869195" lon="14.1704233"><ele>232.71428571428572</ele><time>2026-04-17T14:34:01.538Z</time></trkpt><trkpt lat="40.8692333" lon="14.1703283"><ele>235.14285714285714</ele><time>2026-04-17T14:34:05.538Z</time></trkpt><trkpt lat="40.86927" lon="14.1702483"><ele>237.57142857142858</ele><time>2026-04-17T14:34:08.54Z</time></trkpt><trkpt lat="40.8693167" lon="14.1701767"><ele>240.0</ele><time>2026-04-17T14:34:11.539Z</time></trkpt><trkpt lat="40.8693683" lon="14.1700967"><ele>240.0</ele><time>2026-04-17T14:34:14.54Z</time></trkpt><trkpt lat="40.8694367" lon="14.17003"><ele>240.0</ele><time>2026-04-17T14:34:17.54Z</time></trkpt><trkpt lat="40.8695" lon="14.16998"><ele>240.0</ele><time>2026-04-17T14:34:20.538Z</time></trkpt><trkpt lat="40.8695717" lon="14.16995"><ele>240.0</ele><time>2026-04-17T14:34:24.539Z</time></trkpt><trkpt lat="40.869635" lon="14.1699267"><ele>240.0</ele><time>2026-04-17T14:34:27.538Z</time></trkpt><trkpt lat="40.8697033" lon="14.169905"><ele>240.0</ele><time>2026-04-17T14:34:30.538Z</time></trkpt><trkpt lat="40.8697783" lon="14.1698633"><ele>241.33333333333334</ele><time>2026-04-17T14:34:34.539Z</time></trkpt><trkpt lat="40.869845" lon="14.1698067"><ele>242.66666666666669</ele><time>2026-04-17T14:34:38.539Z</time></trkpt><trkpt lat="40.86991" lon="14.1697583"><ele>244.0</ele><time>2026-04-17T14:34:42.539Z</time></trkpt><trkpt lat="40.869965" lon="14.1697033"><ele>245.33333333333334</ele><time>2026-04-17T14:34:46.54Z</time></trkpt><trkpt lat="40.8700317" lon="14.169645"><ele>246.66666666666669</ele><time>2026-04-17T14:34:50.54Z</time></trkpt><trkpt lat="40.8700917" lon="14.1696017"><ele>248.0</ele><time>2026-04-17T14:34:53.54Z</time></trkpt><trkpt lat="40.870175" lon="14.169585"><ele>250.2857142857143</ele><time>2026-04-17T14:34:57.539Z</time></trkpt><trkpt lat="40.8702483" lon="14.16957"><ele>252.5714285714286</ele><time>2026-04-17T14:35:01.537Z</time></trkpt><trkpt lat="40.8703167" lon="14.1695617"><ele>254.85714285714286</ele><time>2026-04-17T14:35:05.539Z</time></trkpt><trkpt lat="40.8703833" lon="14.1695617"><ele>257.14285714285717</ele><time>2026-04-17T14:35:09.542Z</time></trkpt><trkpt lat="40.8704583" lon="14.1695833"><ele>259.42857142857144</ele><time>2026-04-17T14:35:13.54Z</time></trkpt><trkpt lat="40.8705317" lon="14.1695767"><ele>261.7142857142857</ele><time>2026-04-17T14:35:17.541Z</time></trkpt><trkpt lat="40.870605" lon="14.16959"><ele>264.0</ele><time>2026-04-17T14:35:20.541Z</time></trkpt><trkpt lat="40.8706667" lon="14.1696067"><ele>264.0</ele><time>2026-04-17T14:35:23.54Z</time></trkpt><trkpt lat="40.87069" lon="14.1696867"><ele>264.0</ele><time>2026-04-17T14:35:27.542Z</time></trkpt><trkpt lat="40.87064" lon="14.1697617"><ele>264.0</ele><time>2026-04-17T14:35:30.539Z</time></trkpt><trkpt lat="40.8705783" lon="14.169825"><ele>264.0</ele><time>2026-04-17T14:35:33.542Z</time></trkpt><trkpt lat="40.870525" lon="14.1698867"><ele>264.0</ele><time>2026-04-17T14:35:36.54Z</time></trkpt><trkpt lat="40.87047" lon="14.1699433"><ele>264.0</ele><time>2026-04-17T14:35:39.539Z</time></trkpt><trkpt lat="40.870415" lon="14.169995"><ele>264.0</ele><time>2026-04-17T14:35:42.542Z</time></trkpt><trkpt lat="40.8703617" lon="14.17004"><ele>263.7142857142857</ele><time>2026-04-17T14:35:45.542Z</time></trkpt><trkpt lat="40.870315" lon="14.1700967"><ele>263.42857142857144</ele><time>2026-04-17T14:35:48.541Z</time></trkpt><trkpt lat="40.8702567" lon="14.1701733"><ele>263.14285714285717</ele><time>2026-04-17T14:35:52.541Z</time></trkpt><trkpt lat="40.8702233" lon="14.170245"><ele>262.8571428571429</ele><time>2026-04-17T14:35:55.541Z</time></trkpt><trkpt lat="40.8701983" lon="14.1703317"><ele>262.5714285714286</ele><time>2026-04-17T14:35:58.539Z</time></trkpt><trkpt lat="40.8701733" lon="14.170415"><ele>262.2857142857143</ele><time>2026-04-17T14:36:01.543Z</time></trkpt><trkpt lat="40.8701433" lon="14.1705167"><ele>262.0</ele><time>2026-04-17T14:36:05.541Z</time></trkpt><trkpt lat="40.8701133" lon="14.170605"><ele>261.0</ele><time>2026-04-17T14:36:09.541Z</time></trkpt><trkpt lat="40.8700833" lon="14.17069"><ele>260.0</ele><time>2026-04-17T14:36:13.542Z</time></trkpt><trkpt lat="40.8700833" lon="14.1707833"><ele>259.0</ele><time>2026-04-17T14:36:17.54Z</time></trkpt><trkpt lat="40.8701317" lon="14.17086"><ele>258.0</ele><time>2026-04-17T14:36:21.539Z</time></trkpt><trkpt lat="40.87021" lon="14.170875"><ele>257.0</ele><time>2026-04-17T14:36:25.541Z</time></trkpt><trkpt lat="40.87028" lon="14.1708667"><ele>256.0</ele><time>2026-04-17T14:36:28.541Z</time></trkpt><trkpt lat="40.8703433" lon="14.170865"><ele>255.0</ele><time>2026-04-17T14:36:31.539Z</time></trkpt><trkpt lat="40.8704233" lon="14.1708483"><ele>255.0</ele><time>2026-04-17T14:36:35.541Z</time></trkpt><trkpt lat="40.8705033" lon="14.1708433"><ele>255.00000000000003</ele><time>2026-04-17T14:36:39.539Z</time></trkpt><trkpt lat="40.8705867" lon="14.1708267"><ele>255.0</ele><time>2026-04-17T14:36:43.541Z</time></trkpt><trkpt lat="40.8706417" lon="14.1707667"><ele>255.0</ele><time>2026-04-17T14:36:47.538Z</time></trkpt><trkpt lat="40.8706983" lon="14.1707067"><ele>255.00000000000003</ele><time>2026-04-17T14:36:51.54Z</time></trkpt><trkpt lat="40.87074" lon="14.1706417"><ele>255.0</ele><time>2026-04-17T14:36:54.538Z</time></trkpt><trkpt lat="40.87077" lon="14.1705667"><ele>255.0</ele><time>2026-04-17T14:36:57.54Z</time></trkpt><trkpt lat="40.8708267" lon="14.1704867"><ele>256.0</ele><time>2026-04-17T14:37:01.539Z</time></trkpt><trkpt lat="40.8708717" lon="14.17042"><ele>257.0</ele><time>2026-04-17T14:37:05.541Z</time></trkpt><trkpt lat="40.8709167" lon="14.1703433"><ele>258.0</ele><time>2026-04-17T14:37:09.54Z</time></trkpt><trkpt lat="40.8709783" lon="14.1702667"><ele>259.0</ele><time>2026-04-17T14:37:13.54Z</time></trkpt><trkpt lat="40.8710317" lon="14.1702133"><ele>260.0</ele><time>2026-04-17T14:37:16.54Z</time></trkpt><trkpt lat="40.8710933" lon="14.1701483"><ele>261.0</ele><time>2026-04-17T14:37:20.539Z</time></trkpt><trkpt lat="40.8711467" lon="14.1700867"><ele>262.0</ele><time>2026-04-17T14:37:24.539Z</time></trkpt><trkpt lat="40.8712117" lon="14.170025"><ele>263.8571428571429</ele><time>2026-04-17T14:37:28.54Z</time></trkpt><trkpt lat="40.8712817" lon="14.1699817"><ele>265.7142857142857</ele><time>2026-04-17T14:37:32.54Z</time></trkpt><trkpt lat="40.871345" lon="14.1700017"><ele>267.57142857142856</ele><time>2026-04-17T14:37:36.541Z</time></trkpt><trkpt lat="40.8713983" lon="14.17007"><ele>269.42857142857144</ele><time>2026-04-17T14:37:40.539Z</time></trkpt><trkpt lat="40.8714067" lon="14.170165"><ele>271.2857142857143</ele><time>2026-04-17T14:37:44.54Z</time></trkpt><trkpt lat="40.8713983" lon="14.1702683"><ele>273.14285714285717</ele><time>2026-04-17T14:37:49.539Z</time></trkpt><trkpt lat="40.871385" lon="14.170355"><ele>275.0</ele><time>2026-04-17T14:37:53.539Z</time></trkpt><trkpt lat="40.871345" lon="14.1704417"><ele>275.0</ele><time>2026-04-17T14:37:57.538Z</time></trkpt><trkpt lat="40.8713017" lon="14.17053"><ele>275.0</ele><time>2026-04-17T14:38:01.54Z</time></trkpt><trkpt lat="40.87131" lon="14.1706267"><ele>275.0</ele><time>2026-04-17T14:38:39.538Z</time></trkpt><trkpt lat="40.8713567" lon="14.1706983"><ele>275.0</ele><time>2026-04-17T14:38:42.541Z</time></trkpt><trkpt lat="40.87142" lon="14.170735"><ele>275.0</ele><time>2026-04-17T14:38:45.538Z</time></trkpt><trkpt lat="40.87148" lon="14.1707633"><ele>275.0</ele><time>2026-04-17T14:38:48.542Z</time></trkpt><trkpt lat="40.8715417" lon="14.1707883"><ele>275.0</ele><time>2026-04-17T14:38:51.542Z</time></trkpt><trkpt lat="40.8716083" lon="14.170805"><ele>274.8571428571429</ele><time>2026-04-17T14:38:54.54Z</time></trkpt><trkpt lat="40.87168" lon="14.17085"><ele>274.7142857142857</ele><time>2026-04-17T14:38:58.54Z</time></trkpt><trkpt lat="40.8717333" lon="14.170925"><ele>274.57142857142856</ele><time>2026-04-17T14:39:03.54Z</time></trkpt><trkpt lat="40.8717433" lon="14.171015"><ele>274.42857142857144</ele><time>2026-04-17T14:39:06.541Z</time></trkpt><trkpt lat="40.8717567" lon="14.17111"><ele>274.2857142857143</ele><time>2026-04-17T14:39:09.54Z</time></trkpt><trkpt lat="40.8717267" lon="14.1711833"><ele>274.14285714285717</ele><time>2026-04-17T14:39:13.539Z</time></trkpt><trkpt lat="40.871705" lon="14.1712833"><ele>274.0</ele><time>2026-04-17T14:39:18.536Z</time></trkpt><trkpt lat="40.8717183" lon="14.171365"><ele>274.0</ele><time>2026-04-17T14:39:21.539Z</time></trkpt><trkpt lat="40.8717317" lon="14.171455"><ele>274.0</ele><time>2026-04-17T14:39:24.54Z</time></trkpt><trkpt lat="40.8717617" lon="14.17155"><ele>274.0</ele><time>2026-04-17T14:39:28.542Z</time></trkpt><trkpt lat="40.8717683" lon="14.1716517"><ele>274.0</ele><time>2026-04-17T14:39:32.54Z</time></trkpt><trkpt lat="40.87174" lon="14.1717483"><ele>274.0</ele><time>2026-04-17T14:39:36.54Z</time></trkpt><trkpt lat="40.8716817" lon="14.171815"><ele>274.0</ele><time>2026-04-17T14:39:40.54Z</time></trkpt><trkpt lat="40.8716183" lon="14.1718817"><ele>274.8333333333333</ele><time>2026-04-17T14:39:44.542Z</time></trkpt><trkpt lat="40.8715567" lon="14.17195"><ele>275.66666666666663</ele><time>2026-04-17T14:39:48.539Z</time></trkpt><trkpt lat="40.871505" lon="14.17201"><ele>276.5</ele><time>2026-04-17T14:39:51.54Z</time></trkpt><trkpt lat="40.8714433" lon="14.1720817"><ele>277.3333333333333</ele><time>2026-04-17T14:39:55.54Z</time></trkpt><trkpt lat="40.871395" lon="14.1721717"><ele>278.1666666666667</ele><time>2026-04-17T14:39:59.54Z</time></trkpt><trkpt lat="40.8713633" lon="14.172255"><ele>279.0</ele><time>2026-04-17T14:40:02.542Z</time></trkpt><trkpt lat="40.8713383" lon="14.172345"><ele>279.6666666666667</ele><time>2026-04-17T14:40:05.542Z</time></trkpt><trkpt lat="40.87133" lon="14.17244"><ele>280.3333333333333</ele><time>2026-04-17T14:40:08.539Z</time></trkpt><trkpt lat="40.8713383" lon="14.1725367"><ele>281.0</ele><time>2026-04-17T14:40:11.543Z</time></trkpt><trkpt lat="40.8713883" lon="14.17262"><ele>281.66666666666663</ele><time>2026-04-17T14:40:14.541Z</time></trkpt><trkpt lat="40.8714567" lon="14.17267"><ele>282.3333333333333</ele><time>2026-04-17T14:40:17.539Z</time></trkpt><trkpt lat="40.8715317" lon="14.1727"><ele>283.0</ele><time>2026-04-17T14:40:20.54Z</time></trkpt><trkpt lat="40.87161" lon="14.1727133"><ele>283.0</ele><time>2026-04-17T14:40:23.538Z</time></trkpt><trkpt lat="40.87169" lon="14.1727283"><ele>283.0</ele><time>2026-04-17T14:40:26.54Z</time></trkpt><trkpt lat="40.8717667" lon="14.1727467"><ele>283.0</ele><time>2026-04-17T14:40:29.542Z</time></trkpt><trkpt lat="40.87185" lon="14.17277"><ele>283.0</ele><time>2026-04-17T14:40:32.539Z</time></trkpt><trkpt lat="40.8719283" lon="14.1727883"><ele>283.0</ele><time>2026-04-17T14:40:35.541Z</time></trkpt><trkpt lat="40.872" lon="14.1727917"><ele>283.0</ele><time>2026-04-17T14:40:38.539Z</time></trkpt><trkpt lat="40.87208" lon="14.1728017"><ele>286.0</ele><time>2026-04-17T14:40:41.54Z</time></trkpt><trkpt lat="40.8721633" lon="14.1728183"><ele>289.0</ele><time>2026-04-17T14:40:44.538Z</time></trkpt><trkpt lat="40.87224" lon="14.1728167"><ele>292.0</ele><time>2026-04-17T14:40:47.537Z</time></trkpt><trkpt lat="40.8723167" lon="14.1728333"><ele>295.0</ele><time>2026-04-17T14:40:50.539Z</time></trkpt><trkpt lat="40.8723883" lon="14.1728583"><ele>298.0</ele><time>2026-04-17T14:40:53.538Z</time></trkpt><trkpt lat="40.87247" lon="14.1728783"><ele>301.0</ele><time>2026-04-17T14:40:57.539Z</time></trkpt><trkpt lat="40.8725417" lon="14.1729383"><ele>301.0</ele><time>2026-04-17T14:41:01.54Z</time></trkpt><trkpt lat="40.8725883" lon="14.173005"><ele>301.0</ele><time>2026-04-17T14:41:04.539Z</time></trkpt><trkpt lat="40.8726333" lon="14.173095"><ele>301.0</ele><time>2026-04-17T14:41:07.54Z</time></trkpt><trkpt lat="40.8726583" lon="14.17319"><ele>301.0</ele><time>2026-04-17T14:41:10.538Z</time></trkpt><trkpt lat="40.8726667" lon="14.173275"><ele>301.0</ele><time>2026-04-17T14:41:13.54Z</time></trkpt><trkpt lat="40.8726417" lon="14.17337"><ele>301.0</ele><time>2026-04-17T14:41:16.539Z</time></trkpt><trkpt lat="40.872595" lon="14.1734483"><ele>301.0</ele><time>2026-04-17T14:41:19.538Z</time></trkpt><trkpt lat="40.8725217" lon="14.1734617"><ele>300.8333333333333</ele><time>2026-04-17T14:41:22.538Z</time></trkpt><trkpt lat="40.8724483" lon="14.1734317"><ele>300.66666666666663</ele><time>2026-04-17T14:41:25.54Z</time></trkpt><trkpt lat="40.87237" lon="14.173425"><ele>300.5</ele><time>2026-04-17T14:41:28.539Z</time></trkpt><trkpt lat="40.8722883" lon="14.173425"><ele>300.3333333333333</ele><time>2026-04-17T14:41:31.541Z</time></trkpt><trkpt lat="40.8722217" lon="14.17346"><ele>300.1666666666667</ele><time>2026-04-17T14:41:34.539Z</time></trkpt><trkpt lat="40.8721583" lon="14.1735133"><ele>300.0</ele><time>2026-04-17T14:41:37.54Z</time></trkpt><trkpt lat="40.8721033" lon="14.1735933"><ele>299.99999999999994</ele><time>2026-04-17T14:41:40.54Z</time></trkpt><trkpt lat="40.8720533" lon="14.1736767"><ele>300.0</ele><time>2026-04-17T14:41:43.538Z</time></trkpt><trkpt lat="40.8720117" lon="14.1737617"><ele>300.0</ele><time>2026-04-17T14:41:46.538Z</time></trkpt><trkpt lat="40.8719933" lon="14.173845"><ele>300.0</ele><time>2026-04-17T14:41:49.539Z</time></trkpt><trkpt lat="40.8720167" lon="14.1739283"><ele>300.0</ele><time>2026-04-17T14:41:52.54Z</time></trkpt><trkpt lat="40.872085" lon="14.1739333"><ele>299.99999999999994</ele><time>2026-04-17T14:41:55.538Z</time></trkpt><trkpt lat="40.8721317" lon="14.17387"><ele>300.0</ele><time>2026-04-17T14:41:58.54Z</time></trkpt><trkpt lat="40.8721917" lon="14.173795"><ele>300.0</ele><time>2026-04-17T14:42:02.539Z</time></trkpt><trkpt lat="40.8722517" lon="14.1737333"><ele>300.0</ele><time>2026-04-17T14:42:05.539Z</time></trkpt><trkpt lat="40.8723217" lon="14.1736683"><ele>300.0</ele><time>2026-04-17T14:42:08.541Z</time></trkpt><trkpt lat="40.8724067" lon="14.1736467"><ele>300.0</ele><time>2026-04-17T14:42:11.541Z</time></trkpt><trkpt lat="40.8724833" lon="14.17368"><ele>300.0</ele><time>2026-04-17T14:42:14.54Z</time></trkpt><trkpt lat="40.8725667" lon="14.1736967"><ele>300.0</ele><time>2026-04-17T14:42:18.54Z</time></trkpt><trkpt lat="40.8726417" lon="14.1737217"><ele>302.0</ele><time>2026-04-17T14:42:21.54Z</time></trkpt><trkpt lat="40.872725" lon="14.1737233"><ele>304.0</ele><time>2026-04-17T14:42:24.541Z</time></trkpt><trkpt lat="40.8727983" lon="14.1736883"><ele>306.0</ele><time>2026-04-17T14:42:27.542Z</time></trkpt><trkpt lat="40.8728683" lon="14.17364"><ele>308.0</ele><time>2026-04-17T14:42:30.538Z</time></trkpt><trkpt lat="40.8729167" lon="14.1735817"><ele>310.0</ele><time>2026-04-17T14:42:32.538Z</time></trkpt><trkpt lat="40.8729667" lon="14.173505"><ele>312.0</ele><time>2026-04-17T14:42:35.542Z</time></trkpt><trkpt lat="40.8730117" lon="14.173435"><ele>312.0</ele><time>2026-04-17T14:42:38.54Z</time></trkpt><trkpt lat="40.87305" lon="14.17336"><ele>312.0</ele><time>2026-04-17T14:42:41.537Z</time></trkpt><trkpt lat="40.8730933" lon="14.173265"><ele>312.0</ele><time>2026-04-17T14:42:44.538Z</time></trkpt><trkpt lat="40.873155" lon="14.1731867"><ele>312.0</ele><time>2026-04-17T14:42:47.538Z</time></trkpt><trkpt lat="40.8732017" lon="14.1731033"><ele>312.0</ele><time>2026-04-17T14:42:50.539Z</time></trkpt><trkpt lat="40.8732433" lon="14.1730167"><ele>312.0</ele><time>2026-04-17T14:42:53.54Z</time></trkpt><trkpt lat="40.873285" lon="14.1729283"><ele>311.7142857142857</ele><time>2026-04-17T14:42:56.538Z</time></trkpt><trkpt lat="40.8733217" lon="14.17284"><ele>311.4285714285714</ele><time>2026-04-17T14:42:59.539Z</time></trkpt><trkpt lat="40.8733817" lon="14.1727567"><ele>311.1428571428571</ele><time>2026-04-17T14:43:02.54Z</time></trkpt><trkpt lat="40.8734267" lon="14.1726833"><ele>310.8571428571429</ele><time>2026-04-17T14:43:05.541Z</time></trkpt><trkpt lat="40.873465" lon="14.1726017"><ele>310.57142857142856</ele><time>2026-04-17T14:43:08.542Z</time></trkpt><trkpt lat="40.8735083" lon="14.1725267"><ele>310.2857142857143</ele><time>2026-04-17T14:43:11.54Z</time></trkpt><trkpt lat="40.8735517" lon="14.1724583"><ele>310.0</ele><time>2026-04-17T14:43:14.542Z</time></trkpt><trkpt lat="40.8736083" lon="14.1724017"><ele>310.8333333333333</ele><time>2026-04-17T14:43:17.541Z</time></trkpt><trkpt lat="40.87369" lon="14.172425"><ele>311.66666666666663</ele><time>2026-04-17T14:43:20.542Z</time></trkpt><trkpt lat="40.873765" lon="14.1724733"><ele>312.5</ele><time>2026-04-17T14:43:23.54Z</time></trkpt><trkpt lat="40.8738467" lon="14.1725233"><ele>313.3333333333333</ele><time>2026-04-17T14:43:26.541Z</time></trkpt><trkpt lat="40.8739067" lon="14.1725517"><ele>314.1666666666667</ele><time>2026-04-17T14:43:28.542Z</time></trkpt><trkpt lat="40.8739817" lon="14.1725867"><ele>315.0</ele><time>2026-04-17T14:43:31.539Z</time></trkpt><trkpt lat="40.874065" lon="14.17261"><ele>315.0</ele><time>2026-04-17T14:43:34.54Z</time></trkpt><trkpt lat="40.8741417" lon="14.1726233"><ele>315.0</ele><time>2026-04-17T14:43:37.54Z</time></trkpt><trkpt lat="40.8742233" lon="14.1726267"><ele>315.0</ele><time>2026-04-17T14:43:40.539Z</time></trkpt><trkpt lat="40.8743117" lon="14.172645"><ele>315.0</ele><time>2026-04-17T14:43:43.538Z</time></trkpt><trkpt lat="40.8744" lon="14.1726667"><ele>315.0</ele><time>2026-04-17T14:43:46.54Z</time></trkpt><trkpt lat="40.8744633" lon="14.1727083"><ele>315.0</ele><time>2026-04-17T14:43:49.541Z</time></trkpt><trkpt lat="40.8745317" lon="14.172785"><ele>314.5</ele><time>2026-04-17T14:43:52.54Z</time></trkpt><trkpt lat="40.8745783" lon="14.172875"><ele>314.0</ele><time>2026-04-17T14:43:55.539Z</time></trkpt><trkpt lat="40.8746317" lon="14.172965"><ele>313.5</ele><time>2026-04-17T14:43:58.539Z</time></trkpt><trkpt lat="40.8746833" lon="14.173055"><ele>313.0</ele><time>2026-04-17T14:44:01.539Z</time></trkpt><trkpt lat="40.8747433" lon="14.1731383"><ele>312.5</ele><time>2026-04-17T14:44:04.538Z</time></trkpt><trkpt lat="40.8748067" lon="14.1732117"><ele>312.0</ele><time>2026-04-17T14:44:07.54Z</time></trkpt><trkpt lat="40.8748833" lon="14.1732883"><ele>314.1666666666667</ele><time>2026-04-17T14:44:10.539Z</time></trkpt><trkpt lat="40.8749583" lon="14.1733533"><ele>316.3333333333333</ele><time>2026-04-17T14:44:13.539Z</time></trkpt><trkpt lat="40.8750383" lon="14.1734133"><ele>318.5</ele><time>2026-04-17T14:44:16.543Z</time></trkpt><trkpt lat="40.8751083" lon="14.1734667"><ele>320.66666666666663</ele><time>2026-04-17T14:44:19.539Z</time></trkpt><trkpt lat="40.8751717" lon="14.173515"><ele>322.8333333333333</ele><time>2026-04-17T14:44:22.541Z</time></trkpt><trkpt lat="40.875225" lon="14.1735867"><ele>325.0</ele><time>2026-04-17T14:44:25.541Z</time></trkpt><trkpt lat="40.875285" lon="14.1736733"><ele>325.2857142857143</ele><time>2026-04-17T14:44:28.541Z</time></trkpt><trkpt lat="40.8753417" lon="14.173725"><ele>325.5714285714286</ele><time>2026-04-17T14:44:30.539Z</time></trkpt><trkpt lat="40.8754033" lon="14.1737683"><ele>325.8571428571429</ele><time>2026-04-17T14:44:32.54Z</time></trkpt><trkpt lat="40.87546" lon="14.17381"><ele>326.1428571428571</ele><time>2026-04-17T14:44:34.542Z</time></trkpt><trkpt lat="40.8755367" lon="14.1738683"><ele>326.42857142857144</ele><time>2026-04-17T14:44:37.541Z</time></trkpt><trkpt lat="40.8756167" lon="14.1738817"><ele>326.7142857142857</ele><time>2026-04-17T14:44:40.537Z</time></trkpt><trkpt lat="40.87568" lon="14.1739"><ele>327.0</ele><time>2026-04-17T14:44:42.54Z</time></trkpt><trkpt lat="40.8757667" lon="14.1739333"><ele>327.0</ele><time>2026-04-17T14:44:45.54Z</time></trkpt><trkpt lat="40.87583" lon="14.1739317"><ele>327.0</ele><time>2026-04-17T14:44:47.541Z</time></trkpt><trkpt lat="40.8758933" lon="14.1739033"><ele>327.0</ele><time>2026-04-17T14:44:49.539Z</time></trkpt><trkpt lat="40.8759583" lon="14.1738067"><ele>327.0</ele><time>2026-04-17T14:44:52.54Z</time></trkpt><trkpt lat="40.8759933" lon="14.17373"><ele>327.0</ele><time>2026-04-17T14:44:54.539Z</time></trkpt><trkpt lat="40.8760383" lon="14.1736667"><ele>327.0</ele><time>2026-04-17T14:44:56.539Z</time></trkpt><trkpt lat="40.8761083" lon="14.1735983"><ele>327.0</ele><time>2026-04-17T14:44:59.541Z</time></trkpt><trkpt lat="40.8761717" lon="14.1735883"><ele>328.3333333333333</ele><time>2026-04-17T14:45:01.539Z</time></trkpt><trkpt lat="40.8762683" lon="14.173605"><ele>329.6666666666667</ele><time>2026-04-17T14:45:04.539Z</time></trkpt><trkpt lat="40.876355" lon="14.1736283"><ele>331.0</ele><time>2026-04-17T14:45:07.54Z</time></trkpt><trkpt lat="40.8764167" lon="14.1736633"><ele>332.33333333333337</ele><time>2026-04-17T14:45:09.539Z</time></trkpt><trkpt lat="40.8764967" lon="14.1737317"><ele>333.6666666666667</ele><time>2026-04-17T14:45:12.542Z</time></trkpt><trkpt lat="40.8765417" lon="14.1738383"><ele>335.0</ele><time>2026-04-17T14:45:15.539Z</time></trkpt><trkpt lat="40.8765367" lon="14.1739667"><ele>335.4285714285714</ele><time>2026-04-17T14:45:18.542Z</time></trkpt><trkpt lat="40.87651" lon="14.1740567"><ele>335.85714285714283</ele><time>2026-04-17T14:45:20.539Z</time></trkpt><trkpt lat="40.8764883" lon="14.1741367"><ele>336.2857142857143</ele><time>2026-04-17T14:45:22.54Z</time></trkpt><trkpt lat="40.876475" lon="14.1742183"><ele>336.71428571428567</ele><time>2026-04-17T14:45:24.539Z</time></trkpt><trkpt lat="40.8764583" lon="14.1743233"><ele>337.1428571428571</ele><time>2026-04-17T14:45:27.539Z</time></trkpt><trkpt lat="40.87649" lon="14.17441"><ele>337.57142857142856</ele><time>2026-04-17T14:45:30.54Z</time></trkpt><trkpt lat="40.8764733" lon="14.1744983"><ele>338.0</ele><time>2026-04-17T14:46:44.541Z</time></trkpt><trkpt lat="40.8764133" lon="14.1745767"><ele>338.0</ele><time>2026-04-17T14:46:48.54Z</time></trkpt><trkpt lat="40.876345" lon="14.1746483"><ele>338.0</ele><time>2026-04-17T14:46:51.54Z</time></trkpt><trkpt lat="40.8762917" lon="14.174705"><ele>338.0</ele><time>2026-04-17T14:46:53.54Z</time></trkpt><trkpt lat="40.8762383" lon="14.17478"><ele>338.0</ele><time>2026-04-17T14:46:55.54Z</time></trkpt><trkpt lat="40.8761783" lon="14.1748433"><ele>338.0</ele><time>2026-04-17T14:46:57.54Z</time></trkpt><trkpt lat="40.8761167" lon="14.174905"><ele>338.0</ele><time>2026-04-17T14:46:59.54Z</time></trkpt><trkpt lat="40.8760617" lon="14.1749783"><ele>337.5</ele><time>2026-04-17T14:47:01.54Z</time></trkpt><trkpt lat="40.8760133" lon="14.175065"><ele>337.0</ele><time>2026-04-17T14:47:03.54Z</time></trkpt><trkpt lat="40.8759567" lon="14.175145"><ele>336.5</ele><time>2026-04-17T14:47:05.539Z</time></trkpt><trkpt lat="40.8759017" lon="14.1752233"><ele>336.0</ele><time>2026-04-17T14:47:07.54Z</time></trkpt><trkpt lat="40.875855" lon="14.1753033"><ele>335.5</ele><time>2026-04-17T14:47:09.54Z</time></trkpt><trkpt lat="40.8758117" lon="14.17537"><ele>335.0</ele><time>2026-04-17T14:47:11.542Z</time></trkpt><trkpt lat="40.8757633" lon="14.175455"><ele>336.1666666666667</ele><time>2026-04-17T14:47:13.54Z</time></trkpt><trkpt lat="40.8757083" lon="14.1755333"><ele>337.33333333333337</ele><time>2026-04-17T14:47:15.539Z</time></trkpt><trkpt lat="40.8756483" lon="14.1756067"><ele>338.5</ele><time>2026-04-17T14:47:17.54Z</time></trkpt><trkpt lat="40.8755917" lon="14.1756767"><ele>339.6666666666667</ele><time>2026-04-17T14:47:19.539Z</time></trkpt><trkpt lat="40.8755367" lon="14.17574"><ele>340.8333333333333</ele><time>2026-04-17T14:47:21.54Z</time></trkpt><trkpt lat="40.8754917" lon="14.175805"><ele>342.0</ele><time>2026-04-17T14:47:23.54Z</time></trkpt><trkpt lat="40.8754567" lon="14.1759033"><ele>342.1666666666667</ele><time>2026-04-17T14:47:26.54Z</time></trkpt><trkpt lat="40.8754417" lon="14.176005"><ele>342.3333333333333</ele><time>2026-04-17T14:47:29.54Z</time></trkpt><trkpt lat="40.8754367" lon="14.1761267"><ele>342.5</ele><time>2026-04-17T14:47:32.541Z</time></trkpt><trkpt lat="40.875425" lon="14.17621"><ele>342.66666666666663</ele><time>2026-04-17T14:47:34.54Z</time></trkpt><trkpt lat="40.8754167" lon="14.1763"><ele>342.8333333333333</ele><time>2026-04-17T14:47:36.539Z</time></trkpt><trkpt lat="40.8753833" lon="14.1764083"><ele>343.0</ele><time>2026-04-17T14:47:39.539Z</time></trkpt><trkpt lat="40.8753483" lon="14.176515"><ele>342.5</ele><time>2026-04-17T14:47:42.54Z</time></trkpt><trkpt lat="40.8753217" lon="14.1766317"><ele>342.0</ele><time>2026-04-17T14:47:45.54Z</time></trkpt><trkpt lat="40.875295" lon="14.1767467"><ele>341.5</ele><time>2026-04-17T14:47:48.54Z</time></trkpt><trkpt lat="40.875265" lon="14.1768233"><ele>341.0</ele><time>2026-04-17T14:47:50.539Z</time></trkpt><trkpt lat="40.8752167" lon="14.17692"><ele>340.5</ele><time>2026-04-17T14:47:53.539Z</time></trkpt><trkpt lat="40.8751617" lon="14.1769833"><ele>340.0</ele><time>2026-04-17T14:47:56.542Z</time></trkpt><trkpt lat="40.8751067" lon="14.1770267"><ele>341.5714285714286</ele><time>2026-04-17T14:47:59.54Z</time></trkpt><trkpt lat="40.8750333" lon="14.1770617"><ele>343.1428571428571</ele><time>2026-04-17T14:48:03.541Z</time></trkpt><trkpt lat="40.8749717" lon="14.177105"><ele>344.7142857142857</ele><time>2026-04-17T14:48:06.538Z</time></trkpt><trkpt lat="40.8749133" lon="14.1771417"><ele>346.28571428571433</ele><time>2026-04-17T14:48:10.538Z</time></trkpt><trkpt lat="40.8748483" lon="14.17717"><ele>347.8571428571429</ele><time>2026-04-17T14:48:13.54Z</time></trkpt><trkpt lat="40.8747817" lon="14.1772033"><ele>349.42857142857144</ele><time>2026-04-17T14:48:16.539Z</time></trkpt><trkpt lat="40.8747083" lon="14.17725"><ele>351.0</ele><time>2026-04-17T14:48:20.542Z</time></trkpt><trkpt lat="40.8746283" lon="14.17728"><ele>351.0</ele><time>2026-04-17T14:48:24.542Z</time></trkpt><trkpt lat="40.8745567" lon="14.1773267"><ele>351.0</ele><time>2026-04-17T14:48:28.541Z</time></trkpt><trkpt lat="40.8744883" lon="14.177375"><ele>351.0</ele><time>2026-04-17T14:48:31.538Z</time></trkpt><trkpt lat="40.8744417" lon="14.1774433"><ele>351.0</ele><time>2026-04-17T14:48:34.54Z</time></trkpt><trkpt lat="40.874395" lon="14.1775317"><ele>351.0</ele><time>2026-04-17T14:48:38.541Z</time></trkpt><trkpt lat="40.874355" lon="14.1776083"><ele>351.0</ele><time>2026-04-17T14:48:41.54Z</time></trkpt><trkpt lat="40.8743317" lon="14.1777167"><ele>351.5</ele><time>2026-04-17T14:48:44.542Z</time></trkpt><trkpt lat="40.874315" lon="14.1778217"><ele>352.0</ele><time>2026-04-17T14:48:47.538Z</time></trkpt><trkpt lat="40.8743033" lon="14.177935"><ele>352.5</ele><time>2026-04-17T14:48:50.541Z</time></trkpt><trkpt lat="40.8742933" lon="14.1780417"><ele>353.0</ele><time>2026-04-17T14:48:53.54Z</time></trkpt><trkpt lat="40.874285" lon="14.1781483"><ele>353.5</ele><time>2026-04-17T14:48:56.54Z</time></trkpt><trkpt lat="40.8742733" lon="14.1782617"><ele>354.0</ele><time>2026-04-17T14:48:59.538Z</time></trkpt><trkpt lat="40.8742517" lon="14.17837"><ele>354.6666666666667</ele><time>2026-04-17T14:49:02.54Z</time></trkpt><trkpt lat="40.8742383" lon="14.1784617"><ele>355.3333333333333</ele><time>2026-04-17T14:49:04.541Z</time></trkpt><trkpt lat="40.874225" lon="14.1785567"><ele>356.0</ele><time>2026-04-17T14:49:06.539Z</time></trkpt><trkpt lat="40.87421" lon="14.1786767"><ele>356.66666666666663</ele><time>2026-04-17T14:49:09.54Z</time></trkpt><trkpt lat="40.8742067" lon="14.1787617"><ele>357.3333333333333</ele><time>2026-04-17T14:49:11.54Z</time></trkpt><trkpt lat="40.874205" lon="14.1788667"><ele>358.0</ele><time>2026-04-17T14:49:14.539Z</time></trkpt><trkpt lat="40.8741967" lon="14.1789617"><ele>358.42857142857144</ele><time>2026-04-17T14:49:17.54Z</time></trkpt><trkpt lat="40.8742067" lon="14.17905"><ele>358.8571428571429</ele><time>2026-04-17T14:49:20.54Z</time></trkpt><trkpt lat="40.8742" lon="14.1791617"><ele>359.28571428571433</ele><time>2026-04-17T14:49:23.541Z</time></trkpt><trkpt lat="40.8741817" lon="14.179245"><ele>359.7142857142857</ele><time>2026-04-17T14:49:25.541Z</time></trkpt><trkpt lat="40.874195" lon="14.1793267"><ele>360.1428571428571</ele><time>2026-04-17T14:49:27.541Z</time></trkpt><trkpt lat="40.87422" lon="14.1794367"><ele>360.5714285714286</ele><time>2026-04-17T14:49:30.54Z</time></trkpt><trkpt lat="40.8741983" lon="14.179535"><ele>361.0</ele><time>2026-04-17T14:49:33.539Z</time></trkpt><trkpt lat="40.87415" lon="14.1796283"><ele>361.0</ele><time>2026-04-17T14:49:36.54Z</time></trkpt><trkpt lat="40.8741167" lon="14.1797033"><ele>361.0</ele><time>2026-04-17T14:49:38.541Z</time></trkpt><trkpt lat="40.8740767" lon="14.1797983"><ele>361.0</ele><time>2026-04-17T14:49:41.54Z</time></trkpt><trkpt lat="40.87403" lon="14.1798917"><ele>361.0</ele><time>2026-04-17T14:49:44.538Z</time></trkpt><trkpt lat="40.8739883" lon="14.1799883"><ele>361.0</ele><time>2026-04-17T14:49:47.541Z</time></trkpt><trkpt lat="40.87397" lon="14.18007"><ele>361.0</ele><time>2026-04-17T14:49:49.54Z</time></trkpt><trkpt lat="40.8739433" lon="14.1801833"><ele>361.66666666666663</ele><time>2026-04-17T14:49:52.54Z</time></trkpt><trkpt lat="40.8739083" lon="14.180285"><ele>362.3333333333333</ele><time>2026-04-17T14:49:55.54Z</time></trkpt><trkpt lat="40.873875" lon="14.180385"><ele>363.0</ele><time>2026-04-17T14:49:58.541Z</time></trkpt><trkpt lat="40.873835" lon="14.18046"><ele>363.6666666666667</ele><time>2026-04-17T14:50:00.539Z</time></trkpt><trkpt lat="40.873825" lon="14.1805767"><ele>364.33333333333337</ele><time>2026-04-17T14:50:03.541Z</time></trkpt><trkpt lat="40.8738017" lon="14.1806567"><ele>365.0</ele><time>2026-04-17T14:50:05.539Z</time></trkpt><trkpt lat="40.8737617" lon="14.1807617"><ele>365.0</ele><time>2026-04-17T14:50:08.541Z</time></trkpt><trkpt lat="40.8737383" lon="14.1808467"><ele>365.0</ele><time>2026-04-17T14:50:10.54Z</time></trkpt><trkpt lat="40.8736967" lon="14.1809583"><ele>365.0</ele><time>2026-04-17T14:50:12.541Z</time></trkpt><trkpt lat="40.873645" lon="14.1810917"><ele>365.0</ele><time>2026-04-17T14:50:14.541Z</time></trkpt><trkpt lat="40.8736217" lon="14.1812617"><ele>365.0</ele><time>2026-04-17T14:50:16.538Z</time></trkpt><trkpt lat="40.8736133" lon="14.1813533"><ele>365.0</ele><time>2026-04-17T14:50:17.541Z</time></trkpt><trkpt lat="40.8736033" lon="14.1814417"><ele>365.0</ele><time>2026-04-17T14:50:18.54Z</time></trkpt><trkpt lat="40.8735933" lon="14.1815283"><ele>365.0</ele><time>2026-04-17T14:50:19.543Z</time></trkpt><trkpt lat="40.8735833" lon="14.1816133"><ele>365.0</ele><time>2026-04-17T14:50:20.54Z</time></trkpt><trkpt lat="40.8735533" lon="14.181755"><ele>365.0</ele><time>2026-04-17T14:50:22.541Z</time></trkpt><trkpt lat="40.8735033" lon="14.181875"><ele>365.0</ele><time>2026-04-17T14:50:24.543Z</time></trkpt><trkpt lat="40.8734417" lon="14.1819717"><ele>364.83333333333337</ele><time>2026-04-17T14:50:26.543Z</time></trkpt><trkpt lat="40.8733783" lon="14.18206"><ele>364.6666666666667</ele><time>2026-04-17T14:50:28.538Z</time></trkpt><trkpt lat="40.8733167" lon="14.1821467"><ele>364.5</ele><time>2026-04-17T14:50:30.542Z</time></trkpt><trkpt lat="40.8732567" lon="14.1822233"><ele>364.3333333333333</ele><time>2026-04-17T14:50:32.542Z</time></trkpt><trkpt lat="40.8732017" lon="14.1822983"><ele>364.16666666666663</ele><time>2026-04-17T14:50:34.538Z</time></trkpt><trkpt lat="40.87315" lon="14.182355"><ele>364.0</ele><time>2026-04-17T14:50:36.54Z</time></trkpt><trkpt lat="40.873085" lon="14.1824317"><ele>363.8333333333333</ele><time>2026-04-17T14:50:39.54Z</time></trkpt><trkpt lat="40.8730217" lon="14.182525"><ele>363.66666666666663</ele><time>2026-04-17T14:50:42.54Z</time></trkpt><trkpt lat="40.8729717" lon="14.1825867"><ele>363.5</ele><time>2026-04-17T14:50:44.542Z</time></trkpt><trkpt lat="40.872915" lon="14.182655"><ele>363.3333333333333</ele><time>2026-04-17T14:50:46.542Z</time></trkpt><trkpt lat="40.8728667" lon="14.18273"><ele>363.1666666666667</ele><time>2026-04-17T14:50:48.542Z</time></trkpt><trkpt lat="40.8728217" lon="14.1828"><ele>363.0</ele><time>2026-04-17T14:50:50.54Z</time></trkpt><trkpt lat="40.8727567" lon="14.182865"><ele>363.0</ele><time>2026-04-17T14:50:52.538Z</time></trkpt><trkpt lat="40.8726883" lon="14.18293"><ele>363.0</ele><time>2026-04-17T14:50:54.54Z</time></trkpt><trkpt lat="40.8726133" lon="14.1829767"><ele>363.0</ele><time>2026-04-17T14:50:56.541Z</time></trkpt><trkpt lat="40.87254" lon="14.1830033"><ele>363.0</ele><time>2026-04-17T14:50:58.542Z</time></trkpt><trkpt lat="40.8724683" lon="14.1830183"><ele>363.0</ele><time>2026-04-17T14:51:00.542Z</time></trkpt><trkpt lat="40.8723917" lon="14.1829917"><ele>363.0</ele><time>2026-04-17T14:51:02.54Z</time></trkpt><trkpt lat="40.8723417" lon="14.1829233"><ele>363.1428571428571</ele><time>2026-04-17T14:51:04.539Z</time></trkpt><trkpt lat="40.8723017" lon="14.18284"><ele>363.2857142857143</ele><time>2026-04-17T14:51:06.541Z</time></trkpt><trkpt lat="40.8722367" lon="14.1827917"><ele>363.42857142857144</ele><time>2026-04-17T14:51:08.54Z</time></trkpt><trkpt lat="40.87217" lon="14.1827617"><ele>363.57142857142856</ele><time>2026-04-17T14:51:10.54Z</time></trkpt><trkpt lat="40.8721017" lon="14.1827417"><ele>363.7142857142857</ele><time>2026-04-17T14:51:12.541Z</time></trkpt><trkpt lat="40.8720333" lon="14.1827333"><ele>363.85714285714283</ele><time>2026-04-17T14:51:14.54Z</time></trkpt><trkpt lat="40.8719633" lon="14.1827183"><ele>364.0</ele><time>2026-04-17T14:51:16.54Z</time></trkpt><trkpt lat="40.8718883" lon="14.1827083"><ele>364.0</ele><time>2026-04-17T14:51:18.54Z</time></trkpt><trkpt lat="40.8717983" lon="14.1827517"><ele>364.0</ele><time>2026-04-17T14:51:20.541Z</time></trkpt><trkpt lat="40.8717" lon="14.182835"><ele>364.0</ele><time>2026-04-17T14:51:22.542Z</time></trkpt><trkpt lat="40.8716217" lon="14.18292"><ele>364.0</ele><time>2026-04-17T14:51:24.541Z</time></trkpt><trkpt lat="40.871575" lon="14.1829967"><ele>364.0</ele><time>2026-04-17T14:51:26.539Z</time></trkpt><trkpt lat="40.8715333" lon="14.18308"><ele>363.16666666666663</ele><time>2026-04-17T14:51:28.541Z</time></trkpt><trkpt lat="40.8715" lon="14.1831583"><ele>362.3333333333333</ele><time>2026-04-17T14:51:30.541Z</time></trkpt><trkpt lat="40.8714617" lon="14.1832417"><ele>361.5</ele><time>2026-04-17T14:51:32.539Z</time></trkpt><trkpt lat="40.8714483" lon="14.183335"><ele>360.6666666666667</ele><time>2026-04-17T14:51:34.539Z</time></trkpt><trkpt lat="40.87143" lon="14.1834417"><ele>359.83333333333337</ele><time>2026-04-17T14:51:36.541Z</time></trkpt><trkpt lat="40.871425" lon="14.18355"><ele>359.0</ele><time>2026-04-17T14:51:38.54Z</time></trkpt><trkpt lat="40.871435" lon="14.1836583"><ele>361.0</ele><time>2026-04-17T14:51:40.542Z</time></trkpt><trkpt lat="40.87145" lon="14.1837567"><ele>363.0</ele><time>2026-04-17T14:51:42.54Z</time></trkpt><trkpt lat="40.8714517" lon="14.183865"><ele>365.0</ele><time>2026-04-17T14:51:45.539Z</time></trkpt><trkpt lat="40.8714283" lon="14.1839667"><ele>367.0</ele><time>2026-04-17T14:51:48.54Z</time></trkpt><trkpt lat="40.8714" lon="14.1840667"><ele>369.0</ele><time>2026-04-17T14:51:51.54Z</time></trkpt><trkpt lat="40.87135" lon="14.1841683"><ele>371.0</ele><time>2026-04-17T14:51:54.541Z</time></trkpt><trkpt lat="40.8713033" lon="14.18427"><ele>371.5</ele><time>2026-04-17T14:51:57.539Z</time></trkpt><trkpt lat="40.871255" lon="14.1843733"><ele>372.0</ele><time>2026-04-17T14:52:00.54Z</time></trkpt><trkpt lat="40.8711967" lon="14.1844717"><ele>372.5</ele><time>2026-04-17T14:52:03.539Z</time></trkpt><trkpt lat="40.8711417" lon="14.18454"><ele>373.0</ele><time>2026-04-17T14:52:05.54Z</time></trkpt><trkpt lat="40.8710917" lon="14.18461"><ele>373.5</ele><time>2026-04-17T14:52:07.541Z</time></trkpt><trkpt lat="40.871035" lon="14.1846683"><ele>374.0</ele><time>2026-04-17T14:52:09.541Z</time></trkpt><trkpt lat="40.8709833" lon="14.1847317"><ele>374.33333333333337</ele><time>2026-04-17T14:52:11.538Z</time></trkpt><trkpt lat="40.870935" lon="14.1848067"><ele>374.6666666666667</ele><time>2026-04-17T14:52:13.539Z</time></trkpt><trkpt lat="40.8708867" lon="14.1848717"><ele>375.0</ele><time>2026-04-17T14:52:15.539Z</time></trkpt><trkpt lat="40.8708383" lon="14.1849267"><ele>375.3333333333333</ele><time>2026-04-17T14:52:17.541Z</time></trkpt><trkpt lat="40.8707717" lon="14.185005"><ele>375.66666666666663</ele><time>2026-04-17T14:52:20.541Z</time></trkpt><trkpt lat="40.8707067" lon="14.1850983"><ele>376.0</ele><time>2026-04-17T14:52:23.541Z</time></trkpt><trkpt lat="40.8706567" lon="14.1851517"><ele>376.0</ele><time>2026-04-17T14:52:25.539Z</time></trkpt><trkpt lat="40.870605" lon="14.1852"><ele>376.0</ele><time>2026-04-17T14:52:27.54Z</time></trkpt><trkpt lat="40.8705617" lon="14.1852733"><ele>376.0</ele><time>2026-04-17T14:52:30.541Z</time></trkpt><trkpt lat="40.8705317" lon="14.1853567"><ele>376.0</ele><time>2026-04-17T14:52:33.541Z</time></trkpt><trkpt lat="40.87052" lon="14.1854567"><ele>376.0</ele><time>2026-04-17T14:52:36.542Z</time></trkpt><trkpt lat="40.8705333" lon="14.1855883"><ele>376.0</ele><time>2026-04-17T14:52:39.54Z</time></trkpt><trkpt lat="40.8705617" lon="14.1856783"><ele>376.66666666666663</ele><time>2026-04-17T14:52:41.54Z</time></trkpt><trkpt lat="40.8705933" lon="14.1857667"><ele>377.3333333333333</ele><time>2026-04-17T14:52:43.541Z</time></trkpt><trkpt lat="40.8705833" lon="14.1858867"><ele>378.0</ele><time>2026-04-17T14:52:46.539Z</time></trkpt><trkpt lat="40.8705817" lon="14.1859733"><ele>378.6666666666667</ele><time>2026-04-17T14:52:48.54Z</time></trkpt><trkpt lat="40.8705933" lon="14.1860817"><ele>379.33333333333337</ele><time>2026-04-17T14:52:51.54Z</time></trkpt><trkpt lat="40.8705867" lon="14.1861917"><ele>380.0</ele><time>2026-04-17T14:52:54.541Z</time></trkpt><trkpt lat="40.8705933" lon="14.1863083"><ele>380.0</ele><time>2026-04-17T14:52:57.541Z</time></trkpt><trkpt lat="40.8705983" lon="14.1864017"><ele>380.0</ele><time>2026-04-17T14:53:00.54Z</time></trkpt><trkpt lat="40.8706033" lon="14.186495"><ele>380.0</ele><time>2026-04-17T14:53:03.541Z</time></trkpt><trkpt lat="40.8706133" lon="14.1866033"><ele>380.0</ele><time>2026-04-17T14:53:06.539Z</time></trkpt><trkpt lat="40.8705967" lon="14.1867067"><ele>380.0</ele><time>2026-04-17T14:53:09.54Z</time></trkpt><trkpt lat="40.870585" lon="14.1868067"><ele>380.0</ele><time>2026-04-17T14:53:13.541Z</time></trkpt><trkpt lat="40.87051" lon="14.186865"><ele>379.8571428571429</ele><time>2026-04-17T14:53:17.542Z</time></trkpt><trkpt lat="40.8704183" lon="14.18687"><ele>379.7142857142857</ele><time>2026-04-17T14:53:20.539Z</time></trkpt><trkpt lat="40.870355" lon="14.18686"><ele>379.57142857142856</ele><time>2026-04-17T14:53:22.54Z</time></trkpt><trkpt lat="40.87029" lon="14.1868517"><ele>379.42857142857144</ele><time>2026-04-17T14:53:24.539Z</time></trkpt><trkpt lat="40.870225" lon="14.1868567"><ele>379.2857142857143</ele><time>2026-04-17T14:53:26.541Z</time></trkpt><trkpt lat="40.870155" lon="14.1868567"><ele>379.14285714285717</ele><time>2026-04-17T14:53:28.542Z</time></trkpt><trkpt lat="40.87009" lon="14.1868667"><ele>379.0</ele><time>2026-04-17T14:53:30.538Z</time></trkpt><trkpt lat="40.8700233" lon="14.186875"><ele>379.8571428571429</ele><time>2026-04-17T14:53:32.538Z</time></trkpt><trkpt lat="40.869955" lon="14.186885"><ele>380.7142857142857</ele><time>2026-04-17T14:53:34.541Z</time></trkpt><trkpt lat="40.8698617" lon="14.1868833"><ele>381.57142857142856</ele><time>2026-04-17T14:53:37.54Z</time></trkpt><trkpt lat="40.8697967" lon="14.1868867"><ele>382.42857142857144</ele><time>2026-04-17T14:53:39.538Z</time></trkpt><trkpt lat="40.8697283" lon="14.18689"><ele>383.2857142857143</ele><time>2026-04-17T14:53:41.539Z</time></trkpt><trkpt lat="40.8696617" lon="14.1868767"><ele>384.14285714285717</ele><time>2026-04-17T14:53:43.54Z</time></trkpt><trkpt lat="40.869595" lon="14.1868633"><ele>385.0</ele><time>2026-04-17T14:53:45.54Z</time></trkpt><trkpt lat="40.8695267" lon="14.1868617"><ele>385.00000000000006</ele><time>2026-04-17T14:53:47.54Z</time></trkpt><trkpt lat="40.8694617" lon="14.18685"><ele>385.0</ele><time>2026-04-17T14:53:49.538Z</time></trkpt><trkpt lat="40.8693833" lon="14.1868083"><ele>385.0</ele><time>2026-04-17T14:53:52.538Z</time></trkpt><trkpt lat="40.86931" lon="14.1867517"><ele>385.0</ele><time>2026-04-17T14:53:55.54Z</time></trkpt><trkpt lat="40.8692333" lon="14.1866883"><ele>385.00000000000006</ele><time>2026-04-17T14:53:58.54Z</time></trkpt><trkpt lat="40.869155" lon="14.1866533"><ele>385.0</ele><time>2026-04-17T14:54:01.539Z</time></trkpt><trkpt lat="40.8690833" lon="14.1866083"><ele>384.6666666666667</ele><time>2026-04-17T14:54:04.54Z</time></trkpt><trkpt lat="40.869" lon="14.186565"><ele>384.33333333333337</ele><time>2026-04-17T14:54:07.54Z</time></trkpt><trkpt lat="40.8689383" lon="14.1865333"><ele>384.0</ele><time>2026-04-17T14:54:09.539Z</time></trkpt><trkpt lat="40.8688683" lon="14.1864983"><ele>383.6666666666667</ele><time>2026-04-17T14:54:11.538Z</time></trkpt><trkpt lat="40.8687783" lon="14.1864667"><ele>383.33333333333337</ele><time>2026-04-17T14:54:14.54Z</time></trkpt><trkpt lat="40.8687017" lon="14.1864583"><ele>383.0</ele><time>2026-04-17T14:54:17.537Z</time></trkpt><trkpt lat="40.8686267" lon="14.1864733"><ele>383.0</ele><time>2026-04-17T14:54:21.539Z</time></trkpt><trkpt lat="40.86856" lon="14.1864767"><ele>383.0</ele><time>2026-04-17T14:54:24.539Z</time></trkpt><trkpt lat="40.8684783" lon="14.1865117"><ele>383.0</ele><time>2026-04-17T14:54:28.539Z</time></trkpt><trkpt lat="40.8684067" lon="14.18656"><ele>383.0</ele><time>2026-04-17T14:54:32.539Z</time></trkpt><trkpt lat="40.8683483" lon="14.1865967"><ele>383.0</ele><time>2026-04-17T14:54:35.54Z</time></trkpt><trkpt lat="40.8682817" lon="14.1866467"><ele>383.0</ele><time>2026-04-17T14:54:39.54Z</time></trkpt><trkpt lat="40.868205" lon="14.186685"><ele>385.33333333333337</ele><time>2026-04-17T14:54:43.54Z</time></trkpt><trkpt lat="40.86814" lon="14.1867267"><ele>387.6666666666667</ele><time>2026-04-17T14:54:46.538Z</time></trkpt><trkpt lat="40.868065" lon="14.186755"><ele>390.0</ele><time>2026-04-17T14:54:49.539Z</time></trkpt><trkpt lat="40.86799" lon="14.18679"><ele>392.33333333333337</ele><time>2026-04-17T14:54:52.539Z</time></trkpt><trkpt lat="40.86791" lon="14.1868233"><ele>394.6666666666667</ele><time>2026-04-17T14:54:55.539Z</time></trkpt><trkpt lat="40.8678467" lon="14.1868917"><ele>397.0</ele><time>2026-04-17T14:54:58.539Z</time></trkpt><trkpt lat="40.8677933" lon="14.1869717"><ele>397.00000000000006</ele><time>2026-04-17T14:55:01.539Z</time></trkpt><trkpt lat="40.8677383" lon="14.1870183"><ele>397.0</ele><time>2026-04-17T14:55:04.54Z</time></trkpt><trkpt lat="40.8676883" lon="14.1870767"><ele>397.0</ele><time>2026-04-17T14:55:07.539Z</time></trkpt><trkpt lat="40.8676283" lon="14.1871333"><ele>397.0</ele><time>2026-04-17T14:55:10.54Z</time></trkpt><trkpt lat="40.86757" lon="14.1872133"><ele>397.00000000000006</ele><time>2026-04-17T14:55:14.539Z</time></trkpt><trkpt lat="40.8674983" lon="14.1872667"><ele>397.0</ele><time>2026-04-17T14:55:18.538Z</time></trkpt><trkpt lat="40.867425" lon="14.1873167"><ele>397.85714285714283</ele><time>2026-04-17T14:55:22.542Z</time></trkpt><trkpt lat="40.8673717" lon="14.1873683"><ele>398.71428571428567</ele><time>2026-04-17T14:55:26.542Z</time></trkpt><trkpt lat="40.8673033" lon="14.1874183"><ele>399.57142857142856</ele><time>2026-04-17T14:55:30.54Z</time></trkpt><trkpt lat="40.8672367" lon="14.1874683"><ele>400.42857142857144</ele><time>2026-04-17T14:55:34.54Z</time></trkpt><trkpt lat="40.86716" lon="14.1874983"><ele>401.2857142857143</ele><time>2026-04-17T14:55:39.539Z</time></trkpt><trkpt lat="40.8671" lon="14.1875267"><ele>402.14285714285717</ele><time>2026-04-17T14:55:42.54Z</time></trkpt><trkpt lat="40.8670367" lon="14.187545"><ele>403.0</ele><time>2026-04-17T14:55:45.539Z</time></trkpt><trkpt lat="40.8669633" lon="14.187565"><ele>403.0</ele><time>2026-04-17T14:55:49.539Z</time></trkpt><trkpt lat="40.866895" lon="14.1875767"><ele>403.0</ele><time>2026-04-17T14:55:52.54Z</time></trkpt><trkpt lat="40.86683" lon="14.1875967"><ele>403.0</ele><time>2026-04-17T14:55:55.54Z</time></trkpt><trkpt lat="40.86677" lon="14.1876233"><ele>403.0</ele><time>2026-04-17T14:55:58.537Z</time></trkpt><trkpt lat="40.8667083" lon="14.1876633"><ele>403.0</ele><time>2026-04-17T14:56:01.539Z</time></trkpt><trkpt lat="40.8666533" lon="14.187725"><ele>403.0</ele><time>2026-04-17T14:56:04.542Z</time></trkpt><trkpt lat="40.8666033" lon="14.1878"><ele>403.0</ele><time>2026-04-17T14:56:07.541Z</time></trkpt><trkpt lat="40.8665467" lon="14.187865"><ele>403.33333333333337</ele><time>2026-04-17T14:56:10.541Z</time></trkpt><trkpt lat="40.8664917" lon="14.1879333"><ele>403.6666666666667</ele><time>2026-04-17T14:56:13.539Z</time></trkpt><trkpt lat="40.8664417" lon="14.1880133"><ele>404.0</ele><time>2026-04-17T14:56:16.541Z</time></trkpt><trkpt lat="40.8664017" lon="14.1880933"><ele>404.33333333333337</ele><time>2026-04-17T14:56:19.54Z</time></trkpt><trkpt lat="40.8663633" lon="14.1881933"><ele>404.6666666666667</ele><time>2026-04-17T14:56:23.537Z</time></trkpt><trkpt lat="40.866325" lon="14.1882833"><ele>405.0</ele><time>2026-04-17T14:56:26.539Z</time></trkpt><trkpt lat="40.8662933" lon="14.188375"><ele>406.1666666666667</ele><time>2026-04-17T14:56:29.538Z</time></trkpt><trkpt lat="40.8662467" lon="14.18846"><ele>407.33333333333337</ele><time>2026-04-17T14:56:32.542Z</time></trkpt><trkpt lat="40.866205" lon="14.1885617"><ele>408.5</ele><time>2026-04-17T14:56:35.54Z</time></trkpt><trkpt lat="40.8661583" lon="14.188655"><ele>409.6666666666667</ele><time>2026-04-17T14:56:38.54Z</time></trkpt><trkpt lat="40.8661183" lon="14.188755"><ele>410.83333333333337</ele><time>2026-04-17T14:56:42.538Z</time></trkpt><trkpt lat="40.8660833" lon="14.18885"><ele>412.0</ele><time>2026-04-17T14:56:45.542Z</time></trkpt><trkpt lat="40.866055" lon="14.1889517"><ele>411.83333333333337</ele><time>2026-04-17T14:56:48.54Z</time></trkpt><trkpt lat="40.86601" lon="14.1890583"><ele>411.6666666666667</ele><time>2026-04-17T14:56:51.539Z</time></trkpt><trkpt lat="40.8659583" lon="14.1891483"><ele>411.5</ele><time>2026-04-17T14:56:54.538Z</time></trkpt><trkpt lat="40.8659067" lon="14.1892333"><ele>411.33333333333337</ele><time>2026-04-17T14:56:57.539Z</time></trkpt><trkpt lat="40.8658617" lon="14.1893017"><ele>411.1666666666667</ele><time>2026-04-17T14:56:59.536Z</time></trkpt><trkpt lat="40.8658133" lon="14.1893583"><ele>411.0</ele><time>2026-04-17T14:57:01.54Z</time></trkpt><trkpt lat="40.8657333" lon="14.189425"><ele>411.7142857142857</ele><time>2026-04-17T14:57:04.539Z</time></trkpt><trkpt lat="40.8656683" lon="14.1894583"><ele>412.42857142857144</ele><time>2026-04-17T14:57:06.538Z</time></trkpt><trkpt lat="40.8656" lon="14.189505"><ele>413.1428571428571</ele><time>2026-04-17T14:57:08.54Z</time></trkpt><trkpt lat="40.86554" lon="14.1895583"><ele>413.8571428571429</ele><time>2026-04-17T14:57:10.539Z</time></trkpt><trkpt lat="40.8654817" lon="14.1895917"><ele>414.5714285714286</ele><time>2026-04-17T14:57:12.538Z</time></trkpt><trkpt lat="40.8654033" lon="14.1896283"><ele>415.2857142857143</ele><time>2026-04-17T14:57:15.538Z</time></trkpt><trkpt lat="40.86533" lon="14.1896317"><ele>416.0</ele><time>2026-04-17T14:57:18.538Z</time></trkpt><trkpt lat="40.8652633" lon="14.1896"><ele>416.0</ele><time>2026-04-17T14:57:21.54Z</time></trkpt><trkpt lat="40.86525" lon="14.1894867"><ele>416.0</ele><time>2026-04-17T14:57:25.54Z</time></trkpt><trkpt lat="40.8652717" lon="14.1893133"><ele>416.0</ele><time>2026-04-17T14:57:27.54Z</time></trkpt><trkpt lat="40.86527" lon="14.1892267"><ele>416.0</ele><time>2026-04-17T14:57:28.542Z</time></trkpt><trkpt lat="40.8652667" lon="14.1890683"><ele>416.0</ele><time>2026-04-17T14:57:30.54Z</time></trkpt><trkpt lat="40.8652667" lon="14.188985"><ele>415.8333333333333</ele><time>2026-04-17T14:57:31.541Z</time></trkpt><trkpt lat="40.8652667" lon="14.1889"><ele>415.66666666666663</ele><time>2026-04-17T14:57:32.539Z</time></trkpt><trkpt lat="40.8652667" lon="14.1888133"><ele>415.5</ele><time>2026-04-17T14:57:33.54Z</time></trkpt><trkpt lat="40.8652733" lon="14.1886767"><ele>415.33333333333337</ele><time>2026-04-17T14:57:35.542Z</time></trkpt><trkpt lat="40.865255" lon="14.1885783"><ele>415.1666666666667</ele><time>2026-04-17T14:57:37.54Z</time></trkpt><trkpt lat="40.865175" lon="14.1885333"><ele>415.0</ele><time>2026-04-17T14:57:39.54Z</time></trkpt><trkpt lat="40.8650833" lon="14.188515"><ele>415.00000000000006</ele><time>2026-04-17T14:57:41.54Z</time></trkpt><trkpt lat="40.8649967" lon="14.1885033"><ele>415.0</ele><time>2026-04-17T14:57:43.54Z</time></trkpt><trkpt lat="40.8649183" lon="14.188515"><ele>415.0</ele><time>2026-04-17T14:57:45.54Z</time></trkpt><trkpt lat="40.86484" lon="14.18851"><ele>415.0</ele><time>2026-04-17T14:57:47.54Z</time></trkpt><trkpt lat="40.8647667" lon="14.1885167"><ele>415.00000000000006</ele><time>2026-04-17T14:57:49.542Z</time></trkpt><trkpt lat="40.8646867" lon="14.1884783"><ele>415.0</ele><time>2026-04-17T14:57:51.539Z</time></trkpt><trkpt lat="40.8646117" lon="14.1884517"><ele>415.0</ele><time>2026-04-17T14:57:53.541Z</time></trkpt><trkpt lat="40.8645483" lon="14.1884633"><ele>415.0</ele><time>2026-04-17T14:57:55.539Z</time></trkpt><trkpt lat="40.86448" lon="14.1884583"><ele>415.0</ele><time>2026-04-17T14:58:00.541Z</time></trkpt><trkpt lat="40.86441" lon="14.1884217"><ele>415.0</ele><time>2026-04-17T14:58:03.542Z</time></trkpt><trkpt lat="40.8643433" lon="14.1884033"><ele>415.0</ele><time>2026-04-17T14:58:05.542Z</time></trkpt><trkpt lat="40.8642733" lon="14.18839"><ele>415.0</ele><time>2026-04-17T14:58:07.542Z</time></trkpt><trkpt lat="40.8642" lon="14.18839"><ele>415.0</ele><time>2026-04-17T14:58:09.541Z</time></trkpt><trkpt lat="40.8641267" lon="14.18837"><ele>415.00000000000006</ele><time>2026-04-17T14:58:11.542Z</time></trkpt><trkpt lat="40.8640517" lon="14.1883433"><ele>415.0</ele><time>2026-04-17T14:58:13.541Z</time></trkpt><trkpt lat="40.863975" lon="14.1883183"><ele>415.0</ele><time>2026-04-17T14:58:15.542Z</time></trkpt><trkpt lat="40.8639033" lon="14.1882833"><ele>415.0</ele><time>2026-04-17T14:58:17.541Z</time></trkpt><trkpt lat="40.8638317" lon="14.1882567"><ele>415.00000000000006</ele><time>2026-04-17T14:58:19.541Z</time></trkpt><trkpt lat="40.8637583" lon="14.188255"><ele>415.0</ele><time>2026-04-17T14:58:21.538Z</time></trkpt><trkpt lat="40.8636833" lon="14.1882683"><ele>415.0</ele><time>2026-04-17T14:58:23.542Z</time></trkpt><trkpt lat="40.86361" lon="14.1882867"><ele>415.0</ele><time>2026-04-17T14:58:25.542Z</time></trkpt><trkpt lat="40.8635417" lon="14.1883283"><ele>415.0</ele><time>2026-04-17T14:58:27.542Z</time></trkpt><trkpt lat="40.8634817" lon="14.1883883"><ele>415.0</ele><time>2026-04-17T14:58:29.541Z</time></trkpt><trkpt lat="40.8634233" lon="14.18844"><ele>415.0</ele><time>2026-04-17T14:58:31.542Z</time></trkpt><trkpt lat="40.8633633" lon="14.1885"><ele>415.0</ele><time>2026-04-17T14:58:33.539Z</time></trkpt><trkpt lat="40.8633" lon="14.1885567"><ele>415.0</ele><time>2026-04-17T14:58:35.541Z</time></trkpt><trkpt lat="40.863235" lon="14.18861"><ele>414.83333333333337</ele><time>2026-04-17T14:58:37.543Z</time></trkpt><trkpt lat="40.8631667" lon="14.1886533"><ele>414.6666666666667</ele><time>2026-04-17T14:58:39.54Z</time></trkpt><trkpt lat="40.863105" lon="14.1887"><ele>414.5</ele><time>2026-04-17T14:58:41.542Z</time></trkpt><trkpt lat="40.863045" lon="14.1887867"><ele>414.33333333333337</ele><time>2026-04-17T14:58:44.542Z</time></trkpt><trkpt lat="40.86301" lon="14.1888767"><ele>414.1666666666667</ele><time>2026-04-17T14:58:47.54Z</time></trkpt><trkpt lat="40.8629867" lon="14.188955"><ele>414.0</ele><time>2026-04-17T14:58:50.539Z</time></trkpt><trkpt lat="40.8629683" lon="14.18905"><ele>414.8571428571429</ele><time>2026-04-17T14:58:54.541Z</time></trkpt><trkpt lat="40.8629533" lon="14.1891417"><ele>415.7142857142857</ele><time>2026-04-17T14:58:58.541Z</time></trkpt><trkpt lat="40.8629033" lon="14.1891983"><ele>416.57142857142856</ele><time>2026-04-17T14:59:01.54Z</time></trkpt><trkpt lat="40.8628483" lon="14.1892467"><ele>417.42857142857144</ele><time>2026-04-17T14:59:04.54Z</time></trkpt><trkpt lat="40.8627833" lon="14.189285"><ele>418.2857142857143</ele><time>2026-04-17T14:59:07.543Z</time></trkpt><trkpt lat="40.8627217" lon="14.1893083"><ele>419.14285714285717</ele><time>2026-04-17T14:59:10.543Z</time></trkpt><trkpt lat="40.86265" lon="14.189325"><ele>420.0</ele><time>2026-04-17T14:59:13.541Z</time></trkpt><trkpt lat="40.8625717" lon="14.189335"><ele>420.0</ele><time>2026-04-17T14:59:16.541Z</time></trkpt><trkpt lat="40.8624983" lon="14.189365"><ele>420.0</ele><time>2026-04-17T14:59:20.539Z</time></trkpt><trkpt lat="40.8624283" lon="14.1893933"><ele>420.0</ele><time>2026-04-17T14:59:24.54Z</time></trkpt><trkpt lat="40.86237" lon="14.18943"><ele>420.0</ele><time>2026-04-17T14:59:27.54Z</time></trkpt><trkpt lat="40.8623233" lon="14.1894917"><ele>420.0</ele><time>2026-04-17T14:59:30.541Z</time></trkpt><trkpt lat="40.862275" lon="14.1895533"><ele>420.0</ele><time>2026-04-17T14:59:33.539Z</time></trkpt><trkpt lat="40.8622167" lon="14.189595"><ele>420.0</ele><time>2026-04-17T14:59:36.541Z</time></trkpt><trkpt lat="40.8621417" lon="14.1895917"><ele>420.0</ele><time>2026-04-17T14:59:40.54Z</time></trkpt><trkpt lat="40.8620717" lon="14.1896017"><ele>420.0</ele><time>2026-04-17T14:59:44.541Z</time></trkpt><trkpt lat="40.8620067" lon="14.1895883"><ele>420.0</ele><time>2026-04-17T14:59:47.54Z</time></trkpt><trkpt lat="40.86193" lon="14.1895817"><ele>420.0</ele><time>2026-04-17T14:59:51.539Z</time></trkpt><trkpt lat="40.861865" lon="14.1895817"><ele>420.0</ele><time>2026-04-17T14:59:55.539Z</time></trkpt><trkpt lat="40.8617917" lon="14.1896017"><ele>420.0</ele><time>2026-04-17T14:59:59.54Z</time></trkpt><trkpt lat="40.86172" lon="14.1896383"><ele>420.0</ele><time>2026-04-17T15:00:03.54Z</time></trkpt><trkpt lat="40.861665" lon="14.1896917"><ele>420.0</ele><time>2026-04-17T15:00:06.537Z</time></trkpt><trkpt lat="40.86161" lon="14.1897433"><ele>420.0</ele><time>2026-04-17T15:00:09.538Z</time></trkpt><trkpt lat="40.8615517" lon="14.18981"><ele>420.0</ele><time>2026-04-17T15:00:12.539Z</time></trkpt><trkpt lat="40.8614917" lon="14.1898683"><ele>420.0</ele><time>2026-04-17T15:00:15.541Z</time></trkpt><trkpt lat="40.8614333" lon="14.1899067"><ele>420.0</ele><time>2026-04-17T15:00:18.539Z</time></trkpt><trkpt lat="40.8613767" lon="14.189945"><ele>420.0</ele><time>2026-04-17T15:00:21.539Z</time></trkpt><trkpt lat="40.86131" lon="14.18996"><ele>420.0</ele><time>2026-04-17T15:00:24.541Z</time></trkpt><trkpt lat="40.8612467" lon="14.1899833"><ele>421.2857142857143</ele><time>2026-04-17T15:00:27.54Z</time></trkpt><trkpt lat="40.861175" lon="14.1900233"><ele>422.57142857142856</ele><time>2026-04-17T15:00:31.541Z</time></trkpt><trkpt lat="40.86111" lon="14.19009"><ele>423.8571428571429</ele><time>2026-04-17T15:00:35.539Z</time></trkpt><trkpt lat="40.8610833" lon="14.1901817"><ele>425.1428571428571</ele><time>2026-04-17T15:00:39.539Z</time></trkpt><trkpt lat="40.861055" lon="14.1902617"><ele>426.42857142857144</ele><time>2026-04-17T15:00:43.542Z</time></trkpt><trkpt lat="40.861015" lon="14.1903283"><ele>427.7142857142857</ele><time>2026-04-17T15:00:47.539Z</time></trkpt><trkpt lat="40.860975" lon="14.19041"><ele>429.0</ele><time>2026-04-17T15:00:51.54Z</time></trkpt><trkpt lat="40.8609217" lon="14.1904583"><ele>429.0</ele><time>2026-04-17T15:00:54.539Z</time></trkpt><trkpt lat="40.8608633" lon="14.1905117"><ele>429.0</ele><time>2026-04-17T15:00:57.539Z</time></trkpt><trkpt lat="40.8608" lon="14.1905633"><ele>429.0</ele><time>2026-04-17T15:01:00.539Z</time></trkpt><trkpt lat="40.860725" lon="14.1906017"><ele>429.0</ele><time>2026-04-17T15:01:03.539Z</time></trkpt><trkpt lat="40.8606417" lon="14.1906367"><ele>429.0</ele><time>2026-04-17T15:01:06.54Z</time></trkpt><trkpt lat="40.86058" lon="14.1906733"><ele>429.0</ele><time>2026-04-17T15:01:08.539Z</time></trkpt><trkpt lat="40.8605117" lon="14.1907133"><ele>430.2857142857143</ele><time>2026-04-17T15:01:10.542Z</time></trkpt><trkpt lat="40.8604483" lon="14.1907717"><ele>431.57142857142856</ele><time>2026-04-17T15:01:12.541Z</time></trkpt><trkpt lat="40.86039" lon="14.1908367"><ele>432.8571428571429</ele><time>2026-04-17T15:01:14.542Z</time></trkpt><trkpt lat="40.8603333" lon="14.1908933"><ele>434.1428571428571</ele><time>2026-04-17T15:01:16.539Z</time></trkpt><trkpt lat="40.8602783" lon="14.1909517"><ele>435.4285714285714</ele><time>2026-04-17T15:01:18.54Z</time></trkpt><trkpt lat="40.860225" lon="14.191015"><ele>436.7142857142857</ele><time>2026-04-17T15:01:20.541Z</time></trkpt><trkpt lat="40.8601617" lon="14.1910617"><ele>438.0</ele><time>2026-04-17T15:01:22.54Z</time></trkpt><trkpt lat="40.8601033" lon="14.1910967"><ele>438.0</ele><time>2026-04-17T15:01:24.54Z</time></trkpt><trkpt lat="40.860045" lon="14.19113"><ele>438.0</ele><time>2026-04-17T15:01:26.539Z</time></trkpt><trkpt lat="40.8599683" lon="14.1911667"><ele>438.0</ele><time>2026-04-17T15:01:29.54Z</time></trkpt><trkpt lat="40.859895" lon="14.191185"><ele>438.0</ele><time>2026-04-17T15:01:32.54Z</time></trkpt><trkpt lat="40.8598167" lon="14.1911817"><ele>438.0</ele><time>2026-04-17T15:01:35.539Z</time></trkpt><trkpt lat="40.8597517" lon="14.1911833"><ele>438.0</ele><time>2026-04-17T15:01:37.539Z</time></trkpt><trkpt lat="40.8596867" lon="14.1911783"><ele>438.0</ele><time>2026-04-17T15:01:39.541Z</time></trkpt><trkpt lat="40.8596033" lon="14.1911833"><ele>438.0</ele><time>2026-04-17T15:01:41.54Z</time></trkpt><trkpt lat="40.8595083" lon="14.1912383"><ele>437.99999999999994</ele><time>2026-04-17T15:01:44.54Z</time></trkpt><trkpt lat="40.8594383" lon="14.1913233"><ele>437.99999999999994</ele><time>2026-04-17T15:01:46.541Z</time></trkpt><trkpt lat="40.8593717" lon="14.1914117"><ele>438.0</ele><time>2026-04-17T15:01:48.543Z</time></trkpt><trkpt lat="40.8593067" lon="14.19149"><ele>438.0</ele><time>2026-04-17T15:01:50.541Z</time></trkpt><trkpt lat="40.8592433" lon="14.1915267"><ele>437.42857142857144</ele><time>2026-04-17T15:01:52.543Z</time></trkpt><trkpt lat="40.8591733" lon="14.1915317"><ele>436.85714285714283</ele><time>2026-04-17T15:01:55.543Z</time></trkpt><trkpt lat="40.85911" lon="14.1915367"><ele>436.2857142857143</ele><time>2026-04-17T15:01:58.538Z</time></trkpt><trkpt lat="40.859015" lon="14.1915133"><ele>435.7142857142857</ele><time>2026-04-17T15:02:01.542Z</time></trkpt><trkpt lat="40.85895" lon="14.1914917"><ele>435.1428571428571</ele><time>2026-04-17T15:02:03.541Z</time></trkpt><trkpt lat="40.8588917" lon="14.19144"><ele>434.57142857142856</ele><time>2026-04-17T15:02:05.54Z</time></trkpt><trkpt lat="40.858845" lon="14.19138"><ele>434.0</ele><time>2026-04-17T15:02:07.54Z</time></trkpt><trkpt lat="40.8587733" lon="14.1913067"><ele>433.99999999999994</ele><time>2026-04-17T15:02:10.54Z</time></trkpt><trkpt lat="40.8586983" lon="14.1913333"><ele>434.0</ele><time>2026-04-17T15:02:13.542Z</time></trkpt><trkpt lat="40.858675" lon="14.1914167"><ele>434.0</ele><time>2026-04-17T15:02:17.541Z</time></trkpt><trkpt lat="40.8586733" lon="14.1915033"><ele>434.0</ele><time>2026-04-17T15:02:21.54Z</time></trkpt><trkpt lat="40.85863" lon="14.1915683"><ele>433.99999999999994</ele><time>2026-04-17T15:02:25.541Z</time></trkpt><trkpt lat="40.8585183" lon="14.191615"><ele>434.0</ele><time>2026-04-17T15:02:38.541Z</time></trkpt><trkpt lat="40.8584383" lon="14.1916283"><ele>436.99999999999994</ele><time>2026-04-17T15:02:41.541Z</time></trkpt><trkpt lat="40.8585033" lon="14.1917283"><ele>440.0</ele><time>2026-04-17T15:02:45.539Z</time></trkpt><trkpt lat="40.85856" lon="14.191775"><ele>443.0</ele><time>2026-04-17T15:02:46.538Z</time></trkpt><trkpt lat="40.8584983" lon="14.191685"><ele>446.0</ele><time>2026-04-17T15:02:55.541Z</time></trkpt><trkpt lat="40.8583837" lon="14.1916472"><ele>448.99999999999994</ele><time>2026-04-17T15:03:16.584Z</time></trkpt><trkpt lat="40.8583302" lon="14.1916912"><ele>452.0</ele><time>2026-04-17T15:03:27.572Z</time></trkpt><trkpt lat="40.858276" lon="14.1917398"><ele>452.8</ele><time>2026-04-17T15:03:36.624Z</time></trkpt><trkpt lat="40.85812" lon="14.191765"><ele>453.6</ele><time>2026-04-17T15:03:59.54Z</time></trkpt><trkpt lat="40.8580467" lon="14.1917117"><ele>454.40000000000003</ele><time>2026-04-17T15:04:03.54Z</time></trkpt><trkpt lat="40.85798" lon="14.191665"><ele>455.20000000000005</ele><time>2026-04-17T15:04:06.54Z</time></trkpt><trkpt lat="40.857915" lon="14.1916333"><ele>456.0</ele><time>2026-04-17T15:04:09.54Z</time></trkpt><trkpt lat="40.8578483" lon="14.1916167"><ele>456.0</ele><time>2026-04-17T15:04:12.539Z</time></trkpt><trkpt lat="40.857785" lon="14.1915833"><ele>455.99999999999994</ele><time>2026-04-17T15:04:15.54Z</time></trkpt><trkpt lat="40.8577217" lon="14.1915467"><ele>456.0</ele><time>2026-04-17T15:04:18.539Z</time></trkpt><trkpt lat="40.8576583" lon="14.1915117"><ele>456.0</ele><time>2026-04-17T15:04:21.538Z</time></trkpt><trkpt lat="40.8575933" lon="14.1914867"><ele>455.99999999999994</ele><time>2026-04-17T15:04:24.54Z</time></trkpt><trkpt lat="40.85752" lon="14.1914467"><ele>456.0</ele><time>2026-04-17T15:04:27.539Z</time></trkpt><trkpt lat="40.8574467" lon="14.1914067"><ele>456.0</ele><time>2026-04-17T15:04:30.538Z</time></trkpt><trkpt lat="40.857385" lon="14.19138"><ele>454.0</ele><time>2026-04-17T15:04:33.539Z</time></trkpt><trkpt lat="40.8573183" lon="14.1913383"><ele>452.0</ele><time>2026-04-17T15:04:36.539Z</time></trkpt><trkpt lat="40.8572517" lon="14.1913083"><ele>450.0</ele><time>2026-04-17T15:04:39.541Z</time></trkpt><trkpt lat="40.8571883" lon="14.1912767"><ele>448.0</ele><time>2026-04-17T15:04:42.54Z</time></trkpt><trkpt lat="40.8571083" lon="14.1912333"><ele>446.0</ele><time>2026-04-17T15:04:45.54Z</time></trkpt><trkpt lat="40.8570183" lon="14.1911867"><ele>444.0</ele><time>2026-04-17T15:04:48.54Z</time></trkpt><trkpt lat="40.8569483" lon="14.1911533"><ele>444.0</ele><time>2026-04-17T15:04:50.538Z</time></trkpt><trkpt lat="40.856885" lon="14.1911117"><ele>444.0</ele><time>2026-04-17T15:04:52.54Z</time></trkpt><trkpt lat="40.8568183" lon="14.19109"><ele>444.0</ele><time>2026-04-17T15:04:54.54Z</time></trkpt><trkpt lat="40.856755" lon="14.19107"><ele>444.0</ele><time>2026-04-17T15:04:56.54Z</time></trkpt><trkpt lat="40.8566867" lon="14.191"><ele>444.0</ele><time>2026-04-17T15:04:59.54Z</time></trkpt><trkpt lat="40.85664" lon="14.1908983"><ele>444.0</ele><time>2026-04-17T15:05:02.539Z</time></trkpt><trkpt lat="40.8566283" lon="14.190795"><ele>444.6666666666667</ele><time>2026-04-17T15:05:05.539Z</time></trkpt><trkpt lat="40.8565883" lon="14.1907167"><ele>445.33333333333337</ele><time>2026-04-17T15:05:08.539Z</time></trkpt><trkpt lat="40.85647" lon="14.1906067"><ele>446.0</ele><time>2026-04-17T15:06:13.537Z</time></trkpt><trkpt lat="40.8565317" lon="14.1906633"><ele>446.6666666666667</ele><time>2026-04-17T15:07:15.538Z</time></trkpt><trkpt lat="40.8565683" lon="14.190735"><ele>447.33333333333337</ele><time>2026-04-17T15:07:18.538Z</time></trkpt><trkpt lat="40.8565933" lon="14.19082"><ele>448.0</ele><time>2026-04-17T15:07:21.537Z</time></trkpt><trkpt lat="40.85662" lon="14.1909283"><ele>448.00000000000006</ele><time>2026-04-17T15:07:24.538Z</time></trkpt><trkpt lat="40.8566783" lon="14.1910167"><ele>448.0</ele><time>2026-04-17T15:07:27.538Z</time></trkpt><trkpt lat="40.8567317" lon="14.1910667"><ele>448.0</ele><time>2026-04-17T15:07:29.537Z</time></trkpt><trkpt lat="40.8568083" lon="14.1911133"><ele>448.0</ele><time>2026-04-17T15:07:32.537Z</time></trkpt><trkpt lat="40.85689" lon="14.191155"><ele>448.00000000000006</ele><time>2026-04-17T15:07:35.539Z</time></trkpt><trkpt lat="40.8569767" lon="14.191185"><ele>448.0</ele><time>2026-04-17T15:07:38.539Z</time></trkpt><trkpt lat="40.8570533" lon="14.1912267"><ele>447.33333333333337</ele><time>2026-04-17T15:07:41.54Z</time></trkpt><trkpt lat="40.8571367" lon="14.19127"><ele>446.6666666666667</ele><time>2026-04-17T15:07:44.538Z</time></trkpt><trkpt lat="40.8572017" lon="14.1913117"><ele>446.0</ele><time>2026-04-17T15:07:47.54Z</time></trkpt><trkpt lat="40.857285" lon="14.1913683"><ele>445.33333333333337</ele><time>2026-04-17T15:07:50.54Z</time></trkpt><trkpt lat="40.8573567" lon="14.191435"><ele>444.6666666666667</ele><time>2026-04-17T15:07:53.538Z</time></trkpt><trkpt lat="40.8574283" lon="14.1914767"><ele>444.0</ele><time>2026-04-17T15:07:56.54Z</time></trkpt><trkpt lat="40.8574983" lon="14.1915"><ele>446.0</ele><time>2026-04-17T15:07:58.539Z</time></trkpt><trkpt lat="40.85757" lon="14.1915117"><ele>448.0</ele><time>2026-04-17T15:08:00.538Z</time></trkpt><trkpt lat="40.8576667" lon="14.1915333"><ele>450.0</ele><time>2026-04-17T15:08:03.538Z</time></trkpt><trkpt lat="40.857735" lon="14.1915567"><ele>452.0</ele><time>2026-04-17T15:08:05.538Z</time></trkpt><trkpt lat="40.857805" lon="14.1915867"><ele>454.0</ele><time>2026-04-17T15:08:07.539Z</time></trkpt><trkpt lat="40.85787" lon="14.1916283"><ele>456.0</ele><time>2026-04-17T15:08:09.539Z</time></trkpt><trkpt lat="40.8579433" lon="14.1916717"><ele>456.0</ele><time>2026-04-17T15:08:11.54Z</time></trkpt><trkpt lat="40.8580033" lon="14.1917167"><ele>455.99999999999994</ele><time>2026-04-17T15:08:13.539Z</time></trkpt><trkpt lat="40.8580733" lon="14.191755"><ele>456.0</ele><time>2026-04-17T15:08:15.537Z</time></trkpt><trkpt lat="40.85815" lon="14.191805"><ele>456.0</ele><time>2026-04-17T15:08:18.539Z</time></trkpt><trkpt lat="40.8582133" lon="14.1918117"><ele>455.99999999999994</ele><time>2026-04-17T15:08:30.541Z</time></trkpt><trkpt lat="40.8582786" lon="14.1918684"><ele>456.0</ele><time>2026-04-17T15:09:17.586Z</time></trkpt><trkpt lat="40.8583327" lon="14.1919113"><ele>456.0</ele><time>2026-04-17T15:09:22.622Z</time></trkpt><trkpt lat="40.8582989" lon="14.1918387"><ele>456.0</ele><time>2026-04-17T15:10:21.661Z</time></trkpt><trkpt lat="40.8583845" lon="14.1917605"><ele>456.0</ele><time>2026-04-17T15:16:46.541Z</time></trkpt><trkpt lat="40.8584409" lon="14.1917036"><ele>456.0</ele><time>2026-04-17T15:16:53.655Z</time></trkpt><trkpt lat="40.8584907" lon="14.1916305"><ele>456.0</ele><time>2026-04-17T15:16:59.628Z</time></trkpt><trkpt lat="40.858489" lon="14.1915303"><ele>456.0</ele><time>2026-04-17T15:17:08.654Z</time></trkpt><trkpt lat="40.8585076" lon="14.1914404"><ele>456.0</ele><time>2026-04-17T15:17:18.62Z</time></trkpt><trkpt lat="40.8585047" lon="14.1913388"><ele>455.0</ele><time>2026-04-17T15:17:27.581Z</time></trkpt><trkpt lat="40.8586265" lon="14.1914603"><ele>454.0</ele><time>2026-04-17T15:17:29.599Z</time></trkpt><trkpt lat="40.8587343" lon="14.1915958"><ele>453.0</ele><time>2026-04-17T15:17:30.601Z</time></trkpt><trkpt lat="40.8587697" lon="14.1915136"><ele>452.0</ele><time>2026-04-17T15:17:43.598Z</time></trkpt><trkpt lat="40.8588173" lon="14.1913975"><ele>451.99999999999994</ele><time>2026-04-17T15:20:44.632Z</time></trkpt><trkpt lat="40.8588823" lon="14.1914103"><ele>452.0</ele><time>2026-04-17T15:20:46.647Z</time></trkpt><trkpt lat="40.8589447" lon="14.1914327"><ele>452.0</ele><time>2026-04-17T15:20:48.665Z</time></trkpt><trkpt lat="40.8590085" lon="14.1914779"><ele>452.0</ele><time>2026-04-17T15:20:51.583Z</time></trkpt><trkpt lat="40.8590701" lon="14.1915574"><ele>451.99999999999994</ele><time>2026-04-17T15:20:54.607Z</time></trkpt><trkpt lat="40.8591555" lon="14.1915643"><ele>452.0</ele><time>2026-04-17T15:20:57.63Z</time></trkpt><trkpt lat="40.8592204" lon="14.1916316"><ele>451.99999999999994</ele><time>2026-04-17T15:21:00.653Z</time></trkpt><trkpt lat="40.8592859" lon="14.1916202"><ele>452.0</ele><time>2026-04-17T15:21:02.567Z</time></trkpt><trkpt lat="40.859352" lon="14.1916151"><ele>452.0</ele><time>2026-04-17T15:21:04.582Z</time></trkpt><trkpt lat="40.8594407" lon="14.1916679"><ele>452.0</ele><time>2026-04-17T15:21:07.608Z</time></trkpt><trkpt lat="40.8595267" lon="14.1916133"><ele>451.99999999999994</ele><time>2026-04-17T15:21:09.541Z</time></trkpt><trkpt lat="40.8596217" lon="14.1915717"><ele>452.0</ele><time>2026-04-17T15:21:11.538Z</time></trkpt><trkpt lat="40.8597233" lon="14.1915317"><ele>450.8</ele><time>2026-04-17T15:21:13.538Z</time></trkpt><trkpt lat="40.8598217" lon="14.1914983"><ele>449.6</ele><time>2026-04-17T15:21:15.537Z</time></trkpt><trkpt lat="40.85992" lon="14.1914633"><ele>448.40000000000003</ele><time>2026-04-17T15:21:17.538Z</time></trkpt><trkpt lat="40.86001" lon="14.191445"><ele>447.20000000000005</ele><time>2026-04-17T15:21:19.539Z</time></trkpt><trkpt lat="40.8600967" lon="14.1914333"><ele>446.0</ele><time>2026-04-17T15:21:21.539Z</time></trkpt><trkpt lat="40.8601783" lon="14.1914217"><ele>446.0</ele><time>2026-04-17T15:21:23.539Z</time></trkpt><trkpt lat="40.8602717" lon="14.1914233"><ele>446.0</ele><time>2026-04-17T15:21:25.537Z</time></trkpt><trkpt lat="40.8603633" lon="14.1914467"><ele>446.0</ele><time>2026-04-17T15:21:27.54Z</time></trkpt><trkpt lat="40.8604617" lon="14.1914767"><ele>446.0</ele><time>2026-04-17T15:21:29.538Z</time></trkpt><trkpt lat="40.860565" lon="14.191515"><ele>446.0</ele><time>2026-04-17T15:21:31.538Z</time></trkpt><trkpt lat="40.8606717" lon="14.1915633"><ele>445.99999999999994</ele><time>2026-04-17T15:21:33.537Z</time></trkpt><trkpt lat="40.86079" lon="14.1915917"><ele>446.0</ele><time>2026-04-17T15:21:35.541Z</time></trkpt><trkpt lat="40.8608533" lon="14.1916083"><ele>446.0</ele><time>2026-04-17T15:21:36.538Z</time></trkpt><trkpt lat="40.8609183" lon="14.1916267"><ele>446.0</ele><time>2026-04-17T15:21:37.538Z</time></trkpt><trkpt lat="40.8609883" lon="14.1916433"><ele>445.99999999999994</ele><time>2026-04-17T15:21:38.538Z</time></trkpt><trkpt lat="40.8610633" lon="14.1916483"><ele>446.0</ele><time>2026-04-17T15:21:39.537Z</time></trkpt><trkpt lat="40.8611383" lon="14.1916483"><ele>445.99999999999994</ele><time>2026-04-17T15:21:40.537Z</time></trkpt><trkpt lat="40.8612117" lon="14.1916433"><ele>446.0</ele><time>2026-04-17T15:21:41.538Z</time></trkpt><trkpt lat="40.8612917" lon="14.1916317"><ele>446.0</ele><time>2026-04-17T15:21:42.538Z</time></trkpt><trkpt lat="40.861375" lon="14.1916167"><ele>446.0</ele><time>2026-04-17T15:21:43.541Z</time></trkpt><trkpt lat="40.8614617" lon="14.1916183"><ele>445.99999999999994</ele><time>2026-04-17T15:21:44.539Z</time></trkpt><trkpt lat="40.8615517" lon="14.1916367"><ele>446.0</ele><time>2026-04-17T15:21:45.536Z</time></trkpt><trkpt lat="40.8616417" lon="14.1916517"><ele>445.99999999999994</ele><time>2026-04-17T15:21:46.536Z</time></trkpt><trkpt lat="40.8617283" lon="14.1916467"><ele>446.0</ele><time>2026-04-17T15:21:47.538Z</time></trkpt><trkpt lat="40.8618083" lon="14.1916133"><ele>446.0</ele><time>2026-04-17T15:21:48.538Z</time></trkpt><trkpt lat="40.8618667" lon="14.1915383"><ele>446.0</ele><time>2026-04-17T15:21:49.537Z</time></trkpt><trkpt lat="40.86191" lon="14.1914417"><ele>445.99999999999994</ele><time>2026-04-17T15:21:50.538Z</time></trkpt><trkpt lat="40.8619383" lon="14.1913333"><ele>446.0</ele><time>2026-04-17T15:21:51.536Z</time></trkpt><trkpt lat="40.8619733" lon="14.191225"><ele>444.6</ele><time>2026-04-17T15:21:52.537Z</time></trkpt><trkpt lat="40.8620283" lon="14.1911233"><ele>443.20000000000005</ele><time>2026-04-17T15:21:53.537Z</time></trkpt><trkpt lat="40.8621033" lon="14.191055"><ele>441.79999999999995</ele><time>2026-04-17T15:21:54.538Z</time></trkpt><trkpt lat="40.86219" lon="14.1910183"><ele>440.4</ele><time>2026-04-17T15:21:55.538Z</time></trkpt><trkpt lat="40.8622817" lon="14.1910067"><ele>439.0</ele><time>2026-04-17T15:21:56.537Z</time></trkpt><trkpt lat="40.8623717" lon="14.1910083"><ele>439.0</ele><time>2026-04-17T15:21:57.537Z</time></trkpt><trkpt lat="40.86246" lon="14.1910367"><ele>439.0</ele><time>2026-04-17T15:21:58.537Z</time></trkpt><trkpt lat="40.8625433" lon="14.1910833"><ele>439.0</ele><time>2026-04-17T15:21:59.537Z</time></trkpt><trkpt lat="40.86262" lon="14.1911467"><ele>439.0</ele><time>2026-04-17T15:22:00.538Z</time></trkpt><trkpt lat="40.8626983" lon="14.1912217"><ele>439.0</ele><time>2026-04-17T15:22:01.539Z</time></trkpt><trkpt lat="40.862775" lon="14.1912817"><ele>438.1666666666667</ele><time>2026-04-17T15:22:02.537Z</time></trkpt><trkpt lat="40.8628483" lon="14.1913383"><ele>437.33333333333337</ele><time>2026-04-17T15:22:03.537Z</time></trkpt><trkpt lat="40.862925" lon="14.1913667"><ele>436.5</ele><time>2026-04-17T15:22:04.541Z</time></trkpt><trkpt lat="40.8630033" lon="14.1913583"><ele>435.66666666666663</ele><time>2026-04-17T15:22:05.538Z</time></trkpt><trkpt lat="40.863075" lon="14.1913117"><ele>434.8333333333333</ele><time>2026-04-17T15:22:06.538Z</time></trkpt><trkpt lat="40.863125" lon="14.1912217"><ele>434.0</ele><time>2026-04-17T15:22:07.538Z</time></trkpt><trkpt lat="40.8631633" lon="14.1911117"><ele>433.99999999999994</ele><time>2026-04-17T15:22:08.537Z</time></trkpt><trkpt lat="40.8631983" lon="14.1909967"><ele>434.0</ele><time>2026-04-17T15:22:09.536Z</time></trkpt><trkpt lat="40.8632433" lon="14.190905"><ele>434.0</ele><time>2026-04-17T15:22:10.536Z</time></trkpt><trkpt lat="40.8632867" lon="14.190815"><ele>434.0</ele><time>2026-04-17T15:22:11.538Z</time></trkpt><trkpt lat="40.8633567" lon="14.1907583"><ele>433.99999999999994</ele><time>2026-04-17T15:22:12.537Z</time></trkpt><trkpt lat="40.8634333" lon="14.190715"><ele>434.0</ele><time>2026-04-17T15:22:13.537Z</time></trkpt><trkpt lat="40.863525" lon="14.1907"><ele>433.16666666666663</ele><time>2026-04-17T15:22:14.538Z</time></trkpt><trkpt lat="40.8636083" lon="14.19068"><ele>432.3333333333333</ele><time>2026-04-17T15:22:15.539Z</time></trkpt><trkpt lat="40.8637" lon="14.1906583"><ele>431.5</ele><time>2026-04-17T15:22:16.537Z</time></trkpt><trkpt lat="40.8637867" lon="14.1906333"><ele>430.66666666666663</ele><time>2026-04-17T15:22:17.538Z</time></trkpt><trkpt lat="40.8638717" lon="14.1906"><ele>429.8333333333333</ele><time>2026-04-17T15:22:18.54Z</time></trkpt><trkpt lat="40.86396" lon="14.190565"><ele>429.0</ele><time>2026-04-17T15:22:19.538Z</time></trkpt><trkpt lat="40.8640433" lon="14.1905217"><ele>429.0</ele><time>2026-04-17T15:22:20.537Z</time></trkpt><trkpt lat="40.86411" lon="14.1904783"><ele>429.0</ele><time>2026-04-17T15:22:21.537Z</time></trkpt><trkpt lat="40.8642083" lon="14.1904533"><ele>429.0</ele><time>2026-04-17T15:22:23.537Z</time></trkpt><trkpt lat="40.864245" lon="14.1905217"><ele>429.0</ele><time>2026-04-17T15:22:25.539Z</time></trkpt><trkpt lat="40.8642833" lon="14.1906183"><ele>429.0</ele><time>2026-04-17T15:22:27.536Z</time></trkpt><trkpt lat="40.86437" lon="14.1906917"><ele>429.0</ele><time>2026-04-17T15:22:29.541Z</time></trkpt><trkpt lat="40.864405" lon="14.19078"><ele>428.3333333333333</ele><time>2026-04-17T15:22:31.537Z</time></trkpt><trkpt lat="40.8643633" lon="14.1908767"><ele>427.66666666666663</ele><time>2026-04-17T15:22:33.537Z</time></trkpt><trkpt lat="40.8642733" lon="14.19097"><ele>427.0</ele><time>2026-04-17T15:22:35.536Z</time></trkpt><trkpt lat="40.864225" lon="14.191025"><ele>426.3333333333333</ele><time>2026-04-17T15:22:36.539Z</time></trkpt><trkpt lat="40.8641767" lon="14.1910817"><ele>425.66666666666663</ele><time>2026-04-17T15:22:37.538Z</time></trkpt><trkpt lat="40.8641267" lon="14.19114"><ele>425.0</ele><time>2026-04-17T15:22:38.537Z</time></trkpt><trkpt lat="40.864075" lon="14.191195"><ele>425.0</ele><time>2026-04-17T15:22:39.536Z</time></trkpt><trkpt lat="40.864025" lon="14.19125"><ele>425.0</ele><time>2026-04-17T15:22:40.539Z</time></trkpt><trkpt lat="40.8639733" lon="14.1913167"><ele>425.0</ele><time>2026-04-17T15:22:41.536Z</time></trkpt><trkpt lat="40.8639233" lon="14.1913817"><ele>425.0</ele><time>2026-04-17T15:22:42.538Z</time></trkpt><trkpt lat="40.8638767" lon="14.1914417"><ele>425.0</ele><time>2026-04-17T15:22:43.538Z</time></trkpt><trkpt lat="40.86383" lon="14.1915017"><ele>425.0</ele><time>2026-04-17T15:22:44.539Z</time></trkpt><trkpt lat="40.863785" lon="14.1915617"><ele>425.0</ele><time>2026-04-17T15:22:45.536Z</time></trkpt><trkpt lat="40.8637067" lon="14.191695"><ele>424.2857142857143</ele><time>2026-04-17T15:22:47.538Z</time></trkpt><trkpt lat="40.86367" lon="14.1917667"><ele>423.57142857142856</ele><time>2026-04-17T15:22:48.539Z</time></trkpt><trkpt lat="40.8636383" lon="14.1918433"><ele>422.8571428571429</ele><time>2026-04-17T15:22:49.538Z</time></trkpt><trkpt lat="40.86361" lon="14.1919267"><ele>422.1428571428571</ele><time>2026-04-17T15:22:50.539Z</time></trkpt><trkpt lat="40.8635833" lon="14.19201"><ele>421.42857142857144</ele><time>2026-04-17T15:22:51.54Z</time></trkpt><trkpt lat="40.8635633" lon="14.1921067"><ele>420.7142857142857</ele><time>2026-04-17T15:22:52.537Z</time></trkpt><trkpt lat="40.8635517" lon="14.1922133"><ele>420.0</ele><time>2026-04-17T15:22:53.538Z</time></trkpt><trkpt lat="40.8635433" lon="14.1923283"><ele>419.4</ele><time>2026-04-17T15:22:54.541Z</time></trkpt><trkpt lat="40.863545" lon="14.192445"><ele>418.8</ele><time>2026-04-17T15:22:55.539Z</time></trkpt><trkpt lat="40.86357" lon="14.192565"><ele>418.20000000000005</ele><time>2026-04-17T15:22:56.538Z</time></trkpt><trkpt lat="40.8636183" lon="14.1926867"><ele>417.6</ele><time>2026-04-17T15:22:57.538Z</time></trkpt><trkpt lat="40.8636883" lon="14.1928017"><ele>417.0</ele><time>2026-04-17T15:22:58.537Z</time></trkpt><trkpt lat="40.86377" lon="14.1929183"><ele>417.0</ele><time>2026-04-17T15:22:59.539Z</time></trkpt><trkpt lat="40.863845" lon="14.1930417"><ele>417.0</ele><time>2026-04-17T15:23:00.541Z</time></trkpt><trkpt lat="40.863915" lon="14.193175"><ele>417.0</ele><time>2026-04-17T15:23:01.538Z</time></trkpt><trkpt lat="40.863965" lon="14.1933167"><ele>417.0</ele><time>2026-04-17T15:23:02.54Z</time></trkpt><trkpt lat="40.8639967" lon="14.1934733"><ele>416.25</ele><time>2026-04-17T15:23:03.538Z</time></trkpt><trkpt lat="40.8640117" lon="14.19364"><ele>415.5</ele><time>2026-04-17T15:23:04.537Z</time></trkpt><trkpt lat="40.86402" lon="14.1938133"><ele>414.75</ele><time>2026-04-17T15:23:05.538Z</time></trkpt><trkpt lat="40.8640283" lon="14.1939867"><ele>414.0</ele><time>2026-04-17T15:23:06.539Z</time></trkpt><trkpt lat="40.86404" lon="14.1941567"><ele>413.0</ele><time>2026-04-17T15:23:07.538Z</time></trkpt><trkpt lat="40.864065" lon="14.1943267"><ele>412.0</ele><time>2026-04-17T15:23:08.539Z</time></trkpt><trkpt lat="40.864095" lon="14.194495"><ele>411.0</ele><time>2026-04-17T15:23:09.539Z</time></trkpt><trkpt lat="40.8641283" lon="14.194665"><ele>410.0</ele><time>2026-04-17T15:23:10.538Z</time></trkpt><trkpt lat="40.8641567" lon="14.1948383"><ele>409.0</ele><time>2026-04-17T15:23:11.538Z</time></trkpt><trkpt lat="40.8641867" lon="14.19501"><ele>408.0</ele><time>2026-04-17T15:23:12.539Z</time></trkpt><trkpt lat="40.8642083" lon="14.1951833"><ele>407.0</ele><time>2026-04-17T15:23:13.538Z</time></trkpt><trkpt lat="40.8642167" lon="14.1953567"><ele>406.0</ele><time>2026-04-17T15:23:14.541Z</time></trkpt><trkpt lat="40.8642033" lon="14.195535"><ele>404.25</ele><time>2026-04-17T15:23:15.539Z</time></trkpt><trkpt lat="40.8641833" lon="14.1957133"><ele>402.5</ele><time>2026-04-17T15:23:16.537Z</time></trkpt><trkpt lat="40.8641633" lon="14.19589"><ele>400.75</ele><time>2026-04-17T15:23:17.541Z</time></trkpt><trkpt lat="40.86415" lon="14.1960667"><ele>399.0</ele><time>2026-04-17T15:23:18.538Z</time></trkpt><trkpt lat="40.8641483" lon="14.1962467"><ele>399.0</ele><time>2026-04-17T15:23:19.539Z</time></trkpt><trkpt lat="40.864155" lon="14.1964233"><ele>399.0</ele><time>2026-04-17T15:23:20.538Z</time></trkpt><trkpt lat="40.864165" lon="14.196595"><ele>399.0</ele><time>2026-04-17T15:23:21.54Z</time></trkpt><trkpt lat="40.8641667" lon="14.1967583"><ele>399.0</ele><time>2026-04-17T15:23:22.539Z</time></trkpt><trkpt lat="40.8641583" lon="14.19692"><ele>397.25</ele><time>2026-04-17T15:23:23.538Z</time></trkpt><trkpt lat="40.8641367" lon="14.1970817"><ele>395.5</ele><time>2026-04-17T15:23:24.539Z</time></trkpt><trkpt lat="40.864105" lon="14.19724"><ele>393.75</ele><time>2026-04-17T15:23:25.539Z</time></trkpt><trkpt lat="40.864075" lon="14.1974"><ele>392.0</ele><time>2026-04-17T15:23:26.538Z</time></trkpt><trkpt lat="40.864045" lon="14.1975533"><ele>391.0</ele><time>2026-04-17T15:23:27.538Z</time></trkpt><trkpt lat="40.8640133" lon="14.1977067"><ele>390.0</ele><time>2026-04-17T15:23:28.538Z</time></trkpt><trkpt lat="40.863985" lon="14.19786"><ele>389.0</ele><time>2026-04-17T15:23:29.539Z</time></trkpt><trkpt lat="40.86396" lon="14.19801"><ele>388.0</ele><time>2026-04-17T15:23:30.539Z</time></trkpt><trkpt lat="40.8639317" lon="14.1981583"><ele>387.5</ele><time>2026-04-17T15:23:31.538Z</time></trkpt><trkpt lat="40.8639067" lon="14.1983067"><ele>387.0</ele><time>2026-04-17T15:23:32.539Z</time></trkpt><trkpt lat="40.863875" lon="14.19845"><ele>386.5</ele><time>2026-04-17T15:23:33.539Z</time></trkpt><trkpt lat="40.8638283" lon="14.198595"><ele>386.0</ele><time>2026-04-17T15:23:34.538Z</time></trkpt><trkpt lat="40.863775" lon="14.19873"><ele>386.0</ele><time>2026-04-17T15:23:35.539Z</time></trkpt><trkpt lat="40.8637117" lon="14.1988617"><ele>386.0</ele><time>2026-04-17T15:23:36.54Z</time></trkpt><trkpt lat="40.863645" lon="14.19899"><ele>386.0</ele><time>2026-04-17T15:23:37.537Z</time></trkpt><trkpt lat="40.8635783" lon="14.1991233"><ele>386.0</ele><time>2026-04-17T15:23:38.538Z</time></trkpt><trkpt lat="40.8635117" lon="14.199255"><ele>385.0</ele><time>2026-04-17T15:23:39.54Z</time></trkpt><trkpt lat="40.863445" lon="14.1993883"><ele>384.0</ele><time>2026-04-17T15:23:40.539Z</time></trkpt><trkpt lat="40.8633783" lon="14.199525"><ele>383.0</ele><time>2026-04-17T15:23:41.538Z</time></trkpt><trkpt lat="40.8633133" lon="14.19966"><ele>382.0</ele><time>2026-04-17T15:23:42.541Z</time></trkpt><trkpt lat="40.86325" lon="14.1997933"><ele>380.75</ele><time>2026-04-17T15:23:43.539Z</time></trkpt><trkpt lat="40.86319" lon="14.1999317"><ele>379.5</ele><time>2026-04-17T15:23:44.54Z</time></trkpt><trkpt lat="40.8631233" lon="14.200065"><ele>378.25</ele><time>2026-04-17T15:23:45.541Z</time></trkpt><trkpt lat="40.863055" lon="14.2001983"><ele>377.0</ele><time>2026-04-17T15:23:46.539Z</time></trkpt><trkpt lat="40.862995" lon="14.2003383"><ele>377.0</ele><time>2026-04-17T15:23:47.54Z</time></trkpt><trkpt lat="40.8629417" lon="14.2004867"><ele>377.0</ele><time>2026-04-17T15:23:48.54Z</time></trkpt><trkpt lat="40.8629017" lon="14.2006433"><ele>377.0</ele><time>2026-04-17T15:23:49.538Z</time></trkpt><trkpt lat="40.8628717" lon="14.200805"><ele>377.0</ele><time>2026-04-17T15:23:50.538Z</time></trkpt><trkpt lat="40.8628567" lon="14.2009683"><ele>375.5</ele><time>2026-04-17T15:23:51.538Z</time></trkpt><trkpt lat="40.8628483" lon="14.2011333"><ele>374.0</ele><time>2026-04-17T15:23:52.539Z</time></trkpt><trkpt lat="40.86284" lon="14.2012967"><ele>372.5</ele><time>2026-04-17T15:23:53.54Z</time></trkpt><trkpt lat="40.862835" lon="14.201465"><ele>371.0</ele><time>2026-04-17T15:23:54.54Z</time></trkpt><trkpt lat="40.8628367" lon="14.201635"><ele>370.5</ele><time>2026-04-17T15:23:55.541Z</time></trkpt><trkpt lat="40.8628483" lon="14.2018"><ele>370.0</ele><time>2026-04-17T15:23:56.538Z</time></trkpt><trkpt lat="40.8628767" lon="14.20196"><ele>369.5</ele><time>2026-04-17T15:23:57.539Z</time></trkpt><trkpt lat="40.8629267" lon="14.202115"><ele>369.0</ele><time>2026-04-17T15:23:58.539Z</time></trkpt><trkpt lat="40.8629883" lon="14.202265"><ele>368.25</ele><time>2026-04-17T15:23:59.539Z</time></trkpt><trkpt lat="40.8630533" lon="14.2024183"><ele>367.5</ele><time>2026-04-17T15:24:00.539Z</time></trkpt><trkpt lat="40.8631133" lon="14.2025683"><ele>366.75</ele><time>2026-04-17T15:24:01.539Z</time></trkpt><trkpt lat="40.8631667" lon="14.2027233"><ele>366.0</ele><time>2026-04-17T15:24:02.537Z</time></trkpt><trkpt lat="40.8632067" lon="14.2028833"><ele>366.0</ele><time>2026-04-17T15:24:03.538Z</time></trkpt><trkpt lat="40.8632383" lon="14.203045"><ele>366.0</ele><time>2026-04-17T15:24:04.538Z</time></trkpt><trkpt lat="40.8632617" lon="14.20321"><ele>366.0</ele><time>2026-04-17T15:24:05.538Z</time></trkpt><trkpt lat="40.8632733" lon="14.2033717"><ele>366.0</ele><time>2026-04-17T15:24:06.539Z</time></trkpt><trkpt lat="40.8632617" lon="14.203525"><ele>365.25</ele><time>2026-04-17T15:24:07.539Z</time></trkpt><trkpt lat="40.8632333" lon="14.203675"><ele>364.5</ele><time>2026-04-17T15:24:08.538Z</time></trkpt><trkpt lat="40.8631867" lon="14.20382"><ele>363.75</ele><time>2026-04-17T15:24:09.538Z</time></trkpt><trkpt lat="40.8631333" lon="14.2039633"><ele>363.0</ele><time>2026-04-17T15:24:10.539Z</time></trkpt><trkpt lat="40.8630867" lon="14.2041067"><ele>361.5</ele><time>2026-04-17T15:24:11.539Z</time></trkpt><trkpt lat="40.8630483" lon="14.20426"><ele>360.0</ele><time>2026-04-17T15:24:12.539Z</time></trkpt><trkpt lat="40.863015" lon="14.2044167"><ele>358.5</ele><time>2026-04-17T15:24:13.54Z</time></trkpt><trkpt lat="40.8629867" lon="14.2045767"><ele>357.0</ele><time>2026-04-17T15:24:14.539Z</time></trkpt><trkpt lat="40.86297" lon="14.2047417"><ele>356.0</ele><time>2026-04-17T15:24:15.539Z</time></trkpt><trkpt lat="40.8629633" lon="14.204905"><ele>355.0</ele><time>2026-04-17T15:24:16.538Z</time></trkpt><trkpt lat="40.86296" lon="14.20507"><ele>354.0</ele><time>2026-04-17T15:24:17.538Z</time></trkpt><trkpt lat="40.86296" lon="14.2052333"><ele>353.0</ele><time>2026-04-17T15:24:18.539Z</time></trkpt><trkpt lat="40.8629633" lon="14.2054"><ele>353.0</ele><time>2026-04-17T15:24:19.54Z</time></trkpt><trkpt lat="40.8629667" lon="14.2055667"><ele>353.0</ele><time>2026-04-17T15:24:20.537Z</time></trkpt><trkpt lat="40.86297" lon="14.2057317"><ele>353.0</ele><time>2026-04-17T15:24:21.538Z</time></trkpt><trkpt lat="40.8629767" lon="14.205895"><ele>353.0</ele><time>2026-04-17T15:24:22.54Z</time></trkpt><trkpt lat="40.8629933" lon="14.20605"><ele>353.5</ele><time>2026-04-17T15:24:23.537Z</time></trkpt><trkpt lat="40.8630217" lon="14.2062"><ele>354.0</ele><time>2026-04-17T15:24:24.54Z</time></trkpt><trkpt lat="40.8630667" lon="14.206345"><ele>354.5</ele><time>2026-04-17T15:24:25.537Z</time></trkpt><trkpt lat="40.8631183" lon="14.2064917"><ele>355.0</ele><time>2026-04-17T15:24:26.538Z</time></trkpt><trkpt lat="40.8631717" lon="14.2066483"><ele>353.25</ele><time>2026-04-17T15:24:27.537Z</time></trkpt><trkpt lat="40.8632083" lon="14.2068117"><ele>351.5</ele><time>2026-04-17T15:24:28.539Z</time></trkpt><trkpt lat="40.8632333" lon="14.2069783"><ele>349.75</ele><time>2026-04-17T15:24:29.538Z</time></trkpt><trkpt lat="40.86325" lon="14.207145"><ele>348.0</ele><time>2026-04-17T15:24:30.539Z</time></trkpt><trkpt lat="40.86326" lon="14.2073183"><ele>345.75</ele><time>2026-04-17T15:24:31.539Z</time></trkpt><trkpt lat="40.8632567" lon="14.20749"><ele>343.5</ele><time>2026-04-17T15:24:32.537Z</time></trkpt><trkpt lat="40.863245" lon="14.207655"><ele>341.25</ele><time>2026-04-17T15:24:33.54Z</time></trkpt><trkpt lat="40.86323" lon="14.2078083"><ele>339.0</ele><time>2026-04-17T15:24:34.537Z</time></trkpt><trkpt lat="40.8632217" lon="14.20796"><ele>339.0</ele><time>2026-04-17T15:24:35.538Z</time></trkpt><trkpt lat="40.8632183" lon="14.20811"><ele>339.0</ele><time>2026-04-17T15:24:36.537Z</time></trkpt><trkpt lat="40.863215" lon="14.20826"><ele>339.0</ele><time>2026-04-17T15:24:37.538Z</time></trkpt><trkpt lat="40.8632067" lon="14.20841"><ele>339.0</ele><time>2026-04-17T15:24:38.538Z</time></trkpt><trkpt lat="40.8632" lon="14.2085633"><ele>338.0</ele><time>2026-04-17T15:24:39.539Z</time></trkpt><trkpt lat="40.8631983" lon="14.208715"><ele>337.0</ele><time>2026-04-17T15:24:40.538Z</time></trkpt><trkpt lat="40.8632" lon="14.2088683"><ele>336.0</ele><time>2026-04-17T15:24:41.539Z</time></trkpt><trkpt lat="40.8631983" lon="14.2090217"><ele>335.0</ele><time>2026-04-17T15:24:42.539Z</time></trkpt><trkpt lat="40.8631967" lon="14.209175"><ele>333.8</ele><time>2026-04-17T15:24:43.537Z</time></trkpt><trkpt lat="40.8631983" lon="14.2093233"><ele>332.6</ele><time>2026-04-17T15:24:44.538Z</time></trkpt><trkpt lat="40.8631967" lon="14.2094533"><ele>331.4</ele><time>2026-04-17T15:24:45.536Z</time></trkpt><trkpt lat="40.8631967" lon="14.2095817"><ele>330.2</ele><time>2026-04-17T15:24:46.538Z</time></trkpt><trkpt lat="40.8631983" lon="14.20971"><ele>329.0</ele><time>2026-04-17T15:24:47.538Z</time></trkpt><trkpt lat="40.863195" lon="14.2098333"><ele>328.79999999999995</ele><time>2026-04-17T15:24:48.539Z</time></trkpt><trkpt lat="40.86319" lon="14.2099633"><ele>328.59999999999997</ele><time>2026-04-17T15:24:49.537Z</time></trkpt><trkpt lat="40.8631867" lon="14.210095"><ele>328.4</ele><time>2026-04-17T15:24:50.538Z</time></trkpt><trkpt lat="40.86318" lon="14.210225"><ele>328.2</ele><time>2026-04-17T15:24:51.537Z</time></trkpt><trkpt lat="40.8631717" lon="14.210355"><ele>328.0</ele><time>2026-04-17T15:24:52.538Z</time></trkpt><trkpt lat="40.863155" lon="14.21048"><ele>328.0</ele><time>2026-04-17T15:24:53.537Z</time></trkpt><trkpt lat="40.8631367" lon="14.2106117"><ele>328.0</ele><time>2026-04-17T15:24:54.536Z</time></trkpt><trkpt lat="40.8631167" lon="14.2107383"><ele>328.0</ele><time>2026-04-17T15:24:55.538Z</time></trkpt><trkpt lat="40.8630933" lon="14.2108667"><ele>328.0</ele><time>2026-04-17T15:24:56.537Z</time></trkpt><trkpt lat="40.8630583" lon="14.2109983"><ele>328.0</ele><time>2026-04-17T15:24:57.538Z</time></trkpt><trkpt lat="40.8630233" lon="14.2111333"><ele>328.0</ele><time>2026-04-17T15:24:58.538Z</time></trkpt><trkpt lat="40.862985" lon="14.21128"><ele>328.0</ele><time>2026-04-17T15:24:59.537Z</time></trkpt><trkpt lat="40.8629417" lon="14.2114333"><ele>328.0</ele><time>2026-04-17T15:25:00.537Z</time></trkpt><trkpt lat="40.8629017" lon="14.211595"><ele>328.0</ele><time>2026-04-17T15:25:01.54Z</time></trkpt><trkpt lat="40.86286" lon="14.2117683"><ele>326.75</ele><time>2026-04-17T15:25:02.536Z</time></trkpt><trkpt lat="40.862825" lon="14.21195"><ele>325.5</ele><time>2026-04-17T15:25:03.538Z</time></trkpt><trkpt lat="40.8628" lon="14.21214"><ele>324.25</ele><time>2026-04-17T15:25:04.537Z</time></trkpt><trkpt lat="40.8627867" lon="14.2123233"><ele>323.0</ele><time>2026-04-17T15:25:05.539Z</time></trkpt><trkpt lat="40.8627817" lon="14.212485"><ele>321.25</ele><time>2026-04-17T15:25:06.538Z</time></trkpt><trkpt lat="40.8627783" lon="14.2126317"><ele>319.5</ele><time>2026-04-17T15:25:07.539Z</time></trkpt><trkpt lat="40.862785" lon="14.2127767"><ele>317.75</ele><time>2026-04-17T15:25:08.537Z</time></trkpt><trkpt lat="40.862795" lon="14.2129333"><ele>316.0</ele><time>2026-04-17T15:25:09.538Z</time></trkpt><trkpt lat="40.8628133" lon="14.213085"><ele>314.5</ele><time>2026-04-17T15:25:10.537Z</time></trkpt><trkpt lat="40.8628467" lon="14.213235"><ele>313.0</ele><time>2026-04-17T15:25:11.538Z</time></trkpt><trkpt lat="40.862885" lon="14.21338"><ele>311.5</ele><time>2026-04-17T15:25:12.538Z</time></trkpt><trkpt lat="40.8629333" lon="14.213525"><ele>310.0</ele><time>2026-04-17T15:25:13.538Z</time></trkpt><trkpt lat="40.8629883" lon="14.213665"><ele>310.0</ele><time>2026-04-17T15:25:14.538Z</time></trkpt><trkpt lat="40.8630483" lon="14.2138083"><ele>310.0</ele><time>2026-04-17T15:25:15.538Z</time></trkpt><trkpt lat="40.863105" lon="14.2139467"><ele>310.0</ele><time>2026-04-17T15:25:16.537Z</time></trkpt><trkpt lat="40.86316" lon="14.21408"><ele>310.0</ele><time>2026-04-17T15:25:17.539Z</time></trkpt><trkpt lat="40.8632283" lon="14.21421"><ele>309.0</ele><time>2026-04-17T15:25:18.537Z</time></trkpt><trkpt lat="40.86331" lon="14.2143267"><ele>308.0</ele><time>2026-04-17T15:25:19.54Z</time></trkpt><trkpt lat="40.8633917" lon="14.2144383"><ele>307.0</ele><time>2026-04-17T15:25:20.538Z</time></trkpt><trkpt lat="40.8634683" lon="14.2145417"><ele>306.0</ele><time>2026-04-17T15:25:21.537Z</time></trkpt><trkpt lat="40.8635417" lon="14.214625"><ele>305.0</ele><time>2026-04-17T15:25:22.539Z</time></trkpt><trkpt lat="40.863605" lon="14.2147033"><ele>304.33333333333337</ele><time>2026-04-17T15:25:23.539Z</time></trkpt><trkpt lat="40.8636567" lon="14.2147817"><ele>303.6666666666667</ele><time>2026-04-17T15:25:24.538Z</time></trkpt><trkpt lat="40.8636883" lon="14.21487"><ele>303.0</ele><time>2026-04-17T15:25:25.538Z</time></trkpt><trkpt lat="40.8637017" lon="14.2149667"><ele>302.3333333333333</ele><time>2026-04-17T15:25:26.539Z</time></trkpt><trkpt lat="40.8636967" lon="14.2150733"><ele>301.66666666666663</ele><time>2026-04-17T15:25:27.538Z</time></trkpt><trkpt lat="40.8636933" lon="14.215175"><ele>301.0</ele><time>2026-04-17T15:25:28.538Z</time></trkpt><trkpt lat="40.8636933" lon="14.2152783"><ele>301.0</ele><time>2026-04-17T15:25:29.539Z</time></trkpt><trkpt lat="40.8636883" lon="14.2153817"><ele>301.0</ele><time>2026-04-17T15:25:30.539Z</time></trkpt><trkpt lat="40.86368" lon="14.2154917"><ele>301.0</ele><time>2026-04-17T15:25:31.537Z</time></trkpt><trkpt lat="40.8636767" lon="14.2156067"><ele>301.0</ele><time>2026-04-17T15:25:32.539Z</time></trkpt><trkpt lat="40.8636833" lon="14.21572"><ele>301.0</ele><time>2026-04-17T15:25:33.538Z</time></trkpt><trkpt lat="40.86369" lon="14.2158417"><ele>301.0</ele><time>2026-04-17T15:25:34.538Z</time></trkpt><trkpt lat="40.8637017" lon="14.215955"><ele>300.2</ele><time>2026-04-17T15:25:35.537Z</time></trkpt><trkpt lat="40.8637117" lon="14.2160733"><ele>299.40000000000003</ele><time>2026-04-17T15:25:36.538Z</time></trkpt><trkpt lat="40.8637233" lon="14.2161917"><ele>298.6</ele><time>2026-04-17T15:25:37.538Z</time></trkpt><trkpt lat="40.863735" lon="14.2163133"><ele>297.8</ele><time>2026-04-17T15:25:38.537Z</time></trkpt><trkpt lat="40.863745" lon="14.2164367"><ele>297.0</ele><time>2026-04-17T15:25:39.539Z</time></trkpt><trkpt lat="40.8637533" lon="14.2165583"><ele>295.6</ele><time>2026-04-17T15:25:40.538Z</time></trkpt><trkpt lat="40.86376" lon="14.2166833"><ele>294.2</ele><time>2026-04-17T15:25:41.537Z</time></trkpt><trkpt lat="40.863775" lon="14.2168067"><ele>292.8</ele><time>2026-04-17T15:25:42.538Z</time></trkpt><trkpt lat="40.8637933" lon="14.2169333"><ele>291.4</ele><time>2026-04-17T15:25:43.539Z</time></trkpt><trkpt lat="40.8638183" lon="14.2170533"><ele>290.0</ele><time>2026-04-17T15:25:44.537Z</time></trkpt><trkpt lat="40.8638433" lon="14.2171717"><ele>290.0</ele><time>2026-04-17T15:25:45.539Z</time></trkpt><trkpt lat="40.8638667" lon="14.21729"><ele>290.0</ele><time>2026-04-17T15:25:46.539Z</time></trkpt><trkpt lat="40.8638967" lon="14.2174067"><ele>290.0</ele><time>2026-04-17T15:25:47.539Z</time></trkpt><trkpt lat="40.8639417" lon="14.217515"><ele>290.0</ele><time>2026-04-17T15:25:48.538Z</time></trkpt><trkpt lat="40.863985" lon="14.2176233"><ele>290.0</ele><time>2026-04-17T15:25:49.538Z</time></trkpt><trkpt lat="40.864025" lon="14.217735"><ele>289.8</ele><time>2026-04-17T15:25:50.538Z</time></trkpt><trkpt lat="40.8640583" lon="14.21785"><ele>289.6</ele><time>2026-04-17T15:25:51.537Z</time></trkpt><trkpt lat="40.8640867" lon="14.217965"><ele>289.4</ele><time>2026-04-17T15:25:52.539Z</time></trkpt><trkpt lat="40.8641033" lon="14.2180833"><ele>289.2</ele><time>2026-04-17T15:25:53.539Z</time></trkpt><trkpt lat="40.8641067" lon="14.2182017"><ele>289.0</ele><time>2026-04-17T15:25:54.537Z</time></trkpt><trkpt lat="40.8641" lon="14.2183183"><ele>288.5</ele><time>2026-04-17T15:25:55.539Z</time></trkpt><trkpt lat="40.8640833" lon="14.2184367"><ele>288.0</ele><time>2026-04-17T15:25:56.538Z</time></trkpt><trkpt lat="40.8640667" lon="14.2185533"><ele>287.5</ele><time>2026-04-17T15:25:57.538Z</time></trkpt><trkpt lat="40.864045" lon="14.2186567"><ele>287.0</ele><time>2026-04-17T15:25:58.538Z</time></trkpt><trkpt lat="40.8640267" lon="14.21875"><ele>286.5</ele><time>2026-04-17T15:25:59.538Z</time></trkpt><trkpt lat="40.8640133" lon="14.2188317"><ele>286.0</ele><time>2026-04-17T15:26:00.54Z</time></trkpt><trkpt lat="40.86398" lon="14.21898"><ele>285.5</ele><time>2026-04-17T15:26:02.538Z</time></trkpt><trkpt lat="40.8639517" lon="14.2191267"><ele>285.0</ele><time>2026-04-17T15:26:04.539Z</time></trkpt><trkpt lat="40.86391" lon="14.2192133"><ele>284.5</ele><time>2026-04-17T15:26:06.539Z</time></trkpt><trkpt lat="40.86385" lon="14.2192633"><ele>284.0</ele><time>2026-04-17T15:26:08.538Z</time></trkpt><trkpt lat="40.863785" lon="14.2193233"><ele>283.5</ele><time>2026-04-17T15:26:10.539Z</time></trkpt><trkpt lat="40.8637183" lon="14.2193733"><ele>283.0</ele><time>2026-04-17T15:26:12.539Z</time></trkpt><trkpt lat="40.86364" lon="14.219435"><ele>283.0</ele><time>2026-04-17T15:26:14.538Z</time></trkpt><trkpt lat="40.8635383" lon="14.2195117"><ele>283.0</ele><time>2026-04-17T15:26:16.539Z</time></trkpt><trkpt lat="40.8634833" lon="14.2195633"><ele>283.0</ele><time>2026-04-17T15:26:17.54Z</time></trkpt><trkpt lat="40.8634317" lon="14.2196233"><ele>283.0</ele><time>2026-04-17T15:26:18.539Z</time></trkpt><trkpt lat="40.8633783" lon="14.219685"><ele>283.0</ele><time>2026-04-17T15:26:19.539Z</time></trkpt><trkpt lat="40.8633183" lon="14.2197483"><ele>283.0</ele><time>2026-04-17T15:26:20.538Z</time></trkpt><trkpt lat="40.8632567" lon="14.2198117"><ele>282.3333333333333</ele><time>2026-04-17T15:26:21.539Z</time></trkpt><trkpt lat="40.8631933" lon="14.21988"><ele>281.66666666666663</ele><time>2026-04-17T15:26:22.543Z</time></trkpt><trkpt lat="40.8631283" lon="14.2199483"><ele>281.0</ele><time>2026-04-17T15:26:23.538Z</time></trkpt><trkpt lat="40.8630633" lon="14.2200133"><ele>280.3333333333333</ele><time>2026-04-17T15:26:24.538Z</time></trkpt><trkpt lat="40.8630033" lon="14.220075"><ele>279.6666666666667</ele><time>2026-04-17T15:26:25.538Z</time></trkpt><trkpt lat="40.862945" lon="14.2201333"><ele>279.0</ele><time>2026-04-17T15:26:26.538Z</time></trkpt><trkpt lat="40.8628933" lon="14.2201867"><ele>279.0</ele><time>2026-04-17T15:26:27.537Z</time></trkpt><trkpt lat="40.8627967" lon="14.2202883"><ele>279.0</ele><time>2026-04-17T15:26:29.539Z</time></trkpt><trkpt lat="40.862745" lon="14.2203433"><ele>279.0</ele><time>2026-04-17T15:26:30.538Z</time></trkpt><trkpt lat="40.8626883" lon="14.2203933"><ele>279.0</ele><time>2026-04-17T15:26:31.54Z</time></trkpt><trkpt lat="40.86263" lon="14.2204417"><ele>279.0</ele><time>2026-04-17T15:26:32.537Z</time></trkpt><trkpt lat="40.8625667" lon="14.2204983"><ele>279.0</ele><time>2026-04-17T15:26:33.538Z</time></trkpt><trkpt lat="40.8625033" lon="14.2205633"><ele>278.8333333333333</ele><time>2026-04-17T15:26:34.537Z</time></trkpt><trkpt lat="40.8624417" lon="14.220635"><ele>278.6666666666667</ele><time>2026-04-17T15:26:35.538Z</time></trkpt><trkpt lat="40.8623767" lon="14.2207083"><ele>278.5</ele><time>2026-04-17T15:26:36.538Z</time></trkpt><trkpt lat="40.86231" lon="14.2207867"><ele>278.33333333333337</ele><time>2026-04-17T15:26:37.539Z</time></trkpt><trkpt lat="40.86224" lon="14.2208633"><ele>278.1666666666667</ele><time>2026-04-17T15:26:38.539Z</time></trkpt><trkpt lat="40.8621667" lon="14.2209367"><ele>278.0</ele><time>2026-04-17T15:26:39.54Z</time></trkpt><trkpt lat="40.86209" lon="14.221015"><ele>278.0</ele><time>2026-04-17T15:26:40.539Z</time></trkpt><trkpt lat="40.86201" lon="14.2210967"><ele>278.0</ele><time>2026-04-17T15:26:41.539Z</time></trkpt><trkpt lat="40.86193" lon="14.2211833"><ele>278.0</ele><time>2026-04-17T15:26:42.539Z</time></trkpt><trkpt lat="40.861845" lon="14.2212717"><ele>278.0</ele><time>2026-04-17T15:26:43.54Z</time></trkpt><trkpt lat="40.8617583" lon="14.2213567"><ele>278.0</ele><time>2026-04-17T15:26:44.538Z</time></trkpt><trkpt lat="40.861675" lon="14.2214417"><ele>276.2</ele><time>2026-04-17T15:26:45.54Z</time></trkpt><trkpt lat="40.8615917" lon="14.2215417"><ele>274.4</ele><time>2026-04-17T15:26:46.539Z</time></trkpt><trkpt lat="40.8615117" lon="14.22164"><ele>272.59999999999997</ele><time>2026-04-17T15:26:47.539Z</time></trkpt><trkpt lat="40.8614267" lon="14.2217283"><ele>270.8</ele><time>2026-04-17T15:26:48.539Z</time></trkpt><trkpt lat="40.8613483" lon="14.221815"><ele>269.0</ele><time>2026-04-17T15:26:49.538Z</time></trkpt><trkpt lat="40.8612733" lon="14.22189"><ele>269.0</ele><time>2026-04-17T15:26:50.539Z</time></trkpt><trkpt lat="40.8612033" lon="14.2219517"><ele>269.0</ele><time>2026-04-17T15:26:51.54Z</time></trkpt><trkpt lat="40.8611417" lon="14.2220067"><ele>269.0</ele><time>2026-04-17T15:26:52.539Z</time></trkpt><trkpt lat="40.8610533" lon="14.22211"><ele>269.0</ele><time>2026-04-17T15:26:54.54Z</time></trkpt><trkpt lat="40.8609967" lon="14.2222267"><ele>269.0</ele><time>2026-04-17T15:26:56.538Z</time></trkpt><trkpt lat="40.86098" lon="14.2223183"><ele>269.33333333333337</ele><time>2026-04-17T15:26:58.538Z</time></trkpt><trkpt lat="40.8610033" lon="14.22242"><ele>269.6666666666667</ele><time>2026-04-17T15:27:01.539Z</time></trkpt><trkpt lat="40.8610417" lon="14.22251"><ele>270.0</ele><time>2026-04-17T15:27:03.539Z</time></trkpt><trkpt lat="40.861085" lon="14.2226183"><ele>270.3333333333333</ele><time>2026-04-17T15:27:05.54Z</time></trkpt><trkpt lat="40.8611133" lon="14.222735"><ele>270.66666666666663</ele><time>2026-04-17T15:27:07.54Z</time></trkpt><trkpt lat="40.8611283" lon="14.2228617"><ele>271.0</ele><time>2026-04-17T15:27:09.539Z</time></trkpt><trkpt lat="40.861155" lon="14.223"><ele>271.0</ele><time>2026-04-17T15:27:11.539Z</time></trkpt><trkpt lat="40.8611967" lon="14.2231367"><ele>271.0</ele><time>2026-04-17T15:27:13.541Z</time></trkpt><trkpt lat="40.8612483" lon="14.2232767"><ele>271.0</ele><time>2026-04-17T15:27:15.538Z</time></trkpt><trkpt lat="40.8612983" lon="14.2234167"><ele>271.0</ele><time>2026-04-17T15:27:17.54Z</time></trkpt><trkpt lat="40.8613617" lon="14.2235433"><ele>271.0</ele><time>2026-04-17T15:27:19.538Z</time></trkpt><trkpt lat="40.86143" lon="14.22367"><ele>271.0</ele><time>2026-04-17T15:27:21.538Z</time></trkpt><trkpt lat="40.861485" lon="14.22381"><ele>271.0</ele><time>2026-04-17T15:27:23.538Z</time></trkpt><trkpt lat="40.861525" lon="14.22395"><ele>271.0</ele><time>2026-04-17T15:27:25.54Z</time></trkpt><trkpt lat="40.86154" lon="14.224095"><ele>270.0</ele><time>2026-04-17T15:27:27.537Z</time></trkpt><trkpt lat="40.8615533" lon="14.22424"><ele>269.0</ele><time>2026-04-17T15:27:29.541Z</time></trkpt><trkpt lat="40.8615933" lon="14.2243767"><ele>268.0</ele><time>2026-04-17T15:27:31.54Z</time></trkpt><trkpt lat="40.8616383" lon="14.2245183"><ele>267.0</ele><time>2026-04-17T15:27:33.541Z</time></trkpt><trkpt lat="40.8616767" lon="14.2246617"><ele>267.0</ele><time>2026-04-17T15:27:35.54Z</time></trkpt><trkpt lat="40.8617117" lon="14.2247933"><ele>267.0</ele><time>2026-04-17T15:27:37.541Z</time></trkpt><trkpt lat="40.8617517" lon="14.22493"><ele>267.0</ele><time>2026-04-17T15:27:39.539Z</time></trkpt><trkpt lat="40.8618017" lon="14.2250683"><ele>267.0</ele><time>2026-04-17T15:27:41.539Z</time></trkpt><trkpt lat="40.86186" lon="14.225195"><ele>267.0</ele><time>2026-04-17T15:27:43.539Z</time></trkpt><trkpt lat="40.8619367" lon="14.2253067"><ele>266.6</ele><time>2026-04-17T15:27:45.539Z</time></trkpt><trkpt lat="40.8620333" lon="14.2254033"><ele>266.2</ele><time>2026-04-17T15:27:47.538Z</time></trkpt><trkpt lat="40.8620967" lon="14.2254483"><ele>265.8</ele><time>2026-04-17T15:27:48.539Z</time></trkpt><trkpt lat="40.86216" lon="14.2254817"><ele>265.4</ele><time>2026-04-17T15:27:49.537Z</time></trkpt><trkpt lat="40.8622633" lon="14.2255333"><ele>265.0</ele><time>2026-04-17T15:27:51.539Z</time></trkpt><trkpt lat="40.8623767" lon="14.2255533"><ele>265.0</ele><time>2026-04-17T15:27:53.539Z</time></trkpt><trkpt lat="40.8624717" lon="14.225525"><ele>265.0</ele><time>2026-04-17T15:27:55.539Z</time></trkpt><trkpt lat="40.8625667" lon="14.2255317"><ele>265.0</ele><time>2026-04-17T15:27:57.539Z</time></trkpt><trkpt lat="40.862665" lon="14.2255767"><ele>265.0</ele><time>2026-04-17T15:27:59.539Z</time></trkpt><trkpt lat="40.8627717" lon="14.2256267"><ele>265.0</ele><time>2026-04-17T15:28:01.538Z</time></trkpt><trkpt lat="40.8628867" lon="14.2256967"><ele>264.3333333333333</ele><time>2026-04-17T15:28:03.538Z</time></trkpt><trkpt lat="40.8629483" lon="14.2257267"><ele>263.66666666666663</ele><time>2026-04-17T15:28:04.54Z</time></trkpt><trkpt lat="40.8630183" lon="14.2257483"><ele>263.0</ele><time>2026-04-17T15:28:05.54Z</time></trkpt><trkpt lat="40.8630917" lon="14.2257667"><ele>262.3333333333333</ele><time>2026-04-17T15:28:06.538Z</time></trkpt><trkpt lat="40.8631617" lon="14.22578"><ele>261.6666666666667</ele><time>2026-04-17T15:28:07.538Z</time></trkpt><trkpt lat="40.863225" lon="14.22579"><ele>261.0</ele><time>2026-04-17T15:28:08.537Z</time></trkpt><trkpt lat="40.863335" lon="14.2258167"><ele>261.0</ele><time>2026-04-17T15:28:10.538Z</time></trkpt><trkpt lat="40.8634467" lon="14.2258683"><ele>261.0</ele><time>2026-04-17T15:28:12.538Z</time></trkpt><trkpt lat="40.86356" lon="14.2259283"><ele>261.0</ele><time>2026-04-17T15:28:14.537Z</time></trkpt><trkpt lat="40.8636183" lon="14.225975"><ele>261.0</ele><time>2026-04-17T15:28:15.537Z</time></trkpt><trkpt lat="40.86367" lon="14.2260317"><ele>261.0</ele><time>2026-04-17T15:28:16.538Z</time></trkpt><trkpt lat="40.86371" lon="14.2260967"><ele>261.0</ele><time>2026-04-17T15:28:17.542Z</time></trkpt><trkpt lat="40.8637433" lon="14.226175"><ele>260.8333333333333</ele><time>2026-04-17T15:28:18.538Z</time></trkpt><trkpt lat="40.8637733" lon="14.22626"><ele>260.6666666666667</ele><time>2026-04-17T15:28:19.538Z</time></trkpt><trkpt lat="40.8638083" lon="14.22635"><ele>260.5</ele><time>2026-04-17T15:28:20.538Z</time></trkpt><trkpt lat="40.863845" lon="14.2264417"><ele>260.33333333333337</ele><time>2026-04-17T15:28:21.54Z</time></trkpt><trkpt lat="40.8638917" lon="14.2265283"><ele>260.1666666666667</ele><time>2026-04-17T15:28:22.537Z</time></trkpt><trkpt lat="40.863945" lon="14.2266067"><ele>260.0</ele><time>2026-04-17T15:28:23.54Z</time></trkpt><trkpt lat="40.864" lon="14.2266783"><ele>259.6666666666667</ele><time>2026-04-17T15:28:24.538Z</time></trkpt><trkpt lat="40.8640483" lon="14.2267483"><ele>259.33333333333337</ele><time>2026-04-17T15:28:25.538Z</time></trkpt><trkpt lat="40.8641183" lon="14.2267917"><ele>259.0</ele><time>2026-04-17T15:28:26.538Z</time></trkpt><trkpt lat="40.8641833" lon="14.2268433"><ele>258.6666666666667</ele><time>2026-04-17T15:28:27.537Z</time></trkpt><trkpt lat="40.8642533" lon="14.2268883"><ele>258.3333333333333</ele><time>2026-04-17T15:28:28.539Z</time></trkpt><trkpt lat="40.8643233" lon="14.2269267"><ele>258.0</ele><time>2026-04-17T15:28:29.539Z</time></trkpt><trkpt lat="40.8643983" lon="14.22696"><ele>258.0</ele><time>2026-04-17T15:28:30.539Z</time></trkpt><trkpt lat="40.8644733" lon="14.2269883"><ele>258.0</ele><time>2026-04-17T15:28:31.537Z</time></trkpt><trkpt lat="40.8645467" lon="14.227015"><ele>258.0</ele><time>2026-04-17T15:28:32.538Z</time></trkpt><trkpt lat="40.86462" lon="14.2270433"><ele>258.0</ele><time>2026-04-17T15:28:33.538Z</time></trkpt><trkpt lat="40.8646933" lon="14.2270733"><ele>258.0</ele><time>2026-04-17T15:28:34.537Z</time></trkpt><trkpt lat="40.8647667" lon="14.2271033"><ele>258.0</ele><time>2026-04-17T15:28:35.539Z</time></trkpt><trkpt lat="40.86484" lon="14.2271333"><ele>258.0</ele><time>2026-04-17T15:28:36.537Z</time></trkpt><trkpt lat="40.8649117" lon="14.227165"><ele>258.0</ele><time>2026-04-17T15:28:37.538Z</time></trkpt><trkpt lat="40.8649817" lon="14.2271983"><ele>258.0</ele><time>2026-04-17T15:28:38.537Z</time></trkpt><trkpt lat="40.8650533" lon="14.2272267"><ele>258.0</ele><time>2026-04-17T15:28:39.538Z</time></trkpt><trkpt lat="40.86513" lon="14.2272483"><ele>258.0</ele><time>2026-04-17T15:28:40.537Z</time></trkpt><trkpt lat="40.8652" lon="14.2272733"><ele>258.0</ele><time>2026-04-17T15:28:41.538Z</time></trkpt><trkpt lat="40.86527" lon="14.227305"><ele>257.1428571428571</ele><time>2026-04-17T15:28:42.539Z</time></trkpt><trkpt lat="40.8653417" lon="14.2273317"><ele>256.2857142857143</ele><time>2026-04-17T15:28:43.539Z</time></trkpt><trkpt lat="40.86541" lon="14.2273533"><ele>255.42857142857142</ele><time>2026-04-17T15:28:44.538Z</time></trkpt><trkpt lat="40.8654783" lon="14.22737"><ele>254.57142857142856</ele><time>2026-04-17T15:28:45.539Z</time></trkpt><trkpt lat="40.8655483" lon="14.2273867"><ele>253.71428571428572</ele><time>2026-04-17T15:28:46.538Z</time></trkpt><trkpt lat="40.8656167" lon="14.2273967"><ele>252.85714285714286</ele><time>2026-04-17T15:28:47.537Z</time></trkpt><trkpt lat="40.8656883" lon="14.2273967"><ele>252.0</ele><time>2026-04-17T15:28:48.538Z</time></trkpt><trkpt lat="40.86576" lon="14.2273933"><ele>252.0</ele><time>2026-04-17T15:28:49.537Z</time></trkpt><trkpt lat="40.8658283" lon="14.2273783"><ele>252.0</ele><time>2026-04-17T15:28:50.537Z</time></trkpt><trkpt lat="40.8659" lon="14.2273583"><ele>252.0</ele><time>2026-04-17T15:28:51.538Z</time></trkpt><trkpt lat="40.8659733" lon="14.227335"><ele>252.0</ele><time>2026-04-17T15:28:52.538Z</time></trkpt><trkpt lat="40.8660467" lon="14.2272983"><ele>252.0</ele><time>2026-04-17T15:28:53.539Z</time></trkpt><trkpt lat="40.8661167" lon="14.2272567"><ele>252.0</ele><time>2026-04-17T15:28:54.537Z</time></trkpt><trkpt lat="40.8661867" lon="14.2272117"><ele>253.16666666666666</ele><time>2026-04-17T15:28:55.542Z</time></trkpt><trkpt lat="40.8662583" lon="14.2271733"><ele>254.33333333333331</ele><time>2026-04-17T15:28:56.538Z</time></trkpt><trkpt lat="40.8663283" lon="14.22714"><ele>255.5</ele><time>2026-04-17T15:28:57.539Z</time></trkpt><trkpt lat="40.8664017" lon="14.2271233"><ele>256.66666666666663</ele><time>2026-04-17T15:28:58.54Z</time></trkpt><trkpt lat="40.8664767" lon="14.2271183"><ele>257.8333333333333</ele><time>2026-04-17T15:28:59.536Z</time></trkpt><trkpt lat="40.8665533" lon="14.2271233"><ele>259.0</ele><time>2026-04-17T15:29:00.538Z</time></trkpt><trkpt lat="40.86663" lon="14.2271417"><ele>259.0</ele><time>2026-04-17T15:29:01.54Z</time></trkpt><trkpt lat="40.866705" lon="14.2271683"><ele>259.0</ele><time>2026-04-17T15:29:02.536Z</time></trkpt><trkpt lat="40.8667833" lon="14.2272017"><ele>259.0</ele><time>2026-04-17T15:29:03.537Z</time></trkpt><trkpt lat="40.8668617" lon="14.2272333"><ele>259.0</ele><time>2026-04-17T15:29:04.537Z</time></trkpt><trkpt lat="40.86694" lon="14.22726"><ele>259.0</ele><time>2026-04-17T15:29:05.538Z</time></trkpt><trkpt lat="40.867015" lon="14.2272883"><ele>259.0</ele><time>2026-04-17T15:29:06.537Z</time></trkpt><trkpt lat="40.867095" lon="14.2273133"><ele>257.3333333333333</ele><time>2026-04-17T15:29:07.537Z</time></trkpt><trkpt lat="40.8671733" lon="14.22734"><ele>255.66666666666666</ele><time>2026-04-17T15:29:08.54Z</time></trkpt><trkpt lat="40.8672517" lon="14.2273717"><ele>254.0</ele><time>2026-04-17T15:29:09.541Z</time></trkpt><trkpt lat="40.8673317" lon="14.227405"><ele>252.33333333333331</ele><time>2026-04-17T15:29:10.538Z</time></trkpt><trkpt lat="40.86741" lon="14.2274383"><ele>250.66666666666666</ele><time>2026-04-17T15:29:11.537Z</time></trkpt><trkpt lat="40.8674883" lon="14.2274717"><ele>249.0</ele><time>2026-04-17T15:29:12.538Z</time></trkpt><trkpt lat="40.8675667" lon="14.2275067"><ele>249.33333333333334</ele><time>2026-04-17T15:29:13.538Z</time></trkpt><trkpt lat="40.867645" lon="14.2275383"><ele>249.66666666666669</ele><time>2026-04-17T15:29:14.54Z</time></trkpt><trkpt lat="40.8677217" lon="14.22757"><ele>250.0</ele><time>2026-04-17T15:29:15.539Z</time></trkpt><trkpt lat="40.8677967" lon="14.2276017"><ele>250.33333333333334</ele><time>2026-04-17T15:29:16.538Z</time></trkpt><trkpt lat="40.86787" lon="14.2276333"><ele>250.66666666666669</ele><time>2026-04-17T15:29:17.537Z</time></trkpt><trkpt lat="40.8679433" lon="14.2276617"><ele>251.0</ele><time>2026-04-17T15:29:18.537Z</time></trkpt><trkpt lat="40.8680167" lon="14.22769"><ele>251.00000000000003</ele><time>2026-04-17T15:29:19.537Z</time></trkpt><trkpt lat="40.86809" lon="14.2277167"><ele>251.0</ele><time>2026-04-17T15:29:20.538Z</time></trkpt><trkpt lat="40.868165" lon="14.2277467"><ele>251.0</ele><time>2026-04-17T15:29:21.538Z</time></trkpt><trkpt lat="40.8682383" lon="14.2277917"><ele>251.0</ele><time>2026-04-17T15:29:22.54Z</time></trkpt><trkpt lat="40.8683133" lon="14.2278467"><ele>251.00000000000003</ele><time>2026-04-17T15:29:23.538Z</time></trkpt><trkpt lat="40.8683833" lon="14.2279083"><ele>251.0</ele><time>2026-04-17T15:29:24.538Z</time></trkpt><trkpt lat="40.868435" lon="14.2279933"><ele>249.83333333333334</ele><time>2026-04-17T15:29:25.537Z</time></trkpt><trkpt lat="40.8684617" lon="14.2281033"><ele>248.66666666666669</ele><time>2026-04-17T15:29:26.539Z</time></trkpt><trkpt lat="40.8684883" lon="14.2282083"><ele>247.5</ele><time>2026-04-17T15:29:27.537Z</time></trkpt><trkpt lat="40.868505" lon="14.2282983"><ele>246.33333333333331</ele><time>2026-04-17T15:29:28.537Z</time></trkpt><trkpt lat="40.8685133" lon="14.2284517"><ele>245.16666666666666</ele><time>2026-04-17T15:29:30.537Z</time></trkpt><trkpt lat="40.868505" lon="14.2285367"><ele>244.0</ele><time>2026-04-17T15:29:31.538Z</time></trkpt><trkpt lat="40.8684933" lon="14.2286267"><ele>243.33333333333331</ele><time>2026-04-17T15:29:32.539Z</time></trkpt><trkpt lat="40.86849" lon="14.2287217"><ele>242.66666666666666</ele><time>2026-04-17T15:29:33.538Z</time></trkpt><trkpt lat="40.8684833" lon="14.2288267"><ele>242.0</ele><time>2026-04-17T15:29:34.539Z</time></trkpt><trkpt lat="40.86848" lon="14.2289333"><ele>241.33333333333331</ele><time>2026-04-17T15:29:35.537Z</time></trkpt><trkpt lat="40.868475" lon="14.2290483"><ele>240.66666666666666</ele><time>2026-04-17T15:29:36.538Z</time></trkpt><trkpt lat="40.8684733" lon="14.2291667"><ele>240.0</ele><time>2026-04-17T15:29:37.538Z</time></trkpt><trkpt lat="40.8684667" lon="14.229285"><ele>240.2</ele><time>2026-04-17T15:29:38.538Z</time></trkpt><trkpt lat="40.8684567" lon="14.2294083"><ele>240.4</ele><time>2026-04-17T15:29:39.538Z</time></trkpt><trkpt lat="40.8684483" lon="14.22953"><ele>240.60000000000002</ele><time>2026-04-17T15:29:40.538Z</time></trkpt><trkpt lat="40.868445" lon="14.229655"><ele>240.8</ele><time>2026-04-17T15:29:41.538Z</time></trkpt><trkpt lat="40.8684383" lon="14.2297833"><ele>241.0</ele><time>2026-04-17T15:29:42.537Z</time></trkpt><trkpt lat="40.8684283" lon="14.22991"><ele>241.0</ele><time>2026-04-17T15:29:43.54Z</time></trkpt><trkpt lat="40.8684217" lon="14.2300383"><ele>241.00000000000003</ele><time>2026-04-17T15:29:44.54Z</time></trkpt><trkpt lat="40.8684117" lon="14.2301633"><ele>241.00000000000003</ele><time>2026-04-17T15:29:45.538Z</time></trkpt><trkpt lat="40.8684083" lon="14.230285"><ele>241.0</ele><time>2026-04-17T15:29:46.537Z</time></trkpt><trkpt lat="40.8684017" lon="14.230415"><ele>241.0</ele><time>2026-04-17T15:29:47.538Z</time></trkpt><trkpt lat="40.8684" lon="14.23054"><ele>239.83333333333331</ele><time>2026-04-17T15:29:48.536Z</time></trkpt><trkpt lat="40.868395" lon="14.2306583"><ele>238.66666666666666</ele><time>2026-04-17T15:29:49.539Z</time></trkpt><trkpt lat="40.868385" lon="14.2307633"><ele>237.5</ele><time>2026-04-17T15:29:50.54Z</time></trkpt><trkpt lat="40.86838" lon="14.2308633"><ele>236.33333333333331</ele><time>2026-04-17T15:29:51.537Z</time></trkpt><trkpt lat="40.8683817" lon="14.2309567"><ele>235.16666666666666</ele><time>2026-04-17T15:29:52.537Z</time></trkpt><trkpt lat="40.86841" lon="14.2310583"><ele>234.0</ele><time>2026-04-17T15:29:53.538Z</time></trkpt><trkpt lat="40.868405" lon="14.2311617"><ele>234.0</ele><time>2026-04-17T15:29:54.54Z</time></trkpt><trkpt lat="40.86839" lon="14.23126"><ele>234.00000000000003</ele><time>2026-04-17T15:29:55.539Z</time></trkpt><trkpt lat="40.8683817" lon="14.23135"><ele>234.0</ele><time>2026-04-17T15:29:56.539Z</time></trkpt><trkpt lat="40.86837" lon="14.23144"><ele>234.0</ele><time>2026-04-17T15:29:57.539Z</time></trkpt><trkpt lat="40.868355" lon="14.2315317"><ele>234.00000000000003</ele><time>2026-04-17T15:29:58.537Z</time></trkpt><trkpt lat="40.86834" lon="14.231625"><ele>234.0</ele><time>2026-04-17T15:29:59.538Z</time></trkpt><trkpt lat="40.8683217" lon="14.2317167"><ele>234.0</ele><time>2026-04-17T15:30:00.538Z</time></trkpt><trkpt lat="40.8683117" lon="14.2318067"><ele>232.42857142857144</ele><time>2026-04-17T15:30:01.54Z</time></trkpt><trkpt lat="40.8683033" lon="14.2319017"><ele>230.8571428571429</ele><time>2026-04-17T15:30:02.539Z</time></trkpt><trkpt lat="40.868295" lon="14.2319983"><ele>229.28571428571428</ele><time>2026-04-17T15:30:03.537Z</time></trkpt><trkpt lat="40.8682883" lon="14.2320917"><ele>227.71428571428572</ele><time>2026-04-17T15:30:04.539Z</time></trkpt><trkpt lat="40.8682833" lon="14.2321833"><ele>226.14285714285714</ele><time>2026-04-17T15:30:05.539Z</time></trkpt><trkpt lat="40.8682783" lon="14.2322767"><ele>224.57142857142856</ele><time>2026-04-17T15:30:06.539Z</time></trkpt><trkpt lat="40.8682767" lon="14.2323733"><ele>223.0</ele><time>2026-04-17T15:30:07.537Z</time></trkpt><trkpt lat="40.8682733" lon="14.232475"><ele>222.83333333333331</ele><time>2026-04-17T15:30:08.539Z</time></trkpt><trkpt lat="40.868265" lon="14.23258"><ele>222.66666666666666</ele><time>2026-04-17T15:30:09.54Z</time></trkpt><trkpt lat="40.8682533" lon="14.2326883"><ele>222.5</ele><time>2026-04-17T15:30:10.537Z</time></trkpt><trkpt lat="40.8682417" lon="14.2327917"><ele>222.33333333333331</ele><time>2026-04-17T15:30:11.538Z</time></trkpt><trkpt lat="40.86823" lon="14.2328867"><ele>222.16666666666666</ele><time>2026-04-17T15:30:12.538Z</time></trkpt><trkpt lat="40.8682233" lon="14.2329783"><ele>222.0</ele><time>2026-04-17T15:30:13.538Z</time></trkpt><trkpt lat="40.8682167" lon="14.2330717"><ele>221.8</ele><time>2026-04-17T15:30:14.539Z</time></trkpt><trkpt lat="40.8682133" lon="14.2331617"><ele>221.6</ele><time>2026-04-17T15:30:15.538Z</time></trkpt><trkpt lat="40.868205" lon="14.2333183"><ele>221.40000000000003</ele><time>2026-04-17T15:30:17.54Z</time></trkpt><trkpt lat="40.8681917" lon="14.2334617"><ele>221.20000000000002</ele><time>2026-04-17T15:30:19.539Z</time></trkpt><trkpt lat="40.8681733" lon="14.2336033"><ele>221.0</ele><time>2026-04-17T15:30:21.537Z</time></trkpt><trkpt lat="40.868155" lon="14.2337333"><ele>221.00000000000003</ele><time>2026-04-17T15:30:23.542Z</time></trkpt><trkpt lat="40.86815" lon="14.23383"><ele>221.0</ele><time>2026-04-17T15:30:25.54Z</time></trkpt><trkpt lat="40.8681433" lon="14.233935"><ele>221.0</ele><time>2026-04-17T15:30:28.539Z</time></trkpt><trkpt lat="40.8681483" lon="14.2340467"><ele>221.0</ele><time>2026-04-17T15:30:32.538Z</time></trkpt><trkpt lat="40.868145" lon="14.2341483"><ele>221.00000000000003</ele><time>2026-04-17T15:30:34.539Z</time></trkpt><trkpt lat="40.8681717" lon="14.2342817"><ele>221.0</ele><time>2026-04-17T15:30:36.539Z</time></trkpt><trkpt lat="40.868225" lon="14.2344317"><ele>220.66666666666669</ele><time>2026-04-17T15:30:38.537Z</time></trkpt><trkpt lat="40.86826" lon="14.234505"><ele>220.33333333333334</ele><time>2026-04-17T15:30:39.537Z</time></trkpt><trkpt lat="40.8682983" lon="14.2345817"><ele>220.0</ele><time>2026-04-17T15:30:40.537Z</time></trkpt><trkpt lat="40.868335" lon="14.2346633"><ele>219.66666666666669</ele><time>2026-04-17T15:30:41.542Z</time></trkpt><trkpt lat="40.8683733" lon="14.2347333"><ele>219.33333333333334</ele><time>2026-04-17T15:30:42.539Z</time></trkpt><trkpt lat="40.8684417" lon="14.23484"><ele>219.0</ele><time>2026-04-17T15:30:44.541Z</time></trkpt><trkpt lat="40.8685017" lon="14.2349233"><ele>218.79999999999998</ele><time>2026-04-17T15:30:46.54Z</time></trkpt><trkpt lat="40.8685633" lon="14.2349817"><ele>218.59999999999997</ele><time>2026-04-17T15:30:48.54Z</time></trkpt><trkpt lat="40.868625" lon="14.235075"><ele>218.4</ele><time>2026-04-17T15:30:50.539Z</time></trkpt><trkpt lat="40.8686783" lon="14.2351933"><ele>218.2</ele><time>2026-04-17T15:30:52.539Z</time></trkpt><trkpt lat="40.8687417" lon="14.235305"><ele>218.0</ele><time>2026-04-17T15:30:54.541Z</time></trkpt><trkpt lat="40.8687917" lon="14.235425"><ele>218.0</ele><time>2026-04-17T15:30:56.541Z</time></trkpt><trkpt lat="40.868845" lon="14.2355267"><ele>218.0</ele><time>2026-04-17T15:30:58.54Z</time></trkpt><trkpt lat="40.8689033" lon="14.2356383"><ele>218.0</ele><time>2026-04-17T15:31:00.538Z</time></trkpt><trkpt lat="40.8689683" lon="14.23576"><ele>218.0</ele><time>2026-04-17T15:31:02.539Z</time></trkpt><trkpt lat="40.86903" lon="14.235905"><ele>218.0</ele><time>2026-04-17T15:31:04.539Z</time></trkpt><trkpt lat="40.8690633" lon="14.23598"><ele>216.83333333333334</ele><time>2026-04-17T15:31:05.54Z</time></trkpt><trkpt lat="40.8691083" lon="14.2360567"><ele>215.66666666666669</ele><time>2026-04-17T15:31:06.538Z</time></trkpt><trkpt lat="40.86915" lon="14.2361333"><ele>214.5</ele><time>2026-04-17T15:31:07.54Z</time></trkpt><trkpt lat="40.8692183" lon="14.236245"><ele>213.33333333333331</ele><time>2026-04-17T15:31:09.539Z</time></trkpt><trkpt lat="40.86926" lon="14.2363333"><ele>212.16666666666666</ele><time>2026-04-17T15:31:12.539Z</time></trkpt><trkpt lat="40.8693033" lon="14.236425"><ele>211.0</ele><time>2026-04-17T15:31:14.54Z</time></trkpt><trkpt lat="40.8693683" lon="14.2365367"><ele>209.99999999999997</ele><time>2026-04-17T15:31:16.54Z</time></trkpt><trkpt lat="40.8694333" lon="14.2366533"><ele>209.0</ele><time>2026-04-17T15:31:18.538Z</time></trkpt><trkpt lat="40.869505" lon="14.23678"><ele>208.0</ele><time>2026-04-17T15:31:20.539Z</time></trkpt><trkpt lat="40.8695433" lon="14.23685"><ele>207.0</ele><time>2026-04-17T15:31:21.539Z</time></trkpt><trkpt lat="40.86958" lon="14.23692"><ele>205.99999999999997</ele><time>2026-04-17T15:31:22.538Z</time></trkpt><trkpt lat="40.86962" lon="14.236995"><ele>205.0</ele><time>2026-04-17T15:31:23.539Z</time></trkpt><trkpt lat="40.8696567" lon="14.2370783"><ele>204.99999999999997</ele><time>2026-04-17T15:31:24.541Z</time></trkpt><trkpt lat="40.8696983" lon="14.2371633"><ele>205.0</ele><time>2026-04-17T15:31:25.543Z</time></trkpt><trkpt lat="40.8697433" lon="14.23725"><ele>205.0</ele><time>2026-04-17T15:31:26.54Z</time></trkpt><trkpt lat="40.8697783" lon="14.2373383"><ele>205.0</ele><time>2026-04-17T15:31:27.539Z</time></trkpt><trkpt lat="40.8698283" lon="14.2374267"><ele>204.99999999999997</ele><time>2026-04-17T15:31:28.538Z</time></trkpt><trkpt lat="40.8698767" lon="14.2375183"><ele>205.0</ele><time>2026-04-17T15:31:29.54Z</time></trkpt><trkpt lat="40.8699233" lon="14.2376"><ele>204.16666666666666</ele><time>2026-04-17T15:31:30.54Z</time></trkpt><trkpt lat="40.8699617" lon="14.2376717"><ele>203.33333333333331</ele><time>2026-04-17T15:31:31.543Z</time></trkpt><trkpt lat="40.8700317" lon="14.2377917"><ele>202.5</ele><time>2026-04-17T15:31:33.539Z</time></trkpt><trkpt lat="40.8700883" lon="14.2378833"><ele>201.66666666666669</ele><time>2026-04-17T15:31:35.538Z</time></trkpt><trkpt lat="40.8701367" lon="14.2379383"><ele>200.83333333333334</ele><time>2026-04-17T15:31:44.537Z</time></trkpt><trkpt lat="40.8701883" lon="14.2380267"><ele>200.0</ele><time>2026-04-17T15:31:47.54Z</time></trkpt><trkpt lat="40.8702367" lon="14.23812"><ele>199.4</ele><time>2026-04-17T15:31:49.538Z</time></trkpt><trkpt lat="40.870295" lon="14.2382383"><ele>198.8</ele><time>2026-04-17T15:31:51.539Z</time></trkpt><trkpt lat="40.8703267" lon="14.2383117"><ele>198.2</ele><time>2026-04-17T15:31:52.539Z</time></trkpt><trkpt lat="40.8703983" lon="14.2384433"><ele>197.6</ele><time>2026-04-17T15:31:54.539Z</time></trkpt><trkpt lat="40.8704533" lon="14.238535"><ele>197.0</ele><time>2026-04-17T15:31:56.539Z</time></trkpt><trkpt lat="40.870525" lon="14.238635"><ele>197.0</ele><time>2026-04-17T15:31:58.538Z</time></trkpt><trkpt lat="40.8705917" lon="14.23875"><ele>197.0</ele><time>2026-04-17T15:32:00.538Z</time></trkpt><trkpt lat="40.8706767" lon="14.23888"><ele>197.0</ele><time>2026-04-17T15:32:02.539Z</time></trkpt><trkpt lat="40.870715" lon="14.2389483"><ele>197.0</ele><time>2026-04-17T15:32:03.54Z</time></trkpt><trkpt lat="40.870745" lon="14.2390367"><ele>197.0</ele><time>2026-04-17T15:32:04.538Z</time></trkpt><trkpt lat="40.8707817" lon="14.239125"><ele>196.33333333333334</ele><time>2026-04-17T15:32:05.539Z</time></trkpt><trkpt lat="40.8708333" lon="14.2392017"><ele>195.66666666666669</ele><time>2026-04-17T15:32:06.538Z</time></trkpt><trkpt lat="40.870895" lon="14.2392833"><ele>195.0</ele><time>2026-04-17T15:32:07.54Z</time></trkpt><trkpt lat="40.8709617" lon="14.2393633"><ele>194.33333333333331</ele><time>2026-04-17T15:32:08.539Z</time></trkpt><trkpt lat="40.8710117" lon="14.2394383"><ele>193.66666666666666</ele><time>2026-04-17T15:32:09.538Z</time></trkpt><trkpt lat="40.8710567" lon="14.2395083"><ele>193.0</ele><time>2026-04-17T15:32:10.539Z</time></trkpt><trkpt lat="40.8711267" lon="14.239625"><ele>192.60000000000002</ele><time>2026-04-17T15:32:12.539Z</time></trkpt><trkpt lat="40.87116" lon="14.2397283"><ele>192.20000000000002</ele><time>2026-04-17T15:32:14.541Z</time></trkpt><trkpt lat="40.871205" lon="14.2398367"><ele>191.8</ele><time>2026-04-17T15:32:16.54Z</time></trkpt><trkpt lat="40.8712517" lon="14.239965"><ele>191.4</ele><time>2026-04-17T15:32:18.542Z</time></trkpt><trkpt lat="40.8713133" lon="14.24011"><ele>191.0</ele><time>2026-04-17T15:32:20.539Z</time></trkpt><trkpt lat="40.8713417" lon="14.2401867"><ele>189.66666666666666</ele><time>2026-04-17T15:32:21.539Z</time></trkpt><trkpt lat="40.8713717" lon="14.2402667"><ele>188.33333333333331</ele><time>2026-04-17T15:32:22.54Z</time></trkpt><trkpt lat="40.8713967" lon="14.2403467"><ele>187.0</ele><time>2026-04-17T15:32:23.539Z</time></trkpt><trkpt lat="40.8714283" lon="14.2404267"><ele>185.66666666666666</ele><time>2026-04-17T15:32:24.54Z</time></trkpt><trkpt lat="40.871475" lon="14.2405717"><ele>184.33333333333334</ele><time>2026-04-17T15:32:26.541Z</time></trkpt><trkpt lat="40.87152" lon="14.2407267"><ele>183.0</ele><time>2026-04-17T15:32:28.537Z</time></trkpt><trkpt lat="40.8715383" lon="14.24081"><ele>182.4</ele><time>2026-04-17T15:32:29.538Z</time></trkpt><trkpt lat="40.8715567" lon="14.240955"><ele>181.8</ele><time>2026-04-17T15:32:31.541Z</time></trkpt><trkpt lat="40.8715717" lon="14.2410633"><ele>181.2</ele><time>2026-04-17T15:32:33.54Z</time></trkpt><trkpt lat="40.8716017" lon="14.24115"><ele>180.6</ele><time>2026-04-17T15:32:35.539Z</time></trkpt><trkpt lat="40.871605" lon="14.2412667"><ele>180.0</ele><time>2026-04-17T15:32:37.54Z</time></trkpt><trkpt lat="40.87161" lon="14.2414067"><ele>179.83333333333334</ele><time>2026-04-17T15:32:39.539Z</time></trkpt><trkpt lat="40.8716033" lon="14.241565"><ele>179.66666666666666</ele><time>2026-04-17T15:32:41.539Z</time></trkpt><trkpt lat="40.8716" lon="14.2416567"><ele>179.5</ele><time>2026-04-17T15:32:42.538Z</time></trkpt><trkpt lat="40.8715917" lon="14.2417533"><ele>179.33333333333331</ele><time>2026-04-17T15:32:43.538Z</time></trkpt><trkpt lat="40.8715833" lon="14.2418517"><ele>179.16666666666666</ele><time>2026-04-17T15:32:44.539Z</time></trkpt><trkpt lat="40.8715733" lon="14.241955"><ele>179.0</ele><time>2026-04-17T15:32:45.537Z</time></trkpt><trkpt lat="40.8715617" lon="14.2420583"><ele>179.0</ele><time>2026-04-17T15:32:46.539Z</time></trkpt><trkpt lat="40.8715467" lon="14.2421617"><ele>179.0</ele><time>2026-04-17T15:32:47.539Z</time></trkpt><trkpt lat="40.8715283" lon="14.24227"><ele>179.0</ele><time>2026-04-17T15:32:48.538Z</time></trkpt><trkpt lat="40.87151" lon="14.2423817"><ele>179.0</ele><time>2026-04-17T15:32:49.547Z</time></trkpt><trkpt lat="40.871495" lon="14.2424917"><ele>179.0</ele><time>2026-04-17T15:32:50.539Z</time></trkpt><trkpt lat="40.871475" lon="14.2426"><ele>179.0</ele><time>2026-04-17T15:32:51.54Z</time></trkpt><trkpt lat="40.87145" lon="14.2427083"><ele>179.0</ele><time>2026-04-17T15:32:52.539Z</time></trkpt><trkpt lat="40.87142" lon="14.2428183"><ele>179.0</ele><time>2026-04-17T15:32:53.539Z</time></trkpt><trkpt lat="40.8713933" lon="14.24293"><ele>179.0</ele><time>2026-04-17T15:32:54.538Z</time></trkpt><trkpt lat="40.8713633" lon="14.24304"><ele>179.0</ele><time>2026-04-17T15:32:55.541Z</time></trkpt><trkpt lat="40.871335" lon="14.24315"><ele>179.0</ele><time>2026-04-17T15:32:56.539Z</time></trkpt><trkpt lat="40.871305" lon="14.24326"><ele>179.0</ele><time>2026-04-17T15:32:57.538Z</time></trkpt><trkpt lat="40.8712683" lon="14.2433667"><ele>178.83333333333331</ele><time>2026-04-17T15:32:58.539Z</time></trkpt><trkpt lat="40.8712367" lon="14.2434767"><ele>178.66666666666666</ele><time>2026-04-17T15:32:59.537Z</time></trkpt><trkpt lat="40.871195" lon="14.243585"><ele>178.5</ele><time>2026-04-17T15:33:00.537Z</time></trkpt><trkpt lat="40.8711617" lon="14.243695"><ele>178.33333333333334</ele><time>2026-04-17T15:33:01.538Z</time></trkpt><trkpt lat="40.8711333" lon="14.243805"><ele>178.16666666666669</ele><time>2026-04-17T15:33:02.538Z</time></trkpt><trkpt lat="40.8711" lon="14.2439067"><ele>178.0</ele><time>2026-04-17T15:33:03.539Z</time></trkpt><trkpt lat="40.8710717" lon="14.2440017"><ele>177.16666666666669</ele><time>2026-04-17T15:33:04.538Z</time></trkpt><trkpt lat="40.8710417" lon="14.24408"><ele>176.33333333333334</ele><time>2026-04-17T15:33:05.538Z</time></trkpt><trkpt lat="40.871" lon="14.2442133"><ele>175.5</ele><time>2026-04-17T15:33:07.538Z</time></trkpt><trkpt lat="40.87096" lon="14.244335"><ele>174.66666666666666</ele><time>2026-04-17T15:33:09.538Z</time></trkpt><trkpt lat="40.87093" lon="14.2444233"><ele>173.83333333333331</ele><time>2026-04-17T15:33:11.538Z</time></trkpt><trkpt lat="40.8709283" lon="14.24451"><ele>173.0</ele><time>2026-04-17T15:33:13.539Z</time></trkpt><trkpt lat="40.8709117" lon="14.2446067"><ele>173.0</ele><time>2026-04-17T15:33:15.537Z</time></trkpt><trkpt lat="40.8708933" lon="14.2447033"><ele>173.0</ele><time>2026-04-17T15:33:17.538Z</time></trkpt><trkpt lat="40.8708583" lon="14.2447817"><ele>173.0</ele><time>2026-04-17T15:33:19.54Z</time></trkpt><trkpt lat="40.8708017" lon="14.2448533"><ele>173.0</ele><time>2026-04-17T15:33:24.538Z</time></trkpt><trkpt lat="40.8707633" lon="14.2449567"><ele>173.0</ele><time>2026-04-17T15:33:27.54Z</time></trkpt><trkpt lat="40.8707483" lon="14.2450567"><ele>173.0</ele><time>2026-04-17T15:33:29.539Z</time></trkpt><trkpt lat="40.8707233" lon="14.2451683"><ele>173.0</ele><time>2026-04-17T15:33:31.539Z</time></trkpt><trkpt lat="40.87069" lon="14.24529"><ele>173.0</ele><time>2026-04-17T15:33:33.539Z</time></trkpt><trkpt lat="40.8706517" lon="14.24542"><ele>173.0</ele><time>2026-04-17T15:33:35.539Z</time></trkpt><trkpt lat="40.8706183" lon="14.2455617"><ele>173.0</ele><time>2026-04-17T15:33:37.541Z</time></trkpt><trkpt lat="40.8705733" lon="14.2457117"><ele>173.0</ele><time>2026-04-17T15:33:39.539Z</time></trkpt><trkpt lat="40.8705017" lon="14.245845"><ele>173.0</ele><time>2026-04-17T15:33:41.539Z</time></trkpt><trkpt lat="40.8704667" lon="14.245915"><ele>173.0</ele><time>2026-04-17T15:33:42.539Z</time></trkpt><trkpt lat="40.8704033" lon="14.24606"><ele>173.0</ele><time>2026-04-17T15:33:44.538Z</time></trkpt><trkpt lat="40.8703733" lon="14.2461333"><ele>173.0</ele><time>2026-04-17T15:33:45.538Z</time></trkpt><trkpt lat="40.8703483" lon="14.24621"><ele>173.0</ele><time>2026-04-17T15:33:46.54Z</time></trkpt><trkpt lat="40.8703133" lon="14.2463617"><ele>173.0</ele><time>2026-04-17T15:33:48.538Z</time></trkpt><trkpt lat="40.8702767" lon="14.2465033"><ele>172.16666666666666</ele><time>2026-04-17T15:33:50.537Z</time></trkpt><trkpt lat="40.870235" lon="14.2466533"><ele>171.33333333333331</ele><time>2026-04-17T15:33:52.539Z</time></trkpt><trkpt lat="40.8702033" lon="14.24673"><ele>170.5</ele><time>2026-04-17T15:33:53.539Z</time></trkpt><trkpt lat="40.8701783" lon="14.24681"><ele>169.66666666666666</ele><time>2026-04-17T15:33:54.538Z</time></trkpt><trkpt lat="40.87016" lon="14.2468983"><ele>168.83333333333334</ele><time>2026-04-17T15:33:55.537Z</time></trkpt><trkpt lat="40.87014" lon="14.2469833"><ele>168.0</ele><time>2026-04-17T15:33:56.538Z</time></trkpt><trkpt lat="40.8701217" lon="14.24707"><ele>167.57142857142858</ele><time>2026-04-17T15:33:57.537Z</time></trkpt><trkpt lat="40.8701067" lon="14.2471567"><ele>167.14285714285714</ele><time>2026-04-17T15:33:58.538Z</time></trkpt><trkpt lat="40.8700883" lon="14.2472367"><ele>166.71428571428572</ele><time>2026-04-17T15:33:59.539Z</time></trkpt><trkpt lat="40.8700683" lon="14.2473217"><ele>166.28571428571428</ele><time>2026-04-17T15:34:00.54Z</time></trkpt><trkpt lat="40.870045" lon="14.2474083"><ele>165.85714285714286</ele><time>2026-04-17T15:34:01.539Z</time></trkpt><trkpt lat="40.870015" lon="14.2474967"><ele>165.42857142857144</ele><time>2026-04-17T15:34:02.538Z</time></trkpt><trkpt lat="40.8699817" lon="14.2475883"><ele>165.0</ele><time>2026-04-17T15:34:03.539Z</time></trkpt><trkpt lat="40.86994" lon="14.2476717"><ele>164.66666666666666</ele><time>2026-04-17T15:34:04.541Z</time></trkpt><trkpt lat="40.8698917" lon="14.2477433"><ele>164.33333333333334</ele><time>2026-04-17T15:34:05.54Z</time></trkpt><trkpt lat="40.8698367" lon="14.247795"><ele>164.0</ele><time>2026-04-17T15:34:06.539Z</time></trkpt><trkpt lat="40.8697733" lon="14.2478283"><ele>163.66666666666669</ele><time>2026-04-17T15:34:07.539Z</time></trkpt><trkpt lat="40.8696583" lon="14.247855"><ele>163.33333333333334</ele><time>2026-04-17T15:34:09.539Z</time></trkpt><trkpt lat="40.8695483" lon="14.24787"><ele>163.0</ele><time>2026-04-17T15:34:11.538Z</time></trkpt><trkpt lat="40.8694717" lon="14.2479133"><ele>163.0</ele><time>2026-04-17T15:34:13.537Z</time></trkpt><trkpt lat="40.869445" lon="14.2480817"><ele>163.0</ele><time>2026-04-17T15:34:15.538Z</time></trkpt><trkpt lat="40.8694167" lon="14.2481767"><ele>163.0</ele><time>2026-04-17T15:34:16.538Z</time></trkpt><trkpt lat="40.8693917" lon="14.2482667"><ele>163.0</ele><time>2026-04-17T15:34:17.537Z</time></trkpt><trkpt lat="40.869365" lon="14.2483633"><ele>163.0</ele><time>2026-04-17T15:34:18.538Z</time></trkpt><trkpt lat="40.869335" lon="14.2484417"><ele>163.0</ele><time>2026-04-17T15:34:19.536Z</time></trkpt><trkpt lat="40.869295" lon="14.2485833"><ele>162.5</ele><time>2026-04-17T15:34:21.537Z</time></trkpt><trkpt lat="40.8693083" lon="14.24867"><ele>162.0</ele><time>2026-04-17T15:34:22.536Z</time></trkpt><trkpt lat="40.8693417" lon="14.248745"><ele>161.5</ele><time>2026-04-17T15:34:23.536Z</time></trkpt><trkpt lat="40.8693917" lon="14.248805"><ele>161.0</ele><time>2026-04-17T15:34:24.537Z</time></trkpt><trkpt lat="40.8694733" lon="14.2488967"><ele>160.5</ele><time>2026-04-17T15:34:26.539Z</time></trkpt><trkpt lat="40.8695617" lon="14.2489867"><ele>160.0</ele><time>2026-04-17T15:34:28.537Z</time></trkpt><trkpt lat="40.86964" lon="14.2490917"><ele>159.6</ele><time>2026-04-17T15:34:30.538Z</time></trkpt><trkpt lat="40.8697117" lon="14.2492083"><ele>159.2</ele><time>2026-04-17T15:34:32.538Z</time></trkpt><trkpt lat="40.8698" lon="14.24931"><ele>158.8</ele><time>2026-04-17T15:34:34.537Z</time></trkpt><trkpt lat="40.869905" lon="14.2493467"><ele>158.4</ele><time>2026-04-17T15:34:36.537Z</time></trkpt><trkpt lat="40.8699833" lon="14.2492983"><ele>158.0</ele><time>2026-04-17T15:34:38.539Z</time></trkpt><trkpt lat="40.8700517" lon="14.2492483"><ele>157.5</ele><time>2026-04-17T15:34:40.537Z</time></trkpt><trkpt lat="40.8701183" lon="14.2492133"><ele>157.0</ele><time>2026-04-17T15:34:42.539Z</time></trkpt><trkpt lat="40.8701883" lon="14.2491683"><ele>156.5</ele><time>2026-04-17T15:34:44.537Z</time></trkpt><trkpt lat="40.8702667" lon="14.249125"><ele>156.0</ele><time>2026-04-17T15:34:46.537Z</time></trkpt><trkpt lat="40.8703383" lon="14.2490933"><ele>155.5</ele><time>2026-04-17T15:34:48.54Z</time></trkpt><trkpt lat="40.8704117" lon="14.24906"><ele>155.0</ele><time>2026-04-17T15:34:50.538Z</time></trkpt><trkpt lat="40.87049" lon="14.24904"><ele>155.0</ele><time>2026-04-17T15:34:52.537Z</time></trkpt><trkpt lat="40.87057" lon="14.2490083"><ele>155.0</ele><time>2026-04-17T15:34:54.538Z</time></trkpt><trkpt lat="40.8706467" lon="14.24898"><ele>155.0</ele><time>2026-04-17T15:34:56.537Z</time></trkpt><trkpt lat="40.8707167" lon="14.2489583"><ele>155.0</ele><time>2026-04-17T15:34:58.538Z</time></trkpt><trkpt lat="40.8707783" lon="14.24893"><ele>155.0</ele><time>2026-04-17T15:35:00.538Z</time></trkpt><trkpt lat="40.870845" lon="14.2489"><ele>155.0</ele><time>2026-04-17T15:35:02.538Z</time></trkpt><trkpt lat="40.8709233" lon="14.248875"><ele>155.83333333333331</ele><time>2026-04-17T15:35:04.539Z</time></trkpt><trkpt lat="40.8710033" lon="14.248835"><ele>156.66666666666666</ele><time>2026-04-17T15:35:06.539Z</time></trkpt><trkpt lat="40.8710783" lon="14.24879"><ele>157.5</ele><time>2026-04-17T15:35:08.538Z</time></trkpt><trkpt lat="40.8711567" lon="14.24875"><ele>158.33333333333334</ele><time>2026-04-17T15:35:10.538Z</time></trkpt><trkpt lat="40.8712267" lon="14.24868"><ele>159.16666666666669</ele><time>2026-04-17T15:35:12.537Z</time></trkpt><trkpt lat="40.871305" lon="14.2486133"><ele>160.0</ele><time>2026-04-17T15:35:14.538Z</time></trkpt><trkpt lat="40.8713767" lon="14.2485567"><ele>160.0</ele><time>2026-04-17T15:35:16.538Z</time></trkpt><trkpt lat="40.8714283" lon="14.2484883"><ele>160.0</ele><time>2026-04-17T15:35:18.537Z</time></trkpt><trkpt lat="40.8714767" lon="14.2484167"><ele>160.0</ele><time>2026-04-17T15:35:20.537Z</time></trkpt><trkpt lat="40.8715033" lon="14.248335"><ele>160.0</ele><time>2026-04-17T15:35:22.537Z</time></trkpt><trkpt lat="40.8715317" lon="14.2482133"><ele>160.0</ele><time>2026-04-17T15:35:24.538Z</time></trkpt><trkpt lat="40.8715117" lon="14.2481333"><ele>160.0</ele><time>2026-04-17T15:35:25.537Z</time></trkpt><trkpt lat="40.87152" lon="14.2480333"><ele>160.0</ele><time>2026-04-17T15:35:27.537Z</time></trkpt><trkpt lat="40.8715217" lon="14.2479283"><ele>160.5</ele><time>2026-04-17T15:35:29.538Z</time></trkpt><trkpt lat="40.871525" lon="14.2478267"><ele>161.0</ele><time>2026-04-17T15:35:31.538Z</time></trkpt><trkpt lat="40.871535" lon="14.2477133"><ele>161.5</ele><time>2026-04-17T15:35:33.537Z</time></trkpt><trkpt lat="40.8715417" lon="14.2476067"><ele>162.0</ele><time>2026-04-17T15:35:35.539Z</time></trkpt><trkpt lat="40.8715517" lon="14.2475"><ele>162.5</ele><time>2026-04-17T15:35:37.539Z</time></trkpt><trkpt lat="40.87155" lon="14.247385"><ele>163.0</ele><time>2026-04-17T15:35:39.538Z</time></trkpt><trkpt lat="40.8715383" lon="14.2472683"><ele>163.66666666666669</ele><time>2026-04-17T15:35:41.538Z</time></trkpt><trkpt lat="40.8715417" lon="14.2471583"><ele>164.33333333333334</ele><time>2026-04-17T15:35:43.536Z</time></trkpt><trkpt lat="40.8715467" lon="14.2470617"><ele>165.0</ele><time>2026-04-17T15:35:45.537Z</time></trkpt><trkpt lat="40.871545" lon="14.2469783"><ele>165.66666666666666</ele><time>2026-04-17T15:35:47.539Z</time></trkpt><trkpt lat="40.8715533" lon="14.246885"><ele>166.33333333333331</ele><time>2026-04-17T15:35:51.538Z</time></trkpt><trkpt lat="40.8715" lon="14.2468083"><ele>167.0</ele><time>2026-04-17T15:36:04.54Z</time></trkpt><trkpt lat="40.8715267" lon="14.2466917"><ele>167.0</ele><time>2026-04-17T15:36:07.539Z</time></trkpt><trkpt lat="40.8715967" lon="14.246645"><ele>167.0</ele><time>2026-04-17T15:36:10.539Z</time></trkpt><trkpt lat="40.8716617" lon="14.2466433"><ele>167.0</ele><time>2026-04-17T15:36:12.539Z</time></trkpt><trkpt lat="40.8717317" lon="14.2466433"><ele>167.0</ele><time>2026-04-17T15:36:14.539Z</time></trkpt><trkpt lat="40.8718067" lon="14.2466433"><ele>167.0</ele><time>2026-04-17T15:36:16.539Z</time></trkpt><trkpt lat="40.8718917" lon="14.2466567"><ele>167.0</ele><time>2026-04-17T15:36:18.541Z</time></trkpt><trkpt lat="40.87198" lon="14.246665"><ele>167.33333333333331</ele><time>2026-04-17T15:36:20.538Z</time></trkpt><trkpt lat="40.87206" lon="14.246665"><ele>167.66666666666666</ele><time>2026-04-17T15:36:22.538Z</time></trkpt><trkpt lat="40.8721417" lon="14.2466517"><ele>168.0</ele><time>2026-04-17T15:36:24.541Z</time></trkpt><trkpt lat="40.87222" lon="14.24665"><ele>168.33333333333334</ele><time>2026-04-17T15:36:26.538Z</time></trkpt><trkpt lat="40.8722983" lon="14.2466467"><ele>168.66666666666669</ele><time>2026-04-17T15:36:51.539Z</time></trkpt><trkpt lat="40.87239" lon="14.24667"><ele>169.0</ele><time>2026-04-17T15:36:54.538Z</time></trkpt><trkpt lat="40.8724667" lon="14.246685"><ele>169.0</ele><time>2026-04-17T15:36:56.537Z</time></trkpt><trkpt lat="40.87254" lon="14.24674"><ele>169.0</ele><time>2026-04-17T15:36:58.537Z</time></trkpt><trkpt lat="40.8725783" lon="14.2468633"><ele>169.0</ele><time>2026-04-17T15:37:00.537Z</time></trkpt><trkpt lat="40.872575" lon="14.2469533"><ele>169.0</ele><time>2026-04-17T15:37:01.538Z</time></trkpt><trkpt lat="40.8725633" lon="14.2470483"><ele>169.0</ele><time>2026-04-17T15:37:02.538Z</time></trkpt><trkpt lat="40.872545" lon="14.247145"><ele>169.0</ele><time>2026-04-17T15:37:03.537Z</time></trkpt><trkpt lat="40.8725217" lon="14.2472367"><ele>168.28571428571428</ele><time>2026-04-17T15:37:04.542Z</time></trkpt><trkpt lat="40.872515" lon="14.2473233"><ele>167.57142857142856</ele><time>2026-04-17T15:37:05.539Z</time></trkpt><trkpt lat="40.8725033" lon="14.2474167"><ele>166.85714285714283</ele><time>2026-04-17T15:37:06.54Z</time></trkpt><trkpt lat="40.8724917" lon="14.2475133"><ele>166.14285714285714</ele><time>2026-04-17T15:37:07.54Z</time></trkpt><trkpt lat="40.8724833" lon="14.2476083"><ele>165.42857142857142</ele><time>2026-04-17T15:37:08.537Z</time></trkpt><trkpt lat="40.8724733" lon="14.247705"><ele>164.7142857142857</ele><time>2026-04-17T15:37:09.538Z</time></trkpt><trkpt lat="40.8724733" lon="14.24781"><ele>164.0</ele><time>2026-04-17T15:37:10.536Z</time></trkpt><trkpt lat="40.8724667" lon="14.247915"><ele>164.0</ele><time>2026-04-17T15:37:11.539Z</time></trkpt><trkpt lat="40.872455" lon="14.248015"><ele>164.0</ele><time>2026-04-17T15:37:12.539Z</time></trkpt><trkpt lat="40.8724433" lon="14.2481167"><ele>164.0</ele><time>2026-04-17T15:37:13.538Z</time></trkpt><trkpt lat="40.8724333" lon="14.2482183"><ele>164.0</ele><time>2026-04-17T15:37:14.54Z</time></trkpt><trkpt lat="40.8724367" lon="14.2483283"><ele>164.0</ele><time>2026-04-17T15:37:15.538Z</time></trkpt><trkpt lat="40.87244" lon="14.2484383"><ele>164.0</ele><time>2026-04-17T15:37:16.537Z</time></trkpt><trkpt lat="40.8724317" lon="14.248555"><ele>163.16666666666666</ele><time>2026-04-17T15:37:17.537Z</time></trkpt><trkpt lat="40.8724267" lon="14.248665"><ele>162.33333333333331</ele><time>2026-04-17T15:37:18.538Z</time></trkpt><trkpt lat="40.8724117" lon="14.248775"><ele>161.5</ele><time>2026-04-17T15:37:19.538Z</time></trkpt><trkpt lat="40.872395" lon="14.2488717"><ele>160.66666666666666</ele><time>2026-04-17T15:37:20.538Z</time></trkpt><trkpt lat="40.872375" lon="14.2489583"><ele>159.83333333333334</ele><time>2026-04-17T15:37:21.54Z</time></trkpt><trkpt lat="40.8723633" lon="14.24911"><ele>159.0</ele><time>2026-04-17T15:37:23.538Z</time></trkpt><trkpt lat="40.8723617" lon="14.2492033"><ele>158.83333333333334</ele><time>2026-04-17T15:37:25.538Z</time></trkpt><trkpt lat="40.8724283" lon="14.2492667"><ele>158.66666666666666</ele><time>2026-04-17T15:37:55.538Z</time></trkpt><trkpt lat="40.8725133" lon="14.2492517"><ele>158.5</ele><time>2026-04-17T15:37:58.538Z</time></trkpt><trkpt lat="40.8725833" lon="14.2492317"><ele>158.33333333333331</ele><time>2026-04-17T15:38:00.537Z</time></trkpt><trkpt lat="40.8726783" lon="14.2492017"><ele>158.16666666666666</ele><time>2026-04-17T15:38:02.538Z</time></trkpt><trkpt lat="40.872775" lon="14.2491633"><ele>158.0</ele><time>2026-04-17T15:38:04.538Z</time></trkpt><trkpt lat="40.8728733" lon="14.2491233"><ele>158.0</ele><time>2026-04-17T15:38:06.537Z</time></trkpt><trkpt lat="40.8729817" lon="14.2490733"><ele>158.0</ele><time>2026-04-17T15:38:08.538Z</time></trkpt><trkpt lat="40.8730983" lon="14.2490183"><ele>158.0</ele><time>2026-04-17T15:38:10.538Z</time></trkpt><trkpt lat="40.8731583" lon="14.248985"><ele>158.0</ele><time>2026-04-17T15:38:11.537Z</time></trkpt><trkpt lat="40.8732167" lon="14.2489533"><ele>158.0</ele><time>2026-04-17T15:38:12.539Z</time></trkpt><trkpt lat="40.87333" lon="14.2488833"><ele>157.8</ele><time>2026-04-17T15:38:14.537Z</time></trkpt><trkpt lat="40.8734433" lon="14.24882"><ele>157.60000000000002</ele><time>2026-04-17T15:38:16.539Z</time></trkpt><trkpt lat="40.8734983" lon="14.2487783"><ele>157.39999999999998</ele><time>2026-04-17T15:38:17.538Z</time></trkpt><trkpt lat="40.87361" lon="14.248715"><ele>157.2</ele><time>2026-04-17T15:38:19.538Z</time></trkpt><trkpt lat="40.8737267" lon="14.2486617"><ele>157.0</ele><time>2026-04-17T15:38:21.538Z</time></trkpt><trkpt lat="40.8738417" lon="14.2486067"><ele>157.0</ele><time>2026-04-17T15:38:23.54Z</time></trkpt><trkpt lat="40.8739517" lon="14.2485467"><ele>157.0</ele><time>2026-04-17T15:38:25.538Z</time></trkpt><trkpt lat="40.8740517" lon="14.2485"><ele>157.0</ele><time>2026-04-17T15:38:27.537Z</time></trkpt><trkpt lat="40.8741583" lon="14.24847"><ele>157.0</ele><time>2026-04-17T15:38:29.539Z</time></trkpt><trkpt lat="40.8742633" lon="14.24847"><ele>157.0</ele><time>2026-04-17T15:38:31.537Z</time></trkpt><trkpt lat="40.8743683" lon="14.2484733"><ele>155.5</ele><time>2026-04-17T15:38:33.537Z</time></trkpt><trkpt lat="40.8744783" lon="14.2484917"><ele>154.0</ele><time>2026-04-17T15:38:35.538Z</time></trkpt><trkpt lat="40.874595" lon="14.2485133"><ele>152.5</ele><time>2026-04-17T15:38:37.539Z</time></trkpt><trkpt lat="40.87472" lon="14.24853"><ele>151.0</ele><time>2026-04-17T15:38:39.539Z</time></trkpt><trkpt lat="40.8748317" lon="14.2485483"><ele>151.0</ele><time>2026-04-17T15:38:41.539Z</time></trkpt><trkpt lat="40.87495" lon="14.2485633"><ele>151.0</ele><time>2026-04-17T15:38:43.539Z</time></trkpt><trkpt lat="40.875075" lon="14.2485883"><ele>151.0</ele><time>2026-04-17T15:38:45.539Z</time></trkpt><trkpt lat="40.87519" lon="14.248615"><ele>151.0</ele><time>2026-04-17T15:38:47.539Z</time></trkpt><trkpt lat="40.875305" lon="14.2486167"><ele>151.4</ele><time>2026-04-17T15:38:49.543Z</time></trkpt><trkpt lat="40.8754133" lon="14.248635"><ele>151.8</ele><time>2026-04-17T15:38:51.539Z</time></trkpt><trkpt lat="40.875525" lon="14.248645"><ele>152.20000000000002</ele><time>2026-04-17T15:38:53.539Z</time></trkpt><trkpt lat="40.8756383" lon="14.2486533"><ele>152.6</ele><time>2026-04-17T15:38:55.542Z</time></trkpt><trkpt lat="40.87575" lon="14.2486567"><ele>153.0</ele><time>2026-04-17T15:38:57.538Z</time></trkpt><trkpt lat="40.8758133" lon="14.24866"><ele>153.0</ele><time>2026-04-17T15:38:58.537Z</time></trkpt><trkpt lat="40.8758767" lon="14.248665"><ele>153.0</ele><time>2026-04-17T15:38:59.537Z</time></trkpt><trkpt lat="40.87594" lon="14.2486717"><ele>153.0</ele><time>2026-04-17T15:39:00.537Z</time></trkpt><trkpt lat="40.876065" lon="14.2486867"><ele>153.0</ele><time>2026-04-17T15:39:02.538Z</time></trkpt><trkpt lat="40.87613" lon="14.2486917"><ele>153.0</ele><time>2026-04-17T15:39:03.537Z</time></trkpt><trkpt lat="40.876195" lon="14.248695"><ele>153.0</ele><time>2026-04-17T15:39:04.545Z</time></trkpt><trkpt lat="40.8762617" lon="14.2486933"><ele>153.0</ele><time>2026-04-17T15:39:05.538Z</time></trkpt><trkpt lat="40.8763317" lon="14.24869"><ele>152.14285714285714</ele><time>2026-04-17T15:39:06.538Z</time></trkpt><trkpt lat="40.8764033" lon="14.24869"><ele>151.28571428571428</ele><time>2026-04-17T15:39:07.539Z</time></trkpt><trkpt lat="40.876475" lon="14.24869"><ele>150.42857142857144</ele><time>2026-04-17T15:39:08.538Z</time></trkpt><trkpt lat="40.876545" lon="14.2486883"><ele>149.57142857142856</ele><time>2026-04-17T15:39:09.537Z</time></trkpt><trkpt lat="40.876615" lon="14.248685"><ele>148.71428571428572</ele><time>2026-04-17T15:39:10.541Z</time></trkpt><trkpt lat="40.8766883" lon="14.2486817"><ele>147.85714285714286</ele><time>2026-04-17T15:39:11.538Z</time></trkpt><trkpt lat="40.8767617" lon="14.2486867"><ele>147.0</ele><time>2026-04-17T15:39:12.539Z</time></trkpt><trkpt lat="40.876835" lon="14.2486883"><ele>146.0</ele><time>2026-04-17T15:39:13.539Z</time></trkpt><trkpt lat="40.8769117" lon="14.2487017"><ele>145.0</ele><time>2026-04-17T15:39:14.538Z</time></trkpt><trkpt lat="40.876985" lon="14.2487083"><ele>144.0</ele><time>2026-04-17T15:39:15.537Z</time></trkpt><trkpt lat="40.87706" lon="14.248705"><ele>143.0</ele><time>2026-04-17T15:39:16.539Z</time></trkpt><trkpt lat="40.877135" lon="14.2487083"><ele>142.0</ele><time>2026-04-17T15:39:17.539Z</time></trkpt><trkpt lat="40.8772117" lon="14.2487067"><ele>141.0</ele><time>2026-04-17T15:39:18.538Z</time></trkpt><trkpt lat="40.87729" lon="14.248705"><ele>141.0</ele><time>2026-04-17T15:39:19.54Z</time></trkpt><trkpt lat="40.8773667" lon="14.2487017"><ele>141.0</ele><time>2026-04-17T15:39:20.54Z</time></trkpt><trkpt lat="40.877445" lon="14.2486967"><ele>141.0</ele><time>2026-04-17T15:39:21.539Z</time></trkpt><trkpt lat="40.8775233" lon="14.2486967"><ele>141.0</ele><time>2026-04-17T15:39:22.539Z</time></trkpt><trkpt lat="40.8775983" lon="14.24869"><ele>141.0</ele><time>2026-04-17T15:39:23.539Z</time></trkpt><trkpt lat="40.8776733" lon="14.2486833"><ele>141.0</ele><time>2026-04-17T15:39:24.541Z</time></trkpt><trkpt lat="40.87775" lon="14.2486783"><ele>140.0</ele><time>2026-04-17T15:39:25.539Z</time></trkpt><trkpt lat="40.87783" lon="14.2486733"><ele>139.0</ele><time>2026-04-17T15:39:26.543Z</time></trkpt><trkpt lat="40.87791" lon="14.2486717"><ele>138.0</ele><time>2026-04-17T15:39:27.538Z</time></trkpt><trkpt lat="40.8779867" lon="14.24867"><ele>137.0</ele><time>2026-04-17T15:39:28.538Z</time></trkpt><trkpt lat="40.8780633" lon="14.2486667"><ele>136.0</ele><time>2026-04-17T15:39:29.539Z</time></trkpt><trkpt lat="40.8781417" lon="14.24867"><ele>135.0</ele><time>2026-04-17T15:39:30.538Z</time></trkpt><trkpt lat="40.8782233" lon="14.24867"><ele>135.0</ele><time>2026-04-17T15:39:31.54Z</time></trkpt><trkpt lat="40.8783033" lon="14.2486717"><ele>135.0</ele><time>2026-04-17T15:39:32.538Z</time></trkpt><trkpt lat="40.878385" lon="14.24867"><ele>135.0</ele><time>2026-04-17T15:39:33.539Z</time></trkpt><trkpt lat="40.878465" lon="14.2486733"><ele>135.0</ele><time>2026-04-17T15:39:34.538Z</time></trkpt><trkpt lat="40.878545" lon="14.2486767"><ele>135.0</ele><time>2026-04-17T15:39:35.539Z</time></trkpt><trkpt lat="40.8786233" lon="14.24868"><ele>135.0</ele><time>2026-04-17T15:39:36.541Z</time></trkpt><trkpt lat="40.8787033" lon="14.2486833"><ele>133.83333333333334</ele><time>2026-04-17T15:39:37.539Z</time></trkpt><trkpt lat="40.87879" lon="14.2486667"><ele>132.66666666666666</ele><time>2026-04-17T15:39:38.539Z</time></trkpt><trkpt lat="40.878865" lon="14.2486567"><ele>131.5</ele><time>2026-04-17T15:39:39.538Z</time></trkpt><trkpt lat="40.8789467" lon="14.2486583"><ele>130.33333333333331</ele><time>2026-04-17T15:39:40.539Z</time></trkpt><trkpt lat="40.8790267" lon="14.24866"><ele>129.16666666666666</ele><time>2026-04-17T15:39:41.538Z</time></trkpt><trkpt lat="40.8791067" lon="14.2486567"><ele>128.0</ele><time>2026-04-17T15:39:42.538Z</time></trkpt><trkpt lat="40.8791917" lon="14.2486583"><ele>128.5</ele><time>2026-04-17T15:39:43.54Z</time></trkpt><trkpt lat="40.879285" lon="14.2486533"><ele>129.0</ele><time>2026-04-17T15:39:44.538Z</time></trkpt><trkpt lat="40.8793667" lon="14.2486583"><ele>129.5</ele><time>2026-04-17T15:39:45.539Z</time></trkpt><trkpt lat="40.8794517" lon="14.2486667"><ele>130.0</ele><time>2026-04-17T15:39:46.538Z</time></trkpt><trkpt lat="40.8795417" lon="14.2486733"><ele>130.5</ele><time>2026-04-17T15:39:47.538Z</time></trkpt><trkpt lat="40.87963" lon="14.2486767"><ele>131.0</ele><time>2026-04-17T15:39:48.538Z</time></trkpt><trkpt lat="40.8797167" lon="14.2486767"><ele>131.0</ele><time>2026-04-17T15:39:49.54Z</time></trkpt><trkpt lat="40.8798033" lon="14.2486767"><ele>131.0</ele><time>2026-04-17T15:39:50.54Z</time></trkpt><trkpt lat="40.87989" lon="14.2486733"><ele>131.0</ele><time>2026-04-17T15:39:51.538Z</time></trkpt><trkpt lat="40.8799767" lon="14.248675"><ele>131.0</ele><time>2026-04-17T15:39:52.537Z</time></trkpt><trkpt lat="40.880065" lon="14.2486783"><ele>131.0</ele><time>2026-04-17T15:39:53.538Z</time></trkpt><trkpt lat="40.880155" lon="14.2486767"><ele>131.0</ele><time>2026-04-17T15:39:54.538Z</time></trkpt><trkpt lat="40.8802433" lon="14.2486767"><ele>129.83333333333331</ele><time>2026-04-17T15:39:55.539Z</time></trkpt><trkpt lat="40.8803317" lon="14.2486733"><ele>128.66666666666666</ele><time>2026-04-17T15:39:56.538Z</time></trkpt><trkpt lat="40.8804183" lon="14.2486717"><ele>127.5</ele><time>2026-04-17T15:39:57.538Z</time></trkpt><trkpt lat="40.880505" lon="14.2486733"><ele>126.33333333333334</ele><time>2026-04-17T15:39:58.538Z</time></trkpt><trkpt lat="40.8805917" lon="14.248675"><ele>125.16666666666667</ele><time>2026-04-17T15:39:59.539Z</time></trkpt><trkpt lat="40.8806767" lon="14.2486783"><ele>124.0</ele><time>2026-04-17T15:40:00.539Z</time></trkpt><trkpt lat="40.8807583" lon="14.2486933"><ele>124.00000000000001</ele><time>2026-04-17T15:40:01.54Z</time></trkpt><trkpt lat="40.8808317" lon="14.2487333"><ele>124.0</ele><time>2026-04-17T15:40:02.54Z</time></trkpt><trkpt lat="40.880895" lon="14.2488"><ele>124.0</ele><time>2026-04-17T15:40:03.538Z</time></trkpt><trkpt lat="40.880945" lon="14.2488883"><ele>124.0</ele><time>2026-04-17T15:40:04.538Z</time></trkpt><trkpt lat="40.8809917" lon="14.248985"><ele>124.00000000000001</ele><time>2026-04-17T15:40:05.539Z</time></trkpt><trkpt lat="40.881035" lon="14.2490817"><ele>124.0</ele><time>2026-04-17T15:40:06.54Z</time></trkpt><trkpt lat="40.881085" lon="14.2491817"><ele>123.6</ele><time>2026-04-17T15:40:07.539Z</time></trkpt><trkpt lat="40.881145" lon="14.24928"><ele>123.2</ele><time>2026-04-17T15:40:08.537Z</time></trkpt><trkpt lat="40.8812033" lon="14.2493717"><ele>122.79999999999998</ele><time>2026-04-17T15:40:09.536Z</time></trkpt><trkpt lat="40.8812667" lon="14.2494583"><ele>122.39999999999999</ele><time>2026-04-17T15:40:10.538Z</time></trkpt><trkpt lat="40.8813333" lon="14.24954"><ele>122.0</ele><time>2026-04-17T15:40:11.541Z</time></trkpt><trkpt lat="40.88141" lon="14.249605"><ele>122.0</ele><time>2026-04-17T15:40:12.54Z</time></trkpt><trkpt lat="40.881495" lon="14.2496317"><ele>121.99999999999999</ele><time>2026-04-17T15:40:13.54Z</time></trkpt><trkpt lat="40.881585" lon="14.24963"><ele>121.99999999999999</ele><time>2026-04-17T15:40:14.539Z</time></trkpt><trkpt lat="40.8816783" lon="14.24962"><ele>122.0</ele><time>2026-04-17T15:40:15.539Z</time></trkpt><trkpt lat="40.8817717" lon="14.249615"><ele>122.0</ele><time>2026-04-17T15:40:16.539Z</time></trkpt><trkpt lat="40.8818667" lon="14.2496067"><ele>120.6</ele><time>2026-04-17T15:40:17.538Z</time></trkpt><trkpt lat="40.88196" lon="14.249595"><ele>119.19999999999999</ele><time>2026-04-17T15:40:18.538Z</time></trkpt><trkpt lat="40.882055" lon="14.2495817"><ele>117.8</ele><time>2026-04-17T15:40:19.539Z</time></trkpt><trkpt lat="40.882145" lon="14.2495567"><ele>116.4</ele><time>2026-04-17T15:40:20.538Z</time></trkpt><trkpt lat="40.8822317" lon="14.2495117"><ele>115.0</ele><time>2026-04-17T15:40:21.538Z</time></trkpt><trkpt lat="40.882305" lon="14.2494383"><ele>115.0</ele><time>2026-04-17T15:40:22.538Z</time></trkpt><trkpt lat="40.8823717" lon="14.2493517"><ele>115.0</ele><time>2026-04-17T15:40:23.542Z</time></trkpt><trkpt lat="40.88242" lon="14.2492317"><ele>115.0</ele><time>2026-04-17T15:40:24.538Z</time></trkpt><trkpt lat="40.8824767" lon="14.249125"><ele>115.0</ele><time>2026-04-17T15:40:25.539Z</time></trkpt><trkpt lat="40.8825317" lon="14.249005"><ele>115.0</ele><time>2026-04-17T15:40:26.538Z</time></trkpt><trkpt lat="40.882595" lon="14.2489017"><ele>113.4</ele><time>2026-04-17T15:40:27.539Z</time></trkpt><trkpt lat="40.8826683" lon="14.2488117"><ele>111.8</ele><time>2026-04-17T15:40:28.539Z</time></trkpt><trkpt lat="40.882745" lon="14.2487333"><ele>110.19999999999999</ele><time>2026-04-17T15:40:29.54Z</time></trkpt><trkpt lat="40.8828283" lon="14.2486633"><ele>108.6</ele><time>2026-04-17T15:40:30.539Z</time></trkpt><trkpt lat="40.8829183" lon="14.248615"><ele>107.0</ele><time>2026-04-17T15:40:31.541Z</time></trkpt><trkpt lat="40.8830083" lon="14.2486033"><ele>107.0</ele><time>2026-04-17T15:40:32.539Z</time></trkpt><trkpt lat="40.8831033" lon="14.2486217"><ele>106.99999999999999</ele><time>2026-04-17T15:40:33.539Z</time></trkpt><trkpt lat="40.8831933" lon="14.2486617"><ele>106.99999999999999</ele><time>2026-04-17T15:40:34.538Z</time></trkpt><trkpt lat="40.88328" lon="14.24871"><ele>107.0</ele><time>2026-04-17T15:40:35.54Z</time></trkpt><trkpt lat="40.8833633" lon="14.2487567"><ele>107.0</ele><time>2026-04-17T15:40:36.541Z</time></trkpt><trkpt lat="40.883445" lon="14.2488"><ele>107.83333333333333</ele><time>2026-04-17T15:40:37.539Z</time></trkpt><trkpt lat="40.883525" lon="14.2488333"><ele>108.66666666666666</ele><time>2026-04-17T15:40:38.54Z</time></trkpt><trkpt lat="40.8836" lon="14.2488667"><ele>109.5</ele><time>2026-04-17T15:40:39.538Z</time></trkpt><trkpt lat="40.883675" lon="14.2488967"><ele>110.33333333333334</ele><time>2026-04-17T15:40:40.538Z</time></trkpt><trkpt lat="40.8837433" lon="14.2489317"><ele>111.16666666666667</ele><time>2026-04-17T15:40:41.542Z</time></trkpt><trkpt lat="40.8838133" lon="14.2489617"><ele>112.0</ele><time>2026-04-17T15:40:42.541Z</time></trkpt><trkpt lat="40.883885" lon="14.2489883"><ele>112.57142857142857</ele><time>2026-04-17T15:40:43.538Z</time></trkpt><trkpt lat="40.8839517" lon="14.2490083"><ele>113.14285714285714</ele><time>2026-04-17T15:40:44.538Z</time></trkpt><trkpt lat="40.884015" lon="14.2490283"><ele>113.71428571428572</ele><time>2026-04-17T15:40:45.539Z</time></trkpt><trkpt lat="40.8840783" lon="14.24905"><ele>114.28571428571429</ele><time>2026-04-17T15:40:46.54Z</time></trkpt><trkpt lat="40.8841433" lon="14.2490683"><ele>114.85714285714286</ele><time>2026-04-17T15:40:47.539Z</time></trkpt><trkpt lat="40.8842067" lon="14.249085"><ele>115.42857142857144</ele><time>2026-04-17T15:40:48.539Z</time></trkpt><trkpt lat="40.8842717" lon="14.24909"><ele>116.00000000000001</ele><time>2026-04-17T15:40:49.539Z</time></trkpt><trkpt lat="40.8843383" lon="14.2490917"><ele>117.14285714285717</ele><time>2026-04-17T15:40:50.539Z</time></trkpt><trkpt lat="40.8844067" lon="14.2490833"><ele>118.28571428571429</ele><time>2026-04-17T15:40:51.538Z</time></trkpt><trkpt lat="40.8844767" lon="14.2490783"><ele>119.42857142857144</ele><time>2026-04-17T15:40:52.538Z</time></trkpt><trkpt lat="40.884545" lon="14.24907"><ele>120.57142857142858</ele><time>2026-04-17T15:40:53.539Z</time></trkpt><trkpt lat="40.8846133" lon="14.249055"><ele>121.71428571428572</ele><time>2026-04-17T15:40:54.538Z</time></trkpt><trkpt lat="40.8846833" lon="14.2490333"><ele>122.85714285714286</ele><time>2026-04-17T15:40:55.538Z</time></trkpt><trkpt lat="40.8847517" lon="14.24901"><ele>124.0</ele><time>2026-04-17T15:40:56.54Z</time></trkpt><trkpt lat="40.8848183" lon="14.2489883"><ele>124.0</ele><time>2026-04-17T15:40:57.537Z</time></trkpt><trkpt lat="40.88488" lon="14.2489667"><ele>124.0</ele><time>2026-04-17T15:40:58.538Z</time></trkpt><trkpt lat="40.8849983" lon="14.248915"><ele>124.0</ele><time>2026-04-17T15:41:00.537Z</time></trkpt><trkpt lat="40.8851017" lon="14.248855"><ele>124.0</ele><time>2026-04-17T15:41:02.538Z</time></trkpt><trkpt lat="40.8851967" lon="14.2488417"><ele>124.0</ele><time>2026-04-17T15:41:04.539Z</time></trkpt><trkpt lat="40.8852917" lon="14.2488783"><ele>124.0</ele><time>2026-04-17T15:41:06.537Z</time></trkpt><trkpt lat="40.8853833" lon="14.2489333"><ele>124.0</ele><time>2026-04-17T15:41:08.539Z</time></trkpt><trkpt lat="40.8854683" lon="14.2489917"><ele>124.0</ele><time>2026-04-17T15:41:10.539Z</time></trkpt><trkpt lat="40.88555" lon="14.2490533"><ele>124.0</ele><time>2026-04-17T15:41:12.539Z</time></trkpt><trkpt lat="40.885635" lon="14.24911"><ele>124.0</ele><time>2026-04-17T15:41:14.537Z</time></trkpt><trkpt lat="40.885715" lon="14.2491683"><ele>124.0</ele><time>2026-04-17T15:41:16.539Z</time></trkpt><trkpt lat="40.88579" lon="14.2492217"><ele>124.00000000000001</ele><time>2026-04-17T15:41:18.538Z</time></trkpt><trkpt lat="40.885855" lon="14.2492783"><ele>124.0</ele><time>2026-04-17T15:41:20.539Z</time></trkpt><trkpt lat="40.8859117" lon="14.2493283"><ele>124.0</ele><time>2026-04-17T15:41:22.539Z</time></trkpt><trkpt lat="40.88597" lon="14.249385"><ele>124.00000000000001</ele><time>2026-04-17T15:41:24.538Z</time></trkpt><trkpt lat="40.8860333" lon="14.24939"><ele>124.0</ele><time>2026-04-17T15:41:27.538Z</time></trkpt><trkpt lat="40.8860983" lon="14.24942"><ele>124.0</ele><time>2026-04-17T15:41:30.539Z</time></trkpt><trkpt lat="40.8861583" lon="14.2494467"><ele>123.80000000000001</ele><time>2026-04-17T15:41:32.538Z</time></trkpt><trkpt lat="40.8862267" lon="14.2494933"><ele>123.60000000000001</ele><time>2026-04-17T15:41:34.539Z</time></trkpt><trkpt lat="40.8863017" lon="14.2495583"><ele>123.4</ele><time>2026-04-17T15:41:36.538Z</time></trkpt><trkpt lat="40.88639" lon="14.249615"><ele>123.2</ele><time>2026-04-17T15:41:38.538Z</time></trkpt><trkpt lat="40.8864867" lon="14.2496667"><ele>123.0</ele><time>2026-04-17T15:41:40.538Z</time></trkpt><trkpt lat="40.88657" lon="14.2497033"><ele>123.0</ele><time>2026-04-17T15:41:42.537Z</time></trkpt><trkpt lat="40.886645" lon="14.2497433"><ele>123.0</ele><time>2026-04-17T15:41:45.538Z</time></trkpt><trkpt lat="40.8867333" lon="14.2497767"><ele>123.0</ele><time>2026-04-17T15:41:48.537Z</time></trkpt><trkpt lat="40.8868133" lon="14.2498067"><ele>123.0</ele><time>2026-04-17T15:41:50.537Z</time></trkpt><trkpt lat="40.8868933" lon="14.2498517"><ele>123.0</ele><time>2026-04-17T15:41:52.538Z</time></trkpt><trkpt lat="40.88699" lon="14.2499083"><ele>123.0</ele><time>2026-04-17T15:41:54.539Z</time></trkpt><trkpt lat="40.887095" lon="14.2499617"><ele>123.0</ele><time>2026-04-17T15:41:56.54Z</time></trkpt><trkpt lat="40.8872017" lon="14.250025"><ele>123.00000000000001</ele><time>2026-04-17T15:41:58.539Z</time></trkpt><trkpt lat="40.887305" lon="14.250085"><ele>123.00000000000001</ele><time>2026-04-17T15:42:00.539Z</time></trkpt><trkpt lat="40.8874017" lon="14.2501383"><ele>123.0</ele><time>2026-04-17T15:42:02.538Z</time></trkpt><trkpt lat="40.8874917" lon="14.2501767"><ele>123.0</ele><time>2026-04-17T15:42:04.538Z</time></trkpt><trkpt lat="40.88758" lon="14.2502067"><ele>123.2</ele><time>2026-04-17T15:42:06.538Z</time></trkpt><trkpt lat="40.8876717" lon="14.25026"><ele>123.4</ele><time>2026-04-17T15:42:08.54Z</time></trkpt><trkpt lat="40.8877667" lon="14.2503067"><ele>123.60000000000001</ele><time>2026-04-17T15:42:10.539Z</time></trkpt><trkpt lat="40.8878783" lon="14.2503333"><ele>123.80000000000001</ele><time>2026-04-17T15:42:12.538Z</time></trkpt><trkpt lat="40.887985" lon="14.2504117"><ele>124.0</ele><time>2026-04-17T15:42:14.537Z</time></trkpt><trkpt lat="40.8880417" lon="14.250455"><ele>124.0</ele><time>2026-04-17T15:42:15.538Z</time></trkpt><trkpt lat="40.8880983" lon="14.2504917"><ele>124.0</ele><time>2026-04-17T15:42:16.538Z</time></trkpt><trkpt lat="40.8882133" lon="14.2505467"><ele>124.0</ele><time>2026-04-17T15:42:18.539Z</time></trkpt><trkpt lat="40.8883167" lon="14.250615"><ele>124.0</ele><time>2026-04-17T15:42:20.538Z</time></trkpt><trkpt lat="40.8884083" lon="14.250695"><ele>124.0</ele><time>2026-04-17T15:42:22.539Z</time></trkpt><trkpt lat="40.8884717" lon="14.2507683"><ele>123.6</ele><time>2026-04-17T15:42:24.539Z</time></trkpt><trkpt lat="40.888495" lon="14.2508533"><ele>123.2</ele><time>2026-04-17T15:42:26.538Z</time></trkpt><trkpt lat="40.8885" lon="14.2509533"><ele>122.79999999999998</ele><time>2026-04-17T15:42:28.537Z</time></trkpt><trkpt lat="40.8884617" lon="14.251065"><ele>122.39999999999999</ele><time>2026-04-17T15:42:30.538Z</time></trkpt><trkpt lat="40.88841" lon="14.251185"><ele>122.0</ele><time>2026-04-17T15:42:32.537Z</time></trkpt><trkpt lat="40.8883667" lon="14.25132"><ele>122.0</ele><time>2026-04-17T15:42:34.538Z</time></trkpt><trkpt lat="40.888315" lon="14.25145"><ele>121.99999999999999</ele><time>2026-04-17T15:42:36.538Z</time></trkpt><trkpt lat="40.88827" lon="14.2515833"><ele>121.99999999999999</ele><time>2026-04-17T15:42:38.537Z</time></trkpt><trkpt lat="40.8882233" lon="14.2517167"><ele>122.0</ele><time>2026-04-17T15:42:40.537Z</time></trkpt><trkpt lat="40.8881717" lon="14.2518333"><ele>122.0</ele><time>2026-04-17T15:42:42.537Z</time></trkpt><trkpt lat="40.8881267" lon="14.2519533"><ele>122.0</ele><time>2026-04-17T15:42:44.538Z</time></trkpt><trkpt lat="40.88807" lon="14.252085"><ele>122.0</ele><time>2026-04-17T15:42:46.538Z</time></trkpt><trkpt lat="40.8880267" lon="14.2522233"><ele>122.0</ele><time>2026-04-17T15:42:48.54Z</time></trkpt><trkpt lat="40.8879917" lon="14.252355"><ele>122.0</ele><time>2026-04-17T15:42:50.538Z</time></trkpt><trkpt lat="40.8879333" lon="14.2524983"><ele>121.99999999999999</ele><time>2026-04-17T15:42:52.539Z</time></trkpt><trkpt lat="40.8878667" lon="14.25264"><ele>122.0</ele><time>2026-04-17T15:42:54.539Z</time></trkpt><trkpt lat="40.8878317" lon="14.25272"><ele>122.0</ele><time>2026-04-17T15:42:55.538Z</time></trkpt><trkpt lat="40.8877967" lon="14.2528017"><ele>122.0</ele><time>2026-04-17T15:42:56.538Z</time></trkpt><trkpt lat="40.88776" lon="14.25288"><ele>121.99999999999999</ele><time>2026-04-17T15:42:57.538Z</time></trkpt><trkpt lat="40.88774" lon="14.252965"><ele>122.0</ele><time>2026-04-17T15:42:58.538Z</time></trkpt><trkpt lat="40.8877233" lon="14.253055"><ele>121.16666666666666</ele><time>2026-04-17T15:42:59.538Z</time></trkpt><trkpt lat="40.887715" lon="14.2531517"><ele>120.33333333333333</ele><time>2026-04-17T15:43:00.539Z</time></trkpt><trkpt lat="40.8877083" lon="14.253255"><ele>119.5</ele><time>2026-04-17T15:43:01.538Z</time></trkpt><trkpt lat="40.8877067" lon="14.25335"><ele>118.66666666666666</ele><time>2026-04-17T15:43:02.537Z</time></trkpt><trkpt lat="40.8877133" lon="14.25345"><ele>117.83333333333333</ele><time>2026-04-17T15:43:03.538Z</time></trkpt><trkpt lat="40.88771" lon="14.2535467"><ele>117.0</ele><time>2026-04-17T15:43:04.538Z</time></trkpt><trkpt lat="40.8877083" lon="14.2536483"><ele>117.0</ele><time>2026-04-17T15:43:05.54Z</time></trkpt><trkpt lat="40.8877083" lon="14.2537483"><ele>117.00000000000001</ele><time>2026-04-17T15:43:06.539Z</time></trkpt><trkpt lat="40.8877083" lon="14.2538467"><ele>117.0</ele><time>2026-04-17T15:43:07.538Z</time></trkpt><trkpt lat="40.88771" lon="14.253945"><ele>117.0</ele><time>2026-04-17T15:43:08.538Z</time></trkpt><trkpt lat="40.8877183" lon="14.25404"><ele>117.00000000000001</ele><time>2026-04-17T15:43:09.539Z</time></trkpt><trkpt lat="40.8877183" lon="14.2541433"><ele>117.0</ele><time>2026-04-17T15:43:10.538Z</time></trkpt><trkpt lat="40.8877167" lon="14.2542417"><ele>117.0</ele><time>2026-04-17T15:43:11.538Z</time></trkpt><trkpt lat="40.887715" lon="14.2543467"><ele>116.83333333333333</ele><time>2026-04-17T15:43:12.539Z</time></trkpt><trkpt lat="40.8877167" lon="14.2544567"><ele>116.66666666666666</ele><time>2026-04-17T15:43:13.538Z</time></trkpt><trkpt lat="40.8877167" lon="14.254565"><ele>116.5</ele><time>2026-04-17T15:43:14.539Z</time></trkpt><trkpt lat="40.88772" lon="14.2546767"><ele>116.33333333333333</ele><time>2026-04-17T15:43:15.537Z</time></trkpt><trkpt lat="40.8877217" lon="14.254785"><ele>116.16666666666666</ele><time>2026-04-17T15:43:16.537Z</time></trkpt><trkpt lat="40.88772" lon="14.25488"><ele>116.0</ele><time>2026-04-17T15:43:17.539Z</time></trkpt><trkpt lat="40.887715" lon="14.25497"><ele>115.99999999999999</ele><time>2026-04-17T15:43:18.539Z</time></trkpt><trkpt lat="40.8877067" lon="14.255055"><ele>116.0</ele><time>2026-04-17T15:43:19.539Z</time></trkpt><trkpt lat="40.8876933" lon="14.2551367"><ele>116.0</ele><time>2026-04-17T15:43:20.538Z</time></trkpt><trkpt lat="40.88764" lon="14.25525"><ele>116.0</ele><time>2026-04-17T15:43:22.539Z</time></trkpt><trkpt lat="40.887555" lon="14.255235"><ele>115.99999999999999</ele><time>2026-04-17T15:43:24.538Z</time></trkpt><trkpt lat="40.887455" lon="14.2551567"><ele>116.0</ele><time>2026-04-17T15:43:26.537Z</time></trkpt><trkpt lat="40.8873967" lon="14.255115"><ele>115.99999999999999</ele><time>2026-04-17T15:43:27.538Z</time></trkpt><trkpt lat="40.8873383" lon="14.2550683"><ele>116.0</ele><time>2026-04-17T15:43:28.539Z</time></trkpt><trkpt lat="40.8872833" lon="14.255025"><ele>116.0</ele><time>2026-04-17T15:43:29.537Z</time></trkpt><trkpt lat="40.8872283" lon="14.2549833"><ele>116.0</ele><time>2026-04-17T15:43:30.536Z</time></trkpt><trkpt lat="40.887125" lon="14.25489"><ele>115.99999999999999</ele><time>2026-04-17T15:43:32.537Z</time></trkpt><trkpt lat="40.8870233" lon="14.2548117"><ele>116.0</ele><time>2026-04-17T15:43:34.539Z</time></trkpt><trkpt lat="40.886915" lon="14.2547233"><ele>115.99999999999999</ele><time>2026-04-17T15:43:36.538Z</time></trkpt><trkpt lat="40.886855" lon="14.25468"><ele>116.0</ele><time>2026-04-17T15:43:37.538Z</time></trkpt><trkpt lat="40.8867983" lon="14.2546333"><ele>116.0</ele><time>2026-04-17T15:43:38.536Z</time></trkpt><trkpt lat="40.88674" lon="14.25459"><ele>116.0</ele><time>2026-04-17T15:43:39.537Z</time></trkpt><trkpt lat="40.8866833" lon="14.2545483"><ele>115.99999999999999</ele><time>2026-04-17T15:43:40.537Z</time></trkpt><trkpt lat="40.8865733" lon="14.2544867"><ele>116.0</ele><time>2026-04-17T15:43:42.538Z</time></trkpt><trkpt lat="40.8864617" lon="14.2544267"><ele>116.19999999999999</ele><time>2026-04-17T15:43:44.537Z</time></trkpt><trkpt lat="40.8863533" lon="14.2543667"><ele>116.39999999999999</ele><time>2026-04-17T15:43:46.538Z</time></trkpt><trkpt lat="40.8862483" lon="14.254305"><ele>116.6</ele><time>2026-04-17T15:43:48.536Z</time></trkpt><trkpt lat="40.88615" lon="14.254265"><ele>116.8</ele><time>2026-04-17T15:43:50.538Z</time></trkpt><trkpt lat="40.8860483" lon="14.2542633"><ele>117.0</ele><time>2026-04-17T15:43:52.538Z</time></trkpt><trkpt lat="40.88596" lon="14.2542733"><ele>117.5</ele><time>2026-04-17T15:43:54.536Z</time></trkpt><trkpt lat="40.88587" lon="14.254255"><ele>118.0</ele><time>2026-04-17T15:43:56.537Z</time></trkpt><trkpt lat="40.8857867" lon="14.254215"><ele>118.5</ele><time>2026-04-17T15:43:58.537Z</time></trkpt><trkpt lat="40.8857083" lon="14.2541683"><ele>119.0</ele><time>2026-04-17T15:44:00.537Z</time></trkpt><trkpt lat="40.8856367" lon="14.2541233"><ele>119.5</ele><time>2026-04-17T15:44:02.537Z</time></trkpt><trkpt lat="40.8855633" lon="14.2540733"><ele>120.0</ele><time>2026-04-17T15:44:04.537Z</time></trkpt><trkpt lat="40.8854783" lon="14.2540133"><ele>120.0</ele><time>2026-04-17T15:44:06.537Z</time></trkpt><trkpt lat="40.88539" lon="14.2539583"><ele>120.0</ele><time>2026-04-17T15:44:08.537Z</time></trkpt><trkpt lat="40.8853033" lon="14.2539033"><ele>120.0</ele><time>2026-04-17T15:44:10.537Z</time></trkpt><trkpt lat="40.88523" lon="14.253835"><ele>120.0</ele><time>2026-04-17T15:44:12.536Z</time></trkpt><trkpt lat="40.88515" lon="14.2537617"><ele>120.0</ele><time>2026-04-17T15:44:14.537Z</time></trkpt><trkpt lat="40.8850617" lon="14.25367"><ele>120.0</ele><time>2026-04-17T15:44:16.537Z</time></trkpt><trkpt lat="40.8849767" lon="14.25357"><ele>120.0</ele><time>2026-04-17T15:44:18.537Z</time></trkpt><trkpt lat="40.884885" lon="14.2534717"><ele>120.0</ele><time>2026-04-17T15:44:20.536Z</time></trkpt><trkpt lat="40.8847833" lon="14.2533983"><ele>120.0</ele><time>2026-04-17T15:44:22.537Z</time></trkpt><trkpt lat="40.8846683" lon="14.25336"><ele>120.0</ele><time>2026-04-17T15:44:24.537Z</time></trkpt><trkpt lat="40.88455" lon="14.2533583"><ele>120.0</ele><time>2026-04-17T15:44:26.537Z</time></trkpt><trkpt lat="40.8844317" lon="14.2533817"><ele>120.0</ele><time>2026-04-17T15:44:28.536Z</time></trkpt><trkpt lat="40.8843733" lon="14.2534133"><ele>120.0</ele><time>2026-04-17T15:44:29.536Z</time></trkpt><trkpt lat="40.8843167" lon="14.25345"><ele>120.0</ele><time>2026-04-17T15:44:30.537Z</time></trkpt><trkpt lat="40.8842667" lon="14.2535017"><ele>120.0</ele><time>2026-04-17T15:44:31.537Z</time></trkpt><trkpt lat="40.8842233" lon="14.253575"><ele>119.71428571428572</ele><time>2026-04-17T15:44:32.536Z</time></trkpt><trkpt lat="40.88419" lon="14.25366"><ele>119.42857142857142</ele><time>2026-04-17T15:44:33.537Z</time></trkpt><trkpt lat="40.8841767" lon="14.2537533"><ele>119.14285714285714</ele><time>2026-04-17T15:44:34.538Z</time></trkpt><trkpt lat="40.884175" lon="14.2538467"><ele>118.85714285714286</ele><time>2026-04-17T15:44:35.537Z</time></trkpt><trkpt lat="40.8841733" lon="14.25394"><ele>118.57142857142858</ele><time>2026-04-17T15:44:36.536Z</time></trkpt><trkpt lat="40.8841683" lon="14.2540433"><ele>118.28571428571428</ele><time>2026-04-17T15:44:37.539Z</time></trkpt><trkpt lat="40.8841517" lon="14.2541483"><ele>118.0</ele><time>2026-04-17T15:44:38.539Z</time></trkpt><trkpt lat="40.8841333" lon="14.2542467"><ele>117.66666666666667</ele><time>2026-04-17T15:44:39.536Z</time></trkpt><trkpt lat="40.8841117" lon="14.2543567"><ele>117.33333333333334</ele><time>2026-04-17T15:44:40.537Z</time></trkpt><trkpt lat="40.8840833" lon="14.25446"><ele>117.0</ele><time>2026-04-17T15:44:41.536Z</time></trkpt><trkpt lat="40.88405" lon="14.2545583"><ele>116.66666666666666</ele><time>2026-04-17T15:44:42.537Z</time></trkpt><trkpt lat="40.8840217" lon="14.2546617"><ele>116.33333333333333</ele><time>2026-04-17T15:44:43.537Z</time></trkpt><trkpt lat="40.8840033" lon="14.2547717"><ele>116.0</ele><time>2026-04-17T15:44:44.537Z</time></trkpt><trkpt lat="40.8840117" lon="14.2548933"><ele>115.99999999999999</ele><time>2026-04-17T15:44:45.537Z</time></trkpt><trkpt lat="40.8840367" lon="14.2550083"><ele>116.0</ele><time>2026-04-17T15:44:46.538Z</time></trkpt><trkpt lat="40.8840717" lon="14.25511"><ele>116.0</ele><time>2026-04-17T15:44:47.537Z</time></trkpt><trkpt lat="40.884115" lon="14.2551983"><ele>116.0</ele><time>2026-04-17T15:44:48.538Z</time></trkpt><trkpt lat="40.884155" lon="14.2552783"><ele>115.99999999999999</ele><time>2026-04-17T15:44:49.538Z</time></trkpt><trkpt lat="40.8842067" lon="14.2553467"><ele>116.0</ele><time>2026-04-17T15:44:50.538Z</time></trkpt><trkpt lat="40.8842667" lon="14.2554067"><ele>116.14285714285717</ele><time>2026-04-17T15:44:51.536Z</time></trkpt><trkpt lat="40.88432" lon="14.2554683"><ele>116.28571428571429</ele><time>2026-04-17T15:44:52.536Z</time></trkpt><trkpt lat="40.8843767" lon="14.2555267"><ele>116.42857142857144</ele><time>2026-04-17T15:44:53.538Z</time></trkpt><trkpt lat="40.8844317" lon="14.255585"><ele>116.57142857142858</ele><time>2026-04-17T15:44:54.538Z</time></trkpt><trkpt lat="40.8844883" lon="14.2556467"><ele>116.71428571428572</ele><time>2026-04-17T15:44:55.539Z</time></trkpt><trkpt lat="40.8845433" lon="14.2557133"><ele>116.85714285714286</ele><time>2026-04-17T15:44:56.536Z</time></trkpt><trkpt lat="40.88459" lon="14.255785"><ele>117.0</ele><time>2026-04-17T15:44:57.538Z</time></trkpt><trkpt lat="40.8846267" lon="14.25587"><ele>117.0</ele><time>2026-04-17T15:44:58.537Z</time></trkpt><trkpt lat="40.88466" lon="14.2559583"><ele>117.0</ele><time>2026-04-17T15:44:59.539Z</time></trkpt><trkpt lat="40.884695" lon="14.25605"><ele>117.0</ele><time>2026-04-17T15:45:00.538Z</time></trkpt><trkpt lat="40.8847233" lon="14.2561383"><ele>117.0</ele><time>2026-04-17T15:45:01.538Z</time></trkpt><trkpt lat="40.884755" lon="14.2562283"><ele>117.0</ele><time>2026-04-17T15:45:02.537Z</time></trkpt><trkpt lat="40.884795" lon="14.2563183"><ele>117.0</ele><time>2026-04-17T15:45:03.535Z</time></trkpt><trkpt lat="40.88484" lon="14.2564033"><ele>116.83333333333333</ele><time>2026-04-17T15:45:04.537Z</time></trkpt><trkpt lat="40.88489" lon="14.2564817"><ele>116.66666666666666</ele><time>2026-04-17T15:45:05.537Z</time></trkpt><trkpt lat="40.884945" lon="14.2565533"><ele>116.5</ele><time>2026-04-17T15:45:06.537Z</time></trkpt><trkpt lat="40.885005" lon="14.25662"><ele>116.33333333333333</ele><time>2026-04-17T15:45:07.54Z</time></trkpt><trkpt lat="40.885075" lon="14.25668"><ele>116.16666666666666</ele><time>2026-04-17T15:45:08.536Z</time></trkpt><trkpt lat="40.8851483" lon="14.256735"><ele>116.0</ele><time>2026-04-17T15:45:09.537Z</time></trkpt><trkpt lat="40.885225" lon="14.2567817"><ele>116.66666666666666</ele><time>2026-04-17T15:45:10.536Z</time></trkpt><trkpt lat="40.8853067" lon="14.256825"><ele>117.33333333333333</ele><time>2026-04-17T15:45:11.538Z</time></trkpt><trkpt lat="40.8853883" lon="14.2568683"><ele>118.0</ele><time>2026-04-17T15:45:12.537Z</time></trkpt><trkpt lat="40.8854617" lon="14.2569283"><ele>118.66666666666666</ele><time>2026-04-17T15:45:13.539Z</time></trkpt><trkpt lat="40.8855367" lon="14.2569833"><ele>119.33333333333333</ele><time>2026-04-17T15:45:14.537Z</time></trkpt><trkpt lat="40.88561" lon="14.2570517"><ele>120.0</ele><time>2026-04-17T15:45:15.536Z</time></trkpt><trkpt lat="40.8856817" lon="14.2571233"><ele>120.0</ele><time>2026-04-17T15:45:16.537Z</time></trkpt><trkpt lat="40.8857483" lon="14.2571983"><ele>120.0</ele><time>2026-04-17T15:45:17.537Z</time></trkpt><trkpt lat="40.8858183" lon="14.25727"><ele>120.0</ele><time>2026-04-17T15:45:18.536Z</time></trkpt><trkpt lat="40.88589" lon="14.2573317"><ele>120.0</ele><time>2026-04-17T15:45:19.537Z</time></trkpt><trkpt lat="40.8859633" lon="14.2573933"><ele>120.0</ele><time>2026-04-17T15:45:20.537Z</time></trkpt><trkpt lat="40.8860417" lon="14.25745"><ele>120.0</ele><time>2026-04-17T15:45:21.536Z</time></trkpt><trkpt lat="40.88612" lon="14.2575017"><ele>119.33333333333333</ele><time>2026-04-17T15:45:22.537Z</time></trkpt><trkpt lat="40.8861983" lon="14.257555"><ele>118.66666666666666</ele><time>2026-04-17T15:45:23.536Z</time></trkpt><trkpt lat="40.8862733" lon="14.2576133"><ele>118.0</ele><time>2026-04-17T15:45:24.537Z</time></trkpt><trkpt lat="40.8863417" lon="14.2576833"><ele>117.33333333333333</ele><time>2026-04-17T15:45:25.537Z</time></trkpt><trkpt lat="40.8864" lon="14.2577617"><ele>116.66666666666666</ele><time>2026-04-17T15:45:26.538Z</time></trkpt><trkpt lat="40.8864433" lon="14.2578533"><ele>116.0</ele><time>2026-04-17T15:45:27.536Z</time></trkpt><trkpt lat="40.8864533" lon="14.2579483"><ele>115.99999999999999</ele><time>2026-04-17T15:45:28.538Z</time></trkpt><trkpt lat="40.886445" lon="14.258045"><ele>116.0</ele><time>2026-04-17T15:45:29.538Z</time></trkpt><trkpt lat="40.886425" lon="14.25815"><ele>116.0</ele><time>2026-04-17T15:45:30.537Z</time></trkpt><trkpt lat="40.8863817" lon="14.25824"><ele>116.0</ele><time>2026-04-17T15:45:31.537Z</time></trkpt><trkpt lat="40.88635" lon="14.258335"><ele>115.99999999999999</ele><time>2026-04-17T15:45:32.537Z</time></trkpt><trkpt lat="40.88632" lon="14.2584117"><ele>116.0</ele><time>2026-04-17T15:45:33.537Z</time></trkpt><trkpt lat="40.8862783" lon="14.2585067"><ele>115.66666666666666</ele><time>2026-04-17T15:45:34.537Z</time></trkpt><trkpt lat="40.8862333" lon="14.2586017"><ele>115.33333333333333</ele><time>2026-04-17T15:45:35.538Z</time></trkpt><trkpt lat="40.8861967" lon="14.258685"><ele>115.0</ele><time>2026-04-17T15:45:36.537Z</time></trkpt><trkpt lat="40.88616" lon="14.2587733"><ele>114.66666666666666</ele><time>2026-04-17T15:45:37.537Z</time></trkpt><trkpt lat="40.8861233" lon="14.2588633"><ele>114.33333333333333</ele><time>2026-04-17T15:45:38.536Z</time></trkpt><trkpt lat="40.8860917" lon="14.2589583"><ele>114.0</ele><time>2026-04-17T15:45:39.537Z</time></trkpt><trkpt lat="40.8860567" lon="14.25906"><ele>113.83333333333333</ele><time>2026-04-17T15:45:40.537Z</time></trkpt><trkpt lat="40.88602" lon="14.25915"><ele>113.66666666666666</ele><time>2026-04-17T15:45:41.538Z</time></trkpt><trkpt lat="40.88598" lon="14.259245"><ele>113.5</ele><time>2026-04-17T15:45:42.536Z</time></trkpt><trkpt lat="40.885945" lon="14.259335"><ele>113.33333333333333</ele><time>2026-04-17T15:45:43.54Z</time></trkpt><trkpt lat="40.885905" lon="14.2594217"><ele>113.16666666666666</ele><time>2026-04-17T15:45:44.537Z</time></trkpt><trkpt lat="40.8858733" lon="14.259515"><ele>113.0</ele><time>2026-04-17T15:45:45.536Z</time></trkpt><trkpt lat="40.8858317" lon="14.259605"><ele>112.99999999999999</ele><time>2026-04-17T15:45:46.537Z</time></trkpt><trkpt lat="40.8857883" lon="14.2596967"><ele>113.0</ele><time>2026-04-17T15:45:47.539Z</time></trkpt><trkpt lat="40.8857517" lon="14.2597933"><ele>113.0</ele><time>2026-04-17T15:45:48.537Z</time></trkpt><trkpt lat="40.8857167" lon="14.2598883"><ele>113.0</ele><time>2026-04-17T15:45:49.536Z</time></trkpt><trkpt lat="40.8856817" lon="14.2599817"><ele>112.99999999999999</ele><time>2026-04-17T15:45:50.537Z</time></trkpt><trkpt lat="40.8856483" lon="14.2600767"><ele>113.0</ele><time>2026-04-17T15:45:51.538Z</time></trkpt><trkpt lat="40.885615" lon="14.2601717"><ele>112.49999999999999</ele><time>2026-04-17T15:45:52.536Z</time></trkpt><trkpt lat="40.8855917" lon="14.2602717"><ele>112.0</ele><time>2026-04-17T15:45:53.537Z</time></trkpt><trkpt lat="40.8855517" lon="14.2603683"><ele>111.5</ele><time>2026-04-17T15:45:54.538Z</time></trkpt><trkpt lat="40.885515" lon="14.2604717"><ele>111.0</ele><time>2026-04-17T15:45:55.536Z</time></trkpt><trkpt lat="40.885475" lon="14.2605767"><ele>110.49999999999999</ele><time>2026-04-17T15:45:56.536Z</time></trkpt><trkpt lat="40.885435" lon="14.2606833"><ele>110.0</ele><time>2026-04-17T15:45:57.536Z</time></trkpt><trkpt lat="40.8853917" lon="14.26079"><ele>109.83333333333333</ele><time>2026-04-17T15:45:58.538Z</time></trkpt><trkpt lat="40.88535" lon="14.2608967"><ele>109.66666666666666</ele><time>2026-04-17T15:45:59.539Z</time></trkpt><trkpt lat="40.8853117" lon="14.2610033"><ele>109.5</ele><time>2026-04-17T15:46:00.538Z</time></trkpt><trkpt lat="40.88528" lon="14.2611167"><ele>109.33333333333334</ele><time>2026-04-17T15:46:01.538Z</time></trkpt><trkpt lat="40.8852617" lon="14.2612333"><ele>109.16666666666667</ele><time>2026-04-17T15:46:02.54Z</time></trkpt><trkpt lat="40.8852633" lon="14.261345"><ele>109.0</ele><time>2026-04-17T15:46:03.537Z</time></trkpt><trkpt lat="40.8852883" lon="14.2614633"><ele>108.83333333333334</ele><time>2026-04-17T15:46:04.537Z</time></trkpt><trkpt lat="40.8853267" lon="14.2615767"><ele>108.66666666666667</ele><time>2026-04-17T15:46:05.538Z</time></trkpt><trkpt lat="40.8853617" lon="14.2616883"><ele>108.5</ele><time>2026-04-17T15:46:06.54Z</time></trkpt><trkpt lat="40.88541" lon="14.2617933"><ele>108.33333333333334</ele><time>2026-04-17T15:46:07.54Z</time></trkpt><trkpt lat="40.88545" lon="14.2618917"><ele>108.16666666666667</ele><time>2026-04-17T15:46:08.537Z</time></trkpt><trkpt lat="40.88548" lon="14.26199"><ele>108.0</ele><time>2026-04-17T15:46:09.537Z</time></trkpt><trkpt lat="40.8855083" lon="14.2620933"><ele>108.0</ele><time>2026-04-17T15:46:10.536Z</time></trkpt><trkpt lat="40.8855417" lon="14.2621883"><ele>108.0</ele><time>2026-04-17T15:46:11.537Z</time></trkpt><trkpt lat="40.8855817" lon="14.2622783"><ele>108.0</ele><time>2026-04-17T15:46:12.537Z</time></trkpt><trkpt lat="40.885615" lon="14.262365"><ele>108.0</ele><time>2026-04-17T15:46:13.538Z</time></trkpt><trkpt lat="40.88565" lon="14.2624567"><ele>108.0</ele><time>2026-04-17T15:46:14.539Z</time></trkpt><trkpt lat="40.8856967" lon="14.2625333"><ele>108.0</ele><time>2026-04-17T15:46:15.536Z</time></trkpt><trkpt lat="40.8857517" lon="14.26261"><ele>108.0</ele><time>2026-04-17T15:46:16.538Z</time></trkpt><trkpt lat="40.8858117" lon="14.2626767"><ele>108.0</ele><time>2026-04-17T15:46:17.537Z</time></trkpt><trkpt lat="40.8858767" lon="14.2627333"><ele>108.0</ele><time>2026-04-17T15:46:18.542Z</time></trkpt><trkpt lat="40.8859483" lon="14.26277"><ele>108.0</ele><time>2026-04-17T15:46:19.539Z</time></trkpt><trkpt lat="40.8860183" lon="14.26281"><ele>108.0</ele><time>2026-04-17T15:46:20.538Z</time></trkpt><trkpt lat="40.8860867" lon="14.262845"><ele>108.0</ele><time>2026-04-17T15:46:21.536Z</time></trkpt><trkpt lat="40.8861767" lon="14.26294"><ele>108.0</ele><time>2026-04-17T15:46:23.538Z</time></trkpt><trkpt lat="40.8862317" lon="14.2630317"><ele>108.00000000000001</ele><time>2026-04-17T15:46:25.539Z</time></trkpt><trkpt lat="40.8862217" lon="14.263115"><ele>108.00000000000001</ele><time>2026-04-17T15:46:27.538Z</time></trkpt><trkpt lat="40.8861617" lon="14.2631817"><ele>108.0</ele><time>2026-04-17T15:46:29.54Z</time></trkpt><trkpt lat="40.8861283" lon="14.2633483"><ele>108.0</ele><time>2026-04-17T15:46:32.538Z</time></trkpt><trkpt lat="40.8860683" lon="14.26351"><ele>107.60000000000001</ele><time>2026-04-17T15:46:34.538Z</time></trkpt><trkpt lat="40.8859383" lon="14.26364"><ele>107.20000000000002</ele><time>2026-04-17T15:46:35.539Z</time></trkpt><trkpt lat="40.885875" lon="14.26371"><ele>106.8</ele><time>2026-04-17T15:46:36.537Z</time></trkpt><trkpt lat="40.885825" lon="14.2637833"><ele>106.4</ele><time>2026-04-17T15:46:37.538Z</time></trkpt><trkpt lat="40.8857783" lon="14.26386"><ele>106.0</ele><time>2026-04-17T15:46:38.538Z</time></trkpt><trkpt lat="40.88574" lon="14.2639467"><ele>105.50000000000001</ele><time>2026-04-17T15:46:39.537Z</time></trkpt><trkpt lat="40.8856967" lon="14.2640383"><ele>105.0</ele><time>2026-04-17T15:46:40.537Z</time></trkpt><trkpt lat="40.8856467" lon="14.2641217"><ele>104.5</ele><time>2026-04-17T15:46:41.538Z</time></trkpt><trkpt lat="40.8855967" lon="14.2642083"><ele>104.0</ele><time>2026-04-17T15:46:42.538Z</time></trkpt><trkpt lat="40.885545" lon="14.2642967"><ele>103.50000000000001</ele><time>2026-04-17T15:46:43.537Z</time></trkpt><trkpt lat="40.88549" lon="14.2643833"><ele>103.0</ele><time>2026-04-17T15:46:44.538Z</time></trkpt><trkpt lat="40.8854367" lon="14.2644633"><ele>103.00000000000001</ele><time>2026-04-17T15:46:45.537Z</time></trkpt><trkpt lat="40.8853833" lon="14.2645483"><ele>103.0</ele><time>2026-04-17T15:46:46.538Z</time></trkpt><trkpt lat="40.8853317" lon="14.2646317"><ele>103.0</ele><time>2026-04-17T15:46:47.538Z</time></trkpt><trkpt lat="40.88528" lon="14.2647183"><ele>103.0</ele><time>2026-04-17T15:46:48.538Z</time></trkpt><trkpt lat="40.885225" lon="14.2648"><ele>103.00000000000001</ele><time>2026-04-17T15:46:49.537Z</time></trkpt><trkpt lat="40.88517" lon="14.2648783"><ele>103.0</ele><time>2026-04-17T15:46:50.538Z</time></trkpt><trkpt lat="40.8851183" lon="14.264955"><ele>102.83333333333334</ele><time>2026-04-17T15:46:51.537Z</time></trkpt><trkpt lat="40.8850683" lon="14.2650333"><ele>102.66666666666667</ele><time>2026-04-17T15:46:52.538Z</time></trkpt><trkpt lat="40.8850183" lon="14.2651117"><ele>102.5</ele><time>2026-04-17T15:46:53.538Z</time></trkpt><trkpt lat="40.88497" lon="14.26519"><ele>102.33333333333334</ele><time>2026-04-17T15:46:54.538Z</time></trkpt><trkpt lat="40.8849167" lon="14.265265"><ele>102.16666666666667</ele><time>2026-04-17T15:46:55.537Z</time></trkpt><trkpt lat="40.884865" lon="14.2653433"><ele>102.0</ele><time>2026-04-17T15:46:56.538Z</time></trkpt><trkpt lat="40.8848133" lon="14.2654217"><ele>102.0</ele><time>2026-04-17T15:46:57.537Z</time></trkpt><trkpt lat="40.8847617" lon="14.2654967"><ele>102.0</ele><time>2026-04-17T15:46:58.539Z</time></trkpt><trkpt lat="40.884705" lon="14.26557"><ele>102.0</ele><time>2026-04-17T15:46:59.537Z</time></trkpt><trkpt lat="40.8846483" lon="14.2656417"><ele>102.0</ele><time>2026-04-17T15:47:00.537Z</time></trkpt><trkpt lat="40.884595" lon="14.2657117"><ele>102.0</ele><time>2026-04-17T15:47:01.538Z</time></trkpt><trkpt lat="40.88454" lon="14.26578"><ele>102.0</ele><time>2026-04-17T15:47:02.538Z</time></trkpt><trkpt lat="40.8844867" lon="14.26585"><ele>101.83333333333333</ele><time>2026-04-17T15:47:03.537Z</time></trkpt><trkpt lat="40.8844283" lon="14.2659183"><ele>101.66666666666666</ele><time>2026-04-17T15:47:04.538Z</time></trkpt><trkpt lat="40.8843733" lon="14.2659883"><ele>101.5</ele><time>2026-04-17T15:47:05.539Z</time></trkpt><trkpt lat="40.8843183" lon="14.2660567"><ele>101.33333333333333</ele><time>2026-04-17T15:47:06.538Z</time></trkpt><trkpt lat="40.8842633" lon="14.2661267"><ele>101.16666666666666</ele><time>2026-04-17T15:47:07.537Z</time></trkpt><trkpt lat="40.88421" lon="14.2661967"><ele>101.0</ele><time>2026-04-17T15:47:08.537Z</time></trkpt><trkpt lat="40.8841533" lon="14.2662617"><ele>100.99999999999999</ele><time>2026-04-17T15:47:09.539Z</time></trkpt><trkpt lat="40.884095" lon="14.2663317"><ele>101.0</ele><time>2026-04-17T15:47:10.537Z</time></trkpt><trkpt lat="40.8840433" lon="14.266405"><ele>101.0</ele><time>2026-04-17T15:47:11.539Z</time></trkpt><trkpt lat="40.8839883" lon="14.2664767"><ele>101.0</ele><time>2026-04-17T15:47:12.538Z</time></trkpt><trkpt lat="40.8839283" lon="14.266545"><ele>100.99999999999999</ele><time>2026-04-17T15:47:13.539Z</time></trkpt><trkpt lat="40.883875" lon="14.2666167"><ele>101.0</ele><time>2026-04-17T15:47:14.537Z</time></trkpt><trkpt lat="40.88382" lon="14.2666883"><ele>100.83333333333333</ele><time>2026-04-17T15:47:15.537Z</time></trkpt><trkpt lat="40.8837667" lon="14.26677"><ele>100.66666666666666</ele><time>2026-04-17T15:47:16.538Z</time></trkpt><trkpt lat="40.88371" lon="14.2668467"><ele>100.5</ele><time>2026-04-17T15:47:17.538Z</time></trkpt><trkpt lat="40.8836533" lon="14.2669233"><ele>100.33333333333334</ele><time>2026-04-17T15:47:18.538Z</time></trkpt><trkpt lat="40.8835967" lon="14.267"><ele>100.16666666666667</ele><time>2026-04-17T15:47:19.545Z</time></trkpt><trkpt lat="40.8835383" lon="14.2670783"><ele>100.0</ele><time>2026-04-17T15:47:20.537Z</time></trkpt><trkpt lat="40.88348" lon="14.2671567"><ele>100.16666666666667</ele><time>2026-04-17T15:47:21.537Z</time></trkpt><trkpt lat="40.8834217" lon="14.267235"><ele>100.33333333333334</ele><time>2026-04-17T15:47:22.538Z</time></trkpt><trkpt lat="40.8833667" lon="14.2673183"><ele>100.5</ele><time>2026-04-17T15:47:23.537Z</time></trkpt><trkpt lat="40.883315" lon="14.26741"><ele>100.66666666666666</ele><time>2026-04-17T15:47:24.539Z</time></trkpt><trkpt lat="40.8832633" lon="14.2675083"><ele>100.83333333333333</ele><time>2026-04-17T15:47:25.536Z</time></trkpt><trkpt lat="40.8832167" lon="14.267605"><ele>101.0</ele><time>2026-04-17T15:47:26.539Z</time></trkpt><trkpt lat="40.8831717" lon="14.2677033"><ele>100.33333333333333</ele><time>2026-04-17T15:47:27.537Z</time></trkpt><trkpt lat="40.88313" lon="14.2677983"><ele>99.66666666666666</ele><time>2026-04-17T15:47:28.538Z</time></trkpt><trkpt lat="40.8830883" lon="14.267895"><ele>99.0</ele><time>2026-04-17T15:47:29.539Z</time></trkpt><trkpt lat="40.883055" lon="14.2679967"><ele>98.33333333333334</ele><time>2026-04-17T15:47:30.537Z</time></trkpt><trkpt lat="40.8830233" lon="14.2680967"><ele>97.66666666666667</ele><time>2026-04-17T15:47:31.54Z</time></trkpt><trkpt lat="40.8829867" lon="14.2681867"><ele>97.0</ele><time>2026-04-17T15:47:32.538Z</time></trkpt><trkpt lat="40.8829517" lon="14.2682733"><ele>96.83333333333334</ele><time>2026-04-17T15:47:33.537Z</time></trkpt><trkpt lat="40.88292" lon="14.26836"><ele>96.66666666666667</ele><time>2026-04-17T15:47:34.538Z</time></trkpt><trkpt lat="40.8828967" lon="14.2684467"><ele>96.5</ele><time>2026-04-17T15:47:35.538Z</time></trkpt><trkpt lat="40.8828733" lon="14.2685317"><ele>96.33333333333334</ele><time>2026-04-17T15:47:36.538Z</time></trkpt><trkpt lat="40.88281" lon="14.2686717"><ele>96.16666666666667</ele><time>2026-04-17T15:47:38.539Z</time></trkpt><trkpt lat="40.8827717" lon="14.26874"><ele>96.0</ele><time>2026-04-17T15:47:39.537Z</time></trkpt><trkpt lat="40.88274" lon="14.2688183"><ele>96.0</ele><time>2026-04-17T15:47:40.537Z</time></trkpt><trkpt lat="40.88266" lon="14.2689433"><ele>96.0</ele><time>2026-04-17T15:47:42.537Z</time></trkpt><trkpt lat="40.8826267" lon="14.269015"><ele>96.0</ele><time>2026-04-17T15:47:43.538Z</time></trkpt><trkpt lat="40.8825933" lon="14.26909"><ele>96.0</ele><time>2026-04-17T15:47:44.539Z</time></trkpt><trkpt lat="40.8825533" lon="14.26916"><ele>96.0</ele><time>2026-04-17T15:47:45.54Z</time></trkpt><trkpt lat="40.8825167" lon="14.2692333"><ele>96.0</ele><time>2026-04-17T15:47:46.54Z</time></trkpt><trkpt lat="40.88248" lon="14.26931"><ele>95.99999999999999</ele><time>2026-04-17T15:47:47.538Z</time></trkpt><trkpt lat="40.88244" lon="14.2693833"><ele>96.0</ele><time>2026-04-17T15:47:48.538Z</time></trkpt><trkpt lat="40.8824" lon="14.26946"><ele>96.0</ele><time>2026-04-17T15:47:49.537Z</time></trkpt><trkpt lat="40.88236" lon="14.2695383"><ele>96.0</ele><time>2026-04-17T15:47:50.537Z</time></trkpt><trkpt lat="40.8823233" lon="14.269625"><ele>96.0</ele><time>2026-04-17T15:47:51.536Z</time></trkpt><trkpt lat="40.882285" lon="14.2697183"><ele>95.99999999999999</ele><time>2026-04-17T15:47:52.538Z</time></trkpt><trkpt lat="40.8822467" lon="14.2698133"><ele>96.0</ele><time>2026-04-17T15:47:53.538Z</time></trkpt><trkpt lat="40.8822183" lon="14.2699117"><ele>95.83333333333333</ele><time>2026-04-17T15:47:54.537Z</time></trkpt><trkpt lat="40.8821883" lon="14.27001"><ele>95.66666666666667</ele><time>2026-04-17T15:47:55.538Z</time></trkpt><trkpt lat="40.8821683" lon="14.27011"><ele>95.5</ele><time>2026-04-17T15:47:56.537Z</time></trkpt><trkpt lat="40.8821567" lon="14.27021"><ele>95.33333333333334</ele><time>2026-04-17T15:47:57.537Z</time></trkpt><trkpt lat="40.8821417" lon="14.2703067"><ele>95.16666666666667</ele><time>2026-04-17T15:47:58.538Z</time></trkpt><trkpt lat="40.882145" lon="14.270405"><ele>95.0</ele><time>2026-04-17T15:47:59.538Z</time></trkpt><trkpt lat="40.8821533" lon="14.2705017"><ele>95.0</ele><time>2026-04-17T15:48:00.536Z</time></trkpt><trkpt lat="40.8821583" lon="14.2705983"><ele>95.0</ele><time>2026-04-17T15:48:01.54Z</time></trkpt><trkpt lat="40.8821583" lon="14.27069"><ele>95.0</ele><time>2026-04-17T15:48:02.536Z</time></trkpt><trkpt lat="40.8821533" lon="14.2707733"><ele>95.0</ele><time>2026-04-17T15:48:03.537Z</time></trkpt><trkpt lat="40.88215" lon="14.27093"><ele>95.0</ele><time>2026-04-17T15:48:05.539Z</time></trkpt><trkpt lat="40.882165" lon="14.27107"><ele>95.0</ele><time>2026-04-17T15:48:07.537Z</time></trkpt><trkpt lat="40.8821633" lon="14.271195"><ele>94.83333333333334</ele><time>2026-04-17T15:48:09.538Z</time></trkpt><trkpt lat="40.8821133" lon="14.271295"><ele>94.66666666666667</ele><time>2026-04-17T15:48:11.537Z</time></trkpt><trkpt lat="40.8820683" lon="14.2713883"><ele>94.5</ele><time>2026-04-17T15:48:13.536Z</time></trkpt><trkpt lat="40.8820733" lon="14.2714833"><ele>94.33333333333333</ele><time>2026-04-17T15:48:16.536Z</time></trkpt><trkpt lat="40.88204" lon="14.2715583"><ele>94.16666666666666</ele><time>2026-04-17T15:48:20.537Z</time></trkpt><trkpt lat="40.8819883" lon="14.27162"><ele>94.0</ele><time>2026-04-17T15:48:22.537Z</time></trkpt><trkpt lat="40.8819433" lon="14.2717083"><ele>93.6</ele><time>2026-04-17T15:48:24.538Z</time></trkpt><trkpt lat="40.8819167" lon="14.2718183"><ele>93.2</ele><time>2026-04-17T15:48:26.537Z</time></trkpt><trkpt lat="40.8819367" lon="14.271945"><ele>92.8</ele><time>2026-04-17T15:48:28.537Z</time></trkpt><trkpt lat="40.88201" lon="14.27208"><ele>92.39999999999999</ele><time>2026-04-17T15:48:30.539Z</time></trkpt><trkpt lat="40.8820617" lon="14.2721417"><ele>92.0</ele><time>2026-04-17T15:48:31.537Z</time></trkpt><trkpt lat="40.8821217" lon="14.27221"><ele>92.19999999999999</ele><time>2026-04-17T15:48:32.536Z</time></trkpt><trkpt lat="40.8821917" lon="14.272275"><ele>92.4</ele><time>2026-04-17T15:48:33.537Z</time></trkpt><trkpt lat="40.8822633" lon="14.2723367"><ele>92.6</ele><time>2026-04-17T15:48:34.537Z</time></trkpt><trkpt lat="40.88234" lon="14.272395"><ele>92.80000000000001</ele><time>2026-04-17T15:48:35.538Z</time></trkpt><trkpt lat="40.8824217" lon="14.2724583"><ele>93.0</ele><time>2026-04-17T15:48:36.538Z</time></trkpt><trkpt lat="40.8825017" lon="14.27253"><ele>93.0</ele><time>2026-04-17T15:48:37.537Z</time></trkpt><trkpt lat="40.8825767" lon="14.2726"><ele>93.0</ele><time>2026-04-17T15:48:38.537Z</time></trkpt><trkpt lat="40.8826433" lon="14.2726733"><ele>93.0</ele><time>2026-04-17T15:48:39.537Z</time></trkpt><trkpt lat="40.8827133" lon="14.2727483"><ele>93.0</ele><time>2026-04-17T15:48:40.537Z</time></trkpt><trkpt lat="40.8827833" lon="14.2728267"><ele>93.0</ele><time>2026-04-17T15:48:41.538Z</time></trkpt><trkpt lat="40.882855" lon="14.2729017"><ele>93.16666666666667</ele><time>2026-04-17T15:48:42.537Z</time></trkpt><trkpt lat="40.8829267" lon="14.2729717"><ele>93.33333333333333</ele><time>2026-04-17T15:48:43.537Z</time></trkpt><trkpt lat="40.8829933" lon="14.2730417"><ele>93.5</ele><time>2026-04-17T15:48:44.538Z</time></trkpt><trkpt lat="40.88306" lon="14.273115"><ele>93.66666666666666</ele><time>2026-04-17T15:48:45.537Z</time></trkpt><trkpt lat="40.8831267" lon="14.2731867"><ele>93.83333333333333</ele><time>2026-04-17T15:48:46.537Z</time></trkpt><trkpt lat="40.8831933" lon="14.273255"><ele>94.0</ele><time>2026-04-17T15:48:47.539Z</time></trkpt><trkpt lat="40.8832567" lon="14.273315"><ele>94.0</ele><time>2026-04-17T15:48:48.536Z</time></trkpt><trkpt lat="40.883315" lon="14.2733783"><ele>94.0</ele><time>2026-04-17T15:48:49.538Z</time></trkpt><trkpt lat="40.8833733" lon="14.273445"><ele>94.0</ele><time>2026-04-17T15:48:50.538Z</time></trkpt><trkpt lat="40.8834367" lon="14.2734967"><ele>94.0</ele><time>2026-04-17T15:48:51.537Z</time></trkpt><trkpt lat="40.8835" lon="14.2735517"><ele>94.0</ele><time>2026-04-17T15:48:52.537Z</time></trkpt><trkpt lat="40.8835667" lon="14.2736067"><ele>94.0</ele><time>2026-04-17T15:48:53.536Z</time></trkpt><trkpt lat="40.8836367" lon="14.2736517"><ele>94.0</ele><time>2026-04-17T15:48:54.541Z</time></trkpt><trkpt lat="40.8837033" lon="14.2736983"><ele>94.0</ele><time>2026-04-17T15:48:55.537Z</time></trkpt><trkpt lat="40.8837617" lon="14.2737583"><ele>94.0</ele><time>2026-04-17T15:48:56.538Z</time></trkpt><trkpt lat="40.8838183" lon="14.2738167"><ele>94.0</ele><time>2026-04-17T15:48:57.536Z</time></trkpt><trkpt lat="40.8838783" lon="14.2738767"><ele>94.0</ele><time>2026-04-17T15:48:58.538Z</time></trkpt><trkpt lat="40.883935" lon="14.2739417"><ele>94.0</ele><time>2026-04-17T15:48:59.539Z</time></trkpt><trkpt lat="40.883995" lon="14.2740033"><ele>94.0</ele><time>2026-04-17T15:49:00.537Z</time></trkpt><trkpt lat="40.8840583" lon="14.274065"><ele>93.85714285714286</ele><time>2026-04-17T15:49:01.538Z</time></trkpt><trkpt lat="40.8841167" lon="14.2741283"><ele>93.71428571428571</ele><time>2026-04-17T15:49:02.537Z</time></trkpt><trkpt lat="40.884175" lon="14.2741933"><ele>93.57142857142858</ele><time>2026-04-17T15:49:03.537Z</time></trkpt><trkpt lat="40.8842317" lon="14.2742533"><ele>93.42857142857143</ele><time>2026-04-17T15:49:04.538Z</time></trkpt><trkpt lat="40.88429" lon="14.274315"><ele>93.28571428571429</ele><time>2026-04-17T15:49:05.538Z</time></trkpt><trkpt lat="40.88435" lon="14.274375"><ele>93.14285714285715</ele><time>2026-04-17T15:49:06.537Z</time></trkpt><trkpt lat="40.8844067" lon="14.2744367"><ele>93.0</ele><time>2026-04-17T15:49:07.536Z</time></trkpt><trkpt lat="40.8844617" lon="14.274495"><ele>92.66666666666667</ele><time>2026-04-17T15:49:08.537Z</time></trkpt><trkpt lat="40.8845183" lon="14.2745517"><ele>92.33333333333333</ele><time>2026-04-17T15:49:09.536Z</time></trkpt><trkpt lat="40.884575" lon="14.2746133"><ele>92.0</ele><time>2026-04-17T15:49:10.537Z</time></trkpt><trkpt lat="40.8846317" lon="14.2746783"><ele>91.66666666666666</ele><time>2026-04-17T15:49:11.538Z</time></trkpt><trkpt lat="40.8846917" lon="14.27474"><ele>91.33333333333333</ele><time>2026-04-17T15:49:12.537Z</time></trkpt><trkpt lat="40.8847533" lon="14.27481"><ele>91.0</ele><time>2026-04-17T15:49:13.538Z</time></trkpt><trkpt lat="40.884815" lon="14.2748817"><ele>91.16666666666666</ele><time>2026-04-17T15:49:14.538Z</time></trkpt><trkpt lat="40.88488" lon="14.274945"><ele>91.33333333333333</ele><time>2026-04-17T15:49:15.536Z</time></trkpt><trkpt lat="40.884945" lon="14.2750067"><ele>91.5</ele><time>2026-04-17T15:49:16.537Z</time></trkpt><trkpt lat="40.88501" lon="14.2750667"><ele>91.66666666666667</ele><time>2026-04-17T15:49:17.537Z</time></trkpt><trkpt lat="40.885075" lon="14.2751333"><ele>91.83333333333334</ele><time>2026-04-17T15:49:18.538Z</time></trkpt><trkpt lat="40.8851383" lon="14.2751983"><ele>92.0</ele><time>2026-04-17T15:49:19.538Z</time></trkpt><trkpt lat="40.8852017" lon="14.27526"><ele>92.0</ele><time>2026-04-17T15:49:20.537Z</time></trkpt><trkpt lat="40.8852633" lon="14.2753183"><ele>92.0</ele><time>2026-04-17T15:49:21.536Z</time></trkpt><trkpt lat="40.8853283" lon="14.275375"><ele>92.0</ele><time>2026-04-17T15:49:22.537Z</time></trkpt><trkpt lat="40.8853917" lon="14.2754333"><ele>92.0</ele><time>2026-04-17T15:49:23.538Z</time></trkpt><trkpt lat="40.8854517" lon="14.2754883"><ele>92.0</ele><time>2026-04-17T15:49:24.538Z</time></trkpt><trkpt lat="40.8855133" lon="14.2755433"><ele>92.0</ele><time>2026-04-17T15:49:25.537Z</time></trkpt><trkpt lat="40.8855733" lon="14.2755933"><ele>92.0</ele><time>2026-04-17T15:49:26.537Z</time></trkpt><trkpt lat="40.8856367" lon="14.2756367"><ele>91.71428571428572</ele><time>2026-04-17T15:49:27.538Z</time></trkpt><trkpt lat="40.8857033" lon="14.275665"><ele>91.42857142857142</ele><time>2026-04-17T15:49:28.539Z</time></trkpt><trkpt lat="40.8857733" lon="14.2756767"><ele>91.14285714285714</ele><time>2026-04-17T15:49:29.538Z</time></trkpt><trkpt lat="40.8858433" lon="14.2756783"><ele>90.85714285714286</ele><time>2026-04-17T15:49:30.537Z</time></trkpt><trkpt lat="40.8859117" lon="14.27568"><ele>90.57142857142858</ele><time>2026-04-17T15:49:31.537Z</time></trkpt><trkpt lat="40.88598" lon="14.2756917"><ele>90.28571428571428</ele><time>2026-04-17T15:49:32.538Z</time></trkpt><trkpt lat="40.886045" lon="14.2757183"><ele>90.0</ele><time>2026-04-17T15:49:33.537Z</time></trkpt><trkpt lat="40.8861017" lon="14.2757617"><ele>90.0</ele><time>2026-04-17T15:49:34.536Z</time></trkpt><trkpt lat="40.886205" lon="14.27585"><ele>90.0</ele><time>2026-04-17T15:49:36.538Z</time></trkpt><trkpt lat="40.886305" lon="14.2759283"><ele>90.0</ele><time>2026-04-17T15:49:38.538Z</time></trkpt><trkpt lat="40.8863967" lon="14.27601"><ele>90.0</ele><time>2026-04-17T15:49:40.537Z</time></trkpt><trkpt lat="40.8864917" lon="14.2760983"><ele>90.0</ele><time>2026-04-17T15:49:42.536Z</time></trkpt><trkpt lat="40.8865983" lon="14.2762083"><ele>90.0</ele><time>2026-04-17T15:49:44.537Z</time></trkpt><trkpt lat="40.8866633" lon="14.2762633"><ele>90.0</ele><time>2026-04-17T15:49:45.537Z</time></trkpt><trkpt lat="40.88673" lon="14.2763133"><ele>90.0</ele><time>2026-04-17T15:49:46.537Z</time></trkpt><trkpt lat="40.8867967" lon="14.2763617"><ele>90.0</ele><time>2026-04-17T15:49:47.537Z</time></trkpt><trkpt lat="40.886865" lon="14.2764067"><ele>90.0</ele><time>2026-04-17T15:49:48.537Z</time></trkpt><trkpt lat="40.88693" lon="14.2764483"><ele>89.83333333333333</ele><time>2026-04-17T15:49:49.537Z</time></trkpt><trkpt lat="40.88699" lon="14.2764767"><ele>89.66666666666667</ele><time>2026-04-17T15:49:50.537Z</time></trkpt><trkpt lat="40.8871067" lon="14.276525"><ele>89.5</ele><time>2026-04-17T15:49:52.537Z</time></trkpt><trkpt lat="40.8872133" lon="14.276605"><ele>89.33333333333334</ele><time>2026-04-17T15:49:54.538Z</time></trkpt><trkpt lat="40.8872717" lon="14.2766467"><ele>89.16666666666667</ele><time>2026-04-17T15:49:55.538Z</time></trkpt><trkpt lat="40.8873333" lon="14.2766917"><ele>89.0</ele><time>2026-04-17T15:49:56.538Z</time></trkpt><trkpt lat="40.8873933" lon="14.2767433"><ele>88.99999999999999</ele><time>2026-04-17T15:49:57.538Z</time></trkpt><trkpt lat="40.8874567" lon="14.2767867"><ele>89.0</ele><time>2026-04-17T15:49:58.539Z</time></trkpt><trkpt lat="40.8875167" lon="14.2768367"><ele>89.0</ele><time>2026-04-17T15:49:59.538Z</time></trkpt><trkpt lat="40.88758" lon="14.2768783"><ele>89.0</ele><time>2026-04-17T15:50:00.539Z</time></trkpt><trkpt lat="40.8876433" lon="14.27692"><ele>89.0</ele><time>2026-04-17T15:50:01.538Z</time></trkpt><trkpt lat="40.8877083" lon="14.27696"><ele>88.99999999999999</ele><time>2026-04-17T15:50:02.539Z</time></trkpt><trkpt lat="40.8877717" lon="14.2769983"><ele>89.0</ele><time>2026-04-17T15:50:03.539Z</time></trkpt><trkpt lat="40.8878317" lon="14.2770483"><ele>89.14285714285714</ele><time>2026-04-17T15:50:04.539Z</time></trkpt><trkpt lat="40.8878883" lon="14.277095"><ele>89.28571428571428</ele><time>2026-04-17T15:50:05.538Z</time></trkpt><trkpt lat="40.8879467" lon="14.277135"><ele>89.42857142857142</ele><time>2026-04-17T15:50:06.541Z</time></trkpt><trkpt lat="40.8880017" lon="14.2771783"><ele>89.57142857142857</ele><time>2026-04-17T15:50:07.543Z</time></trkpt><trkpt lat="40.8880583" lon="14.2772217"><ele>89.71428571428572</ele><time>2026-04-17T15:50:08.542Z</time></trkpt><trkpt lat="40.8881083" lon="14.277275"><ele>89.85714285714285</ele><time>2026-04-17T15:50:09.538Z</time></trkpt><trkpt lat="40.888165" lon="14.2773233"><ele>90.0</ele><time>2026-04-17T15:50:10.538Z</time></trkpt><trkpt lat="40.8882267" lon="14.277365"><ele>90.0</ele><time>2026-04-17T15:50:11.539Z</time></trkpt><trkpt lat="40.88829" lon="14.2774033"><ele>90.0</ele><time>2026-04-17T15:50:12.538Z</time></trkpt><trkpt lat="40.8883467" lon="14.2774483"><ele>90.0</ele><time>2026-04-17T15:50:13.539Z</time></trkpt><trkpt lat="40.8884467" lon="14.27754"><ele>90.0</ele><time>2026-04-17T15:50:15.539Z</time></trkpt><trkpt lat="40.8885433" lon="14.2776167"><ele>90.0</ele><time>2026-04-17T15:50:17.54Z</time></trkpt><trkpt lat="40.8886417" lon="14.27768"><ele>90.0</ele><time>2026-04-17T15:50:19.541Z</time></trkpt><trkpt lat="40.8887283" lon="14.277735"><ele>90.0</ele><time>2026-04-17T15:50:21.539Z</time></trkpt><trkpt lat="40.8887983" lon="14.277785"><ele>90.0</ele><time>2026-04-17T15:50:23.54Z</time></trkpt><trkpt lat="40.8888667" lon="14.2778367"><ele>90.0</ele><time>2026-04-17T15:50:25.54Z</time></trkpt><trkpt lat="40.8889417" lon="14.2778767"><ele>90.0</ele><time>2026-04-17T15:50:27.538Z</time></trkpt><trkpt lat="40.8890333" lon="14.277895"><ele>90.0</ele><time>2026-04-17T15:50:29.538Z</time></trkpt><trkpt lat="40.8891367" lon="14.277925"><ele>90.0</ele><time>2026-04-17T15:50:31.539Z</time></trkpt><trkpt lat="40.8892333" lon="14.2779567"><ele>90.0</ele><time>2026-04-17T15:50:33.539Z</time></trkpt><trkpt lat="40.889345" lon="14.2779683"><ele>90.0</ele><time>2026-04-17T15:50:35.538Z</time></trkpt><trkpt lat="40.88945" lon="14.27799"><ele>90.0</ele><time>2026-04-17T15:50:37.54Z</time></trkpt><trkpt lat="40.8895567" lon="14.27801"><ele>90.0</ele><time>2026-04-17T15:50:39.539Z</time></trkpt><trkpt lat="40.8896533" lon="14.2780333"><ele>90.33333333333333</ele><time>2026-04-17T15:50:41.539Z</time></trkpt><trkpt lat="40.88973" lon="14.278085"><ele>90.66666666666667</ele><time>2026-04-17T15:50:44.539Z</time></trkpt><trkpt lat="40.8897833" lon="14.2781333"><ele>91.0</ele><time>2026-04-17T15:50:46.538Z</time></trkpt><trkpt lat="40.8898533" lon="14.27816"><ele>91.33333333333334</ele><time>2026-04-17T15:50:48.537Z</time></trkpt><trkpt lat="40.8899217" lon="14.278205"><ele>91.66666666666667</ele><time>2026-04-17T15:50:50.538Z</time></trkpt><trkpt lat="40.8899933" lon="14.278265"><ele>92.0</ele><time>2026-04-17T15:50:52.537Z</time></trkpt><trkpt lat="40.89009" lon="14.2783233"><ele>92.19999999999999</ele><time>2026-04-17T15:50:54.537Z</time></trkpt><trkpt lat="40.8901917" lon="14.27838"><ele>92.4</ele><time>2026-04-17T15:50:56.535Z</time></trkpt><trkpt lat="40.8903017" lon="14.278425"><ele>92.6</ele><time>2026-04-17T15:50:58.537Z</time></trkpt><trkpt lat="40.89041" lon="14.2784733"><ele>92.80000000000001</ele><time>2026-04-17T15:51:00.536Z</time></trkpt><trkpt lat="40.89051" lon="14.2785017"><ele>93.0</ele><time>2026-04-17T15:51:02.537Z</time></trkpt><trkpt lat="40.8905933" lon="14.2785267"><ele>93.0</ele><time>2026-04-17T15:51:04.537Z</time></trkpt><trkpt lat="40.8906717" lon="14.2785767"><ele>93.0</ele><time>2026-04-17T15:51:06.537Z</time></trkpt><trkpt lat="40.89076" lon="14.278605"><ele>93.0</ele><time>2026-04-17T15:51:08.539Z</time></trkpt><trkpt lat="40.8908483" lon="14.2786433"><ele>93.0</ele><time>2026-04-17T15:51:10.537Z</time></trkpt><trkpt lat="40.8909383" lon="14.2786967"><ele>93.0</ele><time>2026-04-17T15:51:12.538Z</time></trkpt><trkpt lat="40.8910283" lon="14.2787533"><ele>93.0</ele><time>2026-04-17T15:51:14.536Z</time></trkpt><trkpt lat="40.8911133" lon="14.2788167"><ele>93.0</ele><time>2026-04-17T15:51:16.536Z</time></trkpt><trkpt lat="40.8911983" lon="14.27887"><ele>93.0</ele><time>2026-04-17T15:51:18.537Z</time></trkpt><trkpt lat="40.8912833" lon="14.2789317"><ele>93.0</ele><time>2026-04-17T15:51:20.537Z</time></trkpt><trkpt lat="40.8913683" lon="14.2789783"><ele>93.0</ele><time>2026-04-17T15:51:22.536Z</time></trkpt><trkpt lat="40.891465" lon="14.2790383"><ele>92.5</ele><time>2026-04-17T15:51:24.536Z</time></trkpt><trkpt lat="40.89156" lon="14.27909"><ele>92.0</ele><time>2026-04-17T15:51:26.538Z</time></trkpt><trkpt lat="40.8916483" lon="14.2791467"><ele>91.5</ele><time>2026-04-17T15:51:28.538Z</time></trkpt><trkpt lat="40.891705" lon="14.2791867"><ele>91.0</ele><time>2026-04-17T15:51:30.536Z</time></trkpt><trkpt lat="40.8917683" lon="14.27925"><ele>90.5</ele><time>2026-04-17T15:51:36.538Z</time></trkpt><trkpt lat="40.8917767" lon="14.27935"><ele>90.0</ele><time>2026-04-17T15:51:39.537Z</time></trkpt><trkpt lat="40.8917117" lon="14.2794317"><ele>90.0</ele><time>2026-04-17T15:51:42.542Z</time></trkpt><trkpt lat="40.891655" lon="14.2794833"><ele>90.0</ele><time>2026-04-17T15:51:44.537Z</time></trkpt><trkpt lat="40.891585" lon="14.2795517"><ele>90.0</ele><time>2026-04-17T15:51:46.546Z</time></trkpt><trkpt lat="40.8915217" lon="14.2796183"><ele>90.0</ele><time>2026-04-17T15:51:48.536Z</time></trkpt><trkpt lat="40.8914533" lon="14.2796917"><ele>90.0</ele><time>2026-04-17T15:51:50.537Z</time></trkpt><trkpt lat="40.891375" lon="14.2797633"><ele>90.0</ele><time>2026-04-17T15:51:52.538Z</time></trkpt><trkpt lat="40.8912917" lon="14.2798333"><ele>89.4</ele><time>2026-04-17T15:51:54.538Z</time></trkpt><trkpt lat="40.8912083" lon="14.27991"><ele>88.8</ele><time>2026-04-17T15:51:56.537Z</time></trkpt><trkpt lat="40.8911267" lon="14.2799933"><ele>88.19999999999999</ele><time>2026-04-17T15:51:58.538Z</time></trkpt><trkpt lat="40.8910417" lon="14.280085"><ele>87.6</ele><time>2026-04-17T15:52:00.537Z</time></trkpt><trkpt lat="40.890945" lon="14.2801833"><ele>87.0</ele><time>2026-04-17T15:52:02.539Z</time></trkpt><trkpt lat="40.8908417" lon="14.2802733"><ele>86.83333333333333</ele><time>2026-04-17T15:52:04.537Z</time></trkpt><trkpt lat="40.8907883" lon="14.2803183"><ele>86.66666666666667</ele><time>2026-04-17T15:52:05.537Z</time></trkpt><trkpt lat="40.890735" lon="14.2803667"><ele>86.5</ele><time>2026-04-17T15:52:06.538Z</time></trkpt><trkpt lat="40.8906383" lon="14.28045"><ele>86.33333333333334</ele><time>2026-04-17T15:52:08.539Z</time></trkpt><trkpt lat="40.89056" lon="14.280525"><ele>86.16666666666667</ele><time>2026-04-17T15:52:10.538Z</time></trkpt><trkpt lat="40.8904883" lon="14.2805867"><ele>86.0</ele><time>2026-04-17T15:52:12.537Z</time></trkpt><trkpt lat="40.89056" lon="14.2805083"><ele>86.0</ele><time>2026-04-17T15:52:20.538Z</time></trkpt><trkpt lat="40.8906117" lon="14.2804533"><ele>86.0</ele><time>2026-04-17T15:52:22.538Z</time></trkpt><trkpt lat="40.8905517" lon="14.2805267"><ele>86.0</ele><time>2026-04-17T15:54:06.536Z</time></trkpt><trkpt lat="40.8904933" lon="14.2805883"><ele>86.0</ele><time>2026-04-17T15:54:08.537Z</time></trkpt><trkpt lat="40.8904233" lon="14.28065"><ele>86.0</ele><time>2026-04-17T15:54:10.537Z</time></trkpt><trkpt lat="40.89034" lon="14.28072"><ele>86.0</ele><time>2026-04-17T15:54:12.538Z</time></trkpt><trkpt lat="40.8902533" lon="14.2808"><ele>85.8</ele><time>2026-04-17T15:54:14.536Z</time></trkpt><trkpt lat="40.89017" lon="14.280885"><ele>85.6</ele><time>2026-04-17T15:54:16.537Z</time></trkpt><trkpt lat="40.8901367" lon="14.2809967"><ele>85.4</ele><time>2026-04-17T15:54:18.538Z</time></trkpt><trkpt lat="40.8901783" lon="14.2811233"><ele>85.2</ele><time>2026-04-17T15:54:20.538Z</time></trkpt><trkpt lat="40.8902567" lon="14.2812433"><ele>85.0</ele><time>2026-04-17T15:54:22.537Z</time></trkpt><trkpt lat="40.89034" lon="14.2813483"><ele>85.2</ele><time>2026-04-17T15:54:24.537Z</time></trkpt><trkpt lat="40.8904083" lon="14.2814617"><ele>85.4</ele><time>2026-04-17T15:54:26.537Z</time></trkpt><trkpt lat="40.8904767" lon="14.2815733"><ele>85.6</ele><time>2026-04-17T15:54:28.542Z</time></trkpt><trkpt lat="40.8905483" lon="14.2816817"><ele>85.8</ele><time>2026-04-17T15:54:30.537Z</time></trkpt><trkpt lat="40.8906233" lon="14.2817883"><ele>86.0</ele><time>2026-04-17T15:54:32.538Z</time></trkpt><trkpt lat="40.8906983" lon="14.2818933"><ele>86.0</ele><time>2026-04-17T15:54:34.538Z</time></trkpt><trkpt lat="40.8907683" lon="14.2820017"><ele>86.0</ele><time>2026-04-17T15:54:36.538Z</time></trkpt><trkpt lat="40.8908433" lon="14.2821033"><ele>86.0</ele><time>2026-04-17T15:54:38.537Z</time></trkpt><trkpt lat="40.8909133" lon="14.2822117"><ele>86.0</ele><time>2026-04-17T15:54:40.538Z</time></trkpt><trkpt lat="40.8909783" lon="14.2823283"><ele>86.0</ele><time>2026-04-17T15:54:42.538Z</time></trkpt><trkpt lat="40.891045" lon="14.28244"><ele>86.19999999999999</ele><time>2026-04-17T15:54:44.537Z</time></trkpt><trkpt lat="40.891125" lon="14.2825417"><ele>86.39999999999999</ele><time>2026-04-17T15:54:46.539Z</time></trkpt><trkpt lat="40.8912017" lon="14.2826267"><ele>86.6</ele><time>2026-04-17T15:54:48.537Z</time></trkpt><trkpt lat="40.891265" lon="14.282695"><ele>86.8</ele><time>2026-04-17T15:54:50.538Z</time></trkpt><trkpt lat="40.8912317" lon="14.2827967"><ele>87.0</ele><time>2026-04-17T15:54:52.538Z</time></trkpt><trkpt lat="40.891175" lon="14.2828883"><ele>87.0</ele><time>2026-04-17T15:54:54.538Z</time></trkpt><trkpt lat="40.89114" lon="14.2829767"><ele>87.0</ele><time>2026-04-17T15:54:56.538Z</time></trkpt><trkpt lat="40.8911633" lon="14.2830633"><ele>87.0</ele><time>2026-04-17T15:55:00.539Z</time></trkpt><trkpt lat="40.8912383" lon="14.2831233"><ele>87.0</ele><time>2026-04-17T15:55:03.538Z</time></trkpt><trkpt lat="40.891295" lon="14.2831667"><ele>87.0</ele><time>2026-04-17T15:55:05.538Z</time></trkpt><trkpt lat="40.891365" lon="14.283215"><ele>87.0</ele><time>2026-04-17T15:55:07.537Z</time></trkpt><trkpt lat="40.8914517" lon="14.2832617"><ele>86.6</ele><time>2026-04-17T15:55:09.537Z</time></trkpt><trkpt lat="40.8915467" lon="14.2833017"><ele>86.19999999999999</ele><time>2026-04-17T15:55:11.538Z</time></trkpt><trkpt lat="40.8916417" lon="14.283355"><ele>85.8</ele><time>2026-04-17T15:55:13.539Z</time></trkpt><trkpt lat="40.891735" lon="14.283405"><ele>85.4</ele><time>2026-04-17T15:55:15.539Z</time></trkpt><trkpt lat="40.8918283" lon="14.2834517"><ele>85.0</ele><time>2026-04-17T15:55:17.538Z</time></trkpt><trkpt lat="40.8919117" lon="14.2835183"><ele>85.0</ele><time>2026-04-17T15:55:19.539Z</time></trkpt><trkpt lat="40.8919883" lon="14.2836017"><ele>85.0</ele><time>2026-04-17T15:55:21.538Z</time></trkpt><trkpt lat="40.8920517" lon="14.2836983"><ele>85.0</ele><time>2026-04-17T15:55:23.538Z</time></trkpt><trkpt lat="40.8921233" lon="14.2837817"><ele>85.0</ele><time>2026-04-17T15:55:25.538Z</time></trkpt><trkpt lat="40.892205" lon="14.2838717"><ele>85.0</ele><time>2026-04-17T15:55:27.539Z</time></trkpt><trkpt lat="40.8922783" lon="14.28398"><ele>85.2</ele><time>2026-04-17T15:55:29.539Z</time></trkpt><trkpt lat="40.892365" lon="14.2840683"><ele>85.4</ele><time>2026-04-17T15:55:31.539Z</time></trkpt><trkpt lat="40.8924467" lon="14.28416"><ele>85.6</ele><time>2026-04-17T15:55:33.539Z</time></trkpt><trkpt lat="40.8925267" lon="14.2842567"><ele>85.8</ele><time>2026-04-17T15:55:35.539Z</time></trkpt><trkpt lat="40.8925967" lon="14.2843667"><ele>86.0</ele><time>2026-04-17T15:55:37.538Z</time></trkpt><trkpt lat="40.892665" lon="14.2844783"><ele>86.0</ele><time>2026-04-17T15:55:39.539Z</time></trkpt><trkpt lat="40.8927417" lon="14.28459"><ele>86.0</ele><time>2026-04-17T15:55:41.539Z</time></trkpt><trkpt lat="40.8928083" lon="14.28471"><ele>86.0</ele><time>2026-04-17T15:55:43.538Z</time></trkpt><trkpt lat="40.8928867" lon="14.2848167"><ele>86.0</ele><time>2026-04-17T15:55:45.536Z</time></trkpt><trkpt lat="40.8929617" lon="14.2849233"><ele>86.0</ele><time>2026-04-17T15:55:47.538Z</time></trkpt><trkpt lat="40.893015" lon="14.285045"><ele>85.83333333333334</ele><time>2026-04-17T15:55:49.539Z</time></trkpt><trkpt lat="40.8930783" lon="14.2851583"><ele>85.66666666666667</ele><time>2026-04-17T15:55:51.537Z</time></trkpt><trkpt lat="40.89312" lon="14.2852417"><ele>85.5</ele><time>2026-04-17T15:55:53.542Z</time></trkpt><trkpt lat="40.8931517" lon="14.285345"><ele>85.33333333333333</ele><time>2026-04-17T15:55:56.537Z</time></trkpt><trkpt lat="40.8931767" lon="14.2854217"><ele>85.16666666666666</ele><time>2026-04-17T15:55:58.537Z</time></trkpt><trkpt lat="40.8932083" lon="14.28551"><ele>85.0</ele><time>2026-04-17T15:56:00.537Z</time></trkpt><trkpt lat="40.89326" lon="14.2855983"><ele>84.4</ele><time>2026-04-17T15:56:02.537Z</time></trkpt><trkpt lat="40.893285" lon="14.2857267"><ele>83.8</ele><time>2026-04-17T15:56:04.539Z</time></trkpt><trkpt lat="40.8933" lon="14.2858467"><ele>83.19999999999999</ele><time>2026-04-17T15:56:06.538Z</time></trkpt><trkpt lat="40.8933267" lon="14.2859633"><ele>82.6</ele><time>2026-04-17T15:56:08.539Z</time></trkpt><trkpt lat="40.89337" lon="14.2860683"><ele>82.0</ele><time>2026-04-17T15:56:10.539Z</time></trkpt><trkpt lat="40.89341" lon="14.286185"><ele>81.8</ele><time>2026-04-17T15:56:12.539Z</time></trkpt><trkpt lat="40.8934483" lon="14.2863183"><ele>81.6</ele><time>2026-04-17T15:56:14.538Z</time></trkpt><trkpt lat="40.8934817" lon="14.2864533"><ele>81.39999999999999</ele><time>2026-04-17T15:56:16.537Z</time></trkpt><trkpt lat="40.8935183" lon="14.2865917"><ele>81.19999999999999</ele><time>2026-04-17T15:56:18.539Z</time></trkpt><trkpt lat="40.8935567" lon="14.2867217"><ele>81.0</ele><time>2026-04-17T15:56:20.538Z</time></trkpt><trkpt lat="40.8935917" lon="14.2868533"><ele>80.8</ele><time>2026-04-17T15:56:22.537Z</time></trkpt><trkpt lat="40.8936267" lon="14.2869667"><ele>80.6</ele><time>2026-04-17T15:56:24.537Z</time></trkpt><trkpt lat="40.8936583" lon="14.2870883"><ele>80.4</ele><time>2026-04-17T15:56:26.537Z</time></trkpt><trkpt lat="40.8936967" lon="14.2872"><ele>80.2</ele><time>2026-04-17T15:56:28.539Z</time></trkpt><trkpt lat="40.8937333" lon="14.2873083"><ele>80.0</ele><time>2026-04-17T15:56:30.538Z</time></trkpt><trkpt lat="40.8937733" lon="14.28741"><ele>80.0</ele><time>2026-04-17T15:56:32.539Z</time></trkpt><trkpt lat="40.893745" lon="14.287505"><ele>80.0</ele><time>2026-04-17T15:56:34.537Z</time></trkpt><trkpt lat="40.89369" lon="14.2875767"><ele>80.0</ele><time>2026-04-17T15:56:36.537Z</time></trkpt><trkpt lat="40.8936117" lon="14.287625"><ele>80.0</ele><time>2026-04-17T15:56:38.536Z</time></trkpt><trkpt lat="40.893575" lon="14.287715"><ele>80.0</ele><time>2026-04-17T15:56:40.536Z</time></trkpt><trkpt lat="40.8936133" lon="14.2878167"><ele>80.0</ele><time>2026-04-17T15:56:42.537Z</time></trkpt><trkpt lat="40.8936517" lon="14.2879117"><ele>80.0</ele><time>2026-04-17T15:56:44.537Z</time></trkpt><trkpt lat="40.8937767" lon="14.2879383"><ele>80.0</ele><time>2026-04-17T15:57:02.539Z</time></trkpt><trkpt lat="40.8938533" lon="14.2879267"><ele>80.0</ele><time>2026-04-17T15:57:06.541Z</time></trkpt><trkpt lat="40.893925" lon="14.287825"><ele>80.0</ele><time>2026-04-17T15:57:33.535Z</time></trkpt><trkpt lat="40.8937833" lon="14.287975"><ele>80.0</ele><time>2026-04-17T15:58:01.539Z</time></trkpt><trkpt lat="40.8937033" lon="14.287985"><ele>80.0</ele><time>2026-04-17T15:58:03.539Z</time></trkpt><trkpt lat="40.8936083" lon="14.2880383"><ele>80.0</ele><time>2026-04-17T15:58:11.539Z</time></trkpt><trkpt lat="40.8935383" lon="14.2881167"><ele>79.0</ele><time>2026-04-17T15:58:13.538Z</time></trkpt><trkpt lat="40.8934683" lon="14.2882"><ele>79.0</ele><time>2026-04-17T15:58:15.536Z</time></trkpt></trkseg></trk></gpx>